<?xml version='1.0' encoding='UTF-8'?><gpx version="1.1" creator="JPX - https://github.com/jenetics/jpx" xmlns="http://www.topografix.com/GPX/1/1"><trk><trkseg><trkpt lat="45.9950069" lon="11.7596129"><ele>636.0</ele><time>2026-04-26T10:12:18.542Z</time></trkpt><trkpt lat="45.994944" lon="11.7596076"><ele>636.0</ele><time>2026-04-26T10:12:23.556Z</time></trkpt><trkpt lat="45.9949986" lon="11.7596561"><ele>636.0</ele><time>2026-04-26T10:12:41.533Z</time></trkpt><trkpt lat="45.995029" lon="11.7598065"><ele>636.0</ele><time>2026-04-26T10:13:06.533Z</time></trkpt><trkpt lat="45.9949932" lon="11.7599111"><ele>636.0</ele><time>2026-04-26T10:13:10.541Z</time></trkpt><trkpt lat="45.9949127" lon="11.7599117"><ele>636.0</ele><time>2026-04-26T10:13:12.553Z</time></trkpt><trkpt lat="45.9948445" lon="11.7598734"><ele>631.3333333333334</ele><time>2026-04-26T10:13:14.537Z</time></trkpt><trkpt lat="45.9947874" lon="11.7598054"><ele>626.6666666666666</ele><time>2026-04-26T10:13:16.522Z</time></trkpt><trkpt lat="45.9947415" lon="11.759711"><ele>622.0</ele><time>2026-04-26T10:13:18.538Z</time></trkpt><trkpt lat="45.9947095" lon="11.7596227"><ele>617.3333333333333</ele><time>2026-04-26T10:13:20.546Z</time></trkpt><trkpt lat="45.9946932" lon="11.7595205"><ele>612.6666666666666</ele><time>2026-04-26T10:13:23.536Z</time></trkpt><trkpt lat="45.994662" lon="11.7594211"><ele>608.0</ele><time>2026-04-26T10:13:26.868Z</time></trkpt><trkpt lat="45.9946235" lon="11.7592796"><ele>608.0</ele><time>2026-04-26T10:13:29.319Z</time></trkpt><trkpt lat="45.9946862" lon="11.7590439"><ele>608.0</ele><time>2026-04-26T10:13:30.595Z</time></trkpt><trkpt lat="45.9946799" lon="11.7589432"><ele>608.0</ele><time>2026-04-26T10:13:31.574Z</time></trkpt><trkpt lat="45.9946461" lon="11.7587733"><ele>608.0</ele><time>2026-04-26T10:13:33.611Z</time></trkpt><trkpt lat="45.9946052" lon="11.7586079"><ele>609.4</ele><time>2026-04-26T10:13:35.605Z</time></trkpt><trkpt lat="45.9945546" lon="11.7584396"><ele>610.8</ele><time>2026-04-26T10:13:37.605Z</time></trkpt><trkpt lat="45.994495" lon="11.7583123"><ele>612.2</ele><time>2026-04-26T10:13:39.606Z</time></trkpt><trkpt lat="45.9944551" lon="11.7582329"><ele>613.6</ele><time>2026-04-26T10:13:41.604Z</time></trkpt><trkpt lat="45.9944131" lon="11.7581088"><ele>615.0</ele><time>2026-04-26T10:13:43.61Z</time></trkpt><trkpt lat="45.9943893" lon="11.7580143"><ele>615.0</ele><time>2026-04-26T10:13:44.613Z</time></trkpt><trkpt lat="45.9943641" lon="11.7579271"><ele>615.0</ele><time>2026-04-26T10:13:45.6Z</time></trkpt><trkpt lat="45.9943347" lon="11.7578352"><ele>615.0</ele><time>2026-04-26T10:13:46.619Z</time></trkpt><trkpt lat="45.9943053" lon="11.7577466"><ele>615.0</ele><time>2026-04-26T10:13:47.589Z</time></trkpt><trkpt lat="45.9942746" lon="11.7576574"><ele>615.0</ele><time>2026-04-26T10:13:48.601Z</time></trkpt><trkpt lat="45.994243" lon="11.7575683"><ele>615.0</ele><time>2026-04-26T10:13:49.607Z</time></trkpt><trkpt lat="45.9942153" lon="11.7574753"><ele>615.0</ele><time>2026-04-26T10:13:50.6Z</time></trkpt><trkpt lat="45.9941926" lon="11.7573793"><ele>614.0</ele><time>2026-04-26T10:13:51.588Z</time></trkpt><trkpt lat="45.9941732" lon="11.7572772"><ele>613.0</ele><time>2026-04-26T10:13:52.585Z</time></trkpt><trkpt lat="45.9941567" lon="11.7571706"><ele>612.0</ele><time>2026-04-26T10:13:53.594Z</time></trkpt><trkpt lat="45.9941498" lon="11.7570709"><ele>611.0</ele><time>2026-04-26T10:13:54.624Z</time></trkpt><trkpt lat="45.9941486" lon="11.7569755"><ele>610.0</ele><time>2026-04-26T10:13:55.598Z</time></trkpt><trkpt lat="45.9941547" lon="11.7568678"><ele>609.0</ele><time>2026-04-26T10:13:56.603Z</time></trkpt><trkpt lat="45.9941583" lon="11.7567492"><ele>608.0</ele><time>2026-04-26T10:13:57.603Z</time></trkpt><trkpt lat="45.9941621" lon="11.7566345"><ele>608.0</ele><time>2026-04-26T10:13:58.599Z</time></trkpt><trkpt lat="45.9941656" lon="11.7565284"><ele>608.0</ele><time>2026-04-26T10:13:59.589Z</time></trkpt><trkpt lat="45.994171" lon="11.7564236"><ele>608.0</ele><time>2026-04-26T10:14:00.601Z</time></trkpt><trkpt lat="45.9941811" lon="11.7563194"><ele>608.0</ele><time>2026-04-26T10:14:01.595Z</time></trkpt><trkpt lat="45.9941928" lon="11.756218"><ele>608.0</ele><time>2026-04-26T10:14:02.6Z</time></trkpt><trkpt lat="45.9942009" lon="11.7561151"><ele>608.0</ele><time>2026-04-26T10:14:03.604Z</time></trkpt><trkpt lat="45.9942055" lon="11.7560087"><ele>608.0</ele><time>2026-04-26T10:14:04.616Z</time></trkpt><trkpt lat="45.9942148" lon="11.7559068"><ele>612.8571428571428</ele><time>2026-04-26T10:14:05.596Z</time></trkpt><trkpt lat="45.9942313" lon="11.755811"><ele>617.7142857142858</ele><time>2026-04-26T10:14:06.592Z</time></trkpt><trkpt lat="45.9942645" lon="11.7557337"><ele>622.5714285714286</ele><time>2026-04-26T10:14:07.613Z</time></trkpt><trkpt lat="45.9943183" lon="11.7556794"><ele>627.4285714285713</ele><time>2026-04-26T10:14:08.604Z</time></trkpt><trkpt lat="45.9943799" lon="11.7556358"><ele>632.2857142857142</ele><time>2026-04-26T10:14:09.605Z</time></trkpt><trkpt lat="45.99443" lon="11.7555782"><ele>637.1428571428571</ele><time>2026-04-26T10:14:10.587Z</time></trkpt><trkpt lat="45.9944589" lon="11.7554926"><ele>642.0</ele><time>2026-04-26T10:14:11.593Z</time></trkpt><trkpt lat="45.9944609" lon="11.7553968"><ele>641.9999999999999</ele><time>2026-04-26T10:14:12.58Z</time></trkpt><trkpt lat="45.9944461" lon="11.7553023"><ele>642.0</ele><time>2026-04-26T10:14:13.584Z</time></trkpt><trkpt lat="45.9944389" lon="11.7552088"><ele>642.0</ele><time>2026-04-26T10:14:14.604Z</time></trkpt><trkpt lat="45.9944475" lon="11.7551141"><ele>642.0</ele><time>2026-04-26T10:14:15.615Z</time></trkpt><trkpt lat="45.9944648" lon="11.7550216"><ele>642.0</ele><time>2026-04-26T10:14:16.604Z</time></trkpt><trkpt lat="45.9944779" lon="11.7549178"><ele>641.9999999999999</ele><time>2026-04-26T10:14:17.626Z</time></trkpt><trkpt lat="45.9944804" lon="11.7548149"><ele>642.0</ele><time>2026-04-26T10:14:18.603Z</time></trkpt><trkpt lat="45.9944704" lon="11.7547105"><ele>641.8571428571428</ele><time>2026-04-26T10:14:19.616Z</time></trkpt><trkpt lat="45.9944525" lon="11.7546142"><ele>641.7142857142857</ele><time>2026-04-26T10:14:20.598Z</time></trkpt><trkpt lat="45.9944287" lon="11.7545185"><ele>641.5714285714286</ele><time>2026-04-26T10:14:21.582Z</time></trkpt><trkpt lat="45.9944106" lon="11.7544115"><ele>641.4285714285713</ele><time>2026-04-26T10:14:22.613Z</time></trkpt><trkpt lat="45.99441" lon="11.7543063"><ele>641.2857142857142</ele><time>2026-04-26T10:14:23.605Z</time></trkpt><trkpt lat="45.994413" lon="11.7542004"><ele>641.1428571428571</ele><time>2026-04-26T10:14:24.585Z</time></trkpt><trkpt lat="45.9944152" lon="11.7540881"><ele>641.0</ele><time>2026-04-26T10:14:25.612Z</time></trkpt><trkpt lat="45.9944163" lon="11.7539798"><ele>642.1666666666666</ele><time>2026-04-26T10:14:26.615Z</time></trkpt><trkpt lat="45.9944147" lon="11.7538744"><ele>643.3333333333333</ele><time>2026-04-26T10:14:27.601Z</time></trkpt><trkpt lat="45.9944085" lon="11.7537647"><ele>644.5</ele><time>2026-04-26T10:14:28.613Z</time></trkpt><trkpt lat="45.9943928" lon="11.7536503"><ele>645.6666666666666</ele><time>2026-04-26T10:14:29.602Z</time></trkpt><trkpt lat="45.9943706" lon="11.7535056"><ele>646.8333333333334</ele><time>2026-04-26T10:14:30.592Z</time></trkpt><trkpt lat="45.9943663" lon="11.7533696"><ele>648.0</ele><time>2026-04-26T10:14:31.608Z</time></trkpt><trkpt lat="45.994401" lon="11.7532698"><ele>649.5999999999999</ele><time>2026-04-26T10:14:33.613Z</time></trkpt><trkpt lat="45.9944244" lon="11.7531012"><ele>651.1999999999999</ele><time>2026-04-26T10:14:35.606Z</time></trkpt><trkpt lat="45.994441" lon="11.7529284"><ele>652.8</ele><time>2026-04-26T10:14:37.601Z</time></trkpt><trkpt lat="45.9944543" lon="11.7528324"><ele>654.4</ele><time>2026-04-26T10:14:38.597Z</time></trkpt><trkpt lat="45.9944672" lon="11.7527298"><ele>656.0</ele><time>2026-04-26T10:14:39.592Z</time></trkpt><trkpt lat="45.9944799" lon="11.7526174"><ele>656.0</ele><time>2026-04-26T10:14:40.612Z</time></trkpt><trkpt lat="45.9944941" lon="11.7525035"><ele>656.0</ele><time>2026-04-26T10:14:41.617Z</time></trkpt><trkpt lat="45.9945102" lon="11.7523938"><ele>656.0</ele><time>2026-04-26T10:14:42.605Z</time></trkpt><trkpt lat="45.9945288" lon="11.7522801"><ele>656.0</ele><time>2026-04-26T10:14:43.6Z</time></trkpt><trkpt lat="45.9945481" lon="11.7521637"><ele>656.0</ele><time>2026-04-26T10:14:44.604Z</time></trkpt><trkpt lat="45.9945702" lon="11.7520472"><ele>656.0</ele><time>2026-04-26T10:14:45.608Z</time></trkpt><trkpt lat="45.9945951" lon="11.7519313"><ele>655.5</ele><time>2026-04-26T10:14:46.603Z</time></trkpt><trkpt lat="45.9946189" lon="11.7518127"><ele>655.0</ele><time>2026-04-26T10:14:47.605Z</time></trkpt><trkpt lat="45.9946434" lon="11.7516947"><ele>654.5</ele><time>2026-04-26T10:14:48.601Z</time></trkpt><trkpt lat="45.9946701" lon="11.7515772"><ele>654.0</ele><time>2026-04-26T10:14:49.601Z</time></trkpt><trkpt lat="45.994696" lon="11.7514633"><ele>653.5</ele><time>2026-04-26T10:14:50.598Z</time></trkpt><trkpt lat="45.9947225" lon="11.7513529"><ele>653.0</ele><time>2026-04-26T10:14:51.58Z</time></trkpt><trkpt lat="45.9947502" lon="11.7512396"><ele>653.0</ele><time>2026-04-26T10:14:52.6Z</time></trkpt><trkpt lat="45.9947752" lon="11.7511275"><ele>653.0</ele><time>2026-04-26T10:14:53.595Z</time></trkpt><trkpt lat="45.9948018" lon="11.7510136"><ele>653.0</ele><time>2026-04-26T10:14:54.611Z</time></trkpt><trkpt lat="45.9948336" lon="11.7509056"><ele>653.0</ele><time>2026-04-26T10:14:55.596Z</time></trkpt><trkpt lat="45.9948731" lon="11.750801"><ele>653.0</ele><time>2026-04-26T10:14:56.6Z</time></trkpt><trkpt lat="45.9949199" lon="11.7507043"><ele>653.0</ele><time>2026-04-26T10:14:57.602Z</time></trkpt><trkpt lat="45.9949683" lon="11.7506147"><ele>660.3333333333333</ele><time>2026-04-26T10:14:58.551Z</time></trkpt><trkpt lat="45.9950223" lon="11.7505272"><ele>667.6666666666666</ele><time>2026-04-26T10:14:59.56Z</time></trkpt><trkpt lat="45.9950682" lon="11.7504402"><ele>675.0</ele><time>2026-04-26T10:15:00.538Z</time></trkpt><trkpt lat="45.9951041" lon="11.7503435"><ele>682.3333333333334</ele><time>2026-04-26T10:15:01.557Z</time></trkpt><trkpt lat="45.9951199" lon="11.7502364"><ele>689.6666666666667</ele><time>2026-04-26T10:15:02.55Z</time></trkpt><trkpt lat="45.995124" lon="11.7501243"><ele>697.0</ele><time>2026-04-26T10:15:03.55Z</time></trkpt><trkpt lat="45.9951189" lon="11.7500153"><ele>697.0</ele><time>2026-04-26T10:15:04.568Z</time></trkpt><trkpt lat="45.995115" lon="11.7499064"><ele>697.0</ele><time>2026-04-26T10:15:05.542Z</time></trkpt><trkpt lat="45.9951168" lon="11.7497797"><ele>697.0</ele><time>2026-04-26T10:15:06.54Z</time></trkpt><trkpt lat="45.9951249" lon="11.749643"><ele>697.0</ele><time>2026-04-26T10:15:07.552Z</time></trkpt><trkpt lat="45.9951285" lon="11.7495134"><ele>697.0</ele><time>2026-04-26T10:15:08.544Z</time></trkpt><trkpt lat="45.9951375" lon="11.749388"><ele>697.0</ele><time>2026-04-26T10:15:09.552Z</time></trkpt><trkpt lat="45.995152" lon="11.749264"><ele>696.1666666666667</ele><time>2026-04-26T10:15:10.559Z</time></trkpt><trkpt lat="45.9951709" lon="11.7491506"><ele>695.3333333333334</ele><time>2026-04-26T10:15:11.535Z</time></trkpt><trkpt lat="45.9951939" lon="11.7490462"><ele>694.5</ele><time>2026-04-26T10:15:12.552Z</time></trkpt><trkpt lat="45.9952243" lon="11.7489464"><ele>693.6666666666666</ele><time>2026-04-26T10:15:13.553Z</time></trkpt><trkpt lat="45.995262" lon="11.7488481"><ele>692.8333333333333</ele><time>2026-04-26T10:15:14.534Z</time></trkpt><trkpt lat="45.9953" lon="11.7487522"><ele>692.0</ele><time>2026-04-26T10:15:15.533Z</time></trkpt><trkpt lat="45.9953386" lon="11.7486573"><ele>692.0</ele><time>2026-04-26T10:15:16.508Z</time></trkpt><trkpt lat="45.9953828" lon="11.7485548"><ele>692.0</ele><time>2026-04-26T10:15:17.552Z</time></trkpt><trkpt lat="45.9954221" lon="11.7484565"><ele>692.0</ele><time>2026-04-26T10:15:18.546Z</time></trkpt><trkpt lat="45.995469" lon="11.7483713"><ele>692.0</ele><time>2026-04-26T10:15:19.544Z</time></trkpt><trkpt lat="45.9955101" lon="11.7482833"><ele>692.0</ele><time>2026-04-26T10:15:20.556Z</time></trkpt><trkpt lat="45.9955969" lon="11.7481009"><ele>689.0</ele><time>2026-04-26T10:15:22.597Z</time></trkpt><trkpt lat="45.9956426" lon="11.7480105"><ele>686.0</ele><time>2026-04-26T10:15:23.561Z</time></trkpt><trkpt lat="45.9956926" lon="11.7479211"><ele>683.0</ele><time>2026-04-26T10:15:24.595Z</time></trkpt><trkpt lat="45.995741" lon="11.7478413"><ele>680.0</ele><time>2026-04-26T10:15:25.605Z</time></trkpt><trkpt lat="45.9958197" lon="11.7477206"><ele>677.0</ele><time>2026-04-26T10:15:27.597Z</time></trkpt><trkpt lat="45.9958733" lon="11.7476123"><ele>674.0</ele><time>2026-04-26T10:15:29.605Z</time></trkpt><trkpt lat="45.9959382" lon="11.7475151"><ele>674.0000000000001</ele><time>2026-04-26T10:15:31.596Z</time></trkpt><trkpt lat="45.9960234" lon="11.747408"><ele>674.0</ele><time>2026-04-26T10:15:33.606Z</time></trkpt><trkpt lat="45.996072" lon="11.7473437"><ele>674.0</ele><time>2026-04-26T10:15:34.585Z</time></trkpt><trkpt lat="45.9961203" lon="11.747278"><ele>674.0</ele><time>2026-04-26T10:15:35.561Z</time></trkpt><trkpt lat="45.9961674" lon="11.7472151"><ele>674.0</ele><time>2026-04-26T10:15:36.554Z</time></trkpt><trkpt lat="45.9962204" lon="11.7471627"><ele>674.0000000000001</ele><time>2026-04-26T10:15:37.528Z</time></trkpt><trkpt lat="45.9962786" lon="11.7471111"><ele>674.0</ele><time>2026-04-26T10:15:38.536Z</time></trkpt><trkpt lat="45.9963357" lon="11.7470669"><ele>674.0</ele><time>2026-04-26T10:15:39.536Z</time></trkpt><trkpt lat="45.9963949" lon="11.7470246"><ele>674.0</ele><time>2026-04-26T10:15:40.543Z</time></trkpt><trkpt lat="45.9964613" lon="11.7469872"><ele>674.0</ele><time>2026-04-26T10:15:41.551Z</time></trkpt><trkpt lat="45.9965271" lon="11.7469379"><ele>674.0</ele><time>2026-04-26T10:15:42.544Z</time></trkpt><trkpt lat="45.9966032" lon="11.7469071"><ele>674.0</ele><time>2026-04-26T10:15:43.554Z</time></trkpt><trkpt lat="45.9966881" lon="11.7469082"><ele>674.0</ele><time>2026-04-26T10:15:44.554Z</time></trkpt><trkpt lat="45.9967682" lon="11.7469323"><ele>675.5</ele><time>2026-04-26T10:15:45.537Z</time></trkpt><trkpt lat="45.9968457" lon="11.7469831"><ele>677.0</ele><time>2026-04-26T10:15:46.541Z</time></trkpt><trkpt lat="45.9969094" lon="11.7470465"><ele>678.5</ele><time>2026-04-26T10:15:47.552Z</time></trkpt><trkpt lat="45.9969766" lon="11.747114"><ele>680.0</ele><time>2026-04-26T10:15:48.553Z</time></trkpt><trkpt lat="45.9970444" lon="11.7471687"><ele>681.5</ele><time>2026-04-26T10:15:49.55Z</time></trkpt><trkpt lat="45.9971134" lon="11.7472006"><ele>683.0</ele><time>2026-04-26T10:15:50.56Z</time></trkpt><trkpt lat="45.9971815" lon="11.7472137"><ele>683.0</ele><time>2026-04-26T10:15:51.532Z</time></trkpt><trkpt lat="45.9972543" lon="11.747218"><ele>683.0</ele><time>2026-04-26T10:15:52.559Z</time></trkpt><trkpt lat="45.9973222" lon="11.7472176"><ele>683.0</ele><time>2026-04-26T10:15:53.556Z</time></trkpt><trkpt lat="45.9973976" lon="11.7471413"><ele>683.0</ele><time>2026-04-26T10:15:55.541Z</time></trkpt><trkpt lat="45.9973984" lon="11.7469648"><ele>683.0</ele><time>2026-04-26T10:15:57.569Z</time></trkpt><trkpt lat="45.9973961" lon="11.7468723"><ele>683.0</ele><time>2026-04-26T10:15:58.549Z</time></trkpt><trkpt lat="45.9974326" lon="11.746712"><ele>680.5999999999999</ele><time>2026-04-26T10:16:00.55Z</time></trkpt><trkpt lat="45.9975089" lon="11.746592"><ele>678.1999999999999</ele><time>2026-04-26T10:16:02.543Z</time></trkpt><trkpt lat="45.9976166" lon="11.746568"><ele>675.8</ele><time>2026-04-26T10:16:04.562Z</time></trkpt><trkpt lat="45.9977071" lon="11.7465767"><ele>673.4</ele><time>2026-04-26T10:16:06.538Z</time></trkpt><trkpt lat="45.9977797" lon="11.7465597"><ele>671.0</ele><time>2026-04-26T10:16:08.565Z</time></trkpt><trkpt lat="45.9978487" lon="11.7465326"><ele>671.0</ele><time>2026-04-26T10:16:10.542Z</time></trkpt><trkpt lat="45.9980318" lon="11.7464736"><ele>671.0</ele><time>2026-04-26T10:16:16.548Z</time></trkpt><trkpt lat="45.998105" lon="11.7464376"><ele>671.0</ele><time>2026-04-26T10:16:17.549Z</time></trkpt><trkpt lat="45.9982153" lon="11.7464001"><ele>671.0</ele><time>2026-04-26T10:16:19.537Z</time></trkpt><trkpt lat="45.9983251" lon="11.7463806"><ele>672.1999999999999</ele><time>2026-04-26T10:16:21.545Z</time></trkpt><trkpt lat="45.9984561" lon="11.746364"><ele>673.4</ele><time>2026-04-26T10:16:23.54Z</time></trkpt><trkpt lat="45.9985223" lon="11.7463682"><ele>674.6</ele><time>2026-04-26T10:16:24.557Z</time></trkpt><trkpt lat="45.9986447" lon="11.7464211"><ele>675.8</ele><time>2026-04-26T10:16:26.548Z</time></trkpt><trkpt lat="45.9987021" lon="11.7464584"><ele>677.0</ele><time>2026-04-26T10:16:27.547Z</time></trkpt><trkpt lat="45.9988027" lon="11.746536"><ele>676.9999999999999</ele><time>2026-04-26T10:16:29.538Z</time></trkpt><trkpt lat="45.9988578" lon="11.7465826"><ele>677.0</ele><time>2026-04-26T10:16:30.565Z</time></trkpt><trkpt lat="45.9989238" lon="11.746607"><ele>677.0</ele><time>2026-04-26T10:16:31.554Z</time></trkpt><trkpt lat="45.9989915" lon="11.7466125"><ele>677.0</ele><time>2026-04-26T10:16:32.533Z</time></trkpt><trkpt lat="45.9990642" lon="11.7465957"><ele>677.0</ele><time>2026-04-26T10:16:33.548Z</time></trkpt><trkpt lat="45.9991368" lon="11.7465602"><ele>676.9999999999999</ele><time>2026-04-26T10:16:34.548Z</time></trkpt><trkpt lat="45.9992194" lon="11.7465248"><ele>677.0</ele><time>2026-04-26T10:16:35.545Z</time></trkpt><trkpt lat="45.9993025" lon="11.7464809"><ele>678.8</ele><time>2026-04-26T10:16:36.552Z</time></trkpt><trkpt lat="45.9993849" lon="11.7464287"><ele>680.6</ele><time>2026-04-26T10:16:37.553Z</time></trkpt><trkpt lat="45.999471" lon="11.7463748"><ele>682.4</ele><time>2026-04-26T10:16:38.557Z</time></trkpt><trkpt lat="45.9995609" lon="11.7463186"><ele>684.1999999999999</ele><time>2026-04-26T10:16:39.555Z</time></trkpt><trkpt lat="45.9996372" lon="11.7462698"><ele>686.0</ele><time>2026-04-26T10:16:40.547Z</time></trkpt><trkpt lat="45.9997208" lon="11.7462232"><ele>686.0</ele><time>2026-04-26T10:16:41.538Z</time></trkpt><trkpt lat="45.9998055" lon="11.7461717"><ele>686.0</ele><time>2026-04-26T10:16:42.544Z</time></trkpt><trkpt lat="45.9998842" lon="11.746109"><ele>686.0</ele><time>2026-04-26T10:16:43.561Z</time></trkpt><trkpt lat="45.9999607" lon="11.7460595"><ele>686.0</ele><time>2026-04-26T10:16:44.543Z</time></trkpt><trkpt lat="46.0000412" lon="11.7460155"><ele>686.0</ele><time>2026-04-26T10:16:45.553Z</time></trkpt><trkpt lat="46.0001224" lon="11.7459827"><ele>686.0</ele><time>2026-04-26T10:16:46.552Z</time></trkpt><trkpt lat="46.0002092" lon="11.7459794"><ele>686.0</ele><time>2026-04-26T10:16:47.546Z</time></trkpt><trkpt lat="46.0002995" lon="11.7459943"><ele>686.0</ele><time>2026-04-26T10:16:48.57Z</time></trkpt><trkpt lat="46.0003828" lon="11.7460121"><ele>686.0</ele><time>2026-04-26T10:16:49.545Z</time></trkpt><trkpt lat="46.0004713" lon="11.7460479"><ele>686.0</ele><time>2026-04-26T10:16:50.564Z</time></trkpt><trkpt lat="46.000552" lon="11.7460945"><ele>686.0</ele><time>2026-04-26T10:16:51.537Z</time></trkpt><trkpt lat="46.0006339" lon="11.7461482"><ele>686.0</ele><time>2026-04-26T10:16:52.571Z</time></trkpt><trkpt lat="46.0007276" lon="11.746205"><ele>688.25</ele><time>2026-04-26T10:16:53.536Z</time></trkpt><trkpt lat="46.0008405" lon="11.7462401"><ele>690.5</ele><time>2026-04-26T10:16:54.558Z</time></trkpt><trkpt lat="46.0009476" lon="11.7462181"><ele>692.75</ele><time>2026-04-26T10:16:55.565Z</time></trkpt><trkpt lat="46.0010654" lon="11.7461696"><ele>695.0</ele><time>2026-04-26T10:16:56.531Z</time></trkpt><trkpt lat="46.0011962" lon="11.7461031"><ele>691.4</ele><time>2026-04-26T10:16:57.546Z</time></trkpt><trkpt lat="46.0013098" lon="11.7460373"><ele>687.8</ele><time>2026-04-26T10:16:58.54Z</time></trkpt><trkpt lat="46.0013858" lon="11.7460064"><ele>684.2</ele><time>2026-04-26T10:17:00.557Z</time></trkpt><trkpt lat="46.0014693" lon="11.7459657"><ele>680.6</ele><time>2026-04-26T10:17:01.556Z</time></trkpt><trkpt lat="46.0015642" lon="11.7458937"><ele>677.0</ele><time>2026-04-26T10:17:02.557Z</time></trkpt><trkpt lat="46.0016213" lon="11.7458555"><ele>682.0</ele><time>2026-04-26T10:17:04.549Z</time></trkpt><trkpt lat="46.0020296" lon="11.7457982"><ele>687.0</ele><time>2026-04-26T10:17:07.549Z</time></trkpt><trkpt lat="46.0021987" lon="11.7457678"><ele>687.0</ele><time>2026-04-26T10:17:08.557Z</time></trkpt><trkpt lat="46.002334" lon="11.7457673"><ele>687.0</ele><time>2026-04-26T10:17:09.548Z</time></trkpt><trkpt lat="46.002405" lon="11.7457364"><ele>687.0</ele><time>2026-04-26T10:17:11.55Z</time></trkpt><trkpt lat="46.0026747" lon="11.7456678"><ele>692.3333333333334</ele><time>2026-04-26T10:17:14.587Z</time></trkpt><trkpt lat="46.0029327" lon="11.7456151"><ele>697.6666666666667</ele><time>2026-04-26T10:17:15.51Z</time></trkpt><trkpt lat="46.0030839" lon="11.7455723"><ele>703.0</ele><time>2026-04-26T10:17:16.446Z</time></trkpt><trkpt lat="46.0031768" lon="11.7455154"><ele>703.0</ele><time>2026-04-26T10:17:17.588Z</time></trkpt><trkpt lat="46.0032007" lon="11.7454248"><ele>703.0</ele><time>2026-04-26T10:17:19.552Z</time></trkpt><trkpt lat="46.0035178" lon="11.7453086"><ele>703.0</ele><time>2026-04-26T10:17:23.534Z</time></trkpt><trkpt lat="46.0037051" lon="11.7452497"><ele>707.0</ele><time>2026-04-26T10:17:24.559Z</time></trkpt><trkpt lat="46.0039542" lon="11.745208"><ele>711.0</ele><time>2026-04-26T10:17:25.559Z</time></trkpt><trkpt lat="46.004074" lon="11.7451792"><ele>715.0</ele><time>2026-04-26T10:17:26.553Z</time></trkpt><trkpt lat="46.0041618" lon="11.7451415"><ele>721.0</ele><time>2026-04-26T10:17:28.557Z</time></trkpt><trkpt lat="46.0042384" lon="11.7450789"><ele>727.0</ele><time>2026-04-26T10:17:31.55Z</time></trkpt><trkpt lat="46.0043202" lon="11.7451074"><ele>733.0</ele><time>2026-04-26T10:17:34.539Z</time></trkpt><trkpt lat="46.0047109" lon="11.7449892"><ele>733.0</ele><time>2026-04-26T10:17:40.555Z</time></trkpt><trkpt lat="46.0048614" lon="11.7449176"><ele>733.0</ele><time>2026-04-26T10:17:41.544Z</time></trkpt><trkpt lat="46.0049821" lon="11.7448725"><ele>733.0</ele><time>2026-04-26T10:17:42.528Z</time></trkpt><trkpt lat="46.0051017" lon="11.7448386"><ele>733.0</ele><time>2026-04-26T10:17:43.541Z</time></trkpt><trkpt lat="46.0052108" lon="11.7448074"><ele>738.4</ele><time>2026-04-26T10:17:44.539Z</time></trkpt><trkpt lat="46.0053204" lon="11.7447787"><ele>743.8</ele><time>2026-04-26T10:17:45.565Z</time></trkpt><trkpt lat="46.0054179" lon="11.7447717"><ele>749.2</ele><time>2026-04-26T10:17:46.552Z</time></trkpt><trkpt lat="46.0055039" lon="11.7447979"><ele>754.6</ele><time>2026-04-26T10:17:47.561Z</time></trkpt><trkpt lat="46.0055945" lon="11.7448156"><ele>760.0</ele><time>2026-04-26T10:17:48.548Z</time></trkpt><trkpt lat="46.005685" lon="11.7448113"><ele>760.0</ele><time>2026-04-26T10:17:49.554Z</time></trkpt><trkpt lat="46.0057754" lon="11.7447776"><ele>760.0</ele><time>2026-04-26T10:17:50.551Z</time></trkpt><trkpt lat="46.0058711" lon="11.7447361"><ele>760.0</ele><time>2026-04-26T10:17:51.547Z</time></trkpt><trkpt lat="46.0059605" lon="11.7447007"><ele>760.0</ele><time>2026-04-26T10:17:52.554Z</time></trkpt><trkpt lat="46.0060405" lon="11.7446713"><ele>760.0</ele><time>2026-04-26T10:17:53.532Z</time></trkpt><trkpt lat="46.0061165" lon="11.7446523"><ele>760.0</ele><time>2026-04-26T10:17:54.555Z</time></trkpt><trkpt lat="46.0062003" lon="11.7446298"><ele>764.4</ele><time>2026-04-26T10:17:55.562Z</time></trkpt><trkpt lat="46.0063001" lon="11.7446169"><ele>768.8</ele><time>2026-04-26T10:17:56.558Z</time></trkpt><trkpt lat="46.0064157" lon="11.7446049"><ele>773.2</ele><time>2026-04-26T10:17:57.552Z</time></trkpt><trkpt lat="46.0065325" lon="11.7445772"><ele>777.6</ele><time>2026-04-26T10:17:58.553Z</time></trkpt><trkpt lat="46.0066279" lon="11.7445679"><ele>782.0</ele><time>2026-04-26T10:17:59.516Z</time></trkpt><trkpt lat="46.0067554" lon="11.74456"><ele>786.0</ele><time>2026-04-26T10:18:00.542Z</time></trkpt><trkpt lat="46.0068799" lon="11.7445581"><ele>790.0</ele><time>2026-04-26T10:18:03.472Z</time></trkpt><trkpt lat="46.0069526" lon="11.7445367"><ele>794.0</ele><time>2026-04-26T10:18:05.551Z</time></trkpt><trkpt lat="46.0069522" lon="11.7446287"><ele>798.0</ele><time>2026-04-26T10:18:12.55Z</time></trkpt><trkpt lat="46.0070168" lon="11.7446703"><ele>802.0</ele><time>2026-04-26T10:18:28.475Z</time></trkpt><trkpt lat="46.0072337" lon="11.744694"><ele>810.3333333333333</ele><time>2026-04-26T10:18:36.549Z</time></trkpt><trkpt lat="46.0075175" lon="11.7447225"><ele>818.6666666666667</ele><time>2026-04-26T10:18:37.555Z</time></trkpt><trkpt lat="46.0076642" lon="11.7447352"><ele>827.0</ele><time>2026-04-26T10:18:38.563Z</time></trkpt><trkpt lat="46.0077489" lon="11.744753"><ele>827.0</ele><time>2026-04-26T10:18:39.592Z</time></trkpt><trkpt lat="46.0078996" lon="11.7448382"><ele>827.0</ele><time>2026-04-26T10:18:40.541Z</time></trkpt><trkpt lat="46.0079941" lon="11.7448454"><ele>827.0</ele><time>2026-04-26T10:18:43.549Z</time></trkpt><trkpt lat="46.0080235" lon="11.7447503"><ele>827.0</ele><time>2026-04-26T10:18:48.548Z</time></trkpt><trkpt lat="46.0081834" lon="11.7447364"><ele>845.0</ele><time>2026-04-26T10:18:51.494Z</time></trkpt><trkpt lat="46.0086513" lon="11.7447606"><ele>845.0</ele><time>2026-04-26T10:18:52.571Z</time></trkpt><trkpt lat="46.0090532" lon="11.7447848"><ele>845.0</ele><time>2026-04-26T10:18:53.529Z</time></trkpt><trkpt lat="46.0092115" lon="11.7447999"><ele>856.0</ele><time>2026-04-26T10:18:54.377Z</time></trkpt><trkpt lat="46.0096144" lon="11.7448492"><ele>867.0</ele><time>2026-04-26T10:18:55.516Z</time></trkpt><trkpt lat="46.0096902" lon="11.7448554"><ele>867.0</ele><time>2026-04-26T10:18:56.597Z</time></trkpt><trkpt lat="46.0097472" lon="11.7448963"><ele>867.0</ele><time>2026-04-26T10:19:07.436Z</time></trkpt><trkpt lat="46.0105051" lon="11.7447882"><ele>902.0</ele><time>2026-04-26T10:19:09.606Z</time></trkpt><trkpt lat="46.010956" lon="11.7446972"><ele>902.0</ele><time>2026-04-26T10:19:10.62Z</time></trkpt><trkpt lat="46.0112083" lon="11.7446377"><ele>902.0</ele><time>2026-04-26T10:19:11.609Z</time></trkpt><trkpt lat="46.0113563" lon="11.7445587"><ele>902.0</ele><time>2026-04-26T10:19:12.589Z</time></trkpt><trkpt lat="46.0114374" lon="11.7445064"><ele>902.0</ele><time>2026-04-26T10:19:13.492Z</time></trkpt><trkpt lat="46.0115434" lon="11.744446"><ele>902.0</ele><time>2026-04-26T10:19:14.625Z</time></trkpt><trkpt lat="46.0116931" lon="11.7444079"><ele>902.0</ele><time>2026-04-26T10:19:15.606Z</time></trkpt><trkpt lat="46.011761" lon="11.7443734"><ele>902.0</ele><time>2026-04-26T10:19:17.64Z</time></trkpt><trkpt lat="46.0118243" lon="11.7443102"><ele>902.0</ele><time>2026-04-26T10:19:20.571Z</time></trkpt><trkpt lat="46.0118832" lon="11.744274"><ele>905.7142857142857</ele><time>2026-04-26T10:19:23.616Z</time></trkpt><trkpt lat="46.0119292" lon="11.7441867"><ele>909.4285714285716</ele><time>2026-04-26T10:19:25.584Z</time></trkpt><trkpt lat="46.0119213" lon="11.7440832"><ele>913.1428571428572</ele><time>2026-04-26T10:19:28.593Z</time></trkpt><trkpt lat="46.0119651" lon="11.7440124"><ele>916.8571428571429</ele><time>2026-04-26T10:19:33.495Z</time></trkpt><trkpt lat="46.0120329" lon="11.7440771"><ele>920.5714285714287</ele><time>2026-04-26T10:19:37.598Z</time></trkpt><trkpt lat="46.0121057" lon="11.7440859"><ele>924.2857142857144</ele><time>2026-04-26T10:19:40.518Z</time></trkpt><trkpt lat="46.0121859" lon="11.7440851"><ele>928.0000000000001</ele><time>2026-04-26T10:19:44.607Z</time></trkpt><trkpt lat="46.0122531" lon="11.7440592"><ele>933.0</ele><time>2026-04-26T10:19:48.599Z</time></trkpt><trkpt lat="46.0125361" lon="11.7439694"><ele>938.0</ele><time>2026-04-26T10:19:49.592Z</time></trkpt><trkpt lat="46.0127306" lon="11.7439254"><ele>938.0</ele><time>2026-04-26T10:19:50.392Z</time></trkpt><trkpt lat="46.0131562" lon="11.7438072"><ele>938.0</ele><time>2026-04-26T10:19:51.597Z</time></trkpt><trkpt lat="46.0132623" lon="11.7437827"><ele>945.25</ele><time>2026-04-26T10:19:52.577Z</time></trkpt><trkpt lat="46.0133297" lon="11.7437917"><ele>952.5</ele><time>2026-04-26T10:19:54.629Z</time></trkpt><trkpt lat="46.0133926" lon="11.7438436"><ele>959.75</ele><time>2026-04-26T10:19:56.6Z</time></trkpt><trkpt lat="46.0134937" lon="11.7439385"><ele>967.0</ele><time>2026-04-26T10:19:58.618Z</time></trkpt><trkpt lat="46.013691" lon="11.7438925"><ele>967.0</ele><time>2026-04-26T10:20:04.518Z</time></trkpt><trkpt lat="46.0137759" lon="11.7438897"><ele>967.0</ele><time>2026-04-26T10:20:06.6Z</time></trkpt><trkpt lat="46.0138742" lon="11.7438659"><ele>967.0</ele><time>2026-04-26T10:20:08.587Z</time></trkpt><trkpt lat="46.0139374" lon="11.7438235"><ele>967.0</ele><time>2026-04-26T10:20:09.595Z</time></trkpt><trkpt lat="46.0140466" lon="11.7437342"><ele>967.0</ele><time>2026-04-26T10:20:11.593Z</time></trkpt><trkpt lat="46.0141439" lon="11.7436903"><ele>972.2</ele><time>2026-04-26T10:20:13.59Z</time></trkpt><trkpt lat="46.0142201" lon="11.7437235"><ele>977.4000000000001</ele><time>2026-04-26T10:20:15.617Z</time></trkpt><trkpt lat="46.0142927" lon="11.7437749"><ele>982.5999999999999</ele><time>2026-04-26T10:20:17.515Z</time></trkpt><trkpt lat="46.0143359" lon="11.7437089"><ele>987.8</ele><time>2026-04-26T10:20:21.6Z</time></trkpt><trkpt lat="46.0143207" lon="11.7435799"><ele>993.0</ele><time>2026-04-26T10:20:25.589Z</time></trkpt><trkpt lat="46.014553" lon="11.7432742"><ele>1001.0</ele><time>2026-04-26T10:20:29.601Z</time></trkpt><trkpt lat="46.0147955" lon="11.7430115"><ele>1009.0</ele><time>2026-04-26T10:20:30.597Z</time></trkpt><trkpt lat="46.0149087" lon="11.7428824"><ele>1017.0</ele><time>2026-04-26T10:20:31.617Z</time></trkpt><trkpt lat="46.014977" lon="11.7428003"><ele>1021.0</ele><time>2026-04-26T10:20:32.573Z</time></trkpt><trkpt lat="46.0150203" lon="11.7427022"><ele>1025.0</ele><time>2026-04-26T10:20:33.598Z</time></trkpt><trkpt lat="46.0150903" lon="11.7425587"><ele>1029.0</ele><time>2026-04-26T10:20:35.601Z</time></trkpt><trkpt lat="46.0151608" lon="11.74251"><ele>1033.0</ele><time>2026-04-26T10:20:38.6Z</time></trkpt><trkpt lat="46.0152399" lon="11.7424649"><ele>1037.0</ele><time>2026-04-26T10:20:41.615Z</time></trkpt><trkpt lat="46.0153003" lon="11.742402"><ele>1041.0</ele><time>2026-04-26T10:20:44.605Z</time></trkpt><trkpt lat="46.0153629" lon="11.7423399"><ele>1041.0</ele><time>2026-04-26T10:20:46.606Z</time></trkpt><trkpt lat="46.0154036" lon="11.7424226"><ele>1041.0</ele><time>2026-04-26T10:20:50.635Z</time></trkpt><trkpt lat="46.0154514" lon="11.7425129"><ele>1041.0</ele><time>2026-04-26T10:20:54.615Z</time></trkpt><trkpt lat="46.0154869" lon="11.7426318"><ele>1041.0</ele><time>2026-04-26T10:21:26.533Z</time></trkpt><trkpt lat="46.0155036" lon="11.7427796"><ele>1041.0</ele><time>2026-04-26T10:21:28.594Z</time></trkpt><trkpt lat="46.0155438" lon="11.7429275"><ele>1039.8</ele><time>2026-04-26T10:21:29.617Z</time></trkpt><trkpt lat="46.0155912" lon="11.7430656"><ele>1038.6</ele><time>2026-04-26T10:21:30.616Z</time></trkpt><trkpt lat="46.0156402" lon="11.7431805"><ele>1037.4</ele><time>2026-04-26T10:21:31.618Z</time></trkpt><trkpt lat="46.0156958" lon="11.7433006"><ele>1036.2</ele><time>2026-04-26T10:21:32.612Z</time></trkpt><trkpt lat="46.0157463" lon="11.7434301"><ele>1035.0</ele><time>2026-04-26T10:21:33.607Z</time></trkpt><trkpt lat="46.015783" lon="11.7435514"><ele>1033.8</ele><time>2026-04-26T10:21:34.619Z</time></trkpt><trkpt lat="46.015816" lon="11.7436683"><ele>1032.6</ele><time>2026-04-26T10:21:35.621Z</time></trkpt><trkpt lat="46.0158545" lon="11.7437757"><ele>1031.4</ele><time>2026-04-26T10:21:36.621Z</time></trkpt><trkpt lat="46.0158817" lon="11.7438606"><ele>1030.2</ele><time>2026-04-26T10:21:37.613Z</time></trkpt><trkpt lat="46.0159185" lon="11.7440156"><ele>1029.0</ele><time>2026-04-26T10:21:39.622Z</time></trkpt><trkpt lat="46.0159572" lon="11.7441648"><ele>1034.4</ele><time>2026-04-26T10:21:41.601Z</time></trkpt><trkpt lat="46.015992" lon="11.7442701"><ele>1039.8000000000002</ele><time>2026-04-26T10:21:42.621Z</time></trkpt><trkpt lat="46.0160267" lon="11.7443889"><ele>1045.1999999999998</ele><time>2026-04-26T10:21:43.618Z</time></trkpt><trkpt lat="46.0160597" lon="11.7445253"><ele>1050.6</ele><time>2026-04-26T10:21:44.609Z</time></trkpt><trkpt lat="46.0160804" lon="11.7446741"><ele>1056.0</ele><time>2026-04-26T10:21:45.606Z</time></trkpt><trkpt lat="46.016106" lon="11.7448328"><ele>1056.0</ele><time>2026-04-26T10:21:46.619Z</time></trkpt><trkpt lat="46.0161494" lon="11.7450225"><ele>1056.0</ele><time>2026-04-26T10:21:47.62Z</time></trkpt><trkpt lat="46.0161923" lon="11.7452204"><ele>1056.0</ele><time>2026-04-26T10:21:48.607Z</time></trkpt><trkpt lat="46.0162268" lon="11.7454045"><ele>1056.0</ele><time>2026-04-26T10:21:49.634Z</time></trkpt><trkpt lat="46.0162357" lon="11.7455794"><ele>1058.0</ele><time>2026-04-26T10:21:50.621Z</time></trkpt><trkpt lat="46.0162427" lon="11.7457434"><ele>1060.0</ele><time>2026-04-26T10:21:51.6Z</time></trkpt><trkpt lat="46.0162518" lon="11.7459157"><ele>1062.0</ele><time>2026-04-26T10:21:52.615Z</time></trkpt><trkpt lat="46.0162651" lon="11.7460777"><ele>1064.0</ele><time>2026-04-26T10:21:53.605Z</time></trkpt><trkpt lat="46.0162801" lon="11.7461829"><ele>1066.0</ele><time>2026-04-26T10:21:54.607Z</time></trkpt><trkpt lat="46.0163124" lon="11.7462788"><ele>1070.2</ele><time>2026-04-26T10:21:56.613Z</time></trkpt><trkpt lat="46.016335" lon="11.746386"><ele>1074.3999999999999</ele><time>2026-04-26T10:21:58.599Z</time></trkpt><trkpt lat="46.0162988" lon="11.7465493"><ele>1078.6</ele><time>2026-04-26T10:22:00.61Z</time></trkpt><trkpt lat="46.0162592" lon="11.7466603"><ele>1082.8</ele><time>2026-04-26T10:22:01.612Z</time></trkpt><trkpt lat="46.016214" lon="11.746808"><ele>1087.0</ele><time>2026-04-26T10:22:02.615Z</time></trkpt><trkpt lat="46.0161792" lon="11.7469619"><ele>1090.4</ele><time>2026-04-26T10:22:03.613Z</time></trkpt><trkpt lat="46.0161405" lon="11.7471261"><ele>1093.8000000000002</ele><time>2026-04-26T10:22:04.62Z</time></trkpt><trkpt lat="46.0161117" lon="11.7472532"><ele>1097.2</ele><time>2026-04-26T10:22:05.611Z</time></trkpt><trkpt lat="46.0160546" lon="11.7473638"><ele>1100.6000000000001</ele><time>2026-04-26T10:22:06.597Z</time></trkpt><trkpt lat="46.0159752" lon="11.7474789"><ele>1104.0</ele><time>2026-04-26T10:22:07.612Z</time></trkpt><trkpt lat="46.0158889" lon="11.7475794"><ele>1105.8</ele><time>2026-04-26T10:22:08.61Z</time></trkpt><trkpt lat="46.0158151" lon="11.7476945"><ele>1107.6000000000001</ele><time>2026-04-26T10:22:09.61Z</time></trkpt><trkpt lat="46.0157419" lon="11.7478184"><ele>1109.4</ele><time>2026-04-26T10:22:10.615Z</time></trkpt><trkpt lat="46.0156713" lon="11.7478988"><ele>1111.2</ele><time>2026-04-26T10:22:12.608Z</time></trkpt><trkpt lat="46.0156434" lon="11.7480037"><ele>1113.0</ele><time>2026-04-26T10:22:17.609Z</time></trkpt><trkpt lat="46.0156275" lon="11.7481396"><ele>1113.0</ele><time>2026-04-26T10:22:21.616Z</time></trkpt><trkpt lat="46.0156047" lon="11.7483307"><ele>1113.0</ele><time>2026-04-26T10:22:23.618Z</time></trkpt><trkpt lat="46.0155506" lon="11.7484466"><ele>1113.0</ele><time>2026-04-26T10:22:24.605Z</time></trkpt><trkpt lat="46.0154787" lon="11.748565"><ele>1113.0</ele><time>2026-04-26T10:22:25.624Z</time></trkpt><trkpt lat="46.0153897" lon="11.748674"><ele>1116.4</ele><time>2026-04-26T10:22:26.613Z</time></trkpt><trkpt lat="46.0153234" lon="11.7487595"><ele>1119.8</ele><time>2026-04-26T10:22:27.617Z</time></trkpt><trkpt lat="46.0152622" lon="11.7488521"><ele>1123.2</ele><time>2026-04-26T10:22:28.6Z</time></trkpt><trkpt lat="46.0152024" lon="11.7489455"><ele>1126.6</ele><time>2026-04-26T10:22:29.592Z</time></trkpt><trkpt lat="46.0151338" lon="11.7490261"><ele>1130.0</ele><time>2026-04-26T10:22:30.615Z</time></trkpt><trkpt lat="46.0150449" lon="11.7490832"><ele>1131.4</ele><time>2026-04-26T10:22:31.588Z</time></trkpt><trkpt lat="46.0149417" lon="11.7491484"><ele>1132.8</ele><time>2026-04-26T10:22:32.6Z</time></trkpt><trkpt lat="46.0148287" lon="11.7491963"><ele>1134.2</ele><time>2026-04-26T10:22:33.595Z</time></trkpt><trkpt lat="46.0147452" lon="11.7492269"><ele>1135.6</ele><time>2026-04-26T10:22:34.59Z</time></trkpt><trkpt lat="46.014634" lon="11.7493157"><ele>1137.0</ele><time>2026-04-26T10:22:36.606Z</time></trkpt><trkpt lat="46.0145374" lon="11.7494297"><ele>1137.0</ele><time>2026-04-26T10:22:38.608Z</time></trkpt><trkpt lat="46.0144777" lon="11.7495455"><ele>1137.0</ele><time>2026-04-26T10:22:39.584Z</time></trkpt><trkpt lat="46.0144447" lon="11.7496558"><ele>1137.0</ele><time>2026-04-26T10:22:41.607Z</time></trkpt><trkpt lat="46.0143872" lon="11.7497526"><ele>1137.0</ele><time>2026-04-26T10:22:43.613Z</time></trkpt><trkpt lat="46.0142856" lon="11.7499462"><ele>1137.0</ele><time>2026-04-26T10:22:45.614Z</time></trkpt><trkpt lat="46.0142625" lon="11.7500536"><ele>1137.0</ele><time>2026-04-26T10:22:48.595Z</time></trkpt><trkpt lat="46.0142551" lon="11.7501606"><ele>1137.0</ele><time>2026-04-26T10:22:51.599Z</time></trkpt><trkpt lat="46.0142909" lon="11.7502515"><ele>1137.0</ele><time>2026-04-26T10:22:54.588Z</time></trkpt><trkpt lat="46.0142634" lon="11.7506482"><ele>1137.0</ele><time>2026-04-26T10:22:56.613Z</time></trkpt><trkpt lat="46.0142138" lon="11.7511024"><ele>1142.6</ele><time>2026-04-26T10:22:57.601Z</time></trkpt><trkpt lat="46.0141961" lon="11.7512384"><ele>1148.2</ele><time>2026-04-26T10:22:58.598Z</time></trkpt><trkpt lat="46.014177" lon="11.7514211"><ele>1153.8</ele><time>2026-04-26T10:22:59.604Z</time></trkpt><trkpt lat="46.014202" lon="11.7515413"><ele>1159.4</ele><time>2026-04-26T10:23:01.609Z</time></trkpt><trkpt lat="46.0142078" lon="11.751648"><ele>1165.0</ele><time>2026-04-26T10:23:03.594Z</time></trkpt><trkpt lat="46.014179" lon="11.7517433"><ele>1165.0</ele><time>2026-04-26T10:23:05.558Z</time></trkpt><trkpt lat="46.0141611" lon="11.7518461"><ele>1165.0</ele><time>2026-04-26T10:23:06.577Z</time></trkpt><trkpt lat="46.0141062" lon="11.7519873"><ele>1165.0</ele><time>2026-04-26T10:23:08.609Z</time></trkpt><trkpt lat="46.0140047" lon="11.7520661"><ele>1165.0</ele><time>2026-04-26T10:23:10.618Z</time></trkpt><trkpt lat="46.0138906" lon="11.75215"><ele>1165.0</ele><time>2026-04-26T10:23:12.609Z</time></trkpt><trkpt lat="46.0138129" lon="11.7522321"><ele>1170.0</ele><time>2026-04-26T10:23:14.57Z</time></trkpt><trkpt lat="46.0137469" lon="11.7523074"><ele>1175.0</ele><time>2026-04-26T10:23:16.606Z</time></trkpt><trkpt lat="46.0136799" lon="11.7524506"><ele>1180.0</ele><time>2026-04-26T10:23:18.616Z</time></trkpt><trkpt lat="46.0135926" lon="11.7525835"><ele>1185.0</ele><time>2026-04-26T10:23:20.616Z</time></trkpt><trkpt lat="46.0135402" lon="11.7526443"><ele>1190.0</ele><time>2026-04-26T10:23:21.611Z</time></trkpt><trkpt lat="46.0134822" lon="11.7527224"><ele>1191.3333333333335</ele><time>2026-04-26T10:23:22.619Z</time></trkpt><trkpt lat="46.0134201" lon="11.7528028"><ele>1192.6666666666667</ele><time>2026-04-26T10:23:23.604Z</time></trkpt><trkpt lat="46.0133579" lon="11.7528833"><ele>1194.0</ele><time>2026-04-26T10:23:24.569Z</time></trkpt><trkpt lat="46.0132916" lon="11.7529721"><ele>1195.3333333333333</ele><time>2026-04-26T10:23:25.572Z</time></trkpt><trkpt lat="46.0132287" lon="11.7530428"><ele>1196.6666666666665</ele><time>2026-04-26T10:23:26.567Z</time></trkpt><trkpt lat="46.0131643" lon="11.7530887"><ele>1198.0</ele><time>2026-04-26T10:23:27.605Z</time></trkpt><trkpt lat="46.0130982" lon="11.7531017"><ele>1199.6</ele><time>2026-04-26T10:23:28.604Z</time></trkpt><trkpt lat="46.0129721" lon="11.7530504"><ele>1201.1999999999998</ele><time>2026-04-26T10:23:30.619Z</time></trkpt><trkpt lat="46.0128983" lon="11.7530021"><ele>1202.8</ele><time>2026-04-26T10:23:31.609Z</time></trkpt><trkpt lat="46.012816" lon="11.7529622"><ele>1204.3999999999999</ele><time>2026-04-26T10:23:32.606Z</time></trkpt><trkpt lat="46.0127232" lon="11.7529527"><ele>1206.0</ele><time>2026-04-26T10:23:34.579Z</time></trkpt><trkpt lat="46.0126519" lon="11.7530688"><ele>1206.0</ele><time>2026-04-26T10:23:37.607Z</time></trkpt><trkpt lat="46.0126155" lon="11.753158"><ele>1206.0</ele><time>2026-04-26T10:23:38.619Z</time></trkpt><trkpt lat="46.0125782" lon="11.7532347"><ele>1206.0</ele><time>2026-04-26T10:23:39.617Z</time></trkpt><trkpt lat="46.0124877" lon="11.753333"><ele>1206.0</ele><time>2026-04-26T10:23:41.596Z</time></trkpt><trkpt lat="46.0124313" lon="11.7533965"><ele>1206.0</ele><time>2026-04-26T10:23:42.599Z</time></trkpt><trkpt lat="46.0123762" lon="11.7534724"><ele>1206.0</ele><time>2026-04-26T10:23:43.605Z</time></trkpt><trkpt lat="46.0123222" lon="11.7535619"><ele>1208.0</ele><time>2026-04-26T10:23:44.616Z</time></trkpt><trkpt lat="46.0122647" lon="11.7536868"><ele>1210.0</ele><time>2026-04-26T10:23:45.613Z</time></trkpt><trkpt lat="46.0122005" lon="11.7538442"><ele>1212.0</ele><time>2026-04-26T10:23:46.61Z</time></trkpt><trkpt lat="46.0121536" lon="11.7539382"><ele>1214.0</ele><time>2026-04-26T10:23:47.608Z</time></trkpt><trkpt lat="46.0120696" lon="11.7540724"><ele>1216.0</ele><time>2026-04-26T10:23:49.584Z</time></trkpt><trkpt lat="46.0120012" lon="11.7541479"><ele>1216.0</ele><time>2026-04-26T10:23:50.621Z</time></trkpt><trkpt lat="46.0118851" lon="11.7543107"><ele>1216.0</ele><time>2026-04-26T10:23:51.6Z</time></trkpt><trkpt lat="46.0116888" lon="11.7544999"><ele>1216.0</ele><time>2026-04-26T10:23:52.606Z</time></trkpt><trkpt lat="46.0115217" lon="11.7546066"><ele>1222.3999999999999</ele><time>2026-04-26T10:23:53.598Z</time></trkpt><trkpt lat="46.0113814" lon="11.7546563"><ele>1228.8</ele><time>2026-04-26T10:23:54.613Z</time></trkpt><trkpt lat="46.0112799" lon="11.7546953"><ele>1235.1999999999998</ele><time>2026-04-26T10:23:55.612Z</time></trkpt><trkpt lat="46.0112029" lon="11.7547278"><ele>1241.6</ele><time>2026-04-26T10:23:56.61Z</time></trkpt><trkpt lat="46.0111324" lon="11.754762"><ele>1248.0</ele><time>2026-04-26T10:23:57.594Z</time></trkpt><trkpt lat="46.0110582" lon="11.7548016"><ele>1248.0</ele><time>2026-04-26T10:23:58.624Z</time></trkpt><trkpt lat="46.0109869" lon="11.7548259"><ele>1248.0</ele><time>2026-04-26T10:23:59.607Z</time></trkpt><trkpt lat="46.0109181" lon="11.7548379"><ele>1248.0</ele><time>2026-04-26T10:24:00.604Z</time></trkpt><trkpt lat="46.0108452" lon="11.7548473"><ele>1248.0</ele><time>2026-04-26T10:24:01.617Z</time></trkpt><trkpt lat="46.0107631" lon="11.7548936"><ele>1248.0</ele><time>2026-04-26T10:24:02.612Z</time></trkpt><trkpt lat="46.0106709" lon="11.7549814"><ele>1248.0</ele><time>2026-04-26T10:24:03.61Z</time></trkpt><trkpt lat="46.0105759" lon="11.755058"><ele>1248.0</ele><time>2026-04-26T10:24:04.606Z</time></trkpt><trkpt lat="46.0104937" lon="11.7551338"><ele>1248.0</ele><time>2026-04-26T10:24:05.606Z</time></trkpt><trkpt lat="46.0104322" lon="11.7552054"><ele>1248.0</ele><time>2026-04-26T10:24:06.617Z</time></trkpt><trkpt lat="46.0103764" lon="11.7552778"><ele>1248.0</ele><time>2026-04-26T10:24:07.579Z</time></trkpt><trkpt lat="46.0103002" lon="11.755337"><ele>1248.0</ele><time>2026-04-26T10:24:08.6Z</time></trkpt><trkpt lat="46.0102092" lon="11.7553806"><ele>1248.0</ele><time>2026-04-26T10:24:09.616Z</time></trkpt><trkpt lat="46.0101225" lon="11.7554171"><ele>1249.4</ele><time>2026-04-26T10:24:10.576Z</time></trkpt><trkpt lat="46.0100413" lon="11.7554516"><ele>1250.8</ele><time>2026-04-26T10:24:11.613Z</time></trkpt><trkpt lat="46.0099765" lon="11.7554363"><ele>1252.2</ele><time>2026-04-26T10:24:13.61Z</time></trkpt><trkpt lat="46.0098926" lon="11.7553649"><ele>1253.6</ele><time>2026-04-26T10:24:15.59Z</time></trkpt><trkpt lat="46.0097595" lon="11.7553145"><ele>1255.0</ele><time>2026-04-26T10:24:18.606Z</time></trkpt><trkpt lat="46.0096975" lon="11.7552661"><ele>1256.5</ele><time>2026-04-26T10:24:19.612Z</time></trkpt><trkpt lat="46.0096234" lon="11.755251"><ele>1258.0</ele><time>2026-04-26T10:24:22.474Z</time></trkpt><trkpt lat="46.0095488" lon="11.7552445"><ele>1259.5</ele><time>2026-04-26T10:24:24.598Z</time></trkpt><trkpt lat="46.0094604" lon="11.7552048"><ele>1261.0</ele><time>2026-04-26T10:24:27.611Z</time></trkpt><trkpt lat="46.0090557" lon="11.7550753"><ele>1258.5</ele><time>2026-04-26T10:24:30.604Z</time></trkpt><trkpt lat="46.0089705" lon="11.755055"><ele>1256.0</ele><time>2026-04-26T10:24:31.614Z</time></trkpt><trkpt lat="46.0088783" lon="11.7550422"><ele>1253.5</ele><time>2026-04-26T10:24:33.619Z</time></trkpt><trkpt lat="46.008781" lon="11.7550504"><ele>1251.0</ele><time>2026-04-26T10:24:35.605Z</time></trkpt><trkpt lat="46.0087114" lon="11.7550672"><ele>1248.5</ele><time>2026-04-26T10:24:37.598Z</time></trkpt><trkpt lat="46.0086299" lon="11.7550313"><ele>1246.0</ele><time>2026-04-26T10:24:40.602Z</time></trkpt><trkpt lat="46.0085615" lon="11.7550169"><ele>1246.0</ele><time>2026-04-26T10:24:42.613Z</time></trkpt><trkpt lat="46.0084696" lon="11.7550491"><ele>1246.0</ele><time>2026-04-26T10:24:44.596Z</time></trkpt><trkpt lat="46.0083829" lon="11.7550611"><ele>1246.0</ele><time>2026-04-26T10:24:46.611Z</time></trkpt><trkpt lat="46.0082928" lon="11.7550833"><ele>1246.0</ele><time>2026-04-26T10:24:48.626Z</time></trkpt><trkpt lat="46.0082063" lon="11.7551035"><ele>1246.0</ele><time>2026-04-26T10:24:51.585Z</time></trkpt><trkpt lat="46.0081137" lon="11.7551299"><ele>1241.0</ele><time>2026-04-26T10:24:53.61Z</time></trkpt><trkpt lat="46.0080069" lon="11.7552018"><ele>1236.0</ele><time>2026-04-26T10:24:55.609Z</time></trkpt><trkpt lat="46.0079143" lon="11.7552556"><ele>1231.0</ele><time>2026-04-26T10:24:57.595Z</time></trkpt><trkpt lat="46.007859" lon="11.7553206"><ele>1226.0</ele><time>2026-04-26T10:24:59.604Z</time></trkpt><trkpt lat="46.0076351" lon="11.7555823"><ele>1226.0</ele><time>2026-04-26T10:25:01.599Z</time></trkpt><trkpt lat="46.0075266" lon="11.7557661"><ele>1226.0</ele><time>2026-04-26T10:25:02.614Z</time></trkpt><trkpt lat="46.007513" lon="11.755904"><ele>1226.0</ele><time>2026-04-26T10:25:03.611Z</time></trkpt><trkpt lat="46.0075339" lon="11.7560157"><ele>1226.0</ele><time>2026-04-26T10:25:04.626Z</time></trkpt><trkpt lat="46.0075624" lon="11.7561178"><ele>1226.0</ele><time>2026-04-26T10:25:05.62Z</time></trkpt><trkpt lat="46.0075977" lon="11.7562179"><ele>1224.6666666666667</ele><time>2026-04-26T10:25:06.635Z</time></trkpt><trkpt lat="46.0076368" lon="11.756311"><ele>1223.3333333333335</ele><time>2026-04-26T10:25:07.605Z</time></trkpt><trkpt lat="46.007684" lon="11.7564047"><ele>1222.0</ele><time>2026-04-26T10:25:08.601Z</time></trkpt><trkpt lat="46.0077292" lon="11.7564985"><ele>1220.6666666666667</ele><time>2026-04-26T10:25:09.618Z</time></trkpt><trkpt lat="46.007765" lon="11.7565896"><ele>1219.3333333333333</ele><time>2026-04-26T10:25:10.591Z</time></trkpt><trkpt lat="46.0078054" lon="11.7566752"><ele>1218.0</ele><time>2026-04-26T10:25:11.618Z</time></trkpt><trkpt lat="46.0078768" lon="11.7568307"><ele>1215.5</ele><time>2026-04-26T10:25:13.598Z</time></trkpt><trkpt lat="46.0079145" lon="11.7569432"><ele>1213.0</ele><time>2026-04-26T10:25:14.612Z</time></trkpt><trkpt lat="46.007956" lon="11.7570592"><ele>1210.5</ele><time>2026-04-26T10:25:15.587Z</time></trkpt><trkpt lat="46.0080044" lon="11.7571658"><ele>1208.0</ele><time>2026-04-26T10:25:16.628Z</time></trkpt><trkpt lat="46.0080581" lon="11.7572581"><ele>1205.5</ele><time>2026-04-26T10:25:17.605Z</time></trkpt><trkpt lat="46.008122" lon="11.7573434"><ele>1203.0</ele><time>2026-04-26T10:25:18.578Z</time></trkpt><trkpt lat="46.0082" lon="11.7574295"><ele>1203.0</ele><time>2026-04-26T10:25:19.618Z</time></trkpt><trkpt lat="46.0082732" lon="11.7575074"><ele>1203.0</ele><time>2026-04-26T10:25:20.602Z</time></trkpt><trkpt lat="46.0083568" lon="11.7575901"><ele>1203.0</ele><time>2026-04-26T10:25:21.61Z</time></trkpt><trkpt lat="46.0084422" lon="11.7576659"><ele>1203.0</ele><time>2026-04-26T10:25:22.607Z</time></trkpt><trkpt lat="46.0085293" lon="11.7577355"><ele>1203.0</ele><time>2026-04-26T10:25:23.61Z</time></trkpt><trkpt lat="46.0086208" lon="11.7578141"><ele>1203.4</ele><time>2026-04-26T10:25:24.604Z</time></trkpt><trkpt lat="46.0087138" lon="11.7579084"><ele>1203.8</ele><time>2026-04-26T10:25:25.612Z</time></trkpt><trkpt lat="46.0087848" lon="11.7579907"><ele>1204.2</ele><time>2026-04-26T10:25:26.613Z</time></trkpt><trkpt lat="46.0088709" lon="11.7580912"><ele>1204.6</ele><time>2026-04-26T10:25:28.593Z</time></trkpt><trkpt lat="46.0089695" lon="11.7581887"><ele>1205.0</ele><time>2026-04-26T10:25:30.607Z</time></trkpt><trkpt lat="46.0090266" lon="11.7582399"><ele>1205.0</ele><time>2026-04-26T10:25:31.611Z</time></trkpt><trkpt lat="46.0091215" lon="11.7583265"><ele>1205.0</ele><time>2026-04-26T10:25:33.613Z</time></trkpt><trkpt lat="46.0092082" lon="11.7583907"><ele>1205.0</ele><time>2026-04-26T10:25:35.628Z</time></trkpt><trkpt lat="46.0092524" lon="11.7584733"><ele>1205.0</ele><time>2026-04-26T10:25:37.596Z</time></trkpt><trkpt lat="46.0093089" lon="11.758527"><ele>1205.0</ele><time>2026-04-26T10:25:40.592Z</time></trkpt><trkpt lat="46.0092537" lon="11.7584438"><ele>1205.0</ele><time>2026-04-26T10:25:45.618Z</time></trkpt><trkpt lat="46.0091826" lon="11.7583812"><ele>1205.0</ele><time>2026-04-26T10:25:46.611Z</time></trkpt><trkpt lat="46.009085" lon="11.7582916"><ele>1205.0</ele><time>2026-04-26T10:25:48.628Z</time></trkpt><trkpt lat="46.0089848" lon="11.7581998"><ele>1205.0</ele><time>2026-04-26T10:25:50.614Z</time></trkpt><trkpt lat="46.0089363" lon="11.7581414"><ele>1205.0</ele><time>2026-04-26T10:25:51.609Z</time></trkpt><trkpt lat="46.0088412" lon="11.7580324"><ele>1205.0</ele><time>2026-04-26T10:25:53.612Z</time></trkpt><trkpt lat="46.0087512" lon="11.7579354"><ele>1205.0</ele><time>2026-04-26T10:25:55.61Z</time></trkpt><trkpt lat="46.0086985" lon="11.7578757"><ele>1205.0</ele><time>2026-04-26T10:25:57.609Z</time></trkpt><trkpt lat="46.0087626" lon="11.7578303"><ele>1205.0</ele><time>2026-04-26T10:26:02.609Z</time></trkpt><trkpt lat="46.0088389" lon="11.7577937"><ele>1205.0</ele><time>2026-04-26T10:26:04.621Z</time></trkpt><trkpt lat="46.0089165" lon="11.7577972"><ele>1205.0</ele><time>2026-04-26T10:26:07.631Z</time></trkpt><trkpt lat="46.0090012" lon="11.7578127"><ele>1205.0</ele><time>2026-04-26T10:26:08.604Z</time></trkpt><trkpt lat="46.0090833" lon="11.7578479"><ele>1208.4</ele><time>2026-04-26T10:26:10.606Z</time></trkpt><trkpt lat="46.0091883" lon="11.757843"><ele>1211.8</ele><time>2026-04-26T10:26:12.601Z</time></trkpt><trkpt lat="46.009274" lon="11.7578458"><ele>1215.2</ele><time>2026-04-26T10:26:14.608Z</time></trkpt><trkpt lat="46.0093871" lon="11.7578091"><ele>1218.6</ele><time>2026-04-26T10:26:16.601Z</time></trkpt><trkpt lat="46.0094766" lon="11.7577786"><ele>1222.0</ele><time>2026-04-26T10:26:20.597Z</time></trkpt><trkpt lat="46.009536" lon="11.7577382"><ele>1226.0</ele><time>2026-04-26T10:26:22.601Z</time></trkpt><trkpt lat="46.0096178" lon="11.7576937"><ele>1230.0</ele><time>2026-04-26T10:26:25.469Z</time></trkpt><trkpt lat="46.0097103" lon="11.7576432"><ele>1234.0</ele><time>2026-04-26T10:26:27.597Z</time></trkpt><trkpt lat="46.0097567" lon="11.7575484"><ele>1238.0</ele><time>2026-04-26T10:26:29.613Z</time></trkpt><trkpt lat="46.0097583" lon="11.7574163"><ele>1242.0</ele><time>2026-04-26T10:26:31.61Z</time></trkpt><trkpt lat="46.0098125" lon="11.7572887"><ele>1242.0</ele><time>2026-04-26T10:26:33.613Z</time></trkpt><trkpt lat="46.0098923" lon="11.7572662"><ele>1242.0</ele><time>2026-04-26T10:26:35.617Z</time></trkpt><trkpt lat="46.009969" lon="11.7572398"><ele>1242.0</ele><time>2026-04-26T10:26:37.617Z</time></trkpt><trkpt lat="46.0100458" lon="11.7572175"><ele>1242.0</ele><time>2026-04-26T10:26:40.651Z</time></trkpt><trkpt lat="46.0100949" lon="11.7571469"><ele>1242.0</ele><time>2026-04-26T10:26:42.611Z</time></trkpt><trkpt lat="46.0101357" lon="11.7570461"><ele>1242.0</ele><time>2026-04-26T10:26:44.578Z</time></trkpt><trkpt lat="46.0102001" lon="11.7570004"><ele>1243.5</ele><time>2026-04-26T10:26:47.617Z</time></trkpt><trkpt lat="46.0102275" lon="11.7569163"><ele>1245.0</ele><time>2026-04-26T10:26:50.612Z</time></trkpt><trkpt lat="46.0102695" lon="11.7568091"><ele>1246.5</ele><time>2026-04-26T10:26:53.612Z</time></trkpt><trkpt lat="46.010289" lon="11.7566812"><ele>1248.0</ele><time>2026-04-26T10:26:56.616Z</time></trkpt><trkpt lat="46.0102921" lon="11.7565651"><ele>1249.5</ele><time>2026-04-26T10:26:58.616Z</time></trkpt><trkpt lat="46.0103031" lon="11.7564652"><ele>1251.0</ele><time>2026-04-26T10:26:59.611Z</time></trkpt><trkpt lat="46.0103096" lon="11.7563108"><ele>1251.8</ele><time>2026-04-26T10:27:01.618Z</time></trkpt><trkpt lat="46.010299" lon="11.7561788"><ele>1252.6</ele><time>2026-04-26T10:27:03.589Z</time></trkpt><trkpt lat="46.0102706" lon="11.7560486"><ele>1253.4</ele><time>2026-04-26T10:27:05.594Z</time></trkpt><trkpt lat="46.0102374" lon="11.7559144"><ele>1254.2</ele><time>2026-04-26T10:27:07.607Z</time></trkpt><trkpt lat="46.0102311" lon="11.7557923"><ele>1255.0</ele><time>2026-04-26T10:27:09.578Z</time></trkpt><trkpt lat="46.0102299" lon="11.7556618"><ele>1255.0</ele><time>2026-04-26T10:27:12.571Z</time></trkpt><trkpt lat="46.0102333" lon="11.7555686"><ele>1255.0</ele><time>2026-04-26T10:27:15.608Z</time></trkpt><trkpt lat="46.0102095" lon="11.7554783"><ele>1255.0</ele><time>2026-04-26T10:27:18.611Z</time></trkpt><trkpt lat="46.0101453" lon="11.7554564"><ele>1255.0</ele><time>2026-04-26T10:27:24.515Z</time></trkpt><trkpt lat="46.0102" lon="11.755534"><ele>1255.0</ele><time>2026-04-26T10:27:29.573Z</time></trkpt><trkpt lat="46.0101406" lon="11.7555711"><ele>1255.0</ele><time>2026-04-26T10:27:33.6Z</time></trkpt><trkpt lat="46.0100861" lon="11.7556421"><ele>1255.0</ele><time>2026-04-26T10:27:36.638Z</time></trkpt><trkpt lat="46.0100993" lon="11.7557649"><ele>1255.0</ele><time>2026-04-26T10:27:38.614Z</time></trkpt><trkpt lat="46.010099" lon="11.7558714"><ele>1255.0</ele><time>2026-04-26T10:27:40.641Z</time></trkpt><trkpt lat="46.0101002" lon="11.7559661"><ele>1255.0</ele><time>2026-04-26T10:27:41.604Z</time></trkpt><trkpt lat="46.0100957" lon="11.7560954"><ele>1255.0</ele><time>2026-04-26T10:27:43.636Z</time></trkpt><trkpt lat="46.0100995" lon="11.7562078"><ele>1255.0</ele><time>2026-04-26T10:27:45.582Z</time></trkpt><trkpt lat="46.0100504" lon="11.7562906"><ele>1255.0</ele><time>2026-04-26T10:27:49.6Z</time></trkpt><trkpt lat="46.0099939" lon="11.7563467"><ele>1255.3333333333333</ele><time>2026-04-26T10:27:54.611Z</time></trkpt><trkpt lat="46.010072" lon="11.7567324"><ele>1255.6666666666667</ele><time>2026-04-26T10:27:55.621Z</time></trkpt><trkpt lat="46.0101134" lon="11.7569392"><ele>1256.0</ele><time>2026-04-26T10:27:56.603Z</time></trkpt><trkpt lat="46.0101055" lon="11.757052"><ele>1255.0</ele><time>2026-04-26T10:27:58.613Z</time></trkpt><trkpt lat="46.0100298" lon="11.7571665"><ele>1254.0</ele><time>2026-04-26T10:28:00.593Z</time></trkpt><trkpt lat="46.0099351" lon="11.7572658"><ele>1253.0</ele><time>2026-04-26T10:28:02.608Z</time></trkpt><trkpt lat="46.0098469" lon="11.757312"><ele>1252.0</ele><time>2026-04-26T10:28:03.609Z</time></trkpt><trkpt lat="46.0097599" lon="11.7573583"><ele>1251.0</ele><time>2026-04-26T10:28:04.624Z</time></trkpt><trkpt lat="46.0097067" lon="11.7574527"><ele>1249.7142857142856</ele><time>2026-04-26T10:28:06.63Z</time></trkpt><trkpt lat="46.0097039" lon="11.7575848"><ele>1248.4285714285716</ele><time>2026-04-26T10:28:08.609Z</time></trkpt><trkpt lat="46.0096736" lon="11.7576697"><ele>1247.142857142857</ele><time>2026-04-26T10:28:10.607Z</time></trkpt><trkpt lat="46.0096099" lon="11.7577194"><ele>1245.8571428571427</ele><time>2026-04-26T10:28:13.615Z</time></trkpt><trkpt lat="46.0095435" lon="11.7577256"><ele>1244.5714285714284</ele><time>2026-04-26T10:28:16.625Z</time></trkpt><trkpt lat="46.0094814" lon="11.7577538"><ele>1243.2857142857142</ele><time>2026-04-26T10:28:18.616Z</time></trkpt><trkpt lat="46.0094079" lon="11.7578121"><ele>1242.0</ele><time>2026-04-26T10:28:21.606Z</time></trkpt><trkpt lat="46.0093471" lon="11.7578499"><ele>1238.0</ele><time>2026-04-26T10:28:24.587Z</time></trkpt><trkpt lat="46.0092673" lon="11.7578585"><ele>1234.0</ele><time>2026-04-26T10:28:26.625Z</time></trkpt><trkpt lat="46.0091839" lon="11.7578315"><ele>1230.0</ele><time>2026-04-26T10:28:28.642Z</time></trkpt><trkpt lat="46.009061" lon="11.7578267"><ele>1226.0</ele><time>2026-04-26T10:28:30.615Z</time></trkpt><trkpt lat="46.0089744" lon="11.7578312"><ele>1222.0</ele><time>2026-04-26T10:28:31.612Z</time></trkpt><trkpt lat="46.0088821" lon="11.7578128"><ele>1219.1666666666665</ele><time>2026-04-26T10:28:33.614Z</time></trkpt><trkpt lat="46.0088035" lon="11.7578327"><ele>1216.3333333333333</ele><time>2026-04-26T10:28:35.614Z</time></trkpt><trkpt lat="46.0087203" lon="11.7578349"><ele>1213.5</ele><time>2026-04-26T10:28:37.604Z</time></trkpt><trkpt lat="46.008789" lon="11.7579695"><ele>1210.6666666666667</ele><time>2026-04-26T10:28:41.619Z</time></trkpt><trkpt lat="46.0088394" lon="11.7580339"><ele>1207.8333333333335</ele><time>2026-04-26T10:28:42.624Z</time></trkpt><trkpt lat="46.0088916" lon="11.7580988"><ele>1205.0</ele><time>2026-04-26T10:28:43.602Z</time></trkpt><trkpt lat="46.0089479" lon="11.7581637"><ele>1205.0</ele><time>2026-04-26T10:28:44.627Z</time></trkpt><trkpt lat="46.0090008" lon="11.7582191"><ele>1205.0</ele><time>2026-04-26T10:28:45.61Z</time></trkpt><trkpt lat="46.0091058" lon="11.7583206"><ele>1205.0</ele><time>2026-04-26T10:28:47.618Z</time></trkpt><trkpt lat="46.0091668" lon="11.7583655"><ele>1205.0</ele><time>2026-04-26T10:28:48.623Z</time></trkpt><trkpt lat="46.0092756" lon="11.7584485"><ele>1205.0</ele><time>2026-04-26T10:28:50.617Z</time></trkpt><trkpt lat="46.0093304" lon="11.7584957"><ele>1205.0</ele><time>2026-04-26T10:28:51.614Z</time></trkpt><trkpt lat="46.0094324" lon="11.75859"><ele>1205.1666666666667</ele><time>2026-04-26T10:28:53.607Z</time></trkpt><trkpt lat="46.0094943" lon="11.7587325"><ele>1205.3333333333335</ele><time>2026-04-26T10:28:55.603Z</time></trkpt><trkpt lat="46.009482" lon="11.7589005"><ele>1205.5</ele><time>2026-04-26T10:28:57.605Z</time></trkpt><trkpt lat="46.009455" lon="11.7589883"><ele>1205.6666666666667</ele><time>2026-04-26T10:28:58.613Z</time></trkpt><trkpt lat="46.0094236" lon="11.7590753"><ele>1205.8333333333333</ele><time>2026-04-26T10:28:59.615Z</time></trkpt><trkpt lat="46.0093888" lon="11.7591622"><ele>1206.0</ele><time>2026-04-26T10:29:00.607Z</time></trkpt><trkpt lat="46.0093492" lon="11.7592559"><ele>1206.0</ele><time>2026-04-26T10:29:01.633Z</time></trkpt><trkpt lat="46.0093016" lon="11.7593465"><ele>1206.0</ele><time>2026-04-26T10:29:02.619Z</time></trkpt><trkpt lat="46.0092528" lon="11.7594422"><ele>1206.0</ele><time>2026-04-26T10:29:03.621Z</time></trkpt><trkpt lat="46.0092101" lon="11.7595451"><ele>1206.0</ele><time>2026-04-26T10:29:04.612Z</time></trkpt><trkpt lat="46.0091746" lon="11.7596514"><ele>1206.0</ele><time>2026-04-26T10:29:05.615Z</time></trkpt><trkpt lat="46.0091453" lon="11.7597487"><ele>1206.0</ele><time>2026-04-26T10:29:06.613Z</time></trkpt><trkpt lat="46.0091012" lon="11.7598401"><ele>1202.8333333333333</ele><time>2026-04-26T10:29:07.62Z</time></trkpt><trkpt lat="46.0090458" lon="11.7599347"><ele>1199.6666666666667</ele><time>2026-04-26T10:29:08.629Z</time></trkpt><trkpt lat="46.0089921" lon="11.7600137"><ele>1196.5</ele><time>2026-04-26T10:29:09.619Z</time></trkpt><trkpt lat="46.0088919" lon="11.7601037"><ele>1193.3333333333335</ele><time>2026-04-26T10:29:11.618Z</time></trkpt><trkpt lat="46.0087908" lon="11.7601209"><ele>1190.1666666666667</ele><time>2026-04-26T10:29:13.61Z</time></trkpt><trkpt lat="46.008726" lon="11.7601071"><ele>1187.0</ele><time>2026-04-26T10:29:14.621Z</time></trkpt><trkpt lat="46.0086493" lon="11.7600732"><ele>1187.0</ele><time>2026-04-26T10:29:15.619Z</time></trkpt><trkpt lat="46.0085688" lon="11.7600341"><ele>1187.0</ele><time>2026-04-26T10:29:16.609Z</time></trkpt><trkpt lat="46.0084946" lon="11.7599954"><ele>1187.0</ele><time>2026-04-26T10:29:17.596Z</time></trkpt><trkpt lat="46.0084243" lon="11.7599428"><ele>1187.0</ele><time>2026-04-26T10:29:18.63Z</time></trkpt><trkpt lat="46.0083605" lon="11.7598763"><ele>1187.0</ele><time>2026-04-26T10:29:19.636Z</time></trkpt><trkpt lat="46.0083049" lon="11.7598003"><ele>1187.0</ele><time>2026-04-26T10:29:20.616Z</time></trkpt><trkpt lat="46.0082549" lon="11.7597251"><ele>1183.0</ele><time>2026-04-26T10:29:21.615Z</time></trkpt><trkpt lat="46.0081785" lon="11.7596057"><ele>1179.0</ele><time>2026-04-26T10:29:23.63Z</time></trkpt><trkpt lat="46.0080996" lon="11.7594761"><ele>1175.0</ele><time>2026-04-26T10:29:25.624Z</time></trkpt><trkpt lat="46.0080609" lon="11.7593931"><ele>1171.0</ele><time>2026-04-26T10:29:26.615Z</time></trkpt><trkpt lat="46.0080225" lon="11.7593025"><ele>1167.0</ele><time>2026-04-26T10:29:27.593Z</time></trkpt><trkpt lat="46.007982" lon="11.7592087"><ele>1167.0</ele><time>2026-04-26T10:29:28.591Z</time></trkpt><trkpt lat="46.0079425" lon="11.759092"><ele>1167.0</ele><time>2026-04-26T10:29:29.614Z</time></trkpt><trkpt lat="46.0078987" lon="11.7589635"><ele>1167.0</ele><time>2026-04-26T10:29:30.621Z</time></trkpt><trkpt lat="46.0078475" lon="11.7588404"><ele>1167.0</ele><time>2026-04-26T10:29:31.609Z</time></trkpt><trkpt lat="46.0077835" lon="11.7587332"><ele>1167.0</ele><time>2026-04-26T10:29:32.616Z</time></trkpt><trkpt lat="46.007712" lon="11.7586363"><ele>1167.0</ele><time>2026-04-26T10:29:33.619Z</time></trkpt><trkpt lat="46.0076339" lon="11.7585552"><ele>1167.0</ele><time>2026-04-26T10:29:34.613Z</time></trkpt><trkpt lat="46.007552" lon="11.7584825"><ele>1167.0</ele><time>2026-04-26T10:29:35.622Z</time></trkpt><trkpt lat="46.0074696" lon="11.7584134"><ele>1167.0</ele><time>2026-04-26T10:29:36.625Z</time></trkpt><trkpt lat="46.0073848" lon="11.7583493"><ele>1167.0</ele><time>2026-04-26T10:29:37.614Z</time></trkpt><trkpt lat="46.0073019" lon="11.7582863"><ele>1164.4</ele><time>2026-04-26T10:29:38.591Z</time></trkpt><trkpt lat="46.0072191" lon="11.7582066"><ele>1161.8000000000002</ele><time>2026-04-26T10:29:39.616Z</time></trkpt><trkpt lat="46.0071429" lon="11.7581276"><ele>1159.2</ele><time>2026-04-26T10:29:40.623Z</time></trkpt><trkpt lat="46.0070691" lon="11.7580489"><ele>1156.6000000000001</ele><time>2026-04-26T10:29:41.619Z</time></trkpt><trkpt lat="46.0070037" lon="11.757961"><ele>1154.0</ele><time>2026-04-26T10:29:42.617Z</time></trkpt><trkpt lat="46.0069475" lon="11.7578698"><ele>1154.0</ele><time>2026-04-26T10:29:43.562Z</time></trkpt><trkpt lat="46.0068976" lon="11.7577628"><ele>1154.0</ele><time>2026-04-26T10:29:44.557Z</time></trkpt><trkpt lat="46.0068569" lon="11.7576475"><ele>1154.0</ele><time>2026-04-26T10:29:45.558Z</time></trkpt><trkpt lat="46.0068245" lon="11.7575307"><ele>1154.0</ele><time>2026-04-26T10:29:46.557Z</time></trkpt><trkpt lat="46.0067975" lon="11.7574159"><ele>1154.0</ele><time>2026-04-26T10:29:47.574Z</time></trkpt><trkpt lat="46.0067741" lon="11.7572926"><ele>1154.0</ele><time>2026-04-26T10:29:48.532Z</time></trkpt><trkpt lat="46.0067455" lon="11.7571571"><ele>1155.6000000000001</ele><time>2026-04-26T10:29:49.568Z</time></trkpt><trkpt lat="46.0067198" lon="11.7570253"><ele>1157.2</ele><time>2026-04-26T10:29:50.572Z</time></trkpt><trkpt lat="46.006688" lon="11.7568895"><ele>1158.8000000000002</ele><time>2026-04-26T10:29:51.572Z</time></trkpt><trkpt lat="46.0066491" lon="11.7567568"><ele>1160.4</ele><time>2026-04-26T10:29:52.561Z</time></trkpt><trkpt lat="46.0066005" lon="11.7566375"><ele>1162.0</ele><time>2026-04-26T10:29:53.567Z</time></trkpt><trkpt lat="46.0065522" lon="11.7565192"><ele>1159.6</ele><time>2026-04-26T10:29:54.569Z</time></trkpt><trkpt lat="46.0065028" lon="11.7563936"><ele>1157.2</ele><time>2026-04-26T10:29:55.56Z</time></trkpt><trkpt lat="46.0064568" lon="11.7562671"><ele>1154.8</ele><time>2026-04-26T10:29:56.565Z</time></trkpt><trkpt lat="46.0064164" lon="11.7561527"><ele>1152.4</ele><time>2026-04-26T10:29:57.564Z</time></trkpt><trkpt lat="46.0063803" lon="11.7560274"><ele>1150.0</ele><time>2026-04-26T10:29:58.57Z</time></trkpt><trkpt lat="46.0063464" lon="11.7559008"><ele>1150.0</ele><time>2026-04-26T10:29:59.566Z</time></trkpt><trkpt lat="46.0063072" lon="11.7557672"><ele>1150.0</ele><time>2026-04-26T10:30:00.568Z</time></trkpt><trkpt lat="46.0062693" lon="11.7556426"><ele>1150.0</ele><time>2026-04-26T10:30:01.576Z</time></trkpt><trkpt lat="46.0062277" lon="11.7555255"><ele>1150.0</ele><time>2026-04-26T10:30:02.559Z</time></trkpt><trkpt lat="46.0061825" lon="11.7554109"><ele>1150.0</ele><time>2026-04-26T10:30:03.567Z</time></trkpt><trkpt lat="46.0061317" lon="11.7552973"><ele>1151.1666666666665</ele><time>2026-04-26T10:30:04.57Z</time></trkpt><trkpt lat="46.0060773" lon="11.7551903"><ele>1152.3333333333333</ele><time>2026-04-26T10:30:05.569Z</time></trkpt><trkpt lat="46.0060254" lon="11.75509"><ele>1153.5</ele><time>2026-04-26T10:30:06.565Z</time></trkpt><trkpt lat="46.0059803" lon="11.7549807"><ele>1154.6666666666667</ele><time>2026-04-26T10:30:07.557Z</time></trkpt><trkpt lat="46.0059455" lon="11.7548594"><ele>1155.8333333333335</ele><time>2026-04-26T10:30:08.557Z</time></trkpt><trkpt lat="46.0059307" lon="11.7547402"><ele>1157.0</ele><time>2026-04-26T10:30:09.517Z</time></trkpt><trkpt lat="46.0059165" lon="11.7546105"><ele>1157.0</ele><time>2026-04-26T10:30:10.568Z</time></trkpt><trkpt lat="46.0058999" lon="11.7544915"><ele>1157.0</ele><time>2026-04-26T10:30:11.562Z</time></trkpt><trkpt lat="46.00588" lon="11.7543853"><ele>1157.0</ele><time>2026-04-26T10:30:12.549Z</time></trkpt><trkpt lat="46.0058709" lon="11.7542886"><ele>1157.0</ele><time>2026-04-26T10:30:13.579Z</time></trkpt><trkpt lat="46.0059143" lon="11.7541297"><ele>1157.0</ele><time>2026-04-26T10:30:15.56Z</time></trkpt><trkpt lat="46.0059648" lon="11.7540447"><ele>1157.0</ele><time>2026-04-26T10:30:16.556Z</time></trkpt><trkpt lat="46.0060296" lon="11.7539379"><ele>1156.5</ele><time>2026-04-26T10:30:17.542Z</time></trkpt><trkpt lat="46.0060936" lon="11.7538112"><ele>1156.0</ele><time>2026-04-26T10:30:18.556Z</time></trkpt><trkpt lat="46.0061409" lon="11.7537201"><ele>1155.5</ele><time>2026-04-26T10:30:19.556Z</time></trkpt><trkpt lat="46.0061937" lon="11.7536513"><ele>1155.0</ele><time>2026-04-26T10:30:20.533Z</time></trkpt><trkpt lat="46.0062692" lon="11.753599"><ele>1154.5</ele><time>2026-04-26T10:30:21.564Z</time></trkpt><trkpt lat="46.0063601" lon="11.7535573"><ele>1154.0</ele><time>2026-04-26T10:30:22.56Z</time></trkpt><trkpt lat="46.0064585" lon="11.753523"><ele>1152.8333333333335</ele><time>2026-04-26T10:30:23.556Z</time></trkpt><trkpt lat="46.006549" lon="11.7534851"><ele>1151.6666666666667</ele><time>2026-04-26T10:30:24.565Z</time></trkpt><trkpt lat="46.006624" lon="11.75344"><ele>1150.5</ele><time>2026-04-26T10:30:25.556Z</time></trkpt><trkpt lat="46.0066985" lon="11.7533795"><ele>1149.3333333333333</ele><time>2026-04-26T10:30:26.556Z</time></trkpt><trkpt lat="46.0067789" lon="11.7533202"><ele>1148.1666666666665</ele><time>2026-04-26T10:30:27.561Z</time></trkpt><trkpt lat="46.0068633" lon="11.753272"><ele>1147.0</ele><time>2026-04-26T10:30:28.561Z</time></trkpt><trkpt lat="46.0069454" lon="11.7532237"><ele>1147.0</ele><time>2026-04-26T10:30:29.567Z</time></trkpt><trkpt lat="46.0070204" lon="11.7531666"><ele>1147.0</ele><time>2026-04-26T10:30:30.566Z</time></trkpt><trkpt lat="46.0070812" lon="11.753103"><ele>1147.0</ele><time>2026-04-26T10:30:31.552Z</time></trkpt><trkpt lat="46.0071291" lon="11.7530181"><ele>1147.0</ele><time>2026-04-26T10:30:32.592Z</time></trkpt><trkpt lat="46.0071771" lon="11.7529319"><ele>1147.0</ele><time>2026-04-26T10:30:33.587Z</time></trkpt><trkpt lat="46.0072223" lon="11.7528402"><ele>1147.0</ele><time>2026-04-26T10:30:34.541Z</time></trkpt><trkpt lat="46.007267" lon="11.7527409"><ele>1144.2</ele><time>2026-04-26T10:30:35.528Z</time></trkpt><trkpt lat="46.0073213" lon="11.7526535"><ele>1141.4</ele><time>2026-04-26T10:30:36.553Z</time></trkpt><trkpt lat="46.0073906" lon="11.7525863"><ele>1138.6</ele><time>2026-04-26T10:30:37.552Z</time></trkpt><trkpt lat="46.0074616" lon="11.7525427"><ele>1135.8</ele><time>2026-04-26T10:30:38.556Z</time></trkpt><trkpt lat="46.0075993" lon="11.7525338"><ele>1133.0</ele><time>2026-04-26T10:30:41.567Z</time></trkpt><trkpt lat="46.0078154" lon="11.7524459"><ele>1133.0</ele><time>2026-04-26T10:30:45.525Z</time></trkpt><trkpt lat="46.0079054" lon="11.7523425"><ele>1133.0</ele><time>2026-04-26T10:30:46.544Z</time></trkpt><trkpt lat="46.0079867" lon="11.7522445"><ele>1133.0</ele><time>2026-04-26T10:30:48.592Z</time></trkpt><trkpt lat="46.0080365" lon="11.752188"><ele>1133.0</ele><time>2026-04-26T10:30:49.558Z</time></trkpt><trkpt lat="46.0081258" lon="11.7521593"><ele>1133.0</ele><time>2026-04-26T10:30:51.55Z</time></trkpt><trkpt lat="46.0082132" lon="11.7521875"><ele>1133.0</ele><time>2026-04-26T10:30:53.577Z</time></trkpt><trkpt lat="46.0083026" lon="11.7522327"><ele>1133.0</ele><time>2026-04-26T10:30:55.562Z</time></trkpt><trkpt lat="46.0086016" lon="11.752147"><ele>1133.0</ele><time>2026-04-26T10:30:57.549Z</time></trkpt><trkpt lat="46.0087456" lon="11.7520719"><ele>1136.4</ele><time>2026-04-26T10:30:58.564Z</time></trkpt><trkpt lat="46.0089303" lon="11.7519958"><ele>1139.8</ele><time>2026-04-26T10:30:59.551Z</time></trkpt><trkpt lat="46.0090205" lon="11.7519753"><ele>1143.2</ele><time>2026-04-26T10:31:00.543Z</time></trkpt><trkpt lat="46.0090922" lon="11.7519648"><ele>1146.6</ele><time>2026-04-26T10:31:01.578Z</time></trkpt><trkpt lat="46.0091665" lon="11.7519461"><ele>1150.0</ele><time>2026-04-26T10:31:02.519Z</time></trkpt><trkpt lat="46.0092566" lon="11.751911"><ele>1150.8</ele><time>2026-04-26T10:31:03.576Z</time></trkpt><trkpt lat="46.0093312" lon="11.7518746"><ele>1151.6</ele><time>2026-04-26T10:31:04.593Z</time></trkpt><trkpt lat="46.0094285" lon="11.7518177"><ele>1152.4</ele><time>2026-04-26T10:31:05.619Z</time></trkpt><trkpt lat="46.0095128" lon="11.7517801"><ele>1153.2</ele><time>2026-04-26T10:31:06.564Z</time></trkpt><trkpt lat="46.0096074" lon="11.7517169"><ele>1154.0</ele><time>2026-04-26T10:31:07.557Z</time></trkpt><trkpt lat="46.0096914" lon="11.7516378"><ele>1149.0</ele><time>2026-04-26T10:31:08.555Z</time></trkpt><trkpt lat="46.0097581" lon="11.7515393"><ele>1144.0</ele><time>2026-04-26T10:31:09.579Z</time></trkpt><trkpt lat="46.0098516" lon="11.7514485"><ele>1139.0</ele><time>2026-04-26T10:31:10.584Z</time></trkpt><trkpt lat="46.0099217" lon="11.7513704"><ele>1134.0</ele><time>2026-04-26T10:31:11.498Z</time></trkpt><trkpt lat="46.0100122" lon="11.7512804"><ele>1129.0</ele><time>2026-04-26T10:31:12.533Z</time></trkpt><trkpt lat="46.0100972" lon="11.7512311"><ele>1129.0</ele><time>2026-04-26T10:31:13.484Z</time></trkpt><trkpt lat="46.0101877" lon="11.7511627"><ele>1129.0</ele><time>2026-04-26T10:31:14.565Z</time></trkpt><trkpt lat="46.0102805" lon="11.7511206"><ele>1129.0</ele><time>2026-04-26T10:31:15.561Z</time></trkpt><trkpt lat="46.0103686" lon="11.7510995"><ele>1129.0</ele><time>2026-04-26T10:31:16.483Z</time></trkpt><trkpt lat="46.010476" lon="11.751054"><ele>1129.0</ele><time>2026-04-26T10:31:17.579Z</time></trkpt><trkpt lat="46.0105754" lon="11.7510106"><ele>1124.0</ele><time>2026-04-26T10:31:18.561Z</time></trkpt><trkpt lat="46.0106711" lon="11.7509727"><ele>1119.0</ele><time>2026-04-26T10:31:19.559Z</time></trkpt><trkpt lat="46.0107671" lon="11.7509265"><ele>1114.0</ele><time>2026-04-26T10:31:20.592Z</time></trkpt><trkpt lat="46.0108505" lon="11.7508992"><ele>1109.0</ele><time>2026-04-26T10:31:21.539Z</time></trkpt><trkpt lat="46.0109425" lon="11.750864"><ele>1104.0</ele><time>2026-04-26T10:31:22.585Z</time></trkpt><trkpt lat="46.0110273" lon="11.7508362"><ele>1104.0</ele><time>2026-04-26T10:31:23.526Z</time></trkpt><trkpt lat="46.0111117" lon="11.7508261"><ele>1104.0</ele><time>2026-04-26T10:31:24.542Z</time></trkpt><trkpt lat="46.0112029" lon="11.7508178"><ele>1104.0</ele><time>2026-04-26T10:31:25.579Z</time></trkpt><trkpt lat="46.0112834" lon="11.7508014"><ele>1104.0</ele><time>2026-04-26T10:31:26.538Z</time></trkpt><trkpt lat="46.0113702" lon="11.7507997"><ele>1104.0</ele><time>2026-04-26T10:31:27.55Z</time></trkpt><trkpt lat="46.0114454" lon="11.7507946"><ele>1104.0</ele><time>2026-04-26T10:31:28.559Z</time></trkpt><trkpt lat="46.0115331" lon="11.7507944"><ele>1104.0</ele><time>2026-04-26T10:31:29.637Z</time></trkpt><trkpt lat="46.0116036" lon="11.7507809"><ele>1104.0</ele><time>2026-04-26T10:31:30.568Z</time></trkpt><trkpt lat="46.0116901" lon="11.7507665"><ele>1104.0</ele><time>2026-04-26T10:31:31.608Z</time></trkpt><trkpt lat="46.0117666" lon="11.7507627"><ele>1104.0</ele><time>2026-04-26T10:31:32.559Z</time></trkpt><trkpt lat="46.0118469" lon="11.7507366"><ele>1104.0</ele><time>2026-04-26T10:31:33.558Z</time></trkpt><trkpt lat="46.0119251" lon="11.7506938"><ele>1104.0</ele><time>2026-04-26T10:31:34.58Z</time></trkpt><trkpt lat="46.0120218" lon="11.750646"><ele>1105.5</ele><time>2026-04-26T10:31:35.58Z</time></trkpt><trkpt lat="46.0121544" lon="11.7504993"><ele>1107.0</ele><time>2026-04-26T10:31:37.897Z</time></trkpt><trkpt lat="46.0122211" lon="11.7503469"><ele>1108.5</ele><time>2026-04-26T10:31:39.325Z</time></trkpt><trkpt lat="46.0122578" lon="11.7501819"><ele>1110.0</ele><time>2026-04-26T10:31:40.563Z</time></trkpt><trkpt lat="46.0122857" lon="11.7500416"><ele>1109.5</ele><time>2026-04-26T10:31:41.61Z</time></trkpt><trkpt lat="46.0123263" lon="11.7499336"><ele>1109.0</ele><time>2026-04-26T10:31:42.623Z</time></trkpt><trkpt lat="46.0123852" lon="11.7498815"><ele>1108.5</ele><time>2026-04-26T10:31:43.606Z</time></trkpt><trkpt lat="46.0124603" lon="11.7498547"><ele>1108.0</ele><time>2026-04-26T10:31:44.616Z</time></trkpt><trkpt lat="46.0125416" lon="11.7498257"><ele>1107.5</ele><time>2026-04-26T10:31:45.62Z</time></trkpt><trkpt lat="46.0126189" lon="11.7497856"><ele>1107.0</ele><time>2026-04-26T10:31:46.614Z</time></trkpt><trkpt lat="46.0126923" lon="11.7497309"><ele>1107.0</ele><time>2026-04-26T10:31:47.625Z</time></trkpt><trkpt lat="46.0127561" lon="11.7496539"><ele>1107.0</ele><time>2026-04-26T10:31:48.616Z</time></trkpt><trkpt lat="46.0128107" lon="11.749561"><ele>1107.0</ele><time>2026-04-26T10:31:49.625Z</time></trkpt><trkpt lat="46.0128602" lon="11.7494651"><ele>1107.0</ele><time>2026-04-26T10:31:50.621Z</time></trkpt><trkpt lat="46.0129112" lon="11.7493685"><ele>1107.0</ele><time>2026-04-26T10:31:51.614Z</time></trkpt><trkpt lat="46.0129582" lon="11.7492696"><ele>1107.0</ele><time>2026-04-26T10:31:52.605Z</time></trkpt><trkpt lat="46.0130018" lon="11.7491636"><ele>1107.0</ele><time>2026-04-26T10:31:53.617Z</time></trkpt><trkpt lat="46.0130457" lon="11.7490632"><ele>1107.0</ele><time>2026-04-26T10:31:54.619Z</time></trkpt><trkpt lat="46.0130937" lon="11.7489742"><ele>1107.0</ele><time>2026-04-26T10:31:55.618Z</time></trkpt><trkpt lat="46.0131395" lon="11.7488942"><ele>1107.0</ele><time>2026-04-26T10:31:56.6Z</time></trkpt><trkpt lat="46.0131924" lon="11.7488313"><ele>1107.0</ele><time>2026-04-26T10:31:57.604Z</time></trkpt><trkpt lat="46.0132547" lon="11.7487956"><ele>1107.0</ele><time>2026-04-26T10:31:58.616Z</time></trkpt><trkpt lat="46.0133253" lon="11.7487773"><ele>1107.0</ele><time>2026-04-26T10:31:59.615Z</time></trkpt><trkpt lat="46.0134049" lon="11.7487685"><ele>1107.0</ele><time>2026-04-26T10:32:00.603Z</time></trkpt><trkpt lat="46.013492" lon="11.7487651"><ele>1107.0</ele><time>2026-04-26T10:32:01.614Z</time></trkpt><trkpt lat="46.0135801" lon="11.748765"><ele>1107.0</ele><time>2026-04-26T10:32:02.625Z</time></trkpt><trkpt lat="46.0136615" lon="11.7487511"><ele>1107.0</ele><time>2026-04-26T10:32:03.622Z</time></trkpt><trkpt lat="46.0137418" lon="11.748721"><ele>1107.0</ele><time>2026-04-26T10:32:04.614Z</time></trkpt><trkpt lat="46.01382" lon="11.7486653"><ele>1107.0</ele><time>2026-04-26T10:32:05.616Z</time></trkpt><trkpt lat="46.0139001" lon="11.7486089"><ele>1103.2</ele><time>2026-04-26T10:32:06.616Z</time></trkpt><trkpt lat="46.0139804" lon="11.7485422"><ele>1099.4</ele><time>2026-04-26T10:32:07.622Z</time></trkpt><trkpt lat="46.0140504" lon="11.748459"><ele>1095.6</ele><time>2026-04-26T10:32:08.616Z</time></trkpt><trkpt lat="46.0141167" lon="11.7483681"><ele>1091.8</ele><time>2026-04-26T10:32:09.622Z</time></trkpt><trkpt lat="46.0141804" lon="11.7482793"><ele>1088.0</ele><time>2026-04-26T10:32:10.613Z</time></trkpt><trkpt lat="46.0142479" lon="11.7481874"><ele>1088.0</ele><time>2026-04-26T10:32:11.614Z</time></trkpt><trkpt lat="46.0143068" lon="11.7481022"><ele>1088.0</ele><time>2026-04-26T10:32:12.596Z</time></trkpt><trkpt lat="46.0143717" lon="11.7480281"><ele>1088.0</ele><time>2026-04-26T10:32:13.611Z</time></trkpt><trkpt lat="46.0144313" lon="11.7479523"><ele>1088.0</ele><time>2026-04-26T10:32:14.607Z</time></trkpt><trkpt lat="46.0145076" lon="11.7478884"><ele>1088.0</ele><time>2026-04-26T10:32:15.624Z</time></trkpt><trkpt lat="46.0145872" lon="11.747822"><ele>1088.0</ele><time>2026-04-26T10:32:16.608Z</time></trkpt><trkpt lat="46.0146674" lon="11.7477592"><ele>1088.2</ele><time>2026-04-26T10:32:17.608Z</time></trkpt><trkpt lat="46.0147501" lon="11.7477045"><ele>1088.4</ele><time>2026-04-26T10:32:18.624Z</time></trkpt><trkpt lat="46.0148304" lon="11.7476503"><ele>1088.6000000000001</ele><time>2026-04-26T10:32:19.614Z</time></trkpt><trkpt lat="46.0149038" lon="11.7475705"><ele>1088.8</ele><time>2026-04-26T10:32:20.629Z</time></trkpt><trkpt lat="46.0149561" lon="11.7474694"><ele>1089.0</ele><time>2026-04-26T10:32:21.616Z</time></trkpt><trkpt lat="46.0150064" lon="11.7473569"><ele>1089.0</ele><time>2026-04-26T10:32:22.617Z</time></trkpt><trkpt lat="46.0150538" lon="11.7472508"><ele>1089.0</ele><time>2026-04-26T10:32:23.605Z</time></trkpt><trkpt lat="46.0150922" lon="11.7471262"><ele>1089.0</ele><time>2026-04-26T10:32:24.623Z</time></trkpt><trkpt lat="46.015133" lon="11.7470269"><ele>1089.0</ele><time>2026-04-26T10:32:25.617Z</time></trkpt><trkpt lat="46.0151767" lon="11.7469467"><ele>1089.0</ele><time>2026-04-26T10:32:26.612Z</time></trkpt><trkpt lat="46.0152257" lon="11.7468766"><ele>1089.0</ele><time>2026-04-26T10:32:27.622Z</time></trkpt><trkpt lat="46.0152758" lon="11.7468167"><ele>1084.3333333333333</ele><time>2026-04-26T10:32:28.624Z</time></trkpt><trkpt lat="46.0153319" lon="11.746757"><ele>1079.6666666666667</ele><time>2026-04-26T10:32:29.63Z</time></trkpt><trkpt lat="46.015399" lon="11.7466893"><ele>1075.0</ele><time>2026-04-26T10:32:30.627Z</time></trkpt><trkpt lat="46.0154711" lon="11.7466222"><ele>1070.3333333333335</ele><time>2026-04-26T10:32:31.617Z</time></trkpt><trkpt lat="46.0155411" lon="11.7465524"><ele>1065.6666666666667</ele><time>2026-04-26T10:32:32.626Z</time></trkpt><trkpt lat="46.0156051" lon="11.746479"><ele>1061.0</ele><time>2026-04-26T10:32:33.605Z</time></trkpt><trkpt lat="46.0156659" lon="11.7463908"><ele>1061.0</ele><time>2026-04-26T10:32:34.61Z</time></trkpt><trkpt lat="46.0157229" lon="11.7462907"><ele>1061.0</ele><time>2026-04-26T10:32:35.614Z</time></trkpt><trkpt lat="46.0157735" lon="11.7461787"><ele>1061.0</ele><time>2026-04-26T10:32:36.621Z</time></trkpt><trkpt lat="46.0158163" lon="11.7460692"><ele>1061.0</ele><time>2026-04-26T10:32:37.597Z</time></trkpt><trkpt lat="46.0158549" lon="11.7459521"><ele>1061.0</ele><time>2026-04-26T10:32:38.611Z</time></trkpt><trkpt lat="46.0158809" lon="11.7458293"><ele>1061.0</ele><time>2026-04-26T10:32:39.629Z</time></trkpt><trkpt lat="46.015884" lon="11.7457034"><ele>1062.0</ele><time>2026-04-26T10:32:40.614Z</time></trkpt><trkpt lat="46.0158738" lon="11.7455776"><ele>1063.0</ele><time>2026-04-26T10:32:41.62Z</time></trkpt><trkpt lat="46.0158632" lon="11.745448"><ele>1064.0</ele><time>2026-04-26T10:32:42.616Z</time></trkpt><trkpt lat="46.0158554" lon="11.7453079"><ele>1065.0</ele><time>2026-04-26T10:32:43.605Z</time></trkpt><trkpt lat="46.0158405" lon="11.7451272"><ele>1066.0</ele><time>2026-04-26T10:32:44.624Z</time></trkpt><trkpt lat="46.0158238" lon="11.7449295"><ele>1058.6</ele><time>2026-04-26T10:32:45.618Z</time></trkpt><trkpt lat="46.0158064" lon="11.7447634"><ele>1051.1999999999998</ele><time>2026-04-26T10:32:46.622Z</time></trkpt><trkpt lat="46.0157793" lon="11.7446212"><ele>1043.8000000000002</ele><time>2026-04-26T10:32:47.619Z</time></trkpt><trkpt lat="46.0157373" lon="11.7444801"><ele>1036.4</ele><time>2026-04-26T10:32:48.603Z</time></trkpt><trkpt lat="46.0156795" lon="11.7443369"><ele>1029.0</ele><time>2026-04-26T10:32:49.636Z</time></trkpt><trkpt lat="46.0156271" lon="11.7442278"><ele>1029.0</ele><time>2026-04-26T10:32:50.633Z</time></trkpt><trkpt lat="46.0155853" lon="11.7441231"><ele>1029.0</ele><time>2026-04-26T10:32:51.625Z</time></trkpt><trkpt lat="46.0155555" lon="11.7440077"><ele>1029.0</ele><time>2026-04-26T10:32:52.617Z</time></trkpt><trkpt lat="46.0155374" lon="11.7438771"><ele>1029.0</ele><time>2026-04-26T10:32:53.61Z</time></trkpt><trkpt lat="46.0155269" lon="11.7437344"><ele>1029.0</ele><time>2026-04-26T10:32:54.61Z</time></trkpt><trkpt lat="46.0155173" lon="11.7435852"><ele>1030.2</ele><time>2026-04-26T10:32:55.619Z</time></trkpt><trkpt lat="46.0155041" lon="11.74344"><ele>1031.4</ele><time>2026-04-26T10:32:56.61Z</time></trkpt><trkpt lat="46.0154892" lon="11.7432957"><ele>1032.6</ele><time>2026-04-26T10:32:57.617Z</time></trkpt><trkpt lat="46.0154764" lon="11.7431524"><ele>1033.8</ele><time>2026-04-26T10:32:58.628Z</time></trkpt><trkpt lat="46.015468" lon="11.7430187"><ele>1035.0</ele><time>2026-04-26T10:32:59.559Z</time></trkpt><trkpt lat="46.0154607" lon="11.7428773"><ele>1035.0</ele><time>2026-04-26T10:33:00.566Z</time></trkpt><trkpt lat="46.0154564" lon="11.7427548"><ele>1035.0</ele><time>2026-04-26T10:33:01.552Z</time></trkpt><trkpt lat="46.0154511" lon="11.7426255"><ele>1035.0</ele><time>2026-04-26T10:33:02.575Z</time></trkpt><trkpt lat="46.0154412" lon="11.7424955"><ele>1035.0</ele><time>2026-04-26T10:33:03.573Z</time></trkpt><trkpt lat="46.0154318" lon="11.7423704"><ele>1035.0</ele><time>2026-04-26T10:33:04.576Z</time></trkpt><trkpt lat="46.0154192" lon="11.7422659"><ele>1035.0</ele><time>2026-04-26T10:33:05.569Z</time></trkpt><trkpt lat="46.0153877" lon="11.7421805"><ele>1035.0</ele><time>2026-04-26T10:33:06.564Z</time></trkpt><trkpt lat="46.0153276" lon="11.7421084"><ele>1035.0</ele><time>2026-04-26T10:33:07.57Z</time></trkpt><trkpt lat="46.0152523" lon="11.7420569"><ele>1035.0</ele><time>2026-04-26T10:33:08.57Z</time></trkpt><trkpt lat="46.0151624" lon="11.7420322"><ele>1035.0</ele><time>2026-04-26T10:33:09.559Z</time></trkpt><trkpt lat="46.0150725" lon="11.7420388"><ele>1035.0</ele><time>2026-04-26T10:33:10.561Z</time></trkpt><trkpt lat="46.0149943" lon="11.7420748"><ele>1035.0</ele><time>2026-04-26T10:33:11.558Z</time></trkpt><trkpt lat="46.014931" lon="11.7421127"><ele>1035.0</ele><time>2026-04-26T10:33:12.552Z</time></trkpt><trkpt lat="46.0148197" lon="11.7421468"><ele>1035.0</ele><time>2026-04-26T10:33:14.596Z</time></trkpt><trkpt lat="46.0147066" lon="11.7421609"><ele>1035.0</ele><time>2026-04-26T10:33:16.571Z</time></trkpt><trkpt lat="46.0145911" lon="11.7421182"><ele>1035.0</ele><time>2026-04-26T10:33:18.564Z</time></trkpt><trkpt lat="46.0145029" lon="11.7419915"><ele>1035.0</ele><time>2026-04-26T10:33:20.554Z</time></trkpt><trkpt lat="46.0144546" lon="11.7419147"><ele>1035.0</ele><time>2026-04-26T10:33:21.56Z</time></trkpt><trkpt lat="46.0144039" lon="11.7418343"><ele>1035.0</ele><time>2026-04-26T10:33:22.554Z</time></trkpt><trkpt lat="46.0143463" lon="11.7417517"><ele>1035.0</ele><time>2026-04-26T10:33:23.557Z</time></trkpt><trkpt lat="46.0142894" lon="11.7416688"><ele>1035.0</ele><time>2026-04-26T10:33:24.572Z</time></trkpt><trkpt lat="46.0142403" lon="11.7415891"><ele>1035.0</ele><time>2026-04-26T10:33:25.57Z</time></trkpt><trkpt lat="46.0141915" lon="11.7415069"><ele>1034.8333333333333</ele><time>2026-04-26T10:33:26.558Z</time></trkpt><trkpt lat="46.0141553" lon="11.7414108"><ele>1034.6666666666667</ele><time>2026-04-26T10:33:27.57Z</time></trkpt><trkpt lat="46.0141406" lon="11.7413081"><ele>1034.5</ele><time>2026-04-26T10:33:28.568Z</time></trkpt><trkpt lat="46.0141318" lon="11.7411854"><ele>1034.3333333333335</ele><time>2026-04-26T10:33:29.558Z</time></trkpt><trkpt lat="46.0141214" lon="11.7410397"><ele>1034.1666666666667</ele><time>2026-04-26T10:33:30.567Z</time></trkpt><trkpt lat="46.0141071" lon="11.7408929"><ele>1034.0</ele><time>2026-04-26T10:33:31.561Z</time></trkpt><trkpt lat="46.0140836" lon="11.740757"><ele>1034.0</ele><time>2026-04-26T10:33:32.572Z</time></trkpt><trkpt lat="46.0140521" lon="11.7406401"><ele>1034.0</ele><time>2026-04-26T10:33:33.578Z</time></trkpt><trkpt lat="46.0140039" lon="11.7405438"><ele>1034.0</ele><time>2026-04-26T10:33:34.561Z</time></trkpt><trkpt lat="46.0139359" lon="11.7404789"><ele>1034.0</ele><time>2026-04-26T10:33:35.566Z</time></trkpt><trkpt lat="46.0138564" lon="11.7404438"><ele>1034.0</ele><time>2026-04-26T10:33:36.559Z</time></trkpt><trkpt lat="46.0137698" lon="11.7404331"><ele>1034.0</ele><time>2026-04-26T10:33:37.564Z</time></trkpt><trkpt lat="46.0136813" lon="11.7404431"><ele>1034.0</ele><time>2026-04-26T10:33:38.572Z</time></trkpt><trkpt lat="46.0135923" lon="11.7404679"><ele>1034.0</ele><time>2026-04-26T10:33:39.568Z</time></trkpt><trkpt lat="46.0134975" lon="11.7405016"><ele>1034.0</ele><time>2026-04-26T10:33:40.572Z</time></trkpt><trkpt lat="46.0134033" lon="11.740545"><ele>1034.0</ele><time>2026-04-26T10:33:41.568Z</time></trkpt><trkpt lat="46.0133265" lon="11.7405864"><ele>1034.0</ele><time>2026-04-26T10:33:42.573Z</time></trkpt><trkpt lat="46.0132539" lon="11.7406234"><ele>1034.0</ele><time>2026-04-26T10:33:43.551Z</time></trkpt><trkpt lat="46.0131788" lon="11.7406601"><ele>1032.3333333333335</ele><time>2026-04-26T10:33:44.563Z</time></trkpt><trkpt lat="46.0131038" lon="11.7406775"><ele>1030.6666666666667</ele><time>2026-04-26T10:33:45.583Z</time></trkpt><trkpt lat="46.0130341" lon="11.7406631"><ele>1029.0</ele><time>2026-04-26T10:33:46.57Z</time></trkpt><trkpt lat="46.0129663" lon="11.7406222"><ele>1027.3333333333333</ele><time>2026-04-26T10:33:47.575Z</time></trkpt><trkpt lat="46.0129037" lon="11.7405495"><ele>1025.6666666666665</ele><time>2026-04-26T10:33:48.566Z</time></trkpt><trkpt lat="46.012834" lon="11.7404576"><ele>1024.0</ele><time>2026-04-26T10:33:49.572Z</time></trkpt><trkpt lat="46.0127624" lon="11.7403727"><ele>1023.9999999999999</ele><time>2026-04-26T10:33:50.562Z</time></trkpt><trkpt lat="46.0126918" lon="11.7403003"><ele>1024.0</ele><time>2026-04-26T10:33:51.595Z</time></trkpt><trkpt lat="46.0126231" lon="11.7402427"><ele>1024.0</ele><time>2026-04-26T10:33:52.577Z</time></trkpt><trkpt lat="46.012554" lon="11.7401778"><ele>1024.0</ele><time>2026-04-26T10:33:53.563Z</time></trkpt><trkpt lat="46.0124797" lon="11.7401179"><ele>1023.9999999999999</ele><time>2026-04-26T10:33:54.566Z</time></trkpt><trkpt lat="46.0124109" lon="11.7400506"><ele>1024.0</ele><time>2026-04-26T10:33:55.552Z</time></trkpt><trkpt lat="46.0123463" lon="11.7399852"><ele>1023.3333333333333</ele><time>2026-04-26T10:33:56.56Z</time></trkpt><trkpt lat="46.0122945" lon="11.73991"><ele>1022.6666666666666</ele><time>2026-04-26T10:33:57.564Z</time></trkpt><trkpt lat="46.0122533" lon="11.7398196"><ele>1022.0</ele><time>2026-04-26T10:33:58.575Z</time></trkpt><trkpt lat="46.0122244" lon="11.7397101"><ele>1021.3333333333333</ele><time>2026-04-26T10:33:59.568Z</time></trkpt><trkpt lat="46.0121986" lon="11.7395894"><ele>1020.6666666666666</ele><time>2026-04-26T10:34:00.586Z</time></trkpt><trkpt lat="46.0121777" lon="11.7394705"><ele>1020.0</ele><time>2026-04-26T10:34:01.543Z</time></trkpt><trkpt lat="46.0121535" lon="11.7393467"><ele>1020.0</ele><time>2026-04-26T10:34:02.557Z</time></trkpt><trkpt lat="46.0121222" lon="11.739226"><ele>1020.0</ele><time>2026-04-26T10:34:03.568Z</time></trkpt><trkpt lat="46.0120906" lon="11.7391096"><ele>1020.0</ele><time>2026-04-26T10:34:04.554Z</time></trkpt><trkpt lat="46.0120536" lon="11.7389885"><ele>1020.0</ele><time>2026-04-26T10:34:05.541Z</time></trkpt><trkpt lat="46.0120054" lon="11.7388793"><ele>1020.0</ele><time>2026-04-26T10:34:06.556Z</time></trkpt><trkpt lat="46.0119491" lon="11.7387817"><ele>1020.0</ele><time>2026-04-26T10:34:07.574Z</time></trkpt><trkpt lat="46.0118832" lon="11.7386924"><ele>1020.0</ele><time>2026-04-26T10:34:08.578Z</time></trkpt><trkpt lat="46.0118177" lon="11.7386021"><ele>1020.0</ele><time>2026-04-26T10:34:09.563Z</time></trkpt><trkpt lat="46.011755" lon="11.738518"><ele>1020.0</ele><time>2026-04-26T10:34:10.58Z</time></trkpt><trkpt lat="46.0116896" lon="11.7384297"><ele>1020.0</ele><time>2026-04-26T10:34:11.561Z</time></trkpt><trkpt lat="46.0116152" lon="11.7383316"><ele>1020.0</ele><time>2026-04-26T10:34:12.563Z</time></trkpt><trkpt lat="46.0115441" lon="11.7382287"><ele>1021.0</ele><time>2026-04-26T10:34:13.575Z</time></trkpt><trkpt lat="46.0114768" lon="11.7381329"><ele>1022.0</ele><time>2026-04-26T10:34:14.556Z</time></trkpt><trkpt lat="46.0114046" lon="11.7380374"><ele>1023.0</ele><time>2026-04-26T10:34:15.577Z</time></trkpt><trkpt lat="46.0113341" lon="11.7379498"><ele>1024.0</ele><time>2026-04-26T10:34:16.566Z</time></trkpt><trkpt lat="46.0112608" lon="11.7378627"><ele>1025.0</ele><time>2026-04-26T10:34:17.57Z</time></trkpt><trkpt lat="46.0111962" lon="11.737783"><ele>1024.6666666666667</ele><time>2026-04-26T10:34:18.569Z</time></trkpt><trkpt lat="46.0111414" lon="11.737706"><ele>1024.3333333333335</ele><time>2026-04-26T10:34:19.577Z</time></trkpt><trkpt lat="46.0110899" lon="11.7376288"><ele>1024.0</ele><time>2026-04-26T10:34:20.572Z</time></trkpt><trkpt lat="46.011037" lon="11.7375569"><ele>1023.6666666666667</ele><time>2026-04-26T10:34:21.572Z</time></trkpt><trkpt lat="46.0109803" lon="11.737485"><ele>1023.3333333333334</ele><time>2026-04-26T10:34:22.564Z</time></trkpt><trkpt lat="46.010921" lon="11.7374046"><ele>1023.0</ele><time>2026-04-26T10:34:23.564Z</time></trkpt><trkpt lat="46.0108544" lon="11.7373287"><ele>1021.6666666666666</ele><time>2026-04-26T10:34:24.565Z</time></trkpt><trkpt lat="46.010783" lon="11.7372735"><ele>1020.3333333333333</ele><time>2026-04-26T10:34:25.571Z</time></trkpt><trkpt lat="46.0107017" lon="11.7372279"><ele>1019.0</ele><time>2026-04-26T10:34:26.562Z</time></trkpt><trkpt lat="46.0106168" lon="11.737202"><ele>1017.6666666666666</ele><time>2026-04-26T10:34:27.562Z</time></trkpt><trkpt lat="46.0105405" lon="11.7371798"><ele>1016.3333333333333</ele><time>2026-04-26T10:34:28.566Z</time></trkpt><trkpt lat="46.0104755" lon="11.7371453"><ele>1015.0</ele><time>2026-04-26T10:34:29.562Z</time></trkpt><trkpt lat="46.0104139" lon="11.7370984"><ele>1015.0</ele><time>2026-04-26T10:34:30.572Z</time></trkpt><trkpt lat="46.0103555" lon="11.7370356"><ele>1015.0</ele><time>2026-04-26T10:34:31.57Z</time></trkpt><trkpt lat="46.0103124" lon="11.736956"><ele>1015.0</ele><time>2026-04-26T10:34:32.555Z</time></trkpt><trkpt lat="46.0102805" lon="11.7368638"><ele>1015.0</ele><time>2026-04-26T10:34:33.559Z</time></trkpt><trkpt lat="46.0102572" lon="11.7367654"><ele>1015.0</ele><time>2026-04-26T10:34:34.559Z</time></trkpt><trkpt lat="46.0102419" lon="11.7366581"><ele>1015.0</ele><time>2026-04-26T10:34:35.566Z</time></trkpt><trkpt lat="46.0102291" lon="11.7365415"><ele>1015.0</ele><time>2026-04-26T10:34:36.557Z</time></trkpt><trkpt lat="46.0102213" lon="11.7364165"><ele>1014.4999999999999</ele><time>2026-04-26T10:34:37.56Z</time></trkpt><trkpt lat="46.0102188" lon="11.7362895"><ele>1014.0</ele><time>2026-04-26T10:34:38.57Z</time></trkpt><trkpt lat="46.0102023" lon="11.7361631"><ele>1013.5</ele><time>2026-04-26T10:34:39.576Z</time></trkpt><trkpt lat="46.0101804" lon="11.7360417"><ele>1013.0</ele><time>2026-04-26T10:34:40.579Z</time></trkpt><trkpt lat="46.0101548" lon="11.7359205"><ele>1012.4999999999999</ele><time>2026-04-26T10:34:41.564Z</time></trkpt><trkpt lat="46.0101255" lon="11.7358144"><ele>1012.0</ele><time>2026-04-26T10:34:42.577Z</time></trkpt><trkpt lat="46.0101068" lon="11.7357183"><ele>1011.9999999999999</ele><time>2026-04-26T10:34:43.577Z</time></trkpt><trkpt lat="46.0101013" lon="11.7356214"><ele>1012.0</ele><time>2026-04-26T10:34:44.56Z</time></trkpt><trkpt lat="46.0101128" lon="11.7355213"><ele>1012.0</ele><time>2026-04-26T10:34:45.548Z</time></trkpt><trkpt lat="46.0101399" lon="11.7354146"><ele>1012.0</ele><time>2026-04-26T10:34:46.556Z</time></trkpt><trkpt lat="46.010172" lon="11.7353003"><ele>1011.9999999999999</ele><time>2026-04-26T10:34:47.552Z</time></trkpt><trkpt lat="46.0102001" lon="11.7351681"><ele>1012.0</ele><time>2026-04-26T10:34:48.6Z</time></trkpt><trkpt lat="46.0102067" lon="11.7350435"><ele>1011.8</ele><time>2026-04-26T10:34:49.563Z</time></trkpt><trkpt lat="46.0101937" lon="11.734901"><ele>1011.6</ele><time>2026-04-26T10:34:50.571Z</time></trkpt><trkpt lat="46.0101603" lon="11.7347652"><ele>1011.3999999999999</ele><time>2026-04-26T10:34:51.535Z</time></trkpt><trkpt lat="46.0101052" lon="11.7346105"><ele>1011.1999999999999</ele><time>2026-04-26T10:34:52.575Z</time></trkpt><trkpt lat="46.0100534" lon="11.734445"><ele>1011.0</ele><time>2026-04-26T10:34:53.581Z</time></trkpt><trkpt lat="46.0100245" lon="11.7342935"><ele>1011.8</ele><time>2026-04-26T10:34:54.577Z</time></trkpt><trkpt lat="46.0100119" lon="11.7341522"><ele>1012.5999999999999</ele><time>2026-04-26T10:34:55.554Z</time></trkpt><trkpt lat="46.0099983" lon="11.7340313"><ele>1013.4</ele><time>2026-04-26T10:34:56.556Z</time></trkpt><trkpt lat="46.0099844" lon="11.7338962"><ele>1014.2</ele><time>2026-04-26T10:34:57.578Z</time></trkpt><trkpt lat="46.0099654" lon="11.7337618"><ele>1015.0</ele><time>2026-04-26T10:34:58.569Z</time></trkpt><trkpt lat="46.0099413" lon="11.7336373"><ele>1013.9999999999999</ele><time>2026-04-26T10:34:59.566Z</time></trkpt><trkpt lat="46.0099148" lon="11.733527"><ele>1013.0</ele><time>2026-04-26T10:35:00.545Z</time></trkpt><trkpt lat="46.0098865" lon="11.7334249"><ele>1012.0</ele><time>2026-04-26T10:35:01.55Z</time></trkpt><trkpt lat="46.0098603" lon="11.7333288"><ele>1011.0</ele><time>2026-04-26T10:35:02.551Z</time></trkpt><trkpt lat="46.0098336" lon="11.7332363"><ele>1009.9999999999999</ele><time>2026-04-26T10:35:03.557Z</time></trkpt><trkpt lat="46.0098145" lon="11.7331378"><ele>1009.0</ele><time>2026-04-26T10:35:04.566Z</time></trkpt><trkpt lat="46.0097783" lon="11.7329773"><ele>1009.0</ele><time>2026-04-26T10:35:06.57Z</time></trkpt><trkpt lat="46.0097447" lon="11.7328431"><ele>1009.0000000000001</ele><time>2026-04-26T10:35:08.56Z</time></trkpt><trkpt lat="46.0097056" lon="11.7327361"><ele>1009.0000000000001</ele><time>2026-04-26T10:35:10.533Z</time></trkpt><trkpt lat="46.0096748" lon="11.7326047"><ele>1009.0</ele><time>2026-04-26T10:35:12.537Z</time></trkpt><trkpt lat="46.0096572" lon="11.7324602"><ele>1009.0</ele><time>2026-04-26T10:35:14.541Z</time></trkpt><trkpt lat="46.0096591" lon="11.7323477"><ele>1010.9999999999999</ele><time>2026-04-26T10:35:15.54Z</time></trkpt><trkpt lat="46.0096634" lon="11.732214"><ele>1013.0</ele><time>2026-04-26T10:35:16.563Z</time></trkpt><trkpt lat="46.0096574" lon="11.7320902"><ele>1015.0</ele><time>2026-04-26T10:35:17.553Z</time></trkpt><trkpt lat="46.0096449" lon="11.7319521"><ele>1017.0</ele><time>2026-04-26T10:35:18.572Z</time></trkpt><trkpt lat="46.0096305" lon="11.7318238"><ele>1018.9999999999999</ele><time>2026-04-26T10:35:19.526Z</time></trkpt><trkpt lat="46.0096176" lon="11.7317069"><ele>1021.0</ele><time>2026-04-26T10:35:20.553Z</time></trkpt><trkpt lat="46.0096028" lon="11.731606"><ele>1021.5999999999999</ele><time>2026-04-26T10:35:21.562Z</time></trkpt><trkpt lat="46.0095626" lon="11.7314413"><ele>1022.1999999999999</ele><time>2026-04-26T10:35:23.548Z</time></trkpt><trkpt lat="46.0095181" lon="11.7313072"><ele>1022.8000000000001</ele><time>2026-04-26T10:35:25.575Z</time></trkpt><trkpt lat="46.0094805" lon="11.7311815"><ele>1023.4000000000001</ele><time>2026-04-26T10:35:27.578Z</time></trkpt><trkpt lat="46.0094525" lon="11.7310952"><ele>1024.0</ele><time>2026-04-26T10:35:28.574Z</time></trkpt><trkpt lat="46.0094228" lon="11.7309887"><ele>1025.75</ele><time>2026-04-26T10:35:29.578Z</time></trkpt><trkpt lat="46.0093865" lon="11.7308579"><ele>1027.5</ele><time>2026-04-26T10:35:30.563Z</time></trkpt><trkpt lat="46.0093531" lon="11.7306668"><ele>1029.25</ele><time>2026-04-26T10:35:31.565Z</time></trkpt><trkpt lat="46.0093244" lon="11.7304756"><ele>1031.0</ele><time>2026-04-26T10:35:32.572Z</time></trkpt><trkpt lat="46.0093085" lon="11.7303428"><ele>1031.0</ele><time>2026-04-26T10:35:33.568Z</time></trkpt><trkpt lat="46.0092952" lon="11.7302266"><ele>1031.0</ele><time>2026-04-26T10:35:34.581Z</time></trkpt><trkpt lat="46.0092796" lon="11.7301163"><ele>1031.0</ele><time>2026-04-26T10:35:35.561Z</time></trkpt><trkpt lat="46.0092551" lon="11.7300104"><ele>1031.0</ele><time>2026-04-26T10:35:36.568Z</time></trkpt><trkpt lat="46.009244" lon="11.7298904"><ele>1031.0</ele><time>2026-04-26T10:35:37.567Z</time></trkpt><trkpt lat="46.0092451" lon="11.7297837"><ele>1031.0</ele><time>2026-04-26T10:35:38.563Z</time></trkpt><trkpt lat="46.0092483" lon="11.7296621"><ele>1033.8333333333335</ele><time>2026-04-26T10:35:39.57Z</time></trkpt><trkpt lat="46.009218" lon="11.7295649"><ele>1036.6666666666667</ele><time>2026-04-26T10:35:40.555Z</time></trkpt><trkpt lat="46.0091952" lon="11.7294725"><ele>1039.5</ele><time>2026-04-26T10:35:41.57Z</time></trkpt><trkpt lat="46.0091733" lon="11.7293848"><ele>1042.3333333333333</ele><time>2026-04-26T10:35:42.552Z</time></trkpt><trkpt lat="46.0091398" lon="11.7292823"><ele>1045.1666666666665</ele><time>2026-04-26T10:35:43.559Z</time></trkpt><trkpt lat="46.00911" lon="11.7291676"><ele>1048.0</ele><time>2026-04-26T10:35:44.57Z</time></trkpt><trkpt lat="46.0090686" lon="11.7290612"><ele>1051.8333333333333</ele><time>2026-04-26T10:35:45.562Z</time></trkpt><trkpt lat="46.0090232" lon="11.7289607"><ele>1055.6666666666665</ele><time>2026-04-26T10:35:46.572Z</time></trkpt><trkpt lat="46.0089763" lon="11.728865"><ele>1059.5</ele><time>2026-04-26T10:35:47.556Z</time></trkpt><trkpt lat="46.0089496" lon="11.7287593"><ele>1063.3333333333333</ele><time>2026-04-26T10:35:48.563Z</time></trkpt><trkpt lat="46.0089277" lon="11.7286607"><ele>1067.1666666666667</ele><time>2026-04-26T10:35:49.564Z</time></trkpt><trkpt lat="46.008886" lon="11.7285113"><ele>1071.0</ele><time>2026-04-26T10:35:51.555Z</time></trkpt><trkpt lat="46.0088807" lon="11.7283997"><ele>1077.0</ele><time>2026-04-26T10:35:54.577Z</time></trkpt><trkpt lat="46.0090267" lon="11.7284473"><ele>1083.0</ele><time>2026-04-26T10:35:55.548Z</time></trkpt><trkpt lat="46.0091211" lon="11.728442"><ele>1089.0</ele><time>2026-04-26T10:35:56.561Z</time></trkpt><trkpt lat="46.009194" lon="11.7283981"><ele>1095.0</ele><time>2026-04-26T10:36:00.548Z</time></trkpt><trkpt lat="46.0092691" lon="11.7283531"><ele>1101.0</ele><time>2026-04-26T10:36:04.558Z</time></trkpt><trkpt lat="46.0093253" lon="11.7282993"><ele>1101.2</ele><time>2026-04-26T10:36:07.562Z</time></trkpt><trkpt lat="46.0093681" lon="11.7280647"><ele>1101.3999999999999</ele><time>2026-04-26T10:36:08.552Z</time></trkpt><trkpt lat="46.0094239" lon="11.7279878"><ele>1101.6</ele><time>2026-04-26T10:36:11.55Z</time></trkpt><trkpt lat="46.0094753" lon="11.7278989"><ele>1101.8</ele><time>2026-04-26T10:36:14.56Z</time></trkpt><trkpt lat="46.0095283" lon="11.7277909"><ele>1102.0</ele><time>2026-04-26T10:36:17.554Z</time></trkpt><trkpt lat="46.0096087" lon="11.727725"><ele>1105.3333333333333</ele><time>2026-04-26T10:36:19.553Z</time></trkpt><trkpt lat="46.0096762" lon="11.727704"><ele>1108.6666666666665</ele><time>2026-04-26T10:36:20.542Z</time></trkpt><trkpt lat="46.009749" lon="11.7276613"><ele>1112.0</ele><time>2026-04-26T10:36:22.492Z</time></trkpt><trkpt lat="46.0098019" lon="11.7275668"><ele>1115.3333333333333</ele><time>2026-04-26T10:36:24.565Z</time></trkpt><trkpt lat="46.0098104" lon="11.7274592"><ele>1118.6666666666667</ele><time>2026-04-26T10:36:27.533Z</time></trkpt><trkpt lat="46.0098379" lon="11.7273681"><ele>1122.0</ele><time>2026-04-26T10:36:30.564Z</time></trkpt><trkpt lat="46.0101645" lon="11.7270844"><ele>1122.0</ele><time>2026-04-26T10:36:35.559Z</time></trkpt><trkpt lat="46.0104142" lon="11.7269138"><ele>1122.0</ele><time>2026-04-26T10:36:36.548Z</time></trkpt><trkpt lat="46.0105045" lon="11.7268411"><ele>1122.0</ele><time>2026-04-26T10:36:37.584Z</time></trkpt><trkpt lat="46.0105369" lon="11.7267442"><ele>1127.0</ele><time>2026-04-26T10:36:38.564Z</time></trkpt><trkpt lat="46.0105467" lon="11.7265892"><ele>1132.0</ele><time>2026-04-26T10:36:40.561Z</time></trkpt><trkpt lat="46.0105555" lon="11.7264769"><ele>1137.0</ele><time>2026-04-26T10:36:42.569Z</time></trkpt><trkpt lat="46.010566" lon="11.726383"><ele>1142.0</ele><time>2026-04-26T10:36:44.561Z</time></trkpt><trkpt lat="46.0105661" lon="11.7262917"><ele>1147.0</ele><time>2026-04-26T10:36:46.541Z</time></trkpt><trkpt lat="46.0105327" lon="11.7261831"><ele>1152.0</ele><time>2026-04-26T10:36:48.583Z</time></trkpt><trkpt lat="46.0104936" lon="11.7261017"><ele>1158.0</ele><time>2026-04-26T10:36:54.564Z</time></trkpt><trkpt lat="46.0104594" lon="11.7260088"><ele>1164.0</ele><time>2026-04-26T10:36:58.579Z</time></trkpt><trkpt lat="46.0104348" lon="11.725895"><ele>1170.0</ele><time>2026-04-26T10:37:07.468Z</time></trkpt><trkpt lat="46.0101311" lon="11.7250875"><ele>1181.5</ele><time>2026-04-26T10:37:08.428Z</time></trkpt><trkpt lat="46.0099313" lon="11.7246246"><ele>1193.0</ele><time>2026-04-26T10:37:09.713Z</time></trkpt><trkpt lat="46.0098304" lon="11.7244488"><ele>1195.0</ele><time>2026-04-26T10:37:10.621Z</time></trkpt><trkpt lat="46.009764" lon="11.7243895"><ele>1197.0</ele><time>2026-04-26T10:37:11.617Z</time></trkpt><trkpt lat="46.0096728" lon="11.7243699"><ele>1199.0</ele><time>2026-04-26T10:37:13.589Z</time></trkpt><trkpt lat="46.0096122" lon="11.7243446"><ele>1201.0</ele><time>2026-04-26T10:37:15.618Z</time></trkpt><trkpt lat="46.0095535" lon="11.7241945"><ele>1203.0</ele><time>2026-04-26T10:37:17.607Z</time></trkpt><trkpt lat="46.0095225" lon="11.7241088"><ele>1205.0</ele><time>2026-04-26T10:37:19.612Z</time></trkpt><trkpt lat="46.0094959" lon="11.7240129"><ele>1205.0</ele><time>2026-04-26T10:37:25.604Z</time></trkpt><trkpt lat="46.0092576" lon="11.7238"><ele>1205.0</ele><time>2026-04-26T10:37:27.614Z</time></trkpt><trkpt lat="46.0088758" lon="11.7235146"><ele>1215.3333333333335</ele><time>2026-04-26T10:37:28.629Z</time></trkpt><trkpt lat="46.0085775" lon="11.7232801"><ele>1225.6666666666667</ele><time>2026-04-26T10:37:29.614Z</time></trkpt><trkpt lat="46.008481" lon="11.7232087"><ele>1236.0</ele><time>2026-04-26T10:37:30.62Z</time></trkpt><trkpt lat="46.0084214" lon="11.7231489"><ele>1236.0</ele><time>2026-04-26T10:37:31.606Z</time></trkpt><trkpt lat="46.0083285" lon="11.7230841"><ele>1236.0</ele><time>2026-04-26T10:37:33.632Z</time></trkpt><trkpt lat="46.0082559" lon="11.7230649"><ele>1236.0</ele><time>2026-04-26T10:37:34.616Z</time></trkpt><trkpt lat="46.008123" lon="11.7230571"><ele>1236.0</ele><time>2026-04-26T10:37:35.611Z</time></trkpt><trkpt lat="46.008024" lon="11.7230476"><ele>1236.0</ele><time>2026-04-26T10:37:37.628Z</time></trkpt><trkpt lat="46.0079301" lon="11.7230077"><ele>1243.0</ele><time>2026-04-26T10:37:40.599Z</time></trkpt><trkpt lat="46.0078673" lon="11.7230184"><ele>1250.0</ele><time>2026-04-26T10:37:46.627Z</time></trkpt><trkpt lat="46.0075025" lon="11.7225955"><ele>1254.0</ele><time>2026-04-26T10:37:51.617Z</time></trkpt><trkpt lat="46.0070049" lon="11.7219848"><ele>1256.0</ele><time>2026-04-26T10:37:52.612Z</time></trkpt><trkpt lat="46.0069198" lon="11.7218878"><ele>1258.0</ele><time>2026-04-26T10:37:53.629Z</time></trkpt><trkpt lat="46.0068083" lon="11.7217418"><ele>1260.0</ele><time>2026-04-26T10:37:54.629Z</time></trkpt><trkpt lat="46.0067093" lon="11.7215651"><ele>1262.0</ele><time>2026-04-26T10:37:55.607Z</time></trkpt><trkpt lat="46.0066439" lon="11.7214255"><ele>1265.5</ele><time>2026-04-26T10:37:56.607Z</time></trkpt><trkpt lat="46.0066015" lon="11.7213072"><ele>1269.0</ele><time>2026-04-26T10:37:57.628Z</time></trkpt><trkpt lat="46.0065889" lon="11.7211883"><ele>1272.5</ele><time>2026-04-26T10:37:58.628Z</time></trkpt><trkpt lat="46.0065832" lon="11.7210726"><ele>1276.0</ele><time>2026-04-26T10:37:59.62Z</time></trkpt><trkpt lat="46.0065778" lon="11.720965"><ele>1279.5</ele><time>2026-04-26T10:38:00.625Z</time></trkpt><trkpt lat="46.0065734" lon="11.7208559"><ele>1283.0</ele><time>2026-04-26T10:38:01.632Z</time></trkpt><trkpt lat="46.0065728" lon="11.7207423"><ele>1284.1666666666667</ele><time>2026-04-26T10:38:02.627Z</time></trkpt><trkpt lat="46.0065731" lon="11.7206309"><ele>1285.3333333333335</ele><time>2026-04-26T10:38:03.625Z</time></trkpt><trkpt lat="46.0065685" lon="11.7205223"><ele>1286.5</ele><time>2026-04-26T10:38:04.625Z</time></trkpt><trkpt lat="46.0065563" lon="11.7204166"><ele>1287.6666666666667</ele><time>2026-04-26T10:38:05.622Z</time></trkpt><trkpt lat="46.0065449" lon="11.720305"><ele>1288.8333333333333</ele><time>2026-04-26T10:38:06.591Z</time></trkpt><trkpt lat="46.0065369" lon="11.7201815"><ele>1290.0</ele><time>2026-04-26T10:38:07.615Z</time></trkpt><trkpt lat="46.0065299" lon="11.7200687"><ele>1290.0</ele><time>2026-04-26T10:38:08.616Z</time></trkpt><trkpt lat="46.0065222" lon="11.7199642"><ele>1290.0</ele><time>2026-04-26T10:38:09.627Z</time></trkpt><trkpt lat="46.0065017" lon="11.719865"><ele>1290.0</ele><time>2026-04-26T10:38:10.624Z</time></trkpt><trkpt lat="46.0064692" lon="11.7197627"><ele>1290.0</ele><time>2026-04-26T10:38:11.625Z</time></trkpt><trkpt lat="46.0064312" lon="11.7196539"><ele>1290.0</ele><time>2026-04-26T10:38:12.641Z</time></trkpt><trkpt lat="46.0063947" lon="11.719553"><ele>1290.0</ele><time>2026-04-26T10:38:13.625Z</time></trkpt><trkpt lat="46.0063607" lon="11.7194472"><ele>1289.8333333333333</ele><time>2026-04-26T10:38:14.639Z</time></trkpt><trkpt lat="46.006328" lon="11.7193502"><ele>1289.6666666666667</ele><time>2026-04-26T10:38:15.619Z</time></trkpt><trkpt lat="46.0062826" lon="11.7192621"><ele>1289.5</ele><time>2026-04-26T10:38:16.624Z</time></trkpt><trkpt lat="46.0062244" lon="11.7191884"><ele>1289.3333333333335</ele><time>2026-04-26T10:38:17.618Z</time></trkpt><trkpt lat="46.0061599" lon="11.7191219"><ele>1289.1666666666667</ele><time>2026-04-26T10:38:18.618Z</time></trkpt><trkpt lat="46.0061015" lon="11.7190586"><ele>1289.0</ele><time>2026-04-26T10:38:19.612Z</time></trkpt><trkpt lat="46.0060429" lon="11.7189944"><ele>1289.0</ele><time>2026-04-26T10:38:20.63Z</time></trkpt><trkpt lat="46.0059864" lon="11.7189247"><ele>1289.0</ele><time>2026-04-26T10:38:21.623Z</time></trkpt><trkpt lat="46.0059333" lon="11.7188496"><ele>1289.0</ele><time>2026-04-26T10:38:22.616Z</time></trkpt><trkpt lat="46.0058816" lon="11.7187689"><ele>1289.0</ele><time>2026-04-26T10:38:23.641Z</time></trkpt><trkpt lat="46.0058449" lon="11.7186901"><ele>1289.0</ele><time>2026-04-26T10:38:24.608Z</time></trkpt><trkpt lat="46.0058175" lon="11.7186036"><ele>1289.0</ele><time>2026-04-26T10:38:25.625Z</time></trkpt><trkpt lat="46.0057893" lon="11.7185116"><ele>1289.0</ele><time>2026-04-26T10:38:26.629Z</time></trkpt><trkpt lat="46.0057668" lon="11.7184168"><ele>1291.3333333333335</ele><time>2026-04-26T10:38:27.579Z</time></trkpt><trkpt lat="46.0057476" lon="11.718308"><ele>1293.6666666666667</ele><time>2026-04-26T10:38:28.632Z</time></trkpt><trkpt lat="46.0057346" lon="11.7182008"><ele>1296.0</ele><time>2026-04-26T10:38:29.626Z</time></trkpt><trkpt lat="46.0057147" lon="11.7180961"><ele>1298.3333333333333</ele><time>2026-04-26T10:38:30.619Z</time></trkpt><trkpt lat="46.0056901" lon="11.7179922"><ele>1300.6666666666665</ele><time>2026-04-26T10:38:31.627Z</time></trkpt><trkpt lat="46.0056638" lon="11.7178857"><ele>1303.0</ele><time>2026-04-26T10:38:32.626Z</time></trkpt><trkpt lat="46.0056351" lon="11.7177786"><ele>1302.6666666666665</ele><time>2026-04-26T10:38:33.619Z</time></trkpt><trkpt lat="46.0056001" lon="11.717669"><ele>1302.3333333333333</ele><time>2026-04-26T10:38:34.629Z</time></trkpt><trkpt lat="46.0055663" lon="11.7175621"><ele>1302.0</ele><time>2026-04-26T10:38:35.615Z</time></trkpt><trkpt lat="46.0055276" lon="11.7174576"><ele>1301.6666666666667</ele><time>2026-04-26T10:38:36.618Z</time></trkpt><trkpt lat="46.005483" lon="11.7173603"><ele>1301.3333333333335</ele><time>2026-04-26T10:38:37.621Z</time></trkpt><trkpt lat="46.0054326" lon="11.7172761"><ele>1301.0</ele><time>2026-04-26T10:38:38.62Z</time></trkpt><trkpt lat="46.0053775" lon="11.7171961"><ele>1301.0</ele><time>2026-04-26T10:38:39.616Z</time></trkpt><trkpt lat="46.0053135" lon="11.7171285"><ele>1301.0</ele><time>2026-04-26T10:38:40.625Z</time></trkpt><trkpt lat="46.005244" lon="11.7170671"><ele>1301.0</ele><time>2026-04-26T10:38:41.628Z</time></trkpt><trkpt lat="46.0051721" lon="11.7170065"><ele>1301.0</ele><time>2026-04-26T10:38:42.622Z</time></trkpt><trkpt lat="46.0050947" lon="11.7169468"><ele>1301.0</ele><time>2026-04-26T10:38:43.62Z</time></trkpt><trkpt lat="46.0050134" lon="11.7168851"><ele>1301.0</ele><time>2026-04-26T10:38:44.626Z</time></trkpt><trkpt lat="46.0049281" lon="11.7168283"><ele>1302.1999999999998</ele><time>2026-04-26T10:38:45.625Z</time></trkpt><trkpt lat="46.0048359" lon="11.7167757"><ele>1303.3999999999999</ele><time>2026-04-26T10:38:46.619Z</time></trkpt><trkpt lat="46.0047365" lon="11.7167181"><ele>1304.6</ele><time>2026-04-26T10:38:47.637Z</time></trkpt><trkpt lat="46.0046488" lon="11.7166513"><ele>1305.8</ele><time>2026-04-26T10:38:48.62Z</time></trkpt><trkpt lat="46.0045655" lon="11.7165682"><ele>1307.0</ele><time>2026-04-26T10:38:49.616Z</time></trkpt><trkpt lat="46.0044834" lon="11.7164734"><ele>1307.0</ele><time>2026-04-26T10:38:50.634Z</time></trkpt><trkpt lat="46.0043934" lon="11.7163837"><ele>1307.0</ele><time>2026-04-26T10:38:51.633Z</time></trkpt><trkpt lat="46.0042958" lon="11.7162963"><ele>1307.0</ele><time>2026-04-26T10:38:52.64Z</time></trkpt><trkpt lat="46.0042018" lon="11.7162125"><ele>1307.0</ele><time>2026-04-26T10:38:53.624Z</time></trkpt><trkpt lat="46.0041055" lon="11.7161273"><ele>1307.0</ele><time>2026-04-26T10:38:54.629Z</time></trkpt><trkpt lat="46.0040165" lon="11.7160495"><ele>1305.25</ele><time>2026-04-26T10:38:55.571Z</time></trkpt><trkpt lat="46.0039194" lon="11.7159644"><ele>1303.5</ele><time>2026-04-26T10:38:56.562Z</time></trkpt><trkpt lat="46.0038117" lon="11.7158769"><ele>1301.75</ele><time>2026-04-26T10:38:57.578Z</time></trkpt><trkpt lat="46.0037071" lon="11.7158048"><ele>1300.0</ele><time>2026-04-26T10:38:58.585Z</time></trkpt><trkpt lat="46.0036013" lon="11.7157371"><ele>1300.0</ele><time>2026-04-26T10:38:59.569Z</time></trkpt><trkpt lat="46.0034892" lon="11.7156538"><ele>1300.0</ele><time>2026-04-26T10:39:00.573Z</time></trkpt><trkpt lat="46.0033855" lon="11.7155643"><ele>1300.0</ele><time>2026-04-26T10:39:01.571Z</time></trkpt><trkpt lat="46.0032891" lon="11.7154728"><ele>1300.0</ele><time>2026-04-26T10:39:02.592Z</time></trkpt><trkpt lat="46.0032076" lon="11.7153934"><ele>1300.3333333333333</ele><time>2026-04-26T10:39:03.576Z</time></trkpt><trkpt lat="46.0031383" lon="11.7153513"><ele>1300.6666666666665</ele><time>2026-04-26T10:39:04.578Z</time></trkpt><trkpt lat="46.0030654" lon="11.7153269"><ele>1301.0</ele><time>2026-04-26T10:39:05.574Z</time></trkpt><trkpt lat="46.0029925" lon="11.7153134"><ele>1301.3333333333333</ele><time>2026-04-26T10:39:06.574Z</time></trkpt><trkpt lat="46.0029028" lon="11.7152977"><ele>1301.6666666666667</ele><time>2026-04-26T10:39:08.587Z</time></trkpt><trkpt lat="46.0028841" lon="11.7154627"><ele>1302.0</ele><time>2026-04-26T10:39:19.565Z</time></trkpt><trkpt lat="46.0029136" lon="11.7155993"><ele>1302.0</ele><time>2026-04-26T10:39:20.568Z</time></trkpt><trkpt lat="46.0029551" lon="11.7157301"><ele>1302.0</ele><time>2026-04-26T10:39:21.562Z</time></trkpt><trkpt lat="46.0030085" lon="11.7158409"><ele>1302.0</ele><time>2026-04-26T10:39:22.573Z</time></trkpt><trkpt lat="46.0030567" lon="11.7159273"><ele>1302.0</ele><time>2026-04-26T10:39:24.566Z</time></trkpt><trkpt lat="46.0030653" lon="11.7157972"><ele>1302.0</ele><time>2026-04-26T10:39:29.57Z</time></trkpt><trkpt lat="46.0029685" lon="11.7156117"><ele>1302.0</ele><time>2026-04-26T10:39:32.546Z</time></trkpt><trkpt lat="46.0029306" lon="11.7154879"><ele>1302.0</ele><time>2026-04-26T10:39:33.568Z</time></trkpt><trkpt lat="46.0028939" lon="11.7153857"><ele>1302.0</ele><time>2026-04-26T10:39:34.571Z</time></trkpt><trkpt lat="46.0028526" lon="11.7153062"><ele>1302.0</ele><time>2026-04-26T10:39:35.566Z</time></trkpt><trkpt lat="46.0027163" lon="11.7152463"><ele>1302.0</ele><time>2026-04-26T10:39:37.564Z</time></trkpt><trkpt lat="46.0026103" lon="11.7152332"><ele>1305.0</ele><time>2026-04-26T10:39:38.577Z</time></trkpt><trkpt lat="46.0025076" lon="11.7152157"><ele>1308.0</ele><time>2026-04-26T10:39:39.578Z</time></trkpt><trkpt lat="46.0024151" lon="11.7151929"><ele>1311.0</ele><time>2026-04-26T10:39:40.57Z</time></trkpt><trkpt lat="46.0023349" lon="11.7151575"><ele>1314.0</ele><time>2026-04-26T10:39:41.577Z</time></trkpt><trkpt lat="46.0022502" lon="11.715109"><ele>1317.0</ele><time>2026-04-26T10:39:42.577Z</time></trkpt><trkpt lat="46.0021522" lon="11.7150504"><ele>1318.8</ele><time>2026-04-26T10:39:43.566Z</time></trkpt><trkpt lat="46.0020504" lon="11.7149965"><ele>1320.6</ele><time>2026-04-26T10:39:44.572Z</time></trkpt><trkpt lat="46.0019542" lon="11.7149681"><ele>1322.3999999999999</ele><time>2026-04-26T10:39:45.568Z</time></trkpt><trkpt lat="46.0018568" lon="11.7149647"><ele>1324.1999999999998</ele><time>2026-04-26T10:39:46.575Z</time></trkpt><trkpt lat="46.0017472" lon="11.7149923"><ele>1326.0</ele><time>2026-04-26T10:39:47.573Z</time></trkpt><trkpt lat="46.0016093" lon="11.7150509"><ele>1328.6666666666667</ele><time>2026-04-26T10:39:48.573Z</time></trkpt><trkpt lat="46.0014364" lon="11.7151208"><ele>1331.3333333333335</ele><time>2026-04-26T10:39:49.567Z</time></trkpt><trkpt lat="46.0012627" lon="11.7151555"><ele>1334.0</ele><time>2026-04-26T10:39:50.574Z</time></trkpt><trkpt lat="46.0011279" lon="11.7151575"><ele>1334.0</ele><time>2026-04-26T10:39:51.573Z</time></trkpt><trkpt lat="46.0009986" lon="11.7151482"><ele>1334.0</ele><time>2026-04-26T10:39:52.581Z</time></trkpt><trkpt lat="46.0008684" lon="11.7151414"><ele>1334.0</ele><time>2026-04-26T10:39:53.556Z</time></trkpt><trkpt lat="46.0007385" lon="11.715137"><ele>1334.0</ele><time>2026-04-26T10:39:54.565Z</time></trkpt><trkpt lat="46.0006047" lon="11.7151278"><ele>1334.3333333333335</ele><time>2026-04-26T10:39:55.574Z</time></trkpt><trkpt lat="46.0004472" lon="11.7151099"><ele>1334.6666666666667</ele><time>2026-04-26T10:39:56.573Z</time></trkpt><trkpt lat="46.000288" lon="11.7150941"><ele>1335.0</ele><time>2026-04-26T10:39:57.572Z</time></trkpt><trkpt lat="46.0001395" lon="11.7150978"><ele>1335.0</ele><time>2026-04-26T10:39:58.569Z</time></trkpt><trkpt lat="45.9999928" lon="11.7151183"><ele>1335.0</ele><time>2026-04-26T10:39:59.573Z</time></trkpt><trkpt lat="45.9998643" lon="11.7151314"><ele>1335.0</ele><time>2026-04-26T10:40:00.586Z</time></trkpt><trkpt lat="45.9997581" lon="11.7151373"><ele>1335.0</ele><time>2026-04-26T10:40:01.566Z</time></trkpt><trkpt lat="45.999681" lon="11.7151297"><ele>1335.0</ele><time>2026-04-26T10:40:03.573Z</time></trkpt><trkpt lat="45.9995992" lon="11.7151303"><ele>1335.0</ele><time>2026-04-26T10:40:05.57Z</time></trkpt><trkpt lat="45.9995841" lon="11.7150127"><ele>1335.0</ele><time>2026-04-26T10:40:09.541Z</time></trkpt><trkpt lat="45.9996339" lon="11.7148221"><ele>1335.0</ele><time>2026-04-26T10:40:11.554Z</time></trkpt><trkpt lat="45.9996802" lon="11.714682"><ele>1335.0</ele><time>2026-04-26T10:40:12.578Z</time></trkpt><trkpt lat="45.9997294" lon="11.7145002"><ele>1338.25</ele><time>2026-04-26T10:40:13.579Z</time></trkpt><trkpt lat="45.9997689" lon="11.7143296"><ele>1341.5</ele><time>2026-04-26T10:40:14.564Z</time></trkpt><trkpt lat="45.999784" lon="11.7141791"><ele>1344.75</ele><time>2026-04-26T10:40:15.576Z</time></trkpt><trkpt lat="45.9997881" lon="11.7140154"><ele>1348.0</ele><time>2026-04-26T10:40:16.57Z</time></trkpt><trkpt lat="45.999788" lon="11.7138498"><ele>1348.0</ele><time>2026-04-26T10:40:17.565Z</time></trkpt><trkpt lat="45.9997897" lon="11.7136936"><ele>1348.0</ele><time>2026-04-26T10:40:18.576Z</time></trkpt><trkpt lat="45.9997969" lon="11.7135542"><ele>1348.0</ele><time>2026-04-26T10:40:19.573Z</time></trkpt><trkpt lat="45.999808" lon="11.713419"><ele>1348.0</ele><time>2026-04-26T10:40:20.575Z</time></trkpt><trkpt lat="45.9998235" lon="11.7132785"><ele>1348.0</ele><time>2026-04-26T10:40:21.578Z</time></trkpt><trkpt lat="45.9998427" lon="11.7131351"><ele>1348.6000000000001</ele><time>2026-04-26T10:40:22.574Z</time></trkpt><trkpt lat="45.9998653" lon="11.7129862"><ele>1349.2</ele><time>2026-04-26T10:40:23.569Z</time></trkpt><trkpt lat="45.99988" lon="11.7128409"><ele>1349.8</ele><time>2026-04-26T10:40:24.577Z</time></trkpt><trkpt lat="45.9998813" lon="11.7127012"><ele>1350.4</ele><time>2026-04-26T10:40:25.57Z</time></trkpt><trkpt lat="45.9998716" lon="11.7125637"><ele>1351.0</ele><time>2026-04-26T10:40:26.574Z</time></trkpt><trkpt lat="45.9998591" lon="11.7124393"><ele>1351.0</ele><time>2026-04-26T10:40:27.577Z</time></trkpt><trkpt lat="45.9998487" lon="11.7123127"><ele>1351.0</ele><time>2026-04-26T10:40:28.566Z</time></trkpt><trkpt lat="45.999843" lon="11.712196"><ele>1351.0</ele><time>2026-04-26T10:40:29.572Z</time></trkpt><trkpt lat="45.9998485" lon="11.7120978"><ele>1351.0</ele><time>2026-04-26T10:40:30.564Z</time></trkpt><trkpt lat="45.9998675" lon="11.7119899"><ele>1351.0</ele><time>2026-04-26T10:40:31.574Z</time></trkpt><trkpt lat="45.9998941" lon="11.7118772"><ele>1351.0</ele><time>2026-04-26T10:40:32.568Z</time></trkpt><trkpt lat="45.9999233" lon="11.7117522"><ele>1350.1666666666665</ele><time>2026-04-26T10:40:33.563Z</time></trkpt><trkpt lat="45.9999484" lon="11.711631"><ele>1349.3333333333333</ele><time>2026-04-26T10:40:34.555Z</time></trkpt><trkpt lat="45.9999226" lon="11.7114659"><ele>1348.5</ele><time>2026-04-26T10:40:36.57Z</time></trkpt><trkpt lat="45.9998982" lon="11.7113686"><ele>1347.6666666666667</ele><time>2026-04-26T10:40:37.566Z</time></trkpt><trkpt lat="45.9998763" lon="11.711257"><ele>1346.8333333333335</ele><time>2026-04-26T10:40:38.568Z</time></trkpt><trkpt lat="45.9998661" lon="11.7111399"><ele>1346.0</ele><time>2026-04-26T10:40:39.574Z</time></trkpt><trkpt lat="45.9998507" lon="11.7110305"><ele>1345.6666666666667</ele><time>2026-04-26T10:40:40.569Z</time></trkpt><trkpt lat="45.9998249" lon="11.7109285"><ele>1345.3333333333335</ele><time>2026-04-26T10:40:41.541Z</time></trkpt><trkpt lat="45.999792" lon="11.7108364"><ele>1345.0</ele><time>2026-04-26T10:40:42.594Z</time></trkpt><trkpt lat="45.9997692" lon="11.7106955"><ele>1344.6666666666667</ele><time>2026-04-26T10:40:44.577Z</time></trkpt><trkpt lat="45.9998135" lon="11.7105438"><ele>1344.3333333333333</ele><time>2026-04-26T10:40:46.564Z</time></trkpt><trkpt lat="45.999856" lon="11.7104526"><ele>1344.0</ele><time>2026-04-26T10:40:47.571Z</time></trkpt><trkpt lat="45.9999015" lon="11.7103552"><ele>1344.0</ele><time>2026-04-26T10:40:48.575Z</time></trkpt><trkpt lat="45.9999429" lon="11.710251"><ele>1344.0</ele><time>2026-04-26T10:40:49.574Z</time></trkpt><trkpt lat="45.999985" lon="11.7101395"><ele>1344.0</ele><time>2026-04-26T10:40:50.56Z</time></trkpt><trkpt lat="46.0000352" lon="11.71002"><ele>1344.0</ele><time>2026-04-26T10:40:51.569Z</time></trkpt><trkpt lat="46.0000884" lon="11.7099114"><ele>1344.0</ele><time>2026-04-26T10:40:52.564Z</time></trkpt><trkpt lat="46.0001282" lon="11.7098076"><ele>1344.0</ele><time>2026-04-26T10:40:53.587Z</time></trkpt><trkpt lat="46.0001573" lon="11.7097049"><ele>1341.8000000000002</ele><time>2026-04-26T10:40:54.564Z</time></trkpt><trkpt lat="46.0001718" lon="11.7095874"><ele>1339.6000000000001</ele><time>2026-04-26T10:40:55.569Z</time></trkpt><trkpt lat="46.0001826" lon="11.7094696"><ele>1337.4</ele><time>2026-04-26T10:40:56.568Z</time></trkpt><trkpt lat="46.0001894" lon="11.7093602"><ele>1335.2</ele><time>2026-04-26T10:40:57.565Z</time></trkpt><trkpt lat="46.0001915" lon="11.7091659"><ele>1333.0</ele><time>2026-04-26T10:40:59.568Z</time></trkpt><trkpt lat="46.0001859" lon="11.7090442"><ele>1331.6666666666665</ele><time>2026-04-26T10:41:00.562Z</time></trkpt><trkpt lat="46.0001752" lon="11.7089133"><ele>1330.3333333333333</ele><time>2026-04-26T10:41:01.563Z</time></trkpt><trkpt lat="46.0001681" lon="11.7087936"><ele>1329.0</ele><time>2026-04-26T10:41:02.57Z</time></trkpt><trkpt lat="46.0001688" lon="11.7086898"><ele>1327.6666666666667</ele><time>2026-04-26T10:41:03.569Z</time></trkpt><trkpt lat="46.0001765" lon="11.7085884"><ele>1326.3333333333335</ele><time>2026-04-26T10:41:04.577Z</time></trkpt><trkpt lat="46.0001877" lon="11.7084928"><ele>1325.0</ele><time>2026-04-26T10:41:05.546Z</time></trkpt><trkpt lat="46.0002066" lon="11.7083893"><ele>1324.0</ele><time>2026-04-26T10:41:06.588Z</time></trkpt><trkpt lat="46.0002362" lon="11.7082865"><ele>1323.0</ele><time>2026-04-26T10:41:07.581Z</time></trkpt><trkpt lat="46.0002771" lon="11.7081679"><ele>1322.0</ele><time>2026-04-26T10:41:08.567Z</time></trkpt><trkpt lat="46.0003257" lon="11.7080088"><ele>1321.0</ele><time>2026-04-26T10:41:09.557Z</time></trkpt><trkpt lat="46.0003759" lon="11.7078427"><ele>1320.0</ele><time>2026-04-26T10:41:10.563Z</time></trkpt><trkpt lat="46.0004138" lon="11.7077167"><ele>1318.8333333333333</ele><time>2026-04-26T10:41:11.57Z</time></trkpt><trkpt lat="46.000442" lon="11.7076133"><ele>1317.6666666666667</ele><time>2026-04-26T10:41:12.571Z</time></trkpt><trkpt lat="46.0004573" lon="11.7075006"><ele>1316.5</ele><time>2026-04-26T10:41:13.583Z</time></trkpt><trkpt lat="46.000459" lon="11.7073767"><ele>1315.3333333333335</ele><time>2026-04-26T10:41:14.565Z</time></trkpt><trkpt lat="46.0004621" lon="11.7072393"><ele>1314.1666666666667</ele><time>2026-04-26T10:41:15.567Z</time></trkpt><trkpt lat="46.0004578" lon="11.7071066"><ele>1313.0</ele><time>2026-04-26T10:41:16.582Z</time></trkpt><trkpt lat="46.0004542" lon="11.7069887"><ele>1313.6000000000001</ele><time>2026-04-26T10:41:17.573Z</time></trkpt><trkpt lat="46.0004399" lon="11.7068687"><ele>1314.2</ele><time>2026-04-26T10:41:18.566Z</time></trkpt><trkpt lat="46.0004086" lon="11.7067471"><ele>1314.8</ele><time>2026-04-26T10:41:19.569Z</time></trkpt><trkpt lat="46.0003579" lon="11.7066148"><ele>1315.4</ele><time>2026-04-26T10:41:20.57Z</time></trkpt><trkpt lat="46.0002943" lon="11.7064634"><ele>1316.0</ele><time>2026-04-26T10:41:21.57Z</time></trkpt><trkpt lat="46.0002327" lon="11.7063132"><ele>1316.0</ele><time>2026-04-26T10:41:22.59Z</time></trkpt><trkpt lat="46.0001824" lon="11.706172"><ele>1316.0</ele><time>2026-04-26T10:41:23.582Z</time></trkpt><trkpt lat="46.0001371" lon="11.7060264"><ele>1316.0</ele><time>2026-04-26T10:41:24.585Z</time></trkpt><trkpt lat="46.0001041" lon="11.7058823"><ele>1316.0</ele><time>2026-04-26T10:41:25.567Z</time></trkpt><trkpt lat="46.000075" lon="11.7057451"><ele>1316.0</ele><time>2026-04-26T10:41:26.569Z</time></trkpt><trkpt lat="46.0000524" lon="11.7056114"><ele>1317.4</ele><time>2026-04-26T10:41:27.583Z</time></trkpt><trkpt lat="46.0000345" lon="11.7054686"><ele>1318.8</ele><time>2026-04-26T10:41:28.578Z</time></trkpt><trkpt lat="46.0000294" lon="11.7053247"><ele>1320.2</ele><time>2026-04-26T10:41:29.579Z</time></trkpt><trkpt lat="46.0000353" lon="11.7051756"><ele>1321.6000000000001</ele><time>2026-04-26T10:41:30.583Z</time></trkpt><trkpt lat="46.0000527" lon="11.7050246"><ele>1323.0</ele><time>2026-04-26T10:41:31.576Z</time></trkpt><trkpt lat="46.00008" lon="11.7048741"><ele>1323.4</ele><time>2026-04-26T10:41:32.57Z</time></trkpt><trkpt lat="46.0001169" lon="11.7047368"><ele>1323.8000000000002</ele><time>2026-04-26T10:41:33.561Z</time></trkpt><trkpt lat="46.0001622" lon="11.7045916"><ele>1324.2</ele><time>2026-04-26T10:41:34.569Z</time></trkpt><trkpt lat="46.0002027" lon="11.7044508"><ele>1324.6</ele><time>2026-04-26T10:41:35.567Z</time></trkpt><trkpt lat="46.0002395" lon="11.7043003"><ele>1325.0</ele><time>2026-04-26T10:41:36.57Z</time></trkpt><trkpt lat="46.0002777" lon="11.7041432"><ele>1325.0</ele><time>2026-04-26T10:41:37.589Z</time></trkpt><trkpt lat="46.000315" lon="11.7039832"><ele>1325.0</ele><time>2026-04-26T10:41:38.582Z</time></trkpt><trkpt lat="46.0003499" lon="11.7038267"><ele>1325.0</ele><time>2026-04-26T10:41:39.585Z</time></trkpt><trkpt lat="46.0003824" lon="11.7036773"><ele>1325.0</ele><time>2026-04-26T10:41:40.554Z</time></trkpt><trkpt lat="46.0004121" lon="11.7035263"><ele>1325.0</ele><time>2026-04-26T10:41:41.57Z</time></trkpt><trkpt lat="46.0004397" lon="11.7033724"><ele>1326.5</ele><time>2026-04-26T10:41:42.575Z</time></trkpt><trkpt lat="46.0004643" lon="11.7032231"><ele>1328.0</ele><time>2026-04-26T10:41:43.548Z</time></trkpt><trkpt lat="46.000481" lon="11.7030496"><ele>1329.5</ele><time>2026-04-26T10:41:44.563Z</time></trkpt><trkpt lat="46.0004908" lon="11.702868"><ele>1331.0</ele><time>2026-04-26T10:41:45.577Z</time></trkpt><trkpt lat="46.0004902" lon="11.7026966"><ele>1331.8</ele><time>2026-04-26T10:41:46.578Z</time></trkpt><trkpt lat="46.0004804" lon="11.7025355"><ele>1332.6</ele><time>2026-04-26T10:41:47.573Z</time></trkpt><trkpt lat="46.0004538" lon="11.7023874"><ele>1333.4</ele><time>2026-04-26T10:41:48.577Z</time></trkpt><trkpt lat="46.0004202" lon="11.7022369"><ele>1334.2</ele><time>2026-04-26T10:41:49.575Z</time></trkpt><trkpt lat="46.0003799" lon="11.7020801"><ele>1335.0</ele><time>2026-04-26T10:41:50.581Z</time></trkpt><trkpt lat="46.0003361" lon="11.7019301"><ele>1336.0</ele><time>2026-04-26T10:41:51.588Z</time></trkpt><trkpt lat="46.0002944" lon="11.7017977"><ele>1337.0</ele><time>2026-04-26T10:41:52.568Z</time></trkpt><trkpt lat="46.0002542" lon="11.7016501"><ele>1338.0</ele><time>2026-04-26T10:41:53.587Z</time></trkpt><trkpt lat="46.0002179" lon="11.7015042"><ele>1339.0</ele><time>2026-04-26T10:41:54.57Z</time></trkpt><trkpt lat="46.0001841" lon="11.7013357"><ele>1340.0</ele><time>2026-04-26T10:41:55.589Z</time></trkpt><trkpt lat="46.0001605" lon="11.7011604"><ele>1341.0</ele><time>2026-04-26T10:41:56.586Z</time></trkpt><trkpt lat="46.0001475" lon="11.7009931"><ele>1342.0</ele><time>2026-04-26T10:41:57.581Z</time></trkpt><trkpt lat="46.0001386" lon="11.7008284"><ele>1343.0</ele><time>2026-04-26T10:41:58.572Z</time></trkpt><trkpt lat="46.00013" lon="11.7006712"><ele>1344.0</ele><time>2026-04-26T10:41:59.57Z</time></trkpt><trkpt lat="46.0001111" lon="11.7005139"><ele>1344.0</ele><time>2026-04-26T10:42:00.576Z</time></trkpt><trkpt lat="46.000085" lon="11.7003699"><ele>1344.0</ele><time>2026-04-26T10:42:01.542Z</time></trkpt><trkpt lat="46.0000529" lon="11.7002254"><ele>1344.0</ele><time>2026-04-26T10:42:02.578Z</time></trkpt><trkpt lat="46.0000189" lon="11.700077"><ele>1344.0</ele><time>2026-04-26T10:42:03.578Z</time></trkpt><trkpt lat="46.0000028" lon="11.6999303"><ele>1344.0</ele><time>2026-04-26T10:42:04.562Z</time></trkpt><trkpt lat="46.0000044" lon="11.6997529"><ele>1346.0</ele><time>2026-04-26T10:42:05.566Z</time></trkpt><trkpt lat="46.0000264" lon="11.699546"><ele>1348.0</ele><time>2026-04-26T10:42:06.574Z</time></trkpt><trkpt lat="46.000066" lon="11.6993213"><ele>1350.0</ele><time>2026-04-26T10:42:07.566Z</time></trkpt><trkpt lat="46.0001222" lon="11.6990725"><ele>1350.3333333333333</ele><time>2026-04-26T10:42:08.576Z</time></trkpt><trkpt lat="46.0001891" lon="11.6987986"><ele>1350.6666666666665</ele><time>2026-04-26T10:42:09.573Z</time></trkpt><trkpt lat="46.0002605" lon="11.6985178"><ele>1351.0</ele><time>2026-04-26T10:42:10.577Z</time></trkpt><trkpt lat="46.0003314" lon="11.6982447"><ele>1351.0</ele><time>2026-04-26T10:42:11.573Z</time></trkpt><trkpt lat="46.0003879" lon="11.6979936"><ele>1351.0</ele><time>2026-04-26T10:42:12.586Z</time></trkpt><trkpt lat="46.0004171" lon="11.6977755"><ele>1351.0</ele><time>2026-04-26T10:42:13.569Z</time></trkpt><trkpt lat="46.0004412" lon="11.697579"><ele>1351.0</ele><time>2026-04-26T10:42:14.572Z</time></trkpt><trkpt lat="46.0004501" lon="11.6974167"><ele>1351.0</ele><time>2026-04-26T10:42:15.559Z</time></trkpt><trkpt lat="46.0004498" lon="11.6972331"><ele>1351.0</ele><time>2026-04-26T10:42:16.583Z</time></trkpt><trkpt lat="46.0004332" lon="11.6970418"><ele>1351.0</ele><time>2026-04-26T10:42:17.576Z</time></trkpt><trkpt lat="46.0004081" lon="11.6968678"><ele>1352.8333333333333</ele><time>2026-04-26T10:42:18.579Z</time></trkpt><trkpt lat="46.0003791" lon="11.6967335"><ele>1354.6666666666665</ele><time>2026-04-26T10:42:19.585Z</time></trkpt><trkpt lat="46.0003355" lon="11.6965956"><ele>1356.5</ele><time>2026-04-26T10:42:21.569Z</time></trkpt><trkpt lat="46.0003112" lon="11.6964902"><ele>1358.3333333333333</ele><time>2026-04-26T10:42:23.585Z</time></trkpt><trkpt lat="46.0003687" lon="11.6964091"><ele>1360.1666666666667</ele><time>2026-04-26T10:42:26.588Z</time></trkpt><trkpt lat="46.0004211" lon="11.6965112"><ele>1362.0</ele><time>2026-04-26T10:42:28.564Z</time></trkpt><trkpt lat="46.0004353" lon="11.6966125"><ele>1362.0</ele><time>2026-04-26T10:42:29.557Z</time></trkpt><trkpt lat="46.000464" lon="11.696759"><ele>1362.0</ele><time>2026-04-26T10:42:30.577Z</time></trkpt><trkpt lat="46.0005046" lon="11.6969433"><ele>1362.0</ele><time>2026-04-26T10:42:31.572Z</time></trkpt><trkpt lat="46.000538" lon="11.6971484"><ele>1362.0</ele><time>2026-04-26T10:42:32.553Z</time></trkpt><trkpt lat="46.0005575" lon="11.6973399"><ele>1359.8</ele><time>2026-04-26T10:42:33.571Z</time></trkpt><trkpt lat="46.0005711" lon="11.6974895"><ele>1357.6</ele><time>2026-04-26T10:42:34.575Z</time></trkpt><trkpt lat="46.0005834" lon="11.6975905"><ele>1355.3999999999999</ele><time>2026-04-26T10:42:35.54Z</time></trkpt><trkpt lat="46.0006236" lon="11.6977127"><ele>1353.1999999999998</ele><time>2026-04-26T10:42:37.586Z</time></trkpt><trkpt lat="46.0006976" lon="11.6977551"><ele>1351.0</ele><time>2026-04-26T10:42:40.577Z</time></trkpt><trkpt lat="46.0007982" lon="11.6976475"><ele>1351.0</ele><time>2026-04-26T10:42:42.574Z</time></trkpt><trkpt lat="46.0008287" lon="11.6975521"><ele>1351.0</ele><time>2026-04-26T10:42:43.59Z</time></trkpt><trkpt lat="46.0008366" lon="11.6974356"><ele>1351.0</ele><time>2026-04-26T10:42:44.583Z</time></trkpt><trkpt lat="46.0008301" lon="11.697324"><ele>1351.0</ele><time>2026-04-26T10:42:45.578Z</time></trkpt><trkpt lat="46.0008162" lon="11.6972252"><ele>1351.0</ele><time>2026-04-26T10:42:46.573Z</time></trkpt><trkpt lat="46.0008013" lon="11.6971302"><ele>1351.0</ele><time>2026-04-26T10:42:47.566Z</time></trkpt><trkpt lat="46.0007857" lon="11.6970389"><ele>1351.0</ele><time>2026-04-26T10:42:48.578Z</time></trkpt><trkpt lat="46.0007721" lon="11.6969392"><ele>1352.8333333333333</ele><time>2026-04-26T10:42:49.592Z</time></trkpt><trkpt lat="46.0007572" lon="11.6968418"><ele>1354.6666666666665</ele><time>2026-04-26T10:42:50.576Z</time></trkpt><trkpt lat="46.0007404" lon="11.6967417"><ele>1356.5</ele><time>2026-04-26T10:42:51.571Z</time></trkpt><trkpt lat="46.0007206" lon="11.6966359"><ele>1358.3333333333333</ele><time>2026-04-26T10:42:52.563Z</time></trkpt><trkpt lat="46.0007003" lon="11.6965265"><ele>1360.1666666666667</ele><time>2026-04-26T10:42:53.579Z</time></trkpt><trkpt lat="46.0006772" lon="11.6964148"><ele>1362.0</ele><time>2026-04-26T10:42:54.574Z</time></trkpt><trkpt lat="46.0006518" lon="11.6963063"><ele>1362.0</ele><time>2026-04-26T10:42:55.57Z</time></trkpt><trkpt lat="46.0006082" lon="11.6961916"><ele>1362.0</ele><time>2026-04-26T10:42:56.573Z</time></trkpt><trkpt lat="46.0005652" lon="11.6960717"><ele>1362.0</ele><time>2026-04-26T10:42:57.582Z</time></trkpt><trkpt lat="46.0005227" lon="11.6959561"><ele>1362.0</ele><time>2026-04-26T10:42:58.577Z</time></trkpt><trkpt lat="46.0004855" lon="11.6958449"><ele>1362.0</ele><time>2026-04-26T10:42:59.56Z</time></trkpt><trkpt lat="46.0004508" lon="11.6957242"><ele>1363.8333333333333</ele><time>2026-04-26T10:43:00.596Z</time></trkpt><trkpt lat="46.0004148" lon="11.6956124"><ele>1365.6666666666667</ele><time>2026-04-26T10:43:01.591Z</time></trkpt><trkpt lat="46.0003733" lon="11.6955034"><ele>1367.5</ele><time>2026-04-26T10:43:02.562Z</time></trkpt><trkpt lat="46.0003268" lon="11.6954027"><ele>1369.3333333333335</ele><time>2026-04-26T10:43:03.574Z</time></trkpt><trkpt lat="46.000289" lon="11.6953251"><ele>1371.1666666666667</ele><time>2026-04-26T10:43:04.579Z</time></trkpt><trkpt lat="46.0002765" lon="11.6952339"><ele>1373.0</ele><time>2026-04-26T10:43:06.545Z</time></trkpt><trkpt lat="46.0003891" lon="11.6952304"><ele>1373.0</ele><time>2026-04-26T10:43:08.576Z</time></trkpt><trkpt lat="46.0004585" lon="11.6953356"><ele>1373.0</ele><time>2026-04-26T10:43:10.579Z</time></trkpt><trkpt lat="46.0005139" lon="11.6954301"><ele>1373.0</ele><time>2026-04-26T10:43:12.588Z</time></trkpt><trkpt lat="46.0005924" lon="11.6954584"><ele>1373.0</ele><time>2026-04-26T10:43:14.586Z</time></trkpt><trkpt lat="46.0006035" lon="11.6953576"><ele>1373.0</ele><time>2026-04-26T10:43:16.551Z</time></trkpt><trkpt lat="46.0005913" lon="11.6952269"><ele>1373.0</ele><time>2026-04-26T10:43:18.566Z</time></trkpt><trkpt lat="46.000527" lon="11.6950776"><ele>1375.8000000000002</ele><time>2026-04-26T10:43:20.57Z</time></trkpt><trkpt lat="46.0004904" lon="11.6949837"><ele>1378.6</ele><time>2026-04-26T10:43:21.585Z</time></trkpt><trkpt lat="46.000455" lon="11.6948979"><ele>1381.4</ele><time>2026-04-26T10:43:22.57Z</time></trkpt><trkpt lat="46.0004211" lon="11.6948145"><ele>1384.1999999999998</ele><time>2026-04-26T10:43:23.583Z</time></trkpt><trkpt lat="46.0003646" lon="11.6946505"><ele>1387.0</ele><time>2026-04-26T10:43:25.569Z</time></trkpt><trkpt lat="46.0003094" lon="11.694487"><ele>1389.0</ele><time>2026-04-26T10:43:27.572Z</time></trkpt><trkpt lat="46.0002906" lon="11.694397"><ele>1391.0</ele><time>2026-04-26T10:43:28.587Z</time></trkpt><trkpt lat="46.0002743" lon="11.6943009"><ele>1393.0</ele><time>2026-04-26T10:43:29.581Z</time></trkpt><trkpt lat="46.0002582" lon="11.694199"><ele>1395.0</ele><time>2026-04-26T10:43:30.573Z</time></trkpt><trkpt lat="46.0002394" lon="11.6940877"><ele>1397.0</ele><time>2026-04-26T10:43:31.581Z</time></trkpt><trkpt lat="46.0002228" lon="11.6939718"><ele>1399.0</ele><time>2026-04-26T10:43:32.563Z</time></trkpt><trkpt lat="46.0002109" lon="11.6938417"><ele>1399.0</ele><time>2026-04-26T10:43:33.576Z</time></trkpt><trkpt lat="46.0002006" lon="11.6937153"><ele>1399.0</ele><time>2026-04-26T10:43:34.573Z</time></trkpt><trkpt lat="46.000193" lon="11.6935947"><ele>1399.0</ele><time>2026-04-26T10:43:35.563Z</time></trkpt><trkpt lat="46.0001818" lon="11.6934914"><ele>1399.0</ele><time>2026-04-26T10:43:36.575Z</time></trkpt><trkpt lat="46.0001842" lon="11.693399"><ele>1399.0</ele><time>2026-04-26T10:43:37.597Z</time></trkpt><trkpt lat="46.0002433" lon="11.6933226"><ele>1399.0</ele><time>2026-04-26T10:43:39.571Z</time></trkpt><trkpt lat="46.0003283" lon="11.6933327"><ele>1402.2</ele><time>2026-04-26T10:43:41.578Z</time></trkpt><trkpt lat="46.0004095" lon="11.693394"><ele>1405.4</ele><time>2026-04-26T10:43:43.598Z</time></trkpt><trkpt lat="46.0005328" lon="11.6934639"><ele>1408.6</ele><time>2026-04-26T10:43:45.579Z</time></trkpt><trkpt lat="46.0006198" lon="11.6934962"><ele>1411.8</ele><time>2026-04-26T10:43:46.559Z</time></trkpt><trkpt lat="46.0007" lon="11.6935052"><ele>1415.0</ele><time>2026-04-26T10:43:47.561Z</time></trkpt><trkpt lat="46.0007709" lon="11.6935006"><ele>1414.7142857142858</ele><time>2026-04-26T10:43:48.583Z</time></trkpt><trkpt lat="46.0008369" lon="11.6934913"><ele>1414.4285714285713</ele><time>2026-04-26T10:43:49.583Z</time></trkpt><trkpt lat="46.0009033" lon="11.6934685"><ele>1414.142857142857</ele><time>2026-04-26T10:43:50.577Z</time></trkpt><trkpt lat="46.0009683" lon="11.6934256"><ele>1413.857142857143</ele><time>2026-04-26T10:43:51.58Z</time></trkpt><trkpt lat="46.0010264" lon="11.6933628"><ele>1413.5714285714287</ele><time>2026-04-26T10:43:52.57Z</time></trkpt><trkpt lat="46.001083" lon="11.693285"><ele>1413.2857142857142</ele><time>2026-04-26T10:43:53.571Z</time></trkpt><trkpt lat="46.0011409" lon="11.6931991"><ele>1413.0</ele><time>2026-04-26T10:43:54.552Z</time></trkpt><trkpt lat="46.001205" lon="11.6931003"><ele>1413.0</ele><time>2026-04-26T10:43:55.572Z</time></trkpt><trkpt lat="46.0012697" lon="11.693007"><ele>1413.0</ele><time>2026-04-26T10:43:56.575Z</time></trkpt><trkpt lat="46.0013324" lon="11.6929081"><ele>1413.0</ele><time>2026-04-26T10:43:57.571Z</time></trkpt><trkpt lat="46.0013943" lon="11.6928061"><ele>1413.0</ele><time>2026-04-26T10:43:58.581Z</time></trkpt><trkpt lat="46.0014564" lon="11.6927069"><ele>1413.0</ele><time>2026-04-26T10:43:59.58Z</time></trkpt><trkpt lat="46.0015228" lon="11.6926216"><ele>1414.6000000000001</ele><time>2026-04-26T10:44:00.578Z</time></trkpt><trkpt lat="46.0016004" lon="11.6925636"><ele>1416.2</ele><time>2026-04-26T10:44:01.589Z</time></trkpt><trkpt lat="46.0016909" lon="11.6925182"><ele>1417.8</ele><time>2026-04-26T10:44:02.575Z</time></trkpt><trkpt lat="46.0017867" lon="11.6924864"><ele>1419.4</ele><time>2026-04-26T10:44:03.576Z</time></trkpt><trkpt lat="46.0018787" lon="11.6924839"><ele>1421.0</ele><time>2026-04-26T10:44:04.564Z</time></trkpt><trkpt lat="46.0019724" lon="11.6924932"><ele>1421.0</ele><time>2026-04-26T10:44:05.567Z</time></trkpt><trkpt lat="46.0020574" lon="11.692519"><ele>1421.0</ele><time>2026-04-26T10:44:06.569Z</time></trkpt><trkpt lat="46.0021429" lon="11.6925538"><ele>1421.0</ele><time>2026-04-26T10:44:07.576Z</time></trkpt><trkpt lat="46.0022368" lon="11.6925824"><ele>1421.0</ele><time>2026-04-26T10:44:08.578Z</time></trkpt><trkpt lat="46.002326" lon="11.6926003"><ele>1421.0</ele><time>2026-04-26T10:44:09.572Z</time></trkpt><trkpt lat="46.0024053" lon="11.6925959"><ele>1421.0</ele><time>2026-04-26T10:44:10.583Z</time></trkpt><trkpt lat="46.0024833" lon="11.6925784"><ele>1421.0</ele><time>2026-04-26T10:44:11.574Z</time></trkpt><trkpt lat="46.0025615" lon="11.6925489"><ele>1421.0</ele><time>2026-04-26T10:44:12.57Z</time></trkpt><trkpt lat="46.0026411" lon="11.6925391"><ele>1421.0</ele><time>2026-04-26T10:44:13.576Z</time></trkpt><trkpt lat="46.0027209" lon="11.6925677"><ele>1421.0</ele><time>2026-04-26T10:44:14.592Z</time></trkpt><trkpt lat="46.0027814" lon="11.6926373"><ele>1421.0</ele><time>2026-04-26T10:44:15.554Z</time></trkpt><trkpt lat="46.0028506" lon="11.6927268"><ele>1421.0</ele><time>2026-04-26T10:44:16.577Z</time></trkpt><trkpt lat="46.0029244" lon="11.6928105"><ele>1417.4</ele><time>2026-04-26T10:44:17.57Z</time></trkpt><trkpt lat="46.0030048" lon="11.6928926"><ele>1413.8</ele><time>2026-04-26T10:44:18.579Z</time></trkpt><trkpt lat="46.0030861" lon="11.6929643"><ele>1410.2</ele><time>2026-04-26T10:44:19.568Z</time></trkpt><trkpt lat="46.003171" lon="11.6930352"><ele>1406.6000000000001</ele><time>2026-04-26T10:44:20.568Z</time></trkpt><trkpt lat="46.003256" lon="11.6931023"><ele>1403.0</ele><time>2026-04-26T10:44:21.581Z</time></trkpt><trkpt lat="46.0033409" lon="11.6931623"><ele>1403.0</ele><time>2026-04-26T10:44:22.58Z</time></trkpt><trkpt lat="46.0034278" lon="11.6932149"><ele>1403.0</ele><time>2026-04-26T10:44:23.589Z</time></trkpt><trkpt lat="46.0036035" lon="11.6933013"><ele>1403.0</ele><time>2026-04-26T10:44:25.634Z</time></trkpt><trkpt lat="46.0036971" lon="11.6933117"><ele>1403.0</ele><time>2026-04-26T10:44:26.619Z</time></trkpt><trkpt lat="46.003795" lon="11.6932993"><ele>1403.0</ele><time>2026-04-26T10:44:27.634Z</time></trkpt><trkpt lat="46.0038895" lon="11.6932848"><ele>1403.0</ele><time>2026-04-26T10:44:28.629Z</time></trkpt><trkpt lat="46.0039826" lon="11.6932811"><ele>1403.0</ele><time>2026-04-26T10:44:29.64Z</time></trkpt><trkpt lat="46.004064" lon="11.6933035"><ele>1403.0</ele><time>2026-04-26T10:44:30.629Z</time></trkpt><trkpt lat="46.0041364" lon="11.693351"><ele>1403.0</ele><time>2026-04-26T10:44:31.631Z</time></trkpt><trkpt lat="46.0041919" lon="11.6934262"><ele>1403.0</ele><time>2026-04-26T10:44:32.625Z</time></trkpt><trkpt lat="46.0042318" lon="11.6935199"><ele>1402.5</ele><time>2026-04-26T10:44:33.632Z</time></trkpt><trkpt lat="46.0042712" lon="11.6936208"><ele>1402.0</ele><time>2026-04-26T10:44:34.625Z</time></trkpt><trkpt lat="46.0043133" lon="11.6937242"><ele>1401.5</ele><time>2026-04-26T10:44:35.608Z</time></trkpt><trkpt lat="46.0043608" lon="11.6938305"><ele>1401.0</ele><time>2026-04-26T10:44:36.64Z</time></trkpt><trkpt lat="46.004413" lon="11.6939157"><ele>1400.5</ele><time>2026-04-26T10:44:37.623Z</time></trkpt><trkpt lat="46.0044781" lon="11.6939838"><ele>1400.0</ele><time>2026-04-26T10:44:38.644Z</time></trkpt><trkpt lat="46.0045545" lon="11.6940243"><ele>1400.0</ele><time>2026-04-26T10:44:39.637Z</time></trkpt><trkpt lat="46.0046389" lon="11.6940438"><ele>1400.0</ele><time>2026-04-26T10:44:40.623Z</time></trkpt><trkpt lat="46.004732" lon="11.6940544"><ele>1400.0</ele><time>2026-04-26T10:44:41.632Z</time></trkpt><trkpt lat="46.0048195" lon="11.6940615"><ele>1400.0</ele><time>2026-04-26T10:44:42.638Z</time></trkpt><trkpt lat="46.004899" lon="11.6940641"><ele>1400.0</ele><time>2026-04-26T10:44:43.64Z</time></trkpt><trkpt lat="46.0049721" lon="11.6940638"><ele>1400.0</ele><time>2026-04-26T10:44:44.626Z</time></trkpt><trkpt lat="46.0050403" lon="11.6940557"><ele>1401.6666666666667</ele><time>2026-04-26T10:44:45.644Z</time></trkpt><trkpt lat="46.0051656" lon="11.6940196"><ele>1403.3333333333335</ele><time>2026-04-26T10:44:47.627Z</time></trkpt><trkpt lat="46.0052342" lon="11.6939887"><ele>1405.0</ele><time>2026-04-26T10:44:48.644Z</time></trkpt><trkpt lat="46.0053035" lon="11.6939505"><ele>1406.6666666666667</ele><time>2026-04-26T10:44:49.638Z</time></trkpt><trkpt lat="46.005371" lon="11.6939093"><ele>1408.3333333333333</ele><time>2026-04-26T10:44:50.619Z</time></trkpt><trkpt lat="46.005442" lon="11.6938675"><ele>1410.0</ele><time>2026-04-26T10:44:51.649Z</time></trkpt><trkpt lat="46.0055086" lon="11.6938235"><ele>1410.0</ele><time>2026-04-26T10:44:52.629Z</time></trkpt><trkpt lat="46.0055755" lon="11.6937684"><ele>1410.0</ele><time>2026-04-26T10:44:53.637Z</time></trkpt><trkpt lat="46.0056373" lon="11.6937014"><ele>1410.0</ele><time>2026-04-26T10:44:54.63Z</time></trkpt><trkpt lat="46.0056965" lon="11.6936217"><ele>1410.0</ele><time>2026-04-26T10:44:55.639Z</time></trkpt><trkpt lat="46.0057536" lon="11.6935372"><ele>1410.0</ele><time>2026-04-26T10:44:56.642Z</time></trkpt><trkpt lat="46.0058097" lon="11.6934513"><ele>1410.0</ele><time>2026-04-26T10:44:57.635Z</time></trkpt><trkpt lat="46.0058619" lon="11.6933692"><ele>1410.5</ele><time>2026-04-26T10:44:58.576Z</time></trkpt><trkpt lat="46.0059166" lon="11.6932862"><ele>1411.0</ele><time>2026-04-26T10:44:59.584Z</time></trkpt><trkpt lat="46.0059743" lon="11.6932027"><ele>1411.5</ele><time>2026-04-26T10:45:00.591Z</time></trkpt><trkpt lat="46.0060373" lon="11.6931204"><ele>1412.0</ele><time>2026-04-26T10:45:01.573Z</time></trkpt><trkpt lat="46.0061056" lon="11.6930303"><ele>1412.5</ele><time>2026-04-26T10:45:02.583Z</time></trkpt><trkpt lat="46.0061727" lon="11.6929347"><ele>1413.0</ele><time>2026-04-26T10:45:03.588Z</time></trkpt><trkpt lat="46.0062324" lon="11.6928232"><ele>1415.8000000000002</ele><time>2026-04-26T10:45:04.573Z</time></trkpt><trkpt lat="46.0062815" lon="11.6926914"><ele>1418.6</ele><time>2026-04-26T10:45:05.588Z</time></trkpt><trkpt lat="46.00632" lon="11.6925521"><ele>1421.4</ele><time>2026-04-26T10:45:06.57Z</time></trkpt><trkpt lat="46.006355" lon="11.6924035"><ele>1424.1999999999998</ele><time>2026-04-26T10:45:07.565Z</time></trkpt><trkpt lat="46.0063909" lon="11.6922667"><ele>1427.0</ele><time>2026-04-26T10:45:08.582Z</time></trkpt><trkpt lat="46.006425" lon="11.6921459"><ele>1427.0</ele><time>2026-04-26T10:45:09.579Z</time></trkpt><trkpt lat="46.0064623" lon="11.6920232"><ele>1427.0</ele><time>2026-04-26T10:45:10.586Z</time></trkpt><trkpt lat="46.0064918" lon="11.6918958"><ele>1427.0</ele><time>2026-04-26T10:45:11.575Z</time></trkpt><trkpt lat="46.0065052" lon="11.691771"><ele>1427.0</ele><time>2026-04-26T10:45:12.572Z</time></trkpt><trkpt lat="46.0064999" lon="11.6916381"><ele>1427.0</ele><time>2026-04-26T10:45:13.576Z</time></trkpt><trkpt lat="46.0064829" lon="11.6914991"><ele>1428.1666666666667</ele><time>2026-04-26T10:45:14.588Z</time></trkpt><trkpt lat="46.0064671" lon="11.6913676"><ele>1429.3333333333335</ele><time>2026-04-26T10:45:15.584Z</time></trkpt><trkpt lat="46.0064641" lon="11.6912413"><ele>1430.5</ele><time>2026-04-26T10:45:16.573Z</time></trkpt><trkpt lat="46.0064789" lon="11.6911241"><ele>1431.6666666666667</ele><time>2026-04-26T10:45:17.563Z</time></trkpt><trkpt lat="46.0065121" lon="11.6910073"><ele>1432.8333333333333</ele><time>2026-04-26T10:45:18.587Z</time></trkpt><trkpt lat="46.0065528" lon="11.6908893"><ele>1434.0</ele><time>2026-04-26T10:45:19.593Z</time></trkpt><trkpt lat="46.0065849" lon="11.6907734"><ele>1433.6</ele><time>2026-04-26T10:45:20.551Z</time></trkpt><trkpt lat="46.0066138" lon="11.6906488"><ele>1433.2</ele><time>2026-04-26T10:45:21.598Z</time></trkpt><trkpt lat="46.0066296" lon="11.6905296"><ele>1432.8</ele><time>2026-04-26T10:45:22.573Z</time></trkpt><trkpt lat="46.0066356" lon="11.6903904"><ele>1432.3999999999999</ele><time>2026-04-26T10:45:23.596Z</time></trkpt><trkpt lat="46.0066466" lon="11.6902533"><ele>1432.0</ele><time>2026-04-26T10:45:24.576Z</time></trkpt><trkpt lat="46.0066661" lon="11.6901224"><ele>1432.0</ele><time>2026-04-26T10:45:25.569Z</time></trkpt><trkpt lat="46.0067006" lon="11.6900089"><ele>1432.0</ele><time>2026-04-26T10:45:26.568Z</time></trkpt><trkpt lat="46.0067614" lon="11.6899165"><ele>1432.0</ele><time>2026-04-26T10:45:27.574Z</time></trkpt><trkpt lat="46.0068291" lon="11.6898309"><ele>1432.0</ele><time>2026-04-26T10:45:28.574Z</time></trkpt><trkpt lat="46.0068886" lon="11.6897417"><ele>1432.0</ele><time>2026-04-26T10:45:29.572Z</time></trkpt><trkpt lat="46.0069317" lon="11.6896448"><ele>1432.0</ele><time>2026-04-26T10:45:30.589Z</time></trkpt><trkpt lat="46.0069531" lon="11.6895391"><ele>1432.8</ele><time>2026-04-26T10:45:31.592Z</time></trkpt><trkpt lat="46.0069623" lon="11.6894209"><ele>1433.6</ele><time>2026-04-26T10:45:32.584Z</time></trkpt><trkpt lat="46.0069633" lon="11.689284"><ele>1434.3999999999999</ele><time>2026-04-26T10:45:33.568Z</time></trkpt><trkpt lat="46.0069573" lon="11.6891457"><ele>1435.1999999999998</ele><time>2026-04-26T10:45:34.567Z</time></trkpt><trkpt lat="46.0069604" lon="11.6890141"><ele>1436.0</ele><time>2026-04-26T10:45:35.571Z</time></trkpt><trkpt lat="46.0069775" lon="11.6888953"><ele>1436.0</ele><time>2026-04-26T10:45:36.533Z</time></trkpt><trkpt lat="46.0070152" lon="11.6887623"><ele>1436.0</ele><time>2026-04-26T10:45:37.542Z</time></trkpt><trkpt lat="46.0070729" lon="11.6886352"><ele>1436.0</ele><time>2026-04-26T10:45:38.572Z</time></trkpt><trkpt lat="46.0071448" lon="11.6885303"><ele>1436.0</ele><time>2026-04-26T10:45:39.585Z</time></trkpt><trkpt lat="46.0072156" lon="11.6884382"><ele>1436.0</ele><time>2026-04-26T10:45:40.583Z</time></trkpt><trkpt lat="46.0072791" lon="11.6883406"><ele>1436.0</ele><time>2026-04-26T10:45:41.59Z</time></trkpt><trkpt lat="46.0073329" lon="11.6882275"><ele>1436.0</ele><time>2026-04-26T10:45:42.584Z</time></trkpt><trkpt lat="46.0073793" lon="11.6881005"><ele>1436.0</ele><time>2026-04-26T10:45:43.584Z</time></trkpt><trkpt lat="46.0074134" lon="11.6879726"><ele>1436.0</ele><time>2026-04-26T10:45:44.533Z</time></trkpt><trkpt lat="46.0074497" lon="11.6878266"><ele>1436.0</ele><time>2026-04-26T10:45:45.569Z</time></trkpt><trkpt lat="46.0074756" lon="11.6876908"><ele>1433.6666666666667</ele><time>2026-04-26T10:45:46.58Z</time></trkpt><trkpt lat="46.0074989" lon="11.6875606"><ele>1431.3333333333335</ele><time>2026-04-26T10:45:47.569Z</time></trkpt><trkpt lat="46.0075268" lon="11.687429"><ele>1429.0</ele><time>2026-04-26T10:45:48.568Z</time></trkpt><trkpt lat="46.0075534" lon="11.6873085"><ele>1426.6666666666667</ele><time>2026-04-26T10:45:49.567Z</time></trkpt><trkpt lat="46.0075782" lon="11.6871944"><ele>1424.3333333333333</ele><time>2026-04-26T10:45:50.585Z</time></trkpt><trkpt lat="46.0075995" lon="11.6870924"><ele>1422.0</ele><time>2026-04-26T10:45:51.568Z</time></trkpt><trkpt lat="46.0076131" lon="11.6869682"><ele>1423.3999999999999</ele><time>2026-04-26T10:45:52.574Z</time></trkpt><trkpt lat="46.0076149" lon="11.6868266"><ele>1424.8</ele><time>2026-04-26T10:45:53.578Z</time></trkpt><trkpt lat="46.007607" lon="11.6866677"><ele>1426.2</ele><time>2026-04-26T10:45:54.576Z</time></trkpt><trkpt lat="46.0075993" lon="11.6865028"><ele>1427.6</ele><time>2026-04-26T10:45:55.572Z</time></trkpt><trkpt lat="46.0075949" lon="11.6863654"><ele>1429.0</ele><time>2026-04-26T10:45:56.581Z</time></trkpt><trkpt lat="46.0075931" lon="11.6862558"><ele>1429.0</ele><time>2026-04-26T10:45:57.57Z</time></trkpt><trkpt lat="46.0075912" lon="11.6861463"><ele>1429.0</ele><time>2026-04-26T10:45:58.586Z</time></trkpt><trkpt lat="46.0075884" lon="11.6860368"><ele>1429.0</ele><time>2026-04-26T10:45:59.595Z</time></trkpt><trkpt lat="46.007584" lon="11.6859369"><ele>1429.0</ele><time>2026-04-26T10:46:00.58Z</time></trkpt><trkpt lat="46.0075708" lon="11.6857554"><ele>1429.0</ele><time>2026-04-26T10:46:02.573Z</time></trkpt><trkpt lat="46.0075596" lon="11.6856577"><ele>1429.0</ele><time>2026-04-26T10:46:03.584Z</time></trkpt><trkpt lat="46.007539" lon="11.6855127"><ele>1429.0</ele><time>2026-04-26T10:46:05.574Z</time></trkpt><trkpt lat="46.0075775" lon="11.6853934"><ele>1429.0</ele><time>2026-04-26T10:46:08.576Z</time></trkpt><trkpt lat="46.0076248" lon="11.685299"><ele>1429.0</ele><time>2026-04-26T10:46:11.571Z</time></trkpt><trkpt lat="46.0076675" lon="11.6851944"><ele>1429.0</ele><time>2026-04-26T10:46:15.582Z</time></trkpt><trkpt lat="46.00773" lon="11.6851366"><ele>1429.0</ele><time>2026-04-26T10:46:18.542Z</time></trkpt><trkpt lat="46.0077063" lon="11.685043"><ele>1429.0</ele><time>2026-04-26T10:47:09.561Z</time></trkpt><trkpt lat="46.0075729" lon="11.6851831"><ele>1429.0</ele><time>2026-04-26T10:50:57.419Z</time></trkpt><trkpt lat="46.0076488" lon="11.6852415"><ele>1429.0</ele><time>2026-04-26T10:51:06.63Z</time></trkpt><trkpt lat="46.0076923" lon="11.6851696"><ele>1429.0</ele><time>2026-04-26T10:51:08.639Z</time></trkpt></trkseg><trkseg><trkpt lat="46.0077711" lon="11.6850496"><ele>1428.3333333333333</ele><time>2026-04-26T11:36:26.635Z</time></trkpt><trkpt lat="46.00757" lon="11.6853537"><ele>1427.6666666666667</ele><time>2026-04-26T11:37:31.651Z</time></trkpt><trkpt lat="46.0075274" lon="11.6854452"><ele>1427.0</ele><time>2026-04-26T11:37:33.622Z</time></trkpt><trkpt lat="46.0075541" lon="11.6855698"><ele>1427.0</ele><time>2026-04-26T11:37:36.643Z</time></trkpt><trkpt lat="46.0075703" lon="11.6856685"><ele>1427.0</ele><time>2026-04-26T11:37:38.645Z</time></trkpt><trkpt lat="46.007573" lon="11.6857694"><ele>1427.0</ele><time>2026-04-26T11:37:40.645Z</time></trkpt><trkpt lat="46.0075592" lon="11.6858679"><ele>1427.0</ele><time>2026-04-26T11:37:42.65Z</time></trkpt><trkpt lat="46.0075638" lon="11.685973"><ele>1427.0</ele><time>2026-04-26T11:37:44.648Z</time></trkpt><trkpt lat="46.0075726" lon="11.686102"><ele>1427.0</ele><time>2026-04-26T11:37:46.662Z</time></trkpt><trkpt lat="46.0075861" lon="11.6862838"><ele>1427.3333333333335</ele><time>2026-04-26T11:37:48.663Z</time></trkpt><trkpt lat="46.0076029" lon="11.6863792"><ele>1427.6666666666667</ele><time>2026-04-26T11:37:49.66Z</time></trkpt><trkpt lat="46.0076142" lon="11.6864726"><ele>1428.0</ele><time>2026-04-26T11:37:50.654Z</time></trkpt><trkpt lat="46.0076113" lon="11.6865685"><ele>1428.3333333333333</ele><time>2026-04-26T11:37:51.653Z</time></trkpt><trkpt lat="46.0076075" lon="11.6866689"><ele>1428.6666666666665</ele><time>2026-04-26T11:37:52.644Z</time></trkpt><trkpt lat="46.0076051" lon="11.6867698"><ele>1429.0</ele><time>2026-04-26T11:37:53.669Z</time></trkpt><trkpt lat="46.0076121" lon="11.6869434"><ele>1427.8333333333333</ele><time>2026-04-26T11:37:55.658Z</time></trkpt><trkpt lat="46.007598" lon="11.6870414"><ele>1426.6666666666665</ele><time>2026-04-26T11:37:56.659Z</time></trkpt><trkpt lat="46.0075756" lon="11.6871369"><ele>1425.5</ele><time>2026-04-26T11:37:57.662Z</time></trkpt><trkpt lat="46.0075535" lon="11.6872278"><ele>1424.3333333333333</ele><time>2026-04-26T11:37:58.666Z</time></trkpt><trkpt lat="46.0075329" lon="11.6873179"><ele>1423.1666666666667</ele><time>2026-04-26T11:37:59.649Z</time></trkpt><trkpt lat="46.0074913" lon="11.6874852"><ele>1422.0</ele><time>2026-04-26T11:38:01.658Z</time></trkpt><trkpt lat="46.0074716" lon="11.6875752"><ele>1424.0</ele><time>2026-04-26T11:38:02.655Z</time></trkpt><trkpt lat="46.0074506" lon="11.6876654"><ele>1426.0</ele><time>2026-04-26T11:38:03.632Z</time></trkpt><trkpt lat="46.0074277" lon="11.6877572"><ele>1428.0</ele><time>2026-04-26T11:38:04.632Z</time></trkpt><trkpt lat="46.0074076" lon="11.6878523"><ele>1430.0</ele><time>2026-04-26T11:38:05.641Z</time></trkpt><trkpt lat="46.0073838" lon="11.6879472"><ele>1432.0</ele><time>2026-04-26T11:38:06.664Z</time></trkpt><trkpt lat="46.0073581" lon="11.6880345"><ele>1434.0</ele><time>2026-04-26T11:38:07.646Z</time></trkpt><trkpt lat="46.0073311" lon="11.688121"><ele>1436.0</ele><time>2026-04-26T11:38:08.667Z</time></trkpt><trkpt lat="46.0073011" lon="11.6882043"><ele>1436.0</ele><time>2026-04-26T11:38:09.668Z</time></trkpt><trkpt lat="46.0072675" lon="11.6882847"><ele>1436.0</ele><time>2026-04-26T11:38:10.67Z</time></trkpt><trkpt lat="46.0072289" lon="11.6883633"><ele>1436.0</ele><time>2026-04-26T11:38:11.659Z</time></trkpt><trkpt lat="46.0071848" lon="11.6884406"><ele>1436.0</ele><time>2026-04-26T11:38:12.663Z</time></trkpt><trkpt lat="46.0071406" lon="11.6885172"><ele>1436.0</ele><time>2026-04-26T11:38:13.656Z</time></trkpt><trkpt lat="46.0070959" lon="11.6885952"><ele>1436.0</ele><time>2026-04-26T11:38:14.665Z</time></trkpt><trkpt lat="46.007052" lon="11.6886702"><ele>1436.0</ele><time>2026-04-26T11:38:15.653Z</time></trkpt><trkpt lat="46.0070142" lon="11.6887492"><ele>1436.0</ele><time>2026-04-26T11:38:16.629Z</time></trkpt><trkpt lat="46.0069845" lon="11.6888438"><ele>1436.0</ele><time>2026-04-26T11:38:17.644Z</time></trkpt><trkpt lat="46.0069635" lon="11.6889435"><ele>1436.0</ele><time>2026-04-26T11:38:18.654Z</time></trkpt><trkpt lat="46.0069515" lon="11.6890422"><ele>1436.0</ele><time>2026-04-26T11:38:19.659Z</time></trkpt><trkpt lat="46.0069444" lon="11.6891427"><ele>1436.0</ele><time>2026-04-26T11:38:20.643Z</time></trkpt><trkpt lat="46.0069423" lon="11.689254"><ele>1436.0</ele><time>2026-04-26T11:38:21.667Z</time></trkpt><trkpt lat="46.0069412" lon="11.6893578"><ele>1436.0</ele><time>2026-04-26T11:38:22.661Z</time></trkpt><trkpt lat="46.0069343" lon="11.6894556"><ele>1435.4285714285716</ele><time>2026-04-26T11:38:23.664Z</time></trkpt><trkpt lat="46.0069212" lon="11.6895486"><ele>1434.857142857143</ele><time>2026-04-26T11:38:24.653Z</time></trkpt><trkpt lat="46.0068992" lon="11.6896438"><ele>1434.2857142857142</ele><time>2026-04-26T11:38:25.666Z</time></trkpt><trkpt lat="46.0068659" lon="11.6897384"><ele>1433.7142857142858</ele><time>2026-04-26T11:38:26.673Z</time></trkpt><trkpt lat="46.0068203" lon="11.6898258"><ele>1433.142857142857</ele><time>2026-04-26T11:38:27.673Z</time></trkpt><trkpt lat="46.006767" lon="11.6899084"><ele>1432.5714285714287</ele><time>2026-04-26T11:38:28.639Z</time></trkpt><trkpt lat="46.0067117" lon="11.6899939"><ele>1432.0</ele><time>2026-04-26T11:38:29.655Z</time></trkpt><trkpt lat="46.0066626" lon="11.6900779"><ele>1434.0</ele><time>2026-04-26T11:38:30.656Z</time></trkpt><trkpt lat="46.0066096" lon="11.6902249"><ele>1436.0</ele><time>2026-04-26T11:38:32.673Z</time></trkpt><trkpt lat="46.0066062" lon="11.6903788"><ele>1438.0</ele><time>2026-04-26T11:38:34.662Z</time></trkpt><trkpt lat="46.0066321" lon="11.6904842"><ele>1440.0</ele><time>2026-04-26T11:38:36.661Z</time></trkpt><trkpt lat="46.0066346" lon="11.6906034"><ele>1442.0</ele><time>2026-04-26T11:38:50.658Z</time></trkpt><trkpt lat="46.0065963" lon="11.6907503"><ele>1442.0</ele><time>2026-04-26T11:38:51.637Z</time></trkpt><trkpt lat="46.0065635" lon="11.6908772"><ele>1442.0</ele><time>2026-04-26T11:38:52.656Z</time></trkpt><trkpt lat="46.006536" lon="11.6910229"><ele>1442.0</ele><time>2026-04-26T11:38:53.674Z</time></trkpt><trkpt lat="46.0065406" lon="11.6911709"><ele>1442.0</ele><time>2026-04-26T11:38:54.666Z</time></trkpt><trkpt lat="46.0065673" lon="11.6913123"><ele>1442.0</ele><time>2026-04-26T11:38:55.648Z</time></trkpt><trkpt lat="46.0066189" lon="11.6914135"><ele>1436.8</ele><time>2026-04-26T11:38:56.628Z</time></trkpt><trkpt lat="46.0066842" lon="11.6915189"><ele>1431.6</ele><time>2026-04-26T11:38:57.637Z</time></trkpt><trkpt lat="46.0067617" lon="11.6915954"><ele>1426.3999999999999</ele><time>2026-04-26T11:38:58.66Z</time></trkpt><trkpt lat="46.0068468" lon="11.6916894"><ele>1421.1999999999998</ele><time>2026-04-26T11:38:59.569Z</time></trkpt><trkpt lat="46.0069687" lon="11.6917949"><ele>1416.0</ele><time>2026-04-26T11:39:00.664Z</time></trkpt><trkpt lat="46.0070518" lon="11.6918936"><ele>1414.4</ele><time>2026-04-26T11:39:01.675Z</time></trkpt><trkpt lat="46.0071188" lon="11.6920098"><ele>1412.8</ele><time>2026-04-26T11:39:03.669Z</time></trkpt><trkpt lat="46.0071073" lon="11.6921626"><ele>1411.2</ele><time>2026-04-26T11:39:05.657Z</time></trkpt><trkpt lat="46.0070381" lon="11.6923289"><ele>1409.6000000000001</ele><time>2026-04-26T11:39:07.661Z</time></trkpt><trkpt lat="46.0069922" lon="11.6924147"><ele>1408.0</ele><time>2026-04-26T11:39:08.636Z</time></trkpt><trkpt lat="46.0069488" lon="11.6925159"><ele>1408.0</ele><time>2026-04-26T11:39:09.654Z</time></trkpt><trkpt lat="46.0069235" lon="11.6926263"><ele>1408.0</ele><time>2026-04-26T11:39:10.627Z</time></trkpt><trkpt lat="46.006905" lon="11.6927399"><ele>1408.0</ele><time>2026-04-26T11:39:11.661Z</time></trkpt><trkpt lat="46.0068789" lon="11.6928529"><ele>1408.0</ele><time>2026-04-26T11:39:12.656Z</time></trkpt><trkpt lat="46.0068386" lon="11.6930083"><ele>1408.0</ele><time>2026-04-26T11:39:13.663Z</time></trkpt><trkpt lat="46.0067874" lon="11.6931946"><ele>1406.6666666666665</ele><time>2026-04-26T11:39:14.66Z</time></trkpt><trkpt lat="46.0067572" lon="11.6933477"><ele>1405.3333333333333</ele><time>2026-04-26T11:39:15.652Z</time></trkpt><trkpt lat="46.0067426" lon="11.6934662"><ele>1404.0</ele><time>2026-04-26T11:39:16.647Z</time></trkpt><trkpt lat="46.0067426" lon="11.6935683"><ele>1402.6666666666667</ele><time>2026-04-26T11:39:17.669Z</time></trkpt><trkpt lat="46.0067532" lon="11.6936679"><ele>1401.3333333333335</ele><time>2026-04-26T11:39:18.662Z</time></trkpt><trkpt lat="46.0068045" lon="11.6937829"><ele>1400.0</ele><time>2026-04-26T11:39:19.692Z</time></trkpt><trkpt lat="46.006871" lon="11.6938835"><ele>1398.6666666666667</ele><time>2026-04-26T11:39:20.64Z</time></trkpt><trkpt lat="46.0069315" lon="11.6939858"><ele>1397.3333333333335</ele><time>2026-04-26T11:39:21.657Z</time></trkpt><trkpt lat="46.0069666" lon="11.6940786"><ele>1396.0</ele><time>2026-04-26T11:39:22.668Z</time></trkpt><trkpt lat="46.0069984" lon="11.6942617"><ele>1394.6666666666667</ele><time>2026-04-26T11:39:24.669Z</time></trkpt><trkpt lat="46.0070117" lon="11.6943604"><ele>1393.3333333333333</ele><time>2026-04-26T11:39:25.645Z</time></trkpt><trkpt lat="46.0070242" lon="11.6944648"><ele>1392.0</ele><time>2026-04-26T11:39:26.662Z</time></trkpt><trkpt lat="46.0070444" lon="11.6945756"><ele>1390.8333333333333</ele><time>2026-04-26T11:39:27.664Z</time></trkpt><trkpt lat="46.0070634" lon="11.6946926"><ele>1389.6666666666667</ele><time>2026-04-26T11:39:28.668Z</time></trkpt><trkpt lat="46.007078" lon="11.6948124"><ele>1388.5</ele><time>2026-04-26T11:39:29.66Z</time></trkpt><trkpt lat="46.0070912" lon="11.694924"><ele>1387.3333333333335</ele><time>2026-04-26T11:39:30.582Z</time></trkpt><trkpt lat="46.0071068" lon="11.6950547"><ele>1386.1666666666667</ele><time>2026-04-26T11:39:31.612Z</time></trkpt><trkpt lat="46.0071195" lon="11.6951667"><ele>1385.0</ele><time>2026-04-26T11:39:32.598Z</time></trkpt><trkpt lat="46.0071323" lon="11.6952594"><ele>1383.0</ele><time>2026-04-26T11:39:33.58Z</time></trkpt><trkpt lat="46.0071404" lon="11.6953528"><ele>1381.0</ele><time>2026-04-26T11:39:34.582Z</time></trkpt><trkpt lat="46.0071353" lon="11.6954507"><ele>1379.0</ele><time>2026-04-26T11:39:35.575Z</time></trkpt><trkpt lat="46.0071193" lon="11.695565"><ele>1377.0</ele><time>2026-04-26T11:39:36.606Z</time></trkpt><trkpt lat="46.0070987" lon="11.6956823"><ele>1375.0</ele><time>2026-04-26T11:39:37.61Z</time></trkpt><trkpt lat="46.0070765" lon="11.6958202"><ele>1373.0</ele><time>2026-04-26T11:39:38.611Z</time></trkpt><trkpt lat="46.0070503" lon="11.6959567"><ele>1373.0</ele><time>2026-04-26T11:39:39.601Z</time></trkpt><trkpt lat="46.0070305" lon="11.6960658"><ele>1373.0</ele><time>2026-04-26T11:39:40.605Z</time></trkpt><trkpt lat="46.0070112" lon="11.6961703"><ele>1373.0</ele><time>2026-04-26T11:39:41.602Z</time></trkpt><trkpt lat="46.0069872" lon="11.6962785"><ele>1373.0</ele><time>2026-04-26T11:39:42.618Z</time></trkpt><trkpt lat="46.0069603" lon="11.6963904"><ele>1373.0</ele><time>2026-04-26T11:39:43.593Z</time></trkpt><trkpt lat="46.0069391" lon="11.6964817"><ele>1373.0</ele><time>2026-04-26T11:39:44.609Z</time></trkpt><trkpt lat="46.0069003" lon="11.6965684"><ele>1371.8000000000002</ele><time>2026-04-26T11:39:46.621Z</time></trkpt><trkpt lat="46.0068226" lon="11.6966548"><ele>1370.6</ele><time>2026-04-26T11:39:48.595Z</time></trkpt><trkpt lat="46.0067089" lon="11.6967461"><ele>1369.4</ele><time>2026-04-26T11:39:50.618Z</time></trkpt><trkpt lat="46.0066426" lon="11.6967856"><ele>1368.1999999999998</ele><time>2026-04-26T11:39:51.6Z</time></trkpt><trkpt lat="46.00658" lon="11.6968383"><ele>1367.0</ele><time>2026-04-26T11:39:52.613Z</time></trkpt><trkpt lat="46.0064973" lon="11.6969604"><ele>1364.3333333333335</ele><time>2026-04-26T11:39:54.596Z</time></trkpt><trkpt lat="46.0064255" lon="11.6970736"><ele>1361.6666666666667</ele><time>2026-04-26T11:39:56.602Z</time></trkpt><trkpt lat="46.0063639" lon="11.6971845"><ele>1359.0</ele><time>2026-04-26T11:39:58.609Z</time></trkpt><trkpt lat="46.0063192" lon="11.6972797"><ele>1356.3333333333333</ele><time>2026-04-26T11:40:00.609Z</time></trkpt><trkpt lat="46.0062857" lon="11.6973785"><ele>1353.6666666666665</ele><time>2026-04-26T11:40:04.587Z</time></trkpt><trkpt lat="46.0063198" lon="11.6974567"><ele>1351.0</ele><time>2026-04-26T11:40:07.596Z</time></trkpt><trkpt lat="46.0062857" lon="11.6975588"><ele>1351.0</ele><time>2026-04-26T11:40:11.592Z</time></trkpt><trkpt lat="46.0061904" lon="11.697696"><ele>1351.0</ele><time>2026-04-26T11:40:13.608Z</time></trkpt><trkpt lat="46.0061546" lon="11.6977887"><ele>1351.0</ele><time>2026-04-26T11:40:14.601Z</time></trkpt><trkpt lat="46.0061363" lon="11.6978858"><ele>1351.0</ele><time>2026-04-26T11:40:15.605Z</time></trkpt><trkpt lat="46.0061225" lon="11.6979879"><ele>1351.0</ele><time>2026-04-26T11:40:16.594Z</time></trkpt><trkpt lat="46.0061069" lon="11.6980993"><ele>1351.0</ele><time>2026-04-26T11:40:17.616Z</time></trkpt><trkpt lat="46.0060896" lon="11.698216"><ele>1350.1666666666665</ele><time>2026-04-26T11:40:18.608Z</time></trkpt><trkpt lat="46.0060761" lon="11.6983309"><ele>1349.3333333333333</ele><time>2026-04-26T11:40:19.605Z</time></trkpt><trkpt lat="46.0060646" lon="11.6984385"><ele>1348.5</ele><time>2026-04-26T11:40:20.592Z</time></trkpt><trkpt lat="46.0060537" lon="11.6985452"><ele>1347.6666666666667</ele><time>2026-04-26T11:40:21.611Z</time></trkpt><trkpt lat="46.0060526" lon="11.6986851"><ele>1346.8333333333335</ele><time>2026-04-26T11:40:23.623Z</time></trkpt><trkpt lat="46.0060698" lon="11.6988017"><ele>1346.0</ele><time>2026-04-26T11:40:27.588Z</time></trkpt><trkpt lat="46.0060913" lon="11.6989044"><ele>1345.4285714285716</ele><time>2026-04-26T11:40:29.597Z</time></trkpt><trkpt lat="46.0061022" lon="11.6989948"><ele>1344.8571428571427</ele><time>2026-04-26T11:40:34.614Z</time></trkpt><trkpt lat="46.0060706" lon="11.6990971"><ele>1344.2857142857142</ele><time>2026-04-26T11:40:38.6Z</time></trkpt><trkpt lat="46.0060654" lon="11.699205"><ele>1343.7142857142858</ele><time>2026-04-26T11:40:43.604Z</time></trkpt><trkpt lat="46.0060816" lon="11.6992978"><ele>1343.1428571428573</ele><time>2026-04-26T11:40:50.613Z</time></trkpt><trkpt lat="46.0061497" lon="11.6993573"><ele>1342.5714285714284</ele><time>2026-04-26T11:41:07.592Z</time></trkpt><trkpt lat="46.0062035" lon="11.6994404"><ele>1342.0</ele><time>2026-04-26T11:41:17.589Z</time></trkpt><trkpt lat="46.0062263" lon="11.6995262"><ele>1340.3333333333333</ele><time>2026-04-26T11:41:20.601Z</time></trkpt><trkpt lat="46.0062489" lon="11.6996644"><ele>1338.6666666666665</ele><time>2026-04-26T11:41:45.602Z</time></trkpt><trkpt lat="46.0062263" lon="11.699763"><ele>1337.0</ele><time>2026-04-26T11:41:52.672Z</time></trkpt><trkpt lat="46.006175" lon="11.6998535"><ele>1335.3333333333333</ele><time>2026-04-26T11:41:56.658Z</time></trkpt><trkpt lat="46.0062177" lon="11.6999408"><ele>1333.6666666666667</ele><time>2026-04-26T11:42:02.687Z</time></trkpt><trkpt lat="46.0062084" lon="11.7000699"><ele>1332.0</ele><time>2026-04-26T11:42:29.654Z</time></trkpt><trkpt lat="46.0062428" lon="11.6999745"><ele>1332.0</ele><time>2026-04-26T11:42:37.627Z</time></trkpt><trkpt lat="46.0062974" lon="11.6998737"><ele>1332.0</ele><time>2026-04-26T11:42:44.648Z</time></trkpt><trkpt lat="46.0063136" lon="11.6997784"><ele>1332.0</ele><time>2026-04-26T11:42:48.641Z</time></trkpt><trkpt lat="46.0063285" lon="11.6996734"><ele>1332.0</ele><time>2026-04-26T11:42:51.639Z</time></trkpt><trkpt lat="46.0063319" lon="11.6995774"><ele>1332.0</ele><time>2026-04-26T11:42:56.434Z</time></trkpt><trkpt lat="46.0061812" lon="11.6990892"><ele>1335.3333333333333</ele><time>2026-04-26T11:43:01.655Z</time></trkpt><trkpt lat="46.0061022" lon="11.6988138"><ele>1338.6666666666665</ele><time>2026-04-26T11:43:02.654Z</time></trkpt><trkpt lat="46.0060853" lon="11.6985658"><ele>1342.0</ele><time>2026-04-26T11:43:05.649Z</time></trkpt><trkpt lat="46.0060953" lon="11.6983694"><ele>1342.6666666666665</ele><time>2026-04-26T11:43:06.649Z</time></trkpt><trkpt lat="46.0061108" lon="11.6982401"><ele>1343.3333333333333</ele><time>2026-04-26T11:43:07.654Z</time></trkpt><trkpt lat="46.0061222" lon="11.698139"><ele>1344.0</ele><time>2026-04-26T11:43:08.689Z</time></trkpt><trkpt lat="46.0061327" lon="11.6980453"><ele>1344.6666666666667</ele><time>2026-04-26T11:43:09.653Z</time></trkpt><trkpt lat="46.0061545" lon="11.6979482"><ele>1345.3333333333335</ele><time>2026-04-26T11:43:10.667Z</time></trkpt><trkpt lat="46.0061732" lon="11.6978408"><ele>1346.0</ele><time>2026-04-26T11:43:11.663Z</time></trkpt><trkpt lat="46.0061927" lon="11.6977387"><ele>1346.8333333333335</ele><time>2026-04-26T11:43:12.643Z</time></trkpt><trkpt lat="46.0062186" lon="11.6976352"><ele>1347.6666666666667</ele><time>2026-04-26T11:43:13.654Z</time></trkpt><trkpt lat="46.0062488" lon="11.697549"><ele>1348.5</ele><time>2026-04-26T11:43:14.664Z</time></trkpt><trkpt lat="46.0062877" lon="11.6974553"><ele>1349.3333333333333</ele><time>2026-04-26T11:43:16.656Z</time></trkpt><trkpt lat="46.0063516" lon="11.6974639"><ele>1350.1666666666665</ele><time>2026-04-26T11:43:33.653Z</time></trkpt><trkpt lat="46.0064745" lon="11.6975314"><ele>1351.0</ele><time>2026-04-26T11:43:35.646Z</time></trkpt><trkpt lat="46.0065446" lon="11.697567"><ele>1351.0</ele><time>2026-04-26T11:43:36.655Z</time></trkpt><trkpt lat="46.0066163" lon="11.6976039"><ele>1351.0</ele><time>2026-04-26T11:43:38.646Z</time></trkpt><trkpt lat="46.0066988" lon="11.6976616"><ele>1351.0</ele><time>2026-04-26T11:43:41.672Z</time></trkpt><trkpt lat="46.0068028" lon="11.6977153"><ele>1351.0</ele><time>2026-04-26T11:43:43.669Z</time></trkpt><trkpt lat="46.0069055" lon="11.6976977"><ele>1351.0</ele><time>2026-04-26T11:43:45.657Z</time></trkpt><trkpt lat="46.0070214" lon="11.6976508"><ele>1351.5</ele><time>2026-04-26T11:43:47.67Z</time></trkpt><trkpt lat="46.0070936" lon="11.6976393"><ele>1352.0</ele><time>2026-04-26T11:43:48.656Z</time></trkpt><trkpt lat="46.007171" lon="11.6976395"><ele>1352.5</ele><time>2026-04-26T11:43:49.657Z</time></trkpt><trkpt lat="46.0072511" lon="11.6976426"><ele>1353.0</ele><time>2026-04-26T11:43:50.667Z</time></trkpt><trkpt lat="46.0073393" lon="11.6976451"><ele>1353.5</ele><time>2026-04-26T11:43:51.659Z</time></trkpt><trkpt lat="46.0074279" lon="11.697648"><ele>1354.0</ele><time>2026-04-26T11:43:52.674Z</time></trkpt><trkpt lat="46.0074962" lon="11.6976473"><ele>1352.5</ele><time>2026-04-26T11:43:53.652Z</time></trkpt><trkpt lat="46.0075968" lon="11.6976134"><ele>1351.0</ele><time>2026-04-26T11:43:55.654Z</time></trkpt><trkpt lat="46.007679" lon="11.6975484"><ele>1349.5</ele><time>2026-04-26T11:43:57.665Z</time></trkpt><trkpt lat="46.0077615" lon="11.6975786"><ele>1348.0</ele><time>2026-04-26T11:43:59.653Z</time></trkpt><trkpt lat="46.0078427" lon="11.6976104"><ele>1346.5</ele><time>2026-04-26T11:44:01.647Z</time></trkpt><trkpt lat="46.007906" lon="11.6975907"><ele>1345.0</ele><time>2026-04-26T11:44:02.661Z</time></trkpt><trkpt lat="46.0079873" lon="11.697572"><ele>1345.0</ele><time>2026-04-26T11:44:04.638Z</time></trkpt><trkpt lat="46.0080759" lon="11.6975284"><ele>1345.0</ele><time>2026-04-26T11:44:22.685Z</time></trkpt><trkpt lat="46.0081608" lon="11.6974623"><ele>1345.0</ele><time>2026-04-26T11:44:24.657Z</time></trkpt><trkpt lat="46.0082425" lon="11.6973802"><ele>1345.0</ele><time>2026-04-26T11:44:26.669Z</time></trkpt><trkpt lat="46.0083226" lon="11.6972611"><ele>1345.0</ele><time>2026-04-26T11:44:28.664Z</time></trkpt><trkpt lat="46.0084005" lon="11.6971187"><ele>1343.4285714285716</ele><time>2026-04-26T11:44:30.678Z</time></trkpt><trkpt lat="46.0084401" lon="11.6970445"><ele>1341.857142857143</ele><time>2026-04-26T11:44:31.657Z</time></trkpt><trkpt lat="46.0084819" lon="11.6969658"><ele>1340.2857142857142</ele><time>2026-04-26T11:44:32.665Z</time></trkpt><trkpt lat="46.0085268" lon="11.696889"><ele>1338.7142857142858</ele><time>2026-04-26T11:44:33.664Z</time></trkpt><trkpt lat="46.0085751" lon="11.6968136"><ele>1337.142857142857</ele><time>2026-04-26T11:44:34.662Z</time></trkpt><trkpt lat="46.0086257" lon="11.696741"><ele>1335.5714285714287</ele><time>2026-04-26T11:44:35.669Z</time></trkpt><trkpt lat="46.0086756" lon="11.6966822"><ele>1334.0</ele><time>2026-04-26T11:44:36.652Z</time></trkpt><trkpt lat="46.0087549" lon="11.6965929"><ele>1334.0</ele><time>2026-04-26T11:44:38.671Z</time></trkpt><trkpt lat="46.0087914" lon="11.6964795"><ele>1334.0</ele><time>2026-04-26T11:44:40.648Z</time></trkpt><trkpt lat="46.0088249" lon="11.6963165"><ele>1334.0</ele><time>2026-04-26T11:44:42.674Z</time></trkpt><trkpt lat="46.0089185" lon="11.6962835"><ele>1334.0</ele><time>2026-04-26T11:44:44.661Z</time></trkpt><trkpt lat="46.0089857" lon="11.6962977"><ele>1334.0</ele><time>2026-04-26T11:44:45.661Z</time></trkpt><trkpt lat="46.0090837" lon="11.6963269"><ele>1330.2</ele><time>2026-04-26T11:44:46.687Z</time></trkpt><trkpt lat="46.0092168" lon="11.696358"><ele>1326.4</ele><time>2026-04-26T11:44:47.684Z</time></trkpt><trkpt lat="46.0093344" lon="11.6963843"><ele>1322.6</ele><time>2026-04-26T11:44:48.675Z</time></trkpt><trkpt lat="46.0094261" lon="11.6964081"><ele>1318.8</ele><time>2026-04-26T11:44:49.674Z</time></trkpt><trkpt lat="46.0094964" lon="11.6964238"><ele>1315.0</ele><time>2026-04-26T11:44:50.662Z</time></trkpt><trkpt lat="46.0095826" lon="11.6964426"><ele>1315.0</ele><time>2026-04-26T11:44:52.639Z</time></trkpt><trkpt lat="46.009662" lon="11.6964708"><ele>1315.0</ele><time>2026-04-26T11:44:57.581Z</time></trkpt><trkpt lat="46.0097353" lon="11.6964192"><ele>1315.0</ele><time>2026-04-26T11:45:02.681Z</time></trkpt><trkpt lat="46.0097859" lon="11.6963612"><ele>1315.0</ele><time>2026-04-26T11:45:04.621Z</time></trkpt><trkpt lat="46.009831" lon="11.696264"><ele>1315.0</ele><time>2026-04-26T11:45:06.643Z</time></trkpt><trkpt lat="46.0098542" lon="11.6961137"><ele>1315.0</ele><time>2026-04-26T11:45:07.662Z</time></trkpt><trkpt lat="46.0098825" lon="11.6959732"><ele>1317.8</ele><time>2026-04-26T11:45:09.67Z</time></trkpt><trkpt lat="46.009904" lon="11.695838"><ele>1320.6</ele><time>2026-04-26T11:45:11.648Z</time></trkpt><trkpt lat="46.0099219" lon="11.6956654"><ele>1323.4</ele><time>2026-04-26T11:45:13.665Z</time></trkpt><trkpt lat="46.0099367" lon="11.6955277"><ele>1326.2</ele><time>2026-04-26T11:45:15.667Z</time></trkpt><trkpt lat="46.0099546" lon="11.695434"><ele>1329.0</ele><time>2026-04-26T11:45:18.651Z</time></trkpt><trkpt lat="46.0099418" lon="11.695536"><ele>1329.0</ele><time>2026-04-26T11:45:25.654Z</time></trkpt><trkpt lat="46.0099536" lon="11.6956771"><ele>1329.0</ele><time>2026-04-26T11:45:27.648Z</time></trkpt><trkpt lat="46.0099808" lon="11.695784"><ele>1329.0</ele><time>2026-04-26T11:45:29.561Z</time></trkpt><trkpt lat="46.0098773" lon="11.6960812"><ele>1329.0</ele><time>2026-04-26T11:45:30.663Z</time></trkpt><trkpt lat="46.0097696" lon="11.6963191"><ele>1326.6666666666667</ele><time>2026-04-26T11:45:31.661Z</time></trkpt><trkpt lat="46.0097154" lon="11.6964106"><ele>1324.3333333333333</ele><time>2026-04-26T11:45:32.652Z</time></trkpt><trkpt lat="46.0096607" lon="11.6965044"><ele>1322.0</ele><time>2026-04-26T11:45:34.653Z</time></trkpt><trkpt lat="46.0096824" lon="11.6965931"><ele>1319.6666666666665</ele><time>2026-04-26T11:45:36.687Z</time></trkpt><trkpt lat="46.0097681" lon="11.6967018"><ele>1317.3333333333333</ele><time>2026-04-26T11:45:38.647Z</time></trkpt><trkpt lat="46.0098182" lon="11.6968026"><ele>1315.0</ele><time>2026-04-26T11:45:39.67Z</time></trkpt><trkpt lat="46.0098674" lon="11.6969067"><ele>1312.0</ele><time>2026-04-26T11:45:40.659Z</time></trkpt><trkpt lat="46.0099114" lon="11.6970292"><ele>1309.0</ele><time>2026-04-26T11:45:41.658Z</time></trkpt><trkpt lat="46.0099581" lon="11.6971511"><ele>1306.0</ele><time>2026-04-26T11:45:42.668Z</time></trkpt><trkpt lat="46.0099995" lon="11.697293"><ele>1303.0</ele><time>2026-04-26T11:45:43.657Z</time></trkpt><trkpt lat="46.0100382" lon="11.6974304"><ele>1300.0</ele><time>2026-04-26T11:45:44.642Z</time></trkpt><trkpt lat="46.0100759" lon="11.6975605"><ele>1297.2</ele><time>2026-04-26T11:45:45.669Z</time></trkpt><trkpt lat="46.0101115" lon="11.6976692"><ele>1294.4</ele><time>2026-04-26T11:45:46.672Z</time></trkpt><trkpt lat="46.0101397" lon="11.697797"><ele>1291.6</ele><time>2026-04-26T11:45:54.651Z</time></trkpt><trkpt lat="46.0101781" lon="11.6979353"><ele>1288.8</ele><time>2026-04-26T11:45:56.665Z</time></trkpt><trkpt lat="46.0102045" lon="11.6981225"><ele>1286.0</ele><time>2026-04-26T11:45:58.675Z</time></trkpt><trkpt lat="46.0102021" lon="11.6982599"><ele>1283.25</ele><time>2026-04-26T11:45:59.665Z</time></trkpt><trkpt lat="46.0102074" lon="11.6984211"><ele>1280.5</ele><time>2026-04-26T11:46:00.628Z</time></trkpt><trkpt lat="46.0102251" lon="11.6985905"><ele>1277.75</ele><time>2026-04-26T11:46:01.653Z</time></trkpt><trkpt lat="46.0102533" lon="11.6987484"><ele>1275.0</ele><time>2026-04-26T11:46:02.663Z</time></trkpt><trkpt lat="46.0102782" lon="11.6989088"><ele>1273.75</ele><time>2026-04-26T11:46:03.66Z</time></trkpt><trkpt lat="46.0102952" lon="11.6990946"><ele>1272.5</ele><time>2026-04-26T11:46:04.659Z</time></trkpt><trkpt lat="46.0103179" lon="11.6992972"><ele>1271.25</ele><time>2026-04-26T11:46:05.652Z</time></trkpt><trkpt lat="46.0103354" lon="11.6994715"><ele>1270.0</ele><time>2026-04-26T11:46:06.662Z</time></trkpt><trkpt lat="46.0103456" lon="11.6996124"><ele>1269.3333333333333</ele><time>2026-04-26T11:46:07.653Z</time></trkpt><trkpt lat="46.0103587" lon="11.6997301"><ele>1268.6666666666665</ele><time>2026-04-26T11:46:08.672Z</time></trkpt><trkpt lat="46.0103934" lon="11.6998475"><ele>1268.0</ele><time>2026-04-26T11:46:10.66Z</time></trkpt><trkpt lat="46.010457" lon="11.6998705"><ele>1267.3333333333333</ele><time>2026-04-26T11:46:12.666Z</time></trkpt><trkpt lat="46.010542" lon="11.6998878"><ele>1266.6666666666667</ele><time>2026-04-26T11:46:14.65Z</time></trkpt><trkpt lat="46.0105558" lon="11.7000027"><ele>1266.0</ele><time>2026-04-26T11:46:17.653Z</time></trkpt><trkpt lat="46.0105766" lon="11.7002408"><ele>1264.1666666666667</ele><time>2026-04-26T11:46:19.665Z</time></trkpt><trkpt lat="46.0106094" lon="11.7003405"><ele>1262.3333333333333</ele><time>2026-04-26T11:46:20.664Z</time></trkpt><trkpt lat="46.0106256" lon="11.7004405"><ele>1260.5</ele><time>2026-04-26T11:46:21.666Z</time></trkpt><trkpt lat="46.0106471" lon="11.7005576"><ele>1258.6666666666665</ele><time>2026-04-26T11:46:22.647Z</time></trkpt><trkpt lat="46.0106927" lon="11.7006804"><ele>1256.8333333333333</ele><time>2026-04-26T11:46:23.661Z</time></trkpt><trkpt lat="46.0107551" lon="11.700774"><ele>1255.0</ele><time>2026-04-26T11:46:24.674Z</time></trkpt><trkpt lat="46.0108335" lon="11.7008346"><ele>1252.8</ele><time>2026-04-26T11:46:25.661Z</time></trkpt><trkpt lat="46.0109114" lon="11.7008898"><ele>1250.6</ele><time>2026-04-26T11:46:26.684Z</time></trkpt><trkpt lat="46.0109651" lon="11.7009649"><ele>1248.4</ele><time>2026-04-26T11:46:27.685Z</time></trkpt><trkpt lat="46.0110092" lon="11.7010757"><ele>1246.2</ele><time>2026-04-26T11:46:28.686Z</time></trkpt><trkpt lat="46.0110497" lon="11.7012029"><ele>1244.0</ele><time>2026-04-26T11:46:29.634Z</time></trkpt><trkpt lat="46.0111053" lon="11.7013481"><ele>1240.0</ele><time>2026-04-26T11:46:30.673Z</time></trkpt><trkpt lat="46.011179" lon="11.7014798"><ele>1236.0</ele><time>2026-04-26T11:46:31.656Z</time></trkpt><trkpt lat="46.0112571" lon="11.7016087"><ele>1232.0</ele><time>2026-04-26T11:46:32.669Z</time></trkpt><trkpt lat="46.0113351" lon="11.7017359"><ele>1228.0</ele><time>2026-04-26T11:46:33.661Z</time></trkpt><trkpt lat="46.0114108" lon="11.7018581"><ele>1225.6</ele><time>2026-04-26T11:46:34.663Z</time></trkpt><trkpt lat="46.0114789" lon="11.7019651"><ele>1223.1999999999998</ele><time>2026-04-26T11:46:35.657Z</time></trkpt><trkpt lat="46.0115407" lon="11.7020941"><ele>1220.8</ele><time>2026-04-26T11:46:36.665Z</time></trkpt><trkpt lat="46.0115977" lon="11.702219"><ele>1218.3999999999999</ele><time>2026-04-26T11:46:37.656Z</time></trkpt><trkpt lat="46.011664" lon="11.7023397"><ele>1216.0</ele><time>2026-04-26T11:46:38.647Z</time></trkpt><trkpt lat="46.011739" lon="11.7024708"><ele>1215.2</ele><time>2026-04-26T11:46:39.664Z</time></trkpt><trkpt lat="46.011808" lon="11.7026011"><ele>1214.3999999999999</ele><time>2026-04-26T11:46:40.647Z</time></trkpt><trkpt lat="46.0118816" lon="11.7027286"><ele>1213.6</ele><time>2026-04-26T11:46:41.642Z</time></trkpt><trkpt lat="46.01196" lon="11.7028459"><ele>1212.8</ele><time>2026-04-26T11:46:42.669Z</time></trkpt><trkpt lat="46.0120273" lon="11.702952"><ele>1212.0</ele><time>2026-04-26T11:46:43.661Z</time></trkpt><trkpt lat="46.0120836" lon="11.7030726"><ele>1209.75</ele><time>2026-04-26T11:46:44.648Z</time></trkpt><trkpt lat="46.0121382" lon="11.7032065"><ele>1207.5</ele><time>2026-04-26T11:46:45.642Z</time></trkpt><trkpt lat="46.0122128" lon="11.7033468"><ele>1205.25</ele><time>2026-04-26T11:46:46.667Z</time></trkpt><trkpt lat="46.0122962" lon="11.7034861"><ele>1203.0</ele><time>2026-04-26T11:46:47.672Z</time></trkpt><trkpt lat="46.0123848" lon="11.7036191"><ele>1201.0</ele><time>2026-04-26T11:46:48.662Z</time></trkpt><trkpt lat="46.0124766" lon="11.7037443"><ele>1199.0</ele><time>2026-04-26T11:46:49.662Z</time></trkpt><trkpt lat="46.0125611" lon="11.7038602"><ele>1197.0</ele><time>2026-04-26T11:46:50.661Z</time></trkpt><trkpt lat="46.0126346" lon="11.7039763"><ele>1195.0</ele><time>2026-04-26T11:46:51.657Z</time></trkpt><trkpt lat="46.0127038" lon="11.7041018"><ele>1194.25</ele><time>2026-04-26T11:46:52.672Z</time></trkpt><trkpt lat="46.0127687" lon="11.7042384"><ele>1193.5</ele><time>2026-04-26T11:46:53.668Z</time></trkpt><trkpt lat="46.0128271" lon="11.7043869"><ele>1192.75</ele><time>2026-04-26T11:46:54.663Z</time></trkpt><trkpt lat="46.0128801" lon="11.7045315"><ele>1192.0</ele><time>2026-04-26T11:46:55.599Z</time></trkpt><trkpt lat="46.012944" lon="11.704676"><ele>1189.8</ele><time>2026-04-26T11:46:56.625Z</time></trkpt><trkpt lat="46.0129987" lon="11.7048001"><ele>1187.6</ele><time>2026-04-26T11:46:57.608Z</time></trkpt><trkpt lat="46.0130507" lon="11.7049125"><ele>1185.3999999999999</ele><time>2026-04-26T11:46:58.599Z</time></trkpt><trkpt lat="46.0131079" lon="11.7050213"><ele>1183.2</ele><time>2026-04-26T11:46:59.598Z</time></trkpt><trkpt lat="46.0131685" lon="11.7051417"><ele>1181.0</ele><time>2026-04-26T11:47:00.588Z</time></trkpt><trkpt lat="46.0132233" lon="11.7052747"><ele>1179.0</ele><time>2026-04-26T11:47:01.61Z</time></trkpt><trkpt lat="46.013274" lon="11.7054184"><ele>1177.0</ele><time>2026-04-26T11:47:02.605Z</time></trkpt><trkpt lat="46.0133205" lon="11.7055372"><ele>1175.0</ele><time>2026-04-26T11:47:03.593Z</time></trkpt><trkpt lat="46.0133839" lon="11.7056603"><ele>1173.0</ele><time>2026-04-26T11:47:04.605Z</time></trkpt><trkpt lat="46.0134582" lon="11.7057859"><ele>1171.0</ele><time>2026-04-26T11:47:05.606Z</time></trkpt><trkpt lat="46.0135278" lon="11.7059267"><ele>1169.3999999999999</ele><time>2026-04-26T11:47:06.621Z</time></trkpt><trkpt lat="46.0135844" lon="11.7060561"><ele>1167.8</ele><time>2026-04-26T11:47:07.607Z</time></trkpt><trkpt lat="46.0136452" lon="11.7061667"><ele>1166.1999999999998</ele><time>2026-04-26T11:47:08.574Z</time></trkpt><trkpt lat="46.0137113" lon="11.706269"><ele>1164.6</ele><time>2026-04-26T11:47:09.598Z</time></trkpt><trkpt lat="46.0137783" lon="11.7063698"><ele>1163.0</ele><time>2026-04-26T11:47:10.601Z</time></trkpt><trkpt lat="46.0138508" lon="11.7064827"><ele>1161.5</ele><time>2026-04-26T11:47:11.6Z</time></trkpt><trkpt lat="46.0139262" lon="11.7066074"><ele>1160.0</ele><time>2026-04-26T11:47:12.626Z</time></trkpt><trkpt lat="46.0140025" lon="11.7067424"><ele>1158.5</ele><time>2026-04-26T11:47:13.627Z</time></trkpt><trkpt lat="46.0140738" lon="11.7068689"><ele>1157.0</ele><time>2026-04-26T11:47:14.615Z</time></trkpt><trkpt lat="46.0141431" lon="11.7069798"><ele>1152.2</ele><time>2026-04-26T11:47:15.612Z</time></trkpt><trkpt lat="46.0142161" lon="11.7070862"><ele>1147.4</ele><time>2026-04-26T11:47:16.577Z</time></trkpt><trkpt lat="46.0143061" lon="11.7072153"><ele>1142.6</ele><time>2026-04-26T11:47:17.615Z</time></trkpt><trkpt lat="46.0143913" lon="11.7073335"><ele>1137.8</ele><time>2026-04-26T11:47:18.62Z</time></trkpt><trkpt lat="46.0144625" lon="11.7074299"><ele>1133.0</ele><time>2026-04-26T11:47:19.603Z</time></trkpt><trkpt lat="46.0145113" lon="11.7075247"><ele>1133.0</ele><time>2026-04-26T11:47:20.596Z</time></trkpt><trkpt lat="46.0145418" lon="11.707632"><ele>1133.0</ele><time>2026-04-26T11:47:21.604Z</time></trkpt><trkpt lat="46.0145586" lon="11.7077291"><ele>1133.0</ele><time>2026-04-26T11:47:22.597Z</time></trkpt><trkpt lat="46.0145738" lon="11.7078272"><ele>1133.0</ele><time>2026-04-26T11:47:23.611Z</time></trkpt><trkpt lat="46.0145941" lon="11.7079379"><ele>1133.0</ele><time>2026-04-26T11:47:24.625Z</time></trkpt><trkpt lat="46.0146116" lon="11.7080607"><ele>1133.0</ele><time>2026-04-26T11:47:25.622Z</time></trkpt><trkpt lat="46.0146147" lon="11.7081876"><ele>1131.2</ele><time>2026-04-26T11:47:26.611Z</time></trkpt><trkpt lat="46.0146261" lon="11.7083312"><ele>1129.4</ele><time>2026-04-26T11:47:27.618Z</time></trkpt><trkpt lat="46.0146504" lon="11.7084917"><ele>1127.6000000000001</ele><time>2026-04-26T11:47:28.609Z</time></trkpt><trkpt lat="46.0146922" lon="11.7086408"><ele>1125.8</ele><time>2026-04-26T11:47:29.614Z</time></trkpt><trkpt lat="46.0147582" lon="11.7087605"><ele>1124.0</ele><time>2026-04-26T11:47:30.612Z</time></trkpt><trkpt lat="46.0148456" lon="11.7088915"><ele>1122.2</ele><time>2026-04-26T11:47:31.616Z</time></trkpt><trkpt lat="46.014946" lon="11.7089995"><ele>1120.4</ele><time>2026-04-26T11:47:32.611Z</time></trkpt><trkpt lat="46.0150421" lon="11.7090984"><ele>1118.6</ele><time>2026-04-26T11:47:33.619Z</time></trkpt><trkpt lat="46.0151192" lon="11.7091826"><ele>1116.8</ele><time>2026-04-26T11:47:34.616Z</time></trkpt><trkpt lat="46.0152012" lon="11.7092577"><ele>1115.0</ele><time>2026-04-26T11:47:35.621Z</time></trkpt><trkpt lat="46.0152985" lon="11.7093189"><ele>1115.0</ele><time>2026-04-26T11:47:36.602Z</time></trkpt><trkpt lat="46.0154119" lon="11.7093813"><ele>1115.0</ele><time>2026-04-26T11:47:37.601Z</time></trkpt><trkpt lat="46.0155284" lon="11.7094276"><ele>1115.0</ele><time>2026-04-26T11:47:38.623Z</time></trkpt><trkpt lat="46.0156378" lon="11.7094756"><ele>1115.0</ele><time>2026-04-26T11:47:39.602Z</time></trkpt><trkpt lat="46.0157009" lon="11.7094999"><ele>1115.0</ele><time>2026-04-26T11:47:40.628Z</time></trkpt><trkpt lat="46.0158165" lon="11.709551"><ele>1110.6666666666667</ele><time>2026-04-26T11:47:42.602Z</time></trkpt><trkpt lat="46.0158904" lon="11.7095885"><ele>1106.3333333333335</ele><time>2026-04-26T11:47:43.613Z</time></trkpt><trkpt lat="46.0159609" lon="11.7096343"><ele>1102.0</ele><time>2026-04-26T11:47:44.59Z</time></trkpt><trkpt lat="46.0160269" lon="11.7096868"><ele>1097.6666666666667</ele><time>2026-04-26T11:47:45.599Z</time></trkpt><trkpt lat="46.0160835" lon="11.7097403"><ele>1093.3333333333333</ele><time>2026-04-26T11:47:46.608Z</time></trkpt><trkpt lat="46.0161437" lon="11.7098144"><ele>1089.0</ele><time>2026-04-26T11:47:47.633Z</time></trkpt><trkpt lat="46.0161988" lon="11.7098909"><ele>1089.0</ele><time>2026-04-26T11:47:48.614Z</time></trkpt><trkpt lat="46.0162491" lon="11.709981"><ele>1089.0</ele><time>2026-04-26T11:47:49.603Z</time></trkpt><trkpt lat="46.016296" lon="11.7100813"><ele>1089.0</ele><time>2026-04-26T11:47:50.613Z</time></trkpt><trkpt lat="46.0163708" lon="11.710187"><ele>1089.0</ele><time>2026-04-26T11:47:51.617Z</time></trkpt><trkpt lat="46.0164572" lon="11.71029"><ele>1089.0</ele><time>2026-04-26T11:47:52.61Z</time></trkpt><trkpt lat="46.0165231" lon="11.7103761"><ele>1086.0</ele><time>2026-04-26T11:47:53.633Z</time></trkpt><trkpt lat="46.01661" lon="11.7104864"><ele>1083.0</ele><time>2026-04-26T11:47:55.613Z</time></trkpt><trkpt lat="46.0166363" lon="11.7105716"><ele>1080.0</ele><time>2026-04-26T11:47:58.619Z</time></trkpt><trkpt lat="46.0165661" lon="11.7105683"><ele>1077.0</ele><time>2026-04-26T11:48:00.604Z</time></trkpt><trkpt lat="46.0165024" lon="11.7106158"><ele>1074.0</ele><time>2026-04-26T11:48:01.648Z</time></trkpt><trkpt lat="46.0164397" lon="11.7106873"><ele>1071.0</ele><time>2026-04-26T11:48:02.619Z</time></trkpt><trkpt lat="46.0163883" lon="11.7108012"><ele>1071.0</ele><time>2026-04-26T11:48:03.612Z</time></trkpt><trkpt lat="46.0163338" lon="11.7109294"><ele>1071.0</ele><time>2026-04-26T11:48:04.582Z</time></trkpt><trkpt lat="46.0162861" lon="11.7110755"><ele>1071.0</ele><time>2026-04-26T11:48:05.604Z</time></trkpt><trkpt lat="46.0162528" lon="11.711241"><ele>1071.0</ele><time>2026-04-26T11:48:06.605Z</time></trkpt><trkpt lat="46.0162152" lon="11.7113944"><ele>1071.0</ele><time>2026-04-26T11:48:07.6Z</time></trkpt><trkpt lat="46.0161738" lon="11.7115341"><ele>1066.6</ele><time>2026-04-26T11:48:08.596Z</time></trkpt><trkpt lat="46.0161366" lon="11.7116707"><ele>1062.1999999999998</ele><time>2026-04-26T11:48:09.616Z</time></trkpt><trkpt lat="46.0160774" lon="11.7117761"><ele>1057.8000000000002</ele><time>2026-04-26T11:48:10.623Z</time></trkpt><trkpt lat="46.0159904" lon="11.7118516"><ele>1053.4</ele><time>2026-04-26T11:48:11.618Z</time></trkpt><trkpt lat="46.0159169" lon="11.7118945"><ele>1049.0</ele><time>2026-04-26T11:48:12.599Z</time></trkpt><trkpt lat="46.0158281" lon="11.7118987"><ele>1044.8</ele><time>2026-04-26T11:48:14.628Z</time></trkpt><trkpt lat="46.0157442" lon="11.7118138"><ele>1040.6000000000001</ele><time>2026-04-26T11:48:17.5Z</time></trkpt><trkpt lat="46.0156731" lon="11.7117531"><ele>1036.4</ele><time>2026-04-26T11:48:18.624Z</time></trkpt><trkpt lat="46.0156054" lon="11.7116573"><ele>1032.2</ele><time>2026-04-26T11:48:20.609Z</time></trkpt><trkpt lat="46.0155505" lon="11.7115623"><ele>1028.0</ele><time>2026-04-26T11:48:22.627Z</time></trkpt><trkpt lat="46.0154896" lon="11.7114642"><ele>1028.0</ele><time>2026-04-26T11:48:24.599Z</time></trkpt><trkpt lat="46.0151494" lon="11.711387"><ele>1028.0</ele><time>2026-04-26T11:48:25.609Z</time></trkpt><trkpt lat="46.0149806" lon="11.71131"><ele>1031.0</ele><time>2026-04-26T11:48:26.605Z</time></trkpt><trkpt lat="46.0149247" lon="11.7112546"><ele>1034.0</ele><time>2026-04-26T11:48:27.613Z</time></trkpt><trkpt lat="46.0148612" lon="11.7111907"><ele>1037.0</ele><time>2026-04-26T11:48:28.573Z</time></trkpt><trkpt lat="46.0147844" lon="11.7111536"><ele>1040.0</ele><time>2026-04-26T11:48:29.618Z</time></trkpt><trkpt lat="46.0147204" lon="11.7111275"><ele>1043.0</ele><time>2026-04-26T11:48:30.629Z</time></trkpt><trkpt lat="46.0146164" lon="11.7110787"><ele>1046.0</ele><time>2026-04-26T11:48:31.602Z</time></trkpt><trkpt lat="46.0145509" lon="11.7110355"><ele>1046.0</ele><time>2026-04-26T11:48:32.558Z</time></trkpt><trkpt lat="46.0144727" lon="11.7109944"><ele>1046.0</ele><time>2026-04-26T11:48:33.644Z</time></trkpt><trkpt lat="46.0143938" lon="11.7109492"><ele>1046.0</ele><time>2026-04-26T11:48:34.595Z</time></trkpt><trkpt lat="46.014326" lon="11.710893"><ele>1046.0</ele><time>2026-04-26T11:48:35.615Z</time></trkpt><trkpt lat="46.01425" lon="11.7108288"><ele>1046.0</ele><time>2026-04-26T11:48:36.615Z</time></trkpt><trkpt lat="46.014181" lon="11.7107908"><ele>1046.0</ele><time>2026-04-26T11:48:37.56Z</time></trkpt><trkpt lat="46.0140933" lon="11.7107868"><ele>1045.0</ele><time>2026-04-26T11:48:38.63Z</time></trkpt><trkpt lat="46.0140169" lon="11.710817"><ele>1044.0</ele><time>2026-04-26T11:48:39.672Z</time></trkpt><trkpt lat="46.0139558" lon="11.7108655"><ele>1043.0</ele><time>2026-04-26T11:48:40.575Z</time></trkpt><trkpt lat="46.0138875" lon="11.7109223"><ele>1042.0</ele><time>2026-04-26T11:48:41.594Z</time></trkpt><trkpt lat="46.0138086" lon="11.7109765"><ele>1041.0</ele><time>2026-04-26T11:48:42.599Z</time></trkpt><trkpt lat="46.0137297" lon="11.7110086"><ele>1040.0</ele><time>2026-04-26T11:48:43.651Z</time></trkpt><trkpt lat="46.0136466" lon="11.7110276"><ele>1040.0</ele><time>2026-04-26T11:48:44.616Z</time></trkpt><trkpt lat="46.0135527" lon="11.7110421"><ele>1040.0</ele><time>2026-04-26T11:48:45.659Z</time></trkpt><trkpt lat="46.0134583" lon="11.7110454"><ele>1040.0</ele><time>2026-04-26T11:48:46.654Z</time></trkpt><trkpt lat="46.0133653" lon="11.7110413"><ele>1040.0</ele><time>2026-04-26T11:48:47.595Z</time></trkpt><trkpt lat="46.0132742" lon="11.711039"><ele>1040.0</ele><time>2026-04-26T11:48:48.602Z</time></trkpt><trkpt lat="46.01317" lon="11.7110287"><ele>1038.0</ele><time>2026-04-26T11:48:49.644Z</time></trkpt><trkpt lat="46.0130517" lon="11.7110119"><ele>1036.0</ele><time>2026-04-26T11:48:50.688Z</time></trkpt><trkpt lat="46.012936" lon="11.7109865"><ele>1034.0</ele><time>2026-04-26T11:48:51.642Z</time></trkpt><trkpt lat="46.0128405" lon="11.7109674"><ele>1032.0</ele><time>2026-04-26T11:48:52.569Z</time></trkpt><trkpt lat="46.0127337" lon="11.7109478"><ele>1030.0</ele><time>2026-04-26T11:48:53.616Z</time></trkpt><trkpt lat="46.0126409" lon="11.7109305"><ele>1030.0</ele><time>2026-04-26T11:48:54.587Z</time></trkpt><trkpt lat="46.0125041" lon="11.7109095"><ele>1030.0</ele><time>2026-04-26T11:48:55.592Z</time></trkpt><trkpt lat="46.0124135" lon="11.7108971"><ele>1030.0</ele><time>2026-04-26T11:48:56.605Z</time></trkpt><trkpt lat="46.012316" lon="11.710885"><ele>1030.0</ele><time>2026-04-26T11:48:57.613Z</time></trkpt><trkpt lat="46.0122219" lon="11.7108753"><ele>1030.0</ele><time>2026-04-26T11:48:58.608Z</time></trkpt><trkpt lat="46.0121242" lon="11.7108664"><ele>1029.6666666666665</ele><time>2026-04-26T11:48:59.617Z</time></trkpt><trkpt lat="46.0120516" lon="11.7108538"><ele>1029.3333333333333</ele><time>2026-04-26T11:49:00.617Z</time></trkpt><trkpt lat="46.0119877" lon="11.7108338"><ele>1029.0</ele><time>2026-04-26T11:49:01.61Z</time></trkpt><trkpt lat="46.0119142" lon="11.7107926"><ele>1028.6666666666667</ele><time>2026-04-26T11:49:02.632Z</time></trkpt><trkpt lat="46.0118728" lon="11.7107099"><ele>1028.3333333333335</ele><time>2026-04-26T11:49:03.608Z</time></trkpt><trkpt lat="46.0118193" lon="11.7106176"><ele>1028.0</ele><time>2026-04-26T11:49:04.615Z</time></trkpt><trkpt lat="46.0117627" lon="11.7105239"><ele>1028.0</ele><time>2026-04-26T11:49:05.645Z</time></trkpt><trkpt lat="46.0117075" lon="11.7104108"><ele>1028.0</ele><time>2026-04-26T11:49:06.611Z</time></trkpt><trkpt lat="46.011658" lon="11.7103328"><ele>1028.0</ele><time>2026-04-26T11:49:07.418Z</time></trkpt><trkpt lat="46.0115606" lon="11.7102789"><ele>1028.0</ele><time>2026-04-26T11:49:08.601Z</time></trkpt><trkpt lat="46.011471" lon="11.7102714"><ele>1028.0</ele><time>2026-04-26T11:49:09.621Z</time></trkpt><trkpt lat="46.0113923" lon="11.7103127"><ele>1028.0</ele><time>2026-04-26T11:49:10.6Z</time></trkpt><trkpt lat="46.0113158" lon="11.7103628"><ele>1033.2</ele><time>2026-04-26T11:49:11.641Z</time></trkpt><trkpt lat="46.0112705" lon="11.7104448"><ele>1038.4</ele><time>2026-04-26T11:49:12.603Z</time></trkpt><trkpt lat="46.0112398" lon="11.7105621"><ele>1043.6000000000001</ele><time>2026-04-26T11:49:13.598Z</time></trkpt><trkpt lat="46.0112097" lon="11.7107022"><ele>1048.8</ele><time>2026-04-26T11:49:14.614Z</time></trkpt><trkpt lat="46.0111944" lon="11.7108332"><ele>1054.0</ele><time>2026-04-26T11:49:15.617Z</time></trkpt><trkpt lat="46.0111936" lon="11.7109752"><ele>1050.3333333333333</ele><time>2026-04-26T11:49:16.599Z</time></trkpt><trkpt lat="46.0112091" lon="11.7111057"><ele>1046.6666666666665</ele><time>2026-04-26T11:49:17.608Z</time></trkpt><trkpt lat="46.0112115" lon="11.7112345"><ele>1043.0</ele><time>2026-04-26T11:49:18.638Z</time></trkpt><trkpt lat="46.0111937" lon="11.7113458"><ele>1039.3333333333333</ele><time>2026-04-26T11:49:19.576Z</time></trkpt><trkpt lat="46.0111534" lon="11.7114359"><ele>1035.6666666666667</ele><time>2026-04-26T11:49:20.616Z</time></trkpt><trkpt lat="46.011096" lon="11.7115161"><ele>1032.0</ele><time>2026-04-26T11:49:21.647Z</time></trkpt><trkpt lat="46.0110374" lon="11.7115913"><ele>1032.0</ele><time>2026-04-26T11:49:22.644Z</time></trkpt><trkpt lat="46.0109762" lon="11.7116674"><ele>1032.0</ele><time>2026-04-26T11:49:23.636Z</time></trkpt><trkpt lat="46.0108846" lon="11.7117788"><ele>1032.0</ele><time>2026-04-26T11:49:24.609Z</time></trkpt><trkpt lat="46.0107875" lon="11.7119278"><ele>1032.0</ele><time>2026-04-26T11:49:25.629Z</time></trkpt><trkpt lat="46.0107076" lon="11.7120776"><ele>1034.4</ele><time>2026-04-26T11:49:26.634Z</time></trkpt><trkpt lat="46.0106379" lon="11.7121983"><ele>1036.8000000000002</ele><time>2026-04-26T11:49:27.623Z</time></trkpt><trkpt lat="46.0105809" lon="11.712301"><ele>1039.2</ele><time>2026-04-26T11:49:28.577Z</time></trkpt><trkpt lat="46.0104784" lon="11.7123832"><ele>1041.6000000000001</ele><time>2026-04-26T11:49:29.598Z</time></trkpt><trkpt lat="46.0103764" lon="11.7124363"><ele>1044.0</ele><time>2026-04-26T11:49:30.617Z</time></trkpt><trkpt lat="46.0102699" lon="11.7124418"><ele>1044.0</ele><time>2026-04-26T11:49:31.604Z</time></trkpt><trkpt lat="46.0101678" lon="11.7124217"><ele>1044.0</ele><time>2026-04-26T11:49:32.605Z</time></trkpt><trkpt lat="46.0100788" lon="11.7124001"><ele>1044.0</ele><time>2026-04-26T11:49:33.594Z</time></trkpt><trkpt lat="46.009992" lon="11.7123623"><ele>1044.0</ele><time>2026-04-26T11:49:34.598Z</time></trkpt><trkpt lat="46.0099215" lon="11.7123366"><ele>1044.0</ele><time>2026-04-26T11:49:35.608Z</time></trkpt><trkpt lat="46.0098424" lon="11.7123169"><ele>1044.0</ele><time>2026-04-26T11:49:36.614Z</time></trkpt><trkpt lat="46.009757" lon="11.7123161"><ele>1046.0</ele><time>2026-04-26T11:49:37.615Z</time></trkpt><trkpt lat="46.0096675" lon="11.7123236"><ele>1048.0</ele><time>2026-04-26T11:49:38.589Z</time></trkpt><trkpt lat="46.0095747" lon="11.7123284"><ele>1050.0</ele><time>2026-04-26T11:49:39.584Z</time></trkpt><trkpt lat="46.0094637" lon="11.7123268"><ele>1052.0</ele><time>2026-04-26T11:49:40.601Z</time></trkpt><trkpt lat="46.0093919" lon="11.7123274"><ele>1054.0</ele><time>2026-04-26T11:49:41.594Z</time></trkpt><trkpt lat="46.0093101" lon="11.7123233"><ele>1056.0</ele><time>2026-04-26T11:49:42.602Z</time></trkpt><trkpt lat="46.0092342" lon="11.7122897"><ele>1056.0</ele><time>2026-04-26T11:49:43.597Z</time></trkpt><trkpt lat="46.0091689" lon="11.7122272"><ele>1056.0</ele><time>2026-04-26T11:49:44.61Z</time></trkpt><trkpt lat="46.0091065" lon="11.7121666"><ele>1056.0</ele><time>2026-04-26T11:49:45.604Z</time></trkpt><trkpt lat="46.0090136" lon="11.7120924"><ele>1056.0</ele><time>2026-04-26T11:49:46.611Z</time></trkpt><trkpt lat="46.0088922" lon="11.7120116"><ele>1056.0</ele><time>2026-04-26T11:49:48.612Z</time></trkpt><trkpt lat="46.0088081" lon="11.7119677"><ele>1058.2</ele><time>2026-04-26T11:49:49.614Z</time></trkpt><trkpt lat="46.0087166" lon="11.7119191"><ele>1060.3999999999999</ele><time>2026-04-26T11:49:50.607Z</time></trkpt><trkpt lat="46.0086196" lon="11.7118659"><ele>1062.6</ele><time>2026-04-26T11:49:51.608Z</time></trkpt><trkpt lat="46.0085194" lon="11.7118146"><ele>1064.8</ele><time>2026-04-26T11:49:52.595Z</time></trkpt><trkpt lat="46.0084029" lon="11.711746"><ele>1067.0</ele><time>2026-04-26T11:49:53.499Z</time></trkpt><trkpt lat="46.0083307" lon="11.7117007"><ele>1073.0</ele><time>2026-04-26T11:49:54.46Z</time></trkpt><trkpt lat="46.0082404" lon="11.7116305"><ele>1079.0</ele><time>2026-04-26T11:49:55.48Z</time></trkpt><trkpt lat="46.0081175" lon="11.7115249"><ele>1085.0</ele><time>2026-04-26T11:49:56.605Z</time></trkpt><trkpt lat="46.0080148" lon="11.7114286"><ele>1091.0</ele><time>2026-04-26T11:49:57.622Z</time></trkpt><trkpt lat="46.007929" lon="11.7113558"><ele>1091.0</ele><time>2026-04-26T11:49:58.535Z</time></trkpt><trkpt lat="46.0077682" lon="11.711243"><ele>1091.0</ele><time>2026-04-26T11:49:59.619Z</time></trkpt><trkpt lat="46.0076743" lon="11.7111848"><ele>1091.0</ele><time>2026-04-26T11:50:00.61Z</time></trkpt><trkpt lat="46.0075673" lon="11.7111165"><ele>1091.0</ele><time>2026-04-26T11:50:01.617Z</time></trkpt><trkpt lat="46.0074626" lon="11.7110438"><ele>1094.0</ele><time>2026-04-26T11:50:02.603Z</time></trkpt><trkpt lat="46.0073591" lon="11.7109661"><ele>1097.0</ele><time>2026-04-26T11:50:03.594Z</time></trkpt><trkpt lat="46.0072605" lon="11.710869"><ele>1100.0</ele><time>2026-04-26T11:50:04.602Z</time></trkpt><trkpt lat="46.007165" lon="11.7107635"><ele>1103.0</ele><time>2026-04-26T11:50:05.608Z</time></trkpt><trkpt lat="46.0070487" lon="11.7106238"><ele>1103.0</ele><time>2026-04-26T11:50:06.637Z</time></trkpt><trkpt lat="46.00697" lon="11.710511"><ele>1103.0</ele><time>2026-04-26T11:50:07.637Z</time></trkpt><trkpt lat="46.0068747" lon="11.710371"><ele>1103.0</ele><time>2026-04-26T11:50:08.614Z</time></trkpt><trkpt lat="46.0067612" lon="11.7102337"><ele>1103.0</ele><time>2026-04-26T11:50:09.61Z</time></trkpt><trkpt lat="46.006653" lon="11.7101101"><ele>1109.5</ele><time>2026-04-26T11:50:10.612Z</time></trkpt><trkpt lat="46.0065638" lon="11.7100095"><ele>1116.0</ele><time>2026-04-26T11:50:11.482Z</time></trkpt><trkpt lat="46.0063929" lon="11.7098115"><ele>1122.5</ele><time>2026-04-26T11:50:12.615Z</time></trkpt><trkpt lat="46.0063291" lon="11.7097158"><ele>1129.0</ele><time>2026-04-26T11:50:13.633Z</time></trkpt><trkpt lat="46.0062316" lon="11.7096027"><ele>1129.0</ele><time>2026-04-26T11:50:14.577Z</time></trkpt><trkpt lat="46.0061215" lon="11.7094861"><ele>1129.0</ele><time>2026-04-26T11:50:15.538Z</time></trkpt><trkpt lat="46.0059786" lon="11.7093394"><ele>1129.0</ele><time>2026-04-26T11:50:16.604Z</time></trkpt><trkpt lat="46.005846" lon="11.7092261"><ele>1137.0</ele><time>2026-04-26T11:50:17.638Z</time></trkpt><trkpt lat="46.0057026" lon="11.7091237"><ele>1145.0</ele><time>2026-04-26T11:50:18.61Z</time></trkpt><trkpt lat="46.0055164" lon="11.7089854"><ele>1153.0</ele><time>2026-04-26T11:50:19.597Z</time></trkpt><trkpt lat="46.005453" lon="11.7088617"><ele>1153.0</ele><time>2026-04-26T11:50:20.586Z</time></trkpt><trkpt lat="46.0054072" lon="11.7086806"><ele>1153.0</ele><time>2026-04-26T11:50:21.611Z</time></trkpt><trkpt lat="46.0053334" lon="11.7085257"><ele>1153.0</ele><time>2026-04-26T11:50:22.602Z</time></trkpt><trkpt lat="46.0052237" lon="11.7084117"><ele>1153.0</ele><time>2026-04-26T11:50:23.597Z</time></trkpt><trkpt lat="46.0051273" lon="11.7083002"><ele>1151.25</ele><time>2026-04-26T11:50:24.58Z</time></trkpt><trkpt lat="46.0050725" lon="11.7081613"><ele>1149.5</ele><time>2026-04-26T11:50:25.58Z</time></trkpt><trkpt lat="46.0050673" lon="11.7080183"><ele>1147.75</ele><time>2026-04-26T11:50:26.6Z</time></trkpt><trkpt lat="46.0050448" lon="11.7078762"><ele>1146.0</ele><time>2026-04-26T11:50:27.624Z</time></trkpt><trkpt lat="46.0050391" lon="11.7076661"><ele>1154.25</ele><time>2026-04-26T11:50:28.944Z</time></trkpt><trkpt lat="46.0049869" lon="11.7075068"><ele>1162.5</ele><time>2026-04-26T11:50:29.999Z</time></trkpt><trkpt lat="46.004887" lon="11.7073648"><ele>1170.75</ele><time>2026-04-26T11:50:31.203Z</time></trkpt><trkpt lat="46.0047634" lon="11.7073063"><ele>1179.0</ele><time>2026-04-26T11:50:32.262Z</time></trkpt><trkpt lat="46.0046073" lon="11.7072615"><ele>1179.0</ele><time>2026-04-26T11:50:33.662Z</time></trkpt><trkpt lat="46.004528" lon="11.7071743"><ele>1179.0</ele><time>2026-04-26T11:50:34.653Z</time></trkpt><trkpt lat="46.004465" lon="11.7070569"><ele>1179.0</ele><time>2026-04-26T11:50:35.658Z</time></trkpt><trkpt lat="46.0044153" lon="11.7069262"><ele>1179.0</ele><time>2026-04-26T11:50:36.642Z</time></trkpt><trkpt lat="46.0043683" lon="11.706783"><ele>1179.0</ele><time>2026-04-26T11:50:37.663Z</time></trkpt><trkpt lat="46.0043037" lon="11.7065356"><ele>1178.6666666666667</ele><time>2026-04-26T11:50:38.663Z</time></trkpt><trkpt lat="46.0042742" lon="11.7064209"><ele>1178.3333333333335</ele><time>2026-04-26T11:50:39.67Z</time></trkpt><trkpt lat="46.0043911" lon="11.7065268"><ele>1178.0</ele><time>2026-04-26T11:50:40.64Z</time></trkpt><trkpt lat="46.0045699" lon="11.7068831"><ele>1178.5</ele><time>2026-04-26T11:50:41.654Z</time></trkpt><trkpt lat="46.0048129" lon="11.7070645"><ele>1179.0</ele><time>2026-04-26T11:50:42.667Z</time></trkpt><trkpt lat="46.00493" lon="11.70743"><ele>1179.0</ele><time>2026-04-26T11:50:49.65Z</time></trkpt><trkpt lat="46.0048834" lon="11.7075475"><ele>1179.0</ele><time>2026-04-26T11:50:50.582Z</time></trkpt><trkpt lat="46.0048636" lon="11.7076756"><ele>1179.0</ele><time>2026-04-26T11:50:51.626Z</time></trkpt><trkpt lat="46.0048574" lon="11.7078075"><ele>1179.0</ele><time>2026-04-26T11:50:52.553Z</time></trkpt><trkpt lat="46.004931" lon="11.707302"><ele>1179.0</ele><time>2026-04-26T11:50:53.663Z</time></trkpt><trkpt lat="46.0049098" lon="11.7074059"><ele>1179.0</ele><time>2026-04-26T11:51:15.661Z</time></trkpt><trkpt lat="46.0050548" lon="11.7074032"><ele>1179.0</ele><time>2026-04-26T11:51:17.663Z</time></trkpt><trkpt lat="46.005142" lon="11.7073699"><ele>1179.0</ele><time>2026-04-26T11:51:18.666Z</time></trkpt><trkpt lat="46.0053072" lon="11.7073599"><ele>1170.75</ele><time>2026-04-26T11:51:20.656Z</time></trkpt><trkpt lat="46.0050511" lon="11.7073467"><ele>1162.5</ele><time>2026-04-26T11:51:21.66Z</time></trkpt><trkpt lat="46.0050536" lon="11.7074931"><ele>1154.25</ele><time>2026-04-26T11:51:23.56Z</time></trkpt><trkpt lat="46.0050582" lon="11.7075927"><ele>1146.0</ele><time>2026-04-26T11:51:24.683Z</time></trkpt><trkpt lat="46.0050716" lon="11.7076875"><ele>1146.0</ele><time>2026-04-26T11:51:25.657Z</time></trkpt><trkpt lat="46.0050824" lon="11.7077825"><ele>1146.0</ele><time>2026-04-26T11:51:26.662Z</time></trkpt><trkpt lat="46.0051024" lon="11.7078685"><ele>1146.0</ele><time>2026-04-26T11:51:27.685Z</time></trkpt><trkpt lat="46.0051142" lon="11.7080534"><ele>1146.0</ele><time>2026-04-26T11:51:29.668Z</time></trkpt><trkpt lat="46.0050993" lon="11.7081511"><ele>1146.0</ele><time>2026-04-26T11:51:30.666Z</time></trkpt><trkpt lat="46.0050974" lon="11.7082503"><ele>1146.0</ele><time>2026-04-26T11:51:31.661Z</time></trkpt><trkpt lat="46.0051106" lon="11.7083482"><ele>1146.0</ele><time>2026-04-26T11:51:32.649Z</time></trkpt><trkpt lat="46.0051381" lon="11.7084376"><ele>1146.0</ele><time>2026-04-26T11:51:33.655Z</time></trkpt><trkpt lat="46.0051845" lon="11.7085099"><ele>1146.0</ele><time>2026-04-26T11:51:34.651Z</time></trkpt><trkpt lat="46.0052427" lon="11.7085613"><ele>1146.0</ele><time>2026-04-26T11:51:35.652Z</time></trkpt><trkpt lat="46.0053014" lon="11.7086184"><ele>1146.0</ele><time>2026-04-26T11:51:36.673Z</time></trkpt><trkpt lat="46.0053538" lon="11.708672"><ele>1146.0</ele><time>2026-04-26T11:51:37.614Z</time></trkpt><trkpt lat="46.0054258" lon="11.7087159"><ele>1146.0</ele><time>2026-04-26T11:51:38.654Z</time></trkpt><trkpt lat="46.0057245" lon="11.7089306"><ele>1147.3999999999999</ele><time>2026-04-26T11:51:43.577Z</time></trkpt><trkpt lat="46.0057809" lon="11.7089831"><ele>1148.8</ele><time>2026-04-26T11:51:44.621Z</time></trkpt><trkpt lat="46.0058305" lon="11.7090454"><ele>1150.1999999999998</ele><time>2026-04-26T11:51:45.658Z</time></trkpt><trkpt lat="46.0059298" lon="11.7091402"><ele>1151.6</ele><time>2026-04-26T11:51:47.669Z</time></trkpt><trkpt lat="46.0060235" lon="11.7092055"><ele>1153.0</ele><time>2026-04-26T11:51:49.657Z</time></trkpt><trkpt lat="46.0060106" lon="11.7093397"><ele>1145.0</ele><time>2026-04-26T11:51:51.635Z</time></trkpt><trkpt lat="46.0062106" lon="11.7095478"><ele>1137.0</ele><time>2026-04-26T11:51:54.662Z</time></trkpt><trkpt lat="46.0063639" lon="11.7096562"><ele>1129.0</ele><time>2026-04-26T11:51:55.66Z</time></trkpt><trkpt lat="46.0064455" lon="11.709735"><ele>1129.0</ele><time>2026-04-26T11:51:56.654Z</time></trkpt><trkpt lat="46.0066582" lon="11.7100428"><ele>1129.0</ele><time>2026-04-26T11:51:58.668Z</time></trkpt><trkpt lat="46.0067809" lon="11.7101836"><ele>1120.3333333333333</ele><time>2026-04-26T11:51:59.667Z</time></trkpt><trkpt lat="46.0068758" lon="11.7102518"><ele>1111.6666666666667</ele><time>2026-04-26T11:52:00.644Z</time></trkpt><trkpt lat="46.0069567" lon="11.7103235"><ele>1103.0</ele><time>2026-04-26T11:52:02.671Z</time></trkpt><trkpt lat="46.0071795" lon="11.7106765"><ele>1103.0</ele><time>2026-04-26T11:52:04.684Z</time></trkpt><trkpt lat="46.0073049" lon="11.7108992"><ele>1103.0</ele><time>2026-04-26T11:52:05.668Z</time></trkpt><trkpt lat="46.007369" lon="11.7110386"><ele>1103.0</ele><time>2026-04-26T11:52:06.673Z</time></trkpt><trkpt lat="46.0074461" lon="11.7111192"><ele>1103.0</ele><time>2026-04-26T11:52:09.636Z</time></trkpt><trkpt lat="46.007765" lon="11.7113429"><ele>1100.0</ele><time>2026-04-26T11:52:12.638Z</time></trkpt><trkpt lat="46.0079176" lon="11.7114478"><ele>1097.0</ele><time>2026-04-26T11:52:13.6Z</time></trkpt><trkpt lat="46.0080763" lon="11.7115511"><ele>1094.0</ele><time>2026-04-26T11:52:14.657Z</time></trkpt><trkpt lat="46.0081382" lon="11.7116"><ele>1091.0</ele><time>2026-04-26T11:52:16.649Z</time></trkpt><trkpt lat="46.0084009" lon="11.7117802"><ele>1089.5</ele><time>2026-04-26T11:52:18.654Z</time></trkpt><trkpt lat="46.0085716" lon="11.7119012"><ele>1088.0</ele><time>2026-04-26T11:52:19.579Z</time></trkpt><trkpt lat="46.0088623" lon="11.7120806"><ele>1088.0</ele><time>2026-04-26T11:52:20.658Z</time></trkpt><trkpt lat="46.0089443" lon="11.7121188"><ele>1088.0</ele><time>2026-04-26T11:52:21.634Z</time></trkpt><trkpt lat="46.0090581" lon="11.7121749"><ele>1088.0</ele><time>2026-04-26T11:52:22.667Z</time></trkpt><trkpt lat="46.0091531" lon="11.7121846"><ele>1088.0</ele><time>2026-04-26T11:52:24.667Z</time></trkpt><trkpt lat="46.0092201" lon="11.7121822"><ele>1088.0</ele><time>2026-04-26T11:52:28.643Z</time></trkpt><trkpt lat="46.0094463" lon="11.7122698"><ele>1072.0</ele><time>2026-04-26T11:52:30.653Z</time></trkpt><trkpt lat="46.0096152" lon="11.7123441"><ele>1056.0</ele><time>2026-04-26T11:52:31.68Z</time></trkpt><trkpt lat="46.0099073" lon="11.7124342"><ele>1052.0</ele><time>2026-04-26T11:52:32.668Z</time></trkpt><trkpt lat="46.0100405" lon="11.7124723"><ele>1048.0</ele><time>2026-04-26T11:52:33.666Z</time></trkpt><trkpt lat="46.0102674" lon="11.7124789"><ele>1044.0</ele><time>2026-04-26T11:52:36.653Z</time></trkpt><trkpt lat="46.0104953" lon="11.7124383"><ele>1044.0</ele><time>2026-04-26T11:52:37.673Z</time></trkpt><trkpt lat="46.010652" lon="11.7123954"><ele>1044.0</ele><time>2026-04-26T11:52:38.67Z</time></trkpt><trkpt lat="46.0107531" lon="11.712374"><ele>1044.0</ele><time>2026-04-26T11:52:39.653Z</time></trkpt><trkpt lat="46.0108412" lon="11.7123455"><ele>1044.0</ele><time>2026-04-26T11:52:41.662Z</time></trkpt><trkpt lat="46.0111311" lon="11.7123205"><ele>1040.3333333333333</ele><time>2026-04-26T11:52:44.669Z</time></trkpt><trkpt lat="46.0112303" lon="11.7123172"><ele>1036.6666666666665</ele><time>2026-04-26T11:52:45.198Z</time></trkpt><trkpt lat="46.011562" lon="11.7123191"><ele>1033.0</ele><time>2026-04-26T11:52:46.672Z</time></trkpt><trkpt lat="46.0116486" lon="11.7123245"><ele>1031.6666666666665</ele><time>2026-04-26T11:52:47.657Z</time></trkpt><trkpt lat="46.0117701" lon="11.7122892"><ele>1030.3333333333333</ele><time>2026-04-26T11:52:50.667Z</time></trkpt><trkpt lat="46.0120145" lon="11.712382"><ele>1029.0</ele><time>2026-04-26T11:52:52.658Z</time></trkpt><trkpt lat="46.0122352" lon="11.7125055"><ele>1029.0</ele><time>2026-04-26T11:52:53.665Z</time></trkpt><trkpt lat="46.0123922" lon="11.7125948"><ele>1029.0</ele><time>2026-04-26T11:52:54.661Z</time></trkpt><trkpt lat="46.012465" lon="11.7126238"><ele>1029.0</ele><time>2026-04-26T11:52:55.671Z</time></trkpt><trkpt lat="46.0127701" lon="11.7127819"><ele>1034.0</ele><time>2026-04-26T11:52:58.659Z</time></trkpt><trkpt lat="46.0128746" lon="11.7128272"><ele>1039.0</ele><time>2026-04-26T11:52:59.657Z</time></trkpt><trkpt lat="46.0129849" lon="11.7129055"><ele>1044.0</ele><time>2026-04-26T11:53:00.678Z</time></trkpt><trkpt lat="46.0130574" lon="11.7129523"><ele>1049.0</ele><time>2026-04-26T11:53:01.653Z</time></trkpt><trkpt lat="46.0131337" lon="11.7129962"><ele>1054.0</ele><time>2026-04-26T11:53:02.68Z</time></trkpt><trkpt lat="46.0132608" lon="11.7131033"><ele>1052.3333333333333</ele><time>2026-04-26T11:53:03.659Z</time></trkpt><trkpt lat="46.0133536" lon="11.7131684"><ele>1050.6666666666667</ele><time>2026-04-26T11:53:05.669Z</time></trkpt><trkpt lat="46.0135996" lon="11.7134861"><ele>1049.0</ele><time>2026-04-26T11:53:07.685Z</time></trkpt><trkpt lat="46.0137115" lon="11.7136169"><ele>1049.0</ele><time>2026-04-26T11:53:08.659Z</time></trkpt><trkpt lat="46.0137857" lon="11.713711"><ele>1049.0</ele><time>2026-04-26T11:53:09.675Z</time></trkpt><trkpt lat="46.0138394" lon="11.7137964"><ele>1049.0</ele><time>2026-04-26T11:53:10.652Z</time></trkpt><trkpt lat="46.0138835" lon="11.7138909"><ele>1049.0</ele><time>2026-04-26T11:53:11.665Z</time></trkpt><trkpt lat="46.0138999" lon="11.7139924"><ele>1049.0</ele><time>2026-04-26T11:53:12.681Z</time></trkpt><trkpt lat="46.0138886" lon="11.7141781"><ele>1049.0</ele><time>2026-04-26T11:53:14.667Z</time></trkpt><trkpt lat="46.0138569" lon="11.7142953"><ele>1049.0</ele><time>2026-04-26T11:53:15.662Z</time></trkpt><trkpt lat="46.0138351" lon="11.7144183"><ele>1049.0</ele><time>2026-04-26T11:53:16.661Z</time></trkpt><trkpt lat="46.0138395" lon="11.714547"><ele>1049.0</ele><time>2026-04-26T11:53:17.675Z</time></trkpt><trkpt lat="46.0138599" lon="11.7146782"><ele>1049.0</ele><time>2026-04-26T11:53:18.637Z</time></trkpt><trkpt lat="46.0138958" lon="11.7148124"><ele>1051.0</ele><time>2026-04-26T11:53:19.651Z</time></trkpt><trkpt lat="46.0139593" lon="11.714934"><ele>1053.0</ele><time>2026-04-26T11:53:20.673Z</time></trkpt><trkpt lat="46.0140224" lon="11.7150511"><ele>1055.0</ele><time>2026-04-26T11:53:21.678Z</time></trkpt><trkpt lat="46.0140703" lon="11.7151613"><ele>1057.0</ele><time>2026-04-26T11:53:22.647Z</time></trkpt><trkpt lat="46.0141101" lon="11.7152869"><ele>1059.0</ele><time>2026-04-26T11:53:23.673Z</time></trkpt><trkpt lat="46.0141403" lon="11.7154194"><ele>1052.6000000000001</ele><time>2026-04-26T11:53:24.67Z</time></trkpt><trkpt lat="46.0141658" lon="11.7155599"><ele>1046.2</ele><time>2026-04-26T11:53:25.676Z</time></trkpt><trkpt lat="46.0141936" lon="11.7157055"><ele>1039.8000000000002</ele><time>2026-04-26T11:53:26.653Z</time></trkpt><trkpt lat="46.0142218" lon="11.7158577"><ele>1033.4</ele><time>2026-04-26T11:53:27.642Z</time></trkpt><trkpt lat="46.0142332" lon="11.7159862"><ele>1027.0</ele><time>2026-04-26T11:53:28.67Z</time></trkpt><trkpt lat="46.0142291" lon="11.7160914"><ele>1026.4</ele><time>2026-04-26T11:53:29.644Z</time></trkpt><trkpt lat="46.0142099" lon="11.7162016"><ele>1025.8000000000002</ele><time>2026-04-26T11:53:30.649Z</time></trkpt><trkpt lat="46.0141709" lon="11.7163231"><ele>1025.2</ele><time>2026-04-26T11:53:31.671Z</time></trkpt><trkpt lat="46.014092" lon="11.7164437"><ele>1024.6000000000001</ele><time>2026-04-26T11:53:32.681Z</time></trkpt><trkpt lat="46.0140259" lon="11.7165535"><ele>1024.0</ele><time>2026-04-26T11:53:33.674Z</time></trkpt><trkpt lat="46.0139582" lon="11.7166518"><ele>1031.0</ele><time>2026-04-26T11:53:34.689Z</time></trkpt><trkpt lat="46.0138864" lon="11.7167416"><ele>1038.0</ele><time>2026-04-26T11:53:35.671Z</time></trkpt><trkpt lat="46.0138054" lon="11.7168341"><ele>1045.0</ele><time>2026-04-26T11:53:36.671Z</time></trkpt><trkpt lat="46.0137231" lon="11.7169252"><ele>1052.0</ele><time>2026-04-26T11:53:37.637Z</time></trkpt><trkpt lat="46.0136518" lon="11.7169982"><ele>1059.0</ele><time>2026-04-26T11:53:38.59Z</time></trkpt><trkpt lat="46.0135916" lon="11.7170505"><ele>1059.0</ele><time>2026-04-26T11:53:39.655Z</time></trkpt><trkpt lat="46.0135153" lon="11.7171156"><ele>1059.0</ele><time>2026-04-26T11:53:41.657Z</time></trkpt><trkpt lat="46.0136183" lon="11.7172702"><ele>1059.0</ele><time>2026-04-26T11:53:43.672Z</time></trkpt><trkpt lat="46.0137491" lon="11.7173505"><ele>1059.0</ele><time>2026-04-26T11:53:44.664Z</time></trkpt><trkpt lat="46.0139437" lon="11.7174268"><ele>1052.75</ele><time>2026-04-26T11:53:45.623Z</time></trkpt><trkpt lat="46.0141559" lon="11.7175103"><ele>1046.5</ele><time>2026-04-26T11:53:46.62Z</time></trkpt><trkpt lat="46.0142914" lon="11.7175825"><ele>1040.25</ele><time>2026-04-26T11:53:47.62Z</time></trkpt><trkpt lat="46.0143334" lon="11.7176868"><ele>1034.0</ele><time>2026-04-26T11:53:49.628Z</time></trkpt><trkpt lat="46.0143561" lon="11.7177855"><ele>1034.0</ele><time>2026-04-26T11:53:50.611Z</time></trkpt><trkpt lat="46.0143966" lon="11.7179065"><ele>1034.0</ele><time>2026-04-26T11:53:51.616Z</time></trkpt><trkpt lat="46.0144409" lon="11.7180241"><ele>1034.0</ele><time>2026-04-26T11:53:52.604Z</time></trkpt><trkpt lat="46.0144773" lon="11.7181359"><ele>1034.0</ele><time>2026-04-26T11:53:53.614Z</time></trkpt><trkpt lat="46.0145039" lon="11.7182385"><ele>1034.0</ele><time>2026-04-26T11:53:54.618Z</time></trkpt><trkpt lat="46.0145266" lon="11.7183432"><ele>1034.0</ele><time>2026-04-26T11:53:55.636Z</time></trkpt><trkpt lat="46.0145477" lon="11.7184498"><ele>1034.1666666666667</ele><time>2026-04-26T11:53:56.626Z</time></trkpt><trkpt lat="46.0145705" lon="11.7185746"><ele>1034.3333333333335</ele><time>2026-04-26T11:53:57.626Z</time></trkpt><trkpt lat="46.0146012" lon="11.7187079"><ele>1034.5</ele><time>2026-04-26T11:53:58.627Z</time></trkpt><trkpt lat="46.0146256" lon="11.7188263"><ele>1034.6666666666667</ele><time>2026-04-26T11:53:59.628Z</time></trkpt><trkpt lat="46.0146116" lon="11.7189223"><ele>1034.8333333333333</ele><time>2026-04-26T11:54:00.602Z</time></trkpt><trkpt lat="46.0145907" lon="11.7190414"><ele>1035.0</ele><time>2026-04-26T11:54:01.603Z</time></trkpt><trkpt lat="46.0145733" lon="11.7191965"><ele>1035.0</ele><time>2026-04-26T11:54:02.63Z</time></trkpt><trkpt lat="46.0145447" lon="11.7193405"><ele>1035.0</ele><time>2026-04-26T11:54:03.613Z</time></trkpt><trkpt lat="46.0145084" lon="11.7195013"><ele>1035.0</ele><time>2026-04-26T11:54:04.609Z</time></trkpt><trkpt lat="46.0144694" lon="11.719668"><ele>1035.0</ele><time>2026-04-26T11:54:05.612Z</time></trkpt><trkpt lat="46.0144243" lon="11.7198245"><ele>1035.6</ele><time>2026-04-26T11:54:06.647Z</time></trkpt><trkpt lat="46.0144026" lon="11.7199195"><ele>1036.2</ele><time>2026-04-26T11:54:07.603Z</time></trkpt><trkpt lat="46.0143567" lon="11.7200653"><ele>1036.8</ele><time>2026-04-26T11:54:09.593Z</time></trkpt><trkpt lat="46.014374" lon="11.7202033"><ele>1037.4</ele><time>2026-04-26T11:54:11.653Z</time></trkpt><trkpt lat="46.0144765" lon="11.7202724"><ele>1038.0</ele><time>2026-04-26T11:54:12.667Z</time></trkpt><trkpt lat="46.0145889" lon="11.7203309"><ele>1038.6666666666667</ele><time>2026-04-26T11:54:13.606Z</time></trkpt><trkpt lat="46.0147047" lon="11.7203829"><ele>1039.3333333333333</ele><time>2026-04-26T11:54:14.616Z</time></trkpt><trkpt lat="46.0147626" lon="11.7204724"><ele>1040.0</ele><time>2026-04-26T11:54:15.622Z</time></trkpt><trkpt lat="46.0147707" lon="11.7205857"><ele>1040.6666666666665</ele><time>2026-04-26T11:54:16.625Z</time></trkpt><trkpt lat="46.0147606" lon="11.7206896"><ele>1041.3333333333333</ele><time>2026-04-26T11:54:17.617Z</time></trkpt><trkpt lat="46.0147515" lon="11.7207822"><ele>1042.0</ele><time>2026-04-26T11:54:18.607Z</time></trkpt><trkpt lat="46.0147117" lon="11.7208557"><ele>1042.0</ele><time>2026-04-26T11:54:20.62Z</time></trkpt><trkpt lat="46.0146052" lon="11.7209917"><ele>1042.0</ele><time>2026-04-26T11:54:23.609Z</time></trkpt><trkpt lat="46.0145522" lon="11.7210579"><ele>1042.0</ele><time>2026-04-26T11:54:24.617Z</time></trkpt><trkpt lat="46.0144957" lon="11.7211241"><ele>1042.0</ele><time>2026-04-26T11:54:25.615Z</time></trkpt><trkpt lat="46.0144382" lon="11.72118"><ele>1042.0</ele><time>2026-04-26T11:54:26.61Z</time></trkpt><trkpt lat="46.0143898" lon="11.7212691"><ele>1042.0</ele><time>2026-04-26T11:54:28.615Z</time></trkpt><trkpt lat="46.0143502" lon="11.7213759"><ele>1042.0</ele><time>2026-04-26T11:54:30.53Z</time></trkpt><trkpt lat="46.0142767" lon="11.7213818"><ele>1042.0</ele><time>2026-04-26T11:54:33.648Z</time></trkpt><trkpt lat="46.0142423" lon="11.7214635"><ele>1042.0</ele><time>2026-04-26T11:54:35.569Z</time></trkpt><trkpt lat="46.0142147" lon="11.7215815"><ele>1042.0</ele><time>2026-04-26T11:54:40.622Z</time></trkpt><trkpt lat="46.0142268" lon="11.7216826"><ele>1042.0</ele><time>2026-04-26T11:54:43.609Z</time></trkpt><trkpt lat="46.0143421" lon="11.7216859"><ele>1042.0</ele><time>2026-04-26T11:54:46.622Z</time></trkpt><trkpt lat="46.014415" lon="11.7218916"><ele>1043.0</ele><time>2026-04-26T11:55:01.554Z</time></trkpt><trkpt lat="46.0146143" lon="11.7226348"><ele>1041.3333333333335</ele><time>2026-04-26T11:55:02.611Z</time></trkpt><trkpt lat="46.0146419" lon="11.7227976"><ele>1039.6666666666667</ele><time>2026-04-26T11:55:03.55Z</time></trkpt><trkpt lat="46.0146054" lon="11.7229581"><ele>1038.0</ele><time>2026-04-26T11:55:04.611Z</time></trkpt><trkpt lat="46.0145373" lon="11.7233892"><ele>1038.5</ele><time>2026-04-26T11:55:15.638Z</time></trkpt><trkpt lat="46.0145007" lon="11.7237242"><ele>1039.0</ele><time>2026-04-26T11:55:16.624Z</time></trkpt><trkpt lat="46.0144826" lon="11.7238815"><ele>1039.5</ele><time>2026-04-26T11:55:17.607Z</time></trkpt><trkpt lat="46.0144815" lon="11.7239855"><ele>1040.0</ele><time>2026-04-26T11:55:18.608Z</time></trkpt><trkpt lat="46.0144781" lon="11.7241827"><ele>1040.0</ele><time>2026-04-26T11:55:20.618Z</time></trkpt><trkpt lat="46.0144617" lon="11.7243131"><ele>1040.0</ele><time>2026-04-26T11:55:21.595Z</time></trkpt><trkpt lat="46.0144436" lon="11.7244343"><ele>1040.0</ele><time>2026-04-26T11:55:22.622Z</time></trkpt><trkpt lat="46.014431" lon="11.7245496"><ele>1040.0</ele><time>2026-04-26T11:55:23.611Z</time></trkpt><trkpt lat="46.014415" lon="11.7246628"><ele>1040.0</ele><time>2026-04-26T11:55:24.615Z</time></trkpt><trkpt lat="46.0143968" lon="11.7247625"><ele>1040.0</ele><time>2026-04-26T11:55:25.636Z</time></trkpt><trkpt lat="46.0143429" lon="11.7249147"><ele>1037.8333333333335</ele><time>2026-04-26T11:55:27.612Z</time></trkpt><trkpt lat="46.0142947" lon="11.7249781"><ele>1035.6666666666667</ele><time>2026-04-26T11:55:28.622Z</time></trkpt><trkpt lat="46.0142387" lon="11.7250357"><ele>1033.5</ele><time>2026-04-26T11:55:29.61Z</time></trkpt><trkpt lat="46.0141735" lon="11.7250679"><ele>1031.3333333333333</ele><time>2026-04-26T11:55:30.623Z</time></trkpt><trkpt lat="46.0141036" lon="11.7250811"><ele>1029.1666666666665</ele><time>2026-04-26T11:55:31.618Z</time></trkpt><trkpt lat="46.0140275" lon="11.7250925"><ele>1027.0</ele><time>2026-04-26T11:55:32.642Z</time></trkpt><trkpt lat="46.0138558" lon="11.7251325"><ele>1031.0</ele><time>2026-04-26T11:55:34.677Z</time></trkpt><trkpt lat="46.013767" lon="11.7251769"><ele>1035.0</ele><time>2026-04-26T11:55:35.681Z</time></trkpt><trkpt lat="46.0137167" lon="11.7252351"><ele>1039.0</ele><time>2026-04-26T11:55:36.676Z</time></trkpt><trkpt lat="46.0137101" lon="11.7253255"><ele>1043.0</ele><time>2026-04-26T11:55:37.689Z</time></trkpt><trkpt lat="46.0137334" lon="11.7254284"><ele>1047.0</ele><time>2026-04-26T11:55:38.682Z</time></trkpt><trkpt lat="46.0137751" lon="11.7255283"><ele>1051.0</ele><time>2026-04-26T11:55:39.672Z</time></trkpt><trkpt lat="46.0138298" lon="11.7256214"><ele>1051.0</ele><time>2026-04-26T11:55:40.643Z</time></trkpt><trkpt lat="46.0138858" lon="11.7257107"><ele>1051.0</ele><time>2026-04-26T11:55:41.657Z</time></trkpt><trkpt lat="46.0139333" lon="11.7258021"><ele>1051.0</ele><time>2026-04-26T11:55:42.68Z</time></trkpt><trkpt lat="46.0139656" lon="11.7259006"><ele>1051.0</ele><time>2026-04-26T11:55:43.669Z</time></trkpt><trkpt lat="46.0139922" lon="11.7260116"><ele>1051.0</ele><time>2026-04-26T11:55:44.667Z</time></trkpt><trkpt lat="46.0140166" lon="11.7261291"><ele>1051.0</ele><time>2026-04-26T11:55:45.687Z</time></trkpt><trkpt lat="46.0140377" lon="11.7262329"><ele>1050.3333333333333</ele><time>2026-04-26T11:55:46.676Z</time></trkpt><trkpt lat="46.0140517" lon="11.7263308"><ele>1049.6666666666665</ele><time>2026-04-26T11:55:47.664Z</time></trkpt><trkpt lat="46.0140551" lon="11.7264262"><ele>1049.0</ele><time>2026-04-26T11:55:48.676Z</time></trkpt><trkpt lat="46.0140204" lon="11.7266104"><ele>1048.3333333333333</ele><time>2026-04-26T11:55:50.676Z</time></trkpt><trkpt lat="46.0139811" lon="11.7267137"><ele>1047.6666666666667</ele><time>2026-04-26T11:55:51.683Z</time></trkpt><trkpt lat="46.0139384" lon="11.7268204"><ele>1047.0</ele><time>2026-04-26T11:55:52.65Z</time></trkpt><trkpt lat="46.0138984" lon="11.7269463"><ele>1044.6</ele><time>2026-04-26T11:55:53.673Z</time></trkpt><trkpt lat="46.013861" lon="11.7270718"><ele>1042.2</ele><time>2026-04-26T11:55:54.68Z</time></trkpt><trkpt lat="46.0138253" lon="11.7272031"><ele>1039.8</ele><time>2026-04-26T11:55:55.665Z</time></trkpt><trkpt lat="46.0137921" lon="11.7273276"><ele>1037.4</ele><time>2026-04-26T11:55:56.582Z</time></trkpt><trkpt lat="46.0137507" lon="11.7274579"><ele>1035.0</ele><time>2026-04-26T11:55:57.661Z</time></trkpt><trkpt lat="46.0137087" lon="11.7275638"><ele>1035.0</ele><time>2026-04-26T11:55:58.67Z</time></trkpt><trkpt lat="46.0136624" lon="11.7276579"><ele>1035.0</ele><time>2026-04-26T11:55:59.608Z</time></trkpt><trkpt lat="46.0136103" lon="11.7277505"><ele>1035.0</ele><time>2026-04-26T11:56:00.621Z</time></trkpt><trkpt lat="46.0135436" lon="11.7278189"><ele>1035.0</ele><time>2026-04-26T11:56:01.63Z</time></trkpt><trkpt lat="46.0134673" lon="11.7278566"><ele>1035.0</ele><time>2026-04-26T11:56:02.632Z</time></trkpt><trkpt lat="46.013391" lon="11.7278767"><ele>1035.0</ele><time>2026-04-26T11:56:03.623Z</time></trkpt><trkpt lat="46.0133085" lon="11.7278817"><ele>1035.0</ele><time>2026-04-26T11:56:04.614Z</time></trkpt><trkpt lat="46.0132294" lon="11.7278645"><ele>1035.0</ele><time>2026-04-26T11:56:05.627Z</time></trkpt><trkpt lat="46.0131411" lon="11.7278492"><ele>1035.0</ele><time>2026-04-26T11:56:06.622Z</time></trkpt><trkpt lat="46.0130474" lon="11.7278427"><ele>1035.0</ele><time>2026-04-26T11:56:07.598Z</time></trkpt><trkpt lat="46.0129456" lon="11.7278597"><ele>1035.0</ele><time>2026-04-26T11:56:08.603Z</time></trkpt><trkpt lat="46.0128086" lon="11.7279109"><ele>1035.0</ele><time>2026-04-26T11:56:09.639Z</time></trkpt><trkpt lat="46.0127079" lon="11.7279937"><ele>1035.0</ele><time>2026-04-26T11:56:10.622Z</time></trkpt><trkpt lat="46.0126732" lon="11.7281121"><ele>1035.0</ele><time>2026-04-26T11:56:11.634Z</time></trkpt><trkpt lat="46.0126676" lon="11.728227"><ele>1035.0</ele><time>2026-04-26T11:56:12.595Z</time></trkpt><trkpt lat="46.012645" lon="11.7283351"><ele>1035.0</ele><time>2026-04-26T11:56:13.608Z</time></trkpt><trkpt lat="46.0125877" lon="11.7284443"><ele>1035.0</ele><time>2026-04-26T11:56:14.627Z</time></trkpt><trkpt lat="46.0125201" lon="11.7285575"><ele>1035.0</ele><time>2026-04-26T11:56:15.622Z</time></trkpt><trkpt lat="46.0124541" lon="11.7286502"><ele>1035.0</ele><time>2026-04-26T11:56:17.625Z</time></trkpt><trkpt lat="46.0123985" lon="11.7287264"><ele>1035.0</ele><time>2026-04-26T11:56:18.626Z</time></trkpt><trkpt lat="46.0122854" lon="11.7288055"><ele>1035.0</ele><time>2026-04-26T11:56:20.651Z</time></trkpt><trkpt lat="46.0122089" lon="11.72884"><ele>1035.5</ele><time>2026-04-26T11:56:22.584Z</time></trkpt><trkpt lat="46.0121322" lon="11.728885"><ele>1036.0</ele><time>2026-04-26T11:56:24.685Z</time></trkpt><trkpt lat="46.0120679" lon="11.7289195"><ele>1036.5</ele><time>2026-04-26T11:56:26.614Z</time></trkpt><trkpt lat="46.0120018" lon="11.7289556"><ele>1037.0</ele><time>2026-04-26T11:56:28.672Z</time></trkpt><trkpt lat="46.0118077" lon="11.7291655"><ele>1033.0</ele><time>2026-04-26T11:56:29.601Z</time></trkpt><trkpt lat="46.0114966" lon="11.7295085"><ele>1029.0</ele><time>2026-04-26T11:56:30.608Z</time></trkpt><trkpt lat="46.0114037" lon="11.7296035"><ele>1029.0</ele><time>2026-04-26T11:56:31.613Z</time></trkpt><trkpt lat="46.0113209" lon="11.7296845"><ele>1029.0</ele><time>2026-04-26T11:56:32.629Z</time></trkpt><trkpt lat="46.0111861" lon="11.7297857"><ele>1029.0</ele><time>2026-04-26T11:56:34.608Z</time></trkpt><trkpt lat="46.0111174" lon="11.7298121"><ele>1029.0</ele><time>2026-04-26T11:56:35.659Z</time></trkpt><trkpt lat="46.0110161" lon="11.7298431"><ele>1029.0</ele><time>2026-04-26T11:56:37.65Z</time></trkpt><trkpt lat="46.0109342" lon="11.7298993"><ele>1029.0</ele><time>2026-04-26T11:56:39.614Z</time></trkpt><trkpt lat="46.0108718" lon="11.7299936"><ele>1029.0</ele><time>2026-04-26T11:56:41.624Z</time></trkpt><trkpt lat="46.0108192" lon="11.730051"><ele>1029.0</ele><time>2026-04-26T11:56:42.627Z</time></trkpt><trkpt lat="46.0107848" lon="11.7301406"><ele>1029.0</ele><time>2026-04-26T11:56:44.614Z</time></trkpt><trkpt lat="46.0107617" lon="11.730264"><ele>1029.0</ele><time>2026-04-26T11:56:46.61Z</time></trkpt><trkpt lat="46.0107828" lon="11.73047"><ele>1029.1666666666667</ele><time>2026-04-26T11:56:48.614Z</time></trkpt><trkpt lat="46.0107946" lon="11.7305937"><ele>1029.3333333333333</ele><time>2026-04-26T11:56:49.621Z</time></trkpt><trkpt lat="46.0107757" lon="11.7306823"><ele>1029.5</ele><time>2026-04-26T11:56:50.625Z</time></trkpt><trkpt lat="46.0107255" lon="11.7307515"><ele>1029.6666666666665</ele><time>2026-04-26T11:56:51.614Z</time></trkpt><trkpt lat="46.0106624" lon="11.7308174"><ele>1029.8333333333333</ele><time>2026-04-26T11:56:52.613Z</time></trkpt><trkpt lat="46.0105944" lon="11.7308734"><ele>1030.0</ele><time>2026-04-26T11:56:53.64Z</time></trkpt><trkpt lat="46.010527" lon="11.7309137"><ele>1030.0</ele><time>2026-04-26T11:56:54.632Z</time></trkpt><trkpt lat="46.0104451" lon="11.7309443"><ele>1030.0</ele><time>2026-04-26T11:56:55.629Z</time></trkpt><trkpt lat="46.0103692" lon="11.7309887"><ele>1030.0</ele><time>2026-04-26T11:56:56.637Z</time></trkpt><trkpt lat="46.0103034" lon="11.7310517"><ele>1030.0</ele><time>2026-04-26T11:56:57.619Z</time></trkpt><trkpt lat="46.0102425" lon="11.7311404"><ele>1030.0</ele><time>2026-04-26T11:56:58.642Z</time></trkpt><trkpt lat="46.0101991" lon="11.7312427"><ele>1030.0</ele><time>2026-04-26T11:56:59.59Z</time></trkpt><trkpt lat="46.0101623" lon="11.7313623"><ele>1029.0</ele><time>2026-04-26T11:57:00.63Z</time></trkpt><trkpt lat="46.0101241" lon="11.7314742"><ele>1028.0</ele><time>2026-04-26T11:57:01.608Z</time></trkpt><trkpt lat="46.0100788" lon="11.7315772"><ele>1027.0</ele><time>2026-04-26T11:57:02.598Z</time></trkpt><trkpt lat="46.0100321" lon="11.731677"><ele>1026.0</ele><time>2026-04-26T11:57:03.613Z</time></trkpt><trkpt lat="46.0099929" lon="11.7317713"><ele>1025.0</ele><time>2026-04-26T11:57:04.626Z</time></trkpt><trkpt lat="46.0099598" lon="11.7318591"><ele>1024.0</ele><time>2026-04-26T11:57:05.628Z</time></trkpt><trkpt lat="46.009926" lon="11.7319359"><ele>1023.25</ele><time>2026-04-26T11:57:06.616Z</time></trkpt><trkpt lat="46.0098757" lon="11.7320842"><ele>1022.5</ele><time>2026-04-26T11:57:08.639Z</time></trkpt><trkpt lat="46.0098261" lon="11.7322423"><ele>1021.75</ele><time>2026-04-26T11:57:10.619Z</time></trkpt><trkpt lat="46.00978" lon="11.7323951"><ele>1021.0</ele><time>2026-04-26T11:57:12.628Z</time></trkpt><trkpt lat="46.0097407" lon="11.7325521"><ele>1021.0</ele><time>2026-04-26T11:57:14.619Z</time></trkpt><trkpt lat="46.0096559" lon="11.7326904"><ele>1020.9999999999999</ele><time>2026-04-26T11:57:16.627Z</time></trkpt><trkpt lat="46.0096067" lon="11.7327792"><ele>1020.9999999999999</ele><time>2026-04-26T11:57:17.606Z</time></trkpt><trkpt lat="46.0095583" lon="11.7328699"><ele>1021.0</ele><time>2026-04-26T11:57:18.624Z</time></trkpt><trkpt lat="46.0095148" lon="11.7329493"><ele>1021.0</ele><time>2026-04-26T11:57:19.619Z</time></trkpt><trkpt lat="46.009428" lon="11.7330667"><ele>1018.5999999999999</ele><time>2026-04-26T11:57:21.623Z</time></trkpt><trkpt lat="46.0093107" lon="11.7331155"><ele>1016.1999999999999</ele><time>2026-04-26T11:57:23.63Z</time></trkpt><trkpt lat="46.0092466" lon="11.7331222"><ele>1013.8000000000001</ele><time>2026-04-26T11:57:24.643Z</time></trkpt><trkpt lat="46.0091305" lon="11.73304"><ele>1011.4000000000001</ele><time>2026-04-26T11:57:26.622Z</time></trkpt><trkpt lat="46.0090728" lon="11.7329493"><ele>1009.0</ele><time>2026-04-26T11:57:27.632Z</time></trkpt><trkpt lat="46.0090277" lon="11.7328342"><ele>1006.1666666666666</ele><time>2026-04-26T11:57:28.632Z</time></trkpt><trkpt lat="46.0089874" lon="11.7327303"><ele>1003.3333333333333</ele><time>2026-04-26T11:57:29.624Z</time></trkpt><trkpt lat="46.0089459" lon="11.7326337"><ele>1000.5</ele><time>2026-04-26T11:57:30.615Z</time></trkpt><trkpt lat="46.0089121" lon="11.7325359"><ele>997.6666666666667</ele><time>2026-04-26T11:57:31.615Z</time></trkpt><trkpt lat="46.0088821" lon="11.7324447"><ele>994.8333333333334</ele><time>2026-04-26T11:57:32.623Z</time></trkpt><trkpt lat="46.0088568" lon="11.7323511"><ele>992.0</ele><time>2026-04-26T11:57:33.615Z</time></trkpt><trkpt lat="46.0088391" lon="11.732245"><ele>992.0000000000001</ele><time>2026-04-26T11:57:34.613Z</time></trkpt><trkpt lat="46.0088376" lon="11.7321291"><ele>992.0</ele><time>2026-04-26T11:57:35.635Z</time></trkpt><trkpt lat="46.0088357" lon="11.7320206"><ele>992.0</ele><time>2026-04-26T11:57:36.616Z</time></trkpt><trkpt lat="46.0088419" lon="11.7319021"><ele>992.0</ele><time>2026-04-26T11:57:37.628Z</time></trkpt><trkpt lat="46.0088489" lon="11.7317686"><ele>992.0000000000001</ele><time>2026-04-26T11:57:38.639Z</time></trkpt><trkpt lat="46.0088538" lon="11.7316347"><ele>992.0</ele><time>2026-04-26T11:57:39.609Z</time></trkpt><trkpt lat="46.0088516" lon="11.7314992"><ele>994.1666666666667</ele><time>2026-04-26T11:57:40.64Z</time></trkpt><trkpt lat="46.0088474" lon="11.7313804"><ele>996.3333333333334</ele><time>2026-04-26T11:57:41.606Z</time></trkpt><trkpt lat="46.008837" lon="11.7312641"><ele>998.5</ele><time>2026-04-26T11:57:42.604Z</time></trkpt><trkpt lat="46.0088254" lon="11.7311471"><ele>1000.6666666666667</ele><time>2026-04-26T11:57:43.647Z</time></trkpt><trkpt lat="46.008813" lon="11.7310483"><ele>1002.8333333333334</ele><time>2026-04-26T11:57:44.612Z</time></trkpt><trkpt lat="46.0087981" lon="11.7309119"><ele>1005.0</ele><time>2026-04-26T11:57:45.946Z</time></trkpt><trkpt lat="46.008792" lon="11.7308206"><ele>1007.857142857143</ele><time>2026-04-26T11:57:47.672Z</time></trkpt><trkpt lat="46.0087176" lon="11.7308078"><ele>1010.7142857142858</ele><time>2026-04-26T11:57:55.672Z</time></trkpt><trkpt lat="46.008715" lon="11.7307011"><ele>1013.5714285714286</ele><time>2026-04-26T11:57:59.676Z</time></trkpt><trkpt lat="46.0087026" lon="11.7306064"><ele>1016.4285714285714</ele><time>2026-04-26T11:58:03.678Z</time></trkpt><trkpt lat="46.0086786" lon="11.7305223"><ele>1019.2857142857142</ele><time>2026-04-26T11:58:32.665Z</time></trkpt><trkpt lat="46.0086675" lon="11.7304297"><ele>1022.142857142857</ele><time>2026-04-26T11:58:51.68Z</time></trkpt><trkpt lat="46.0086921" lon="11.7305266"><ele>1025.0</ele><time>2026-04-26T11:59:32.662Z</time></trkpt><trkpt lat="46.008632" lon="11.7304624"><ele>1025.0</ele><time>2026-04-26T11:59:46.694Z</time></trkpt><trkpt lat="46.0085913" lon="11.7303644"><ele>1025.0</ele><time>2026-04-26T11:59:49.673Z</time></trkpt><trkpt lat="46.0085756" lon="11.7302515"><ele>1025.0</ele><time>2026-04-26T11:59:52.668Z</time></trkpt><trkpt lat="46.0085812" lon="11.7301485"><ele>1025.0</ele><time>2026-04-26T11:59:58.689Z</time></trkpt><trkpt lat="46.0085533" lon="11.7300371"><ele>1025.0</ele><time>2026-04-26T12:00:02.666Z</time></trkpt><trkpt lat="46.008525" lon="11.7299535"><ele>1025.0</ele><time>2026-04-26T12:00:05.657Z</time></trkpt><trkpt lat="46.0084526" lon="11.7300043"><ele>1028.6666666666667</ele><time>2026-04-26T12:00:20.648Z</time></trkpt><trkpt lat="46.0083954" lon="11.7300624"><ele>1032.3333333333335</ele><time>2026-04-26T12:00:23.665Z</time></trkpt><trkpt lat="46.0083163" lon="11.7301044"><ele>1036.0</ele><time>2026-04-26T12:00:26.663Z</time></trkpt><trkpt lat="46.0082522" lon="11.7301299"><ele>1039.6666666666667</ele><time>2026-04-26T12:00:28.673Z</time></trkpt><trkpt lat="46.0081788" lon="11.7301725"><ele>1043.3333333333333</ele><time>2026-04-26T12:00:31.655Z</time></trkpt><trkpt lat="46.0081011" lon="11.7302049"><ele>1047.0</ele><time>2026-04-26T12:00:34.674Z</time></trkpt><trkpt lat="46.008011" lon="11.7302258"><ele>1047.1428571428573</ele><time>2026-04-26T12:00:36.678Z</time></trkpt><trkpt lat="46.0079264" lon="11.7302554"><ele>1047.2857142857142</ele><time>2026-04-26T12:00:39.663Z</time></trkpt><trkpt lat="46.0078574" lon="11.7302797"><ele>1047.4285714285716</ele><time>2026-04-26T12:00:42.681Z</time></trkpt><trkpt lat="46.0077874" lon="11.7302955"><ele>1047.5714285714287</ele><time>2026-04-26T12:00:44.673Z</time></trkpt><trkpt lat="46.007711" lon="11.7303144"><ele>1047.7142857142858</ele><time>2026-04-26T12:00:46.641Z</time></trkpt><trkpt lat="46.0076437" lon="11.7303524"><ele>1047.857142857143</ele><time>2026-04-26T12:00:48.669Z</time></trkpt><trkpt lat="46.0075925" lon="11.7304123"><ele>1048.0</ele><time>2026-04-26T12:00:50.671Z</time></trkpt><trkpt lat="46.0075157" lon="11.730458"><ele>1052.5714285714287</ele><time>2026-04-26T12:00:53.681Z</time></trkpt><trkpt lat="46.0074578" lon="11.7304187"><ele>1057.1428571428573</ele><time>2026-04-26T12:00:59.644Z</time></trkpt><trkpt lat="46.0073947" lon="11.7304437"><ele>1061.7142857142858</ele><time>2026-04-26T12:01:02.665Z</time></trkpt><trkpt lat="46.0073282" lon="11.7304618"><ele>1066.2857142857142</ele><time>2026-04-26T12:01:06.661Z</time></trkpt><trkpt lat="46.0072634" lon="11.7304986"><ele>1070.8571428571427</ele><time>2026-04-26T12:01:11.62Z</time></trkpt><trkpt lat="46.0072058" lon="11.7305546"><ele>1075.4285714285713</ele><time>2026-04-26T12:01:16.687Z</time></trkpt><trkpt lat="46.0071378" lon="11.7305728"><ele>1080.0</ele><time>2026-04-26T12:01:20.625Z</time></trkpt><trkpt lat="46.0070625" lon="11.730606"><ele>1080.0</ele><time>2026-04-26T12:01:23.679Z</time></trkpt><trkpt lat="46.0069776" lon="11.7306246"><ele>1080.0</ele><time>2026-04-26T12:01:25.666Z</time></trkpt><trkpt lat="46.0068999" lon="11.7306431"><ele>1080.0</ele><time>2026-04-26T12:01:27.689Z</time></trkpt><trkpt lat="46.006836" lon="11.7306559"><ele>1080.0</ele><time>2026-04-26T12:01:29.676Z</time></trkpt><trkpt lat="46.0064493" lon="11.7306784"><ele>1094.0</ele><time>2026-04-26T12:01:33.663Z</time></trkpt><trkpt lat="46.0061799" lon="11.7307073"><ele>1108.0</ele><time>2026-04-26T12:01:34.693Z</time></trkpt><trkpt lat="46.0059979" lon="11.7307381"><ele>1108.0</ele><time>2026-04-26T12:01:35.676Z</time></trkpt><trkpt lat="46.0058992" lon="11.7307508"><ele>1108.0</ele><time>2026-04-26T12:01:37.67Z</time></trkpt><trkpt lat="46.0057905" lon="11.730782"><ele>1108.0</ele><time>2026-04-26T12:01:40.665Z</time></trkpt><trkpt lat="46.0057045" lon="11.7307825"><ele>1108.0</ele><time>2026-04-26T12:01:42.694Z</time></trkpt><trkpt lat="46.0056548" lon="11.7308557"><ele>1108.0</ele><time>2026-04-26T12:01:45.653Z</time></trkpt><trkpt lat="46.0057355" lon="11.730875"><ele>1108.0</ele><time>2026-04-26T12:01:58.695Z</time></trkpt><trkpt lat="46.0058149" lon="11.730908"><ele>1108.0</ele><time>2026-04-26T12:02:00.672Z</time></trkpt><trkpt lat="46.0058867" lon="11.7309609"><ele>1108.0</ele><time>2026-04-26T12:02:02.649Z</time></trkpt><trkpt lat="46.0059819" lon="11.7309773"><ele>1108.0</ele><time>2026-04-26T12:02:04.679Z</time></trkpt><trkpt lat="46.0060546" lon="11.7309821"><ele>1108.0</ele><time>2026-04-26T12:02:06.569Z</time></trkpt><trkpt lat="46.0061421" lon="11.7309609"><ele>1108.0</ele><time>2026-04-26T12:02:08.68Z</time></trkpt><trkpt lat="46.0062126" lon="11.7309801"><ele>1108.0</ele><time>2026-04-26T12:02:11.689Z</time></trkpt><trkpt lat="46.0062883" lon="11.7309585"><ele>1108.0</ele><time>2026-04-26T12:02:13.665Z</time></trkpt><trkpt lat="46.0063652" lon="11.7309682"><ele>1108.0</ele><time>2026-04-26T12:02:15.727Z</time></trkpt><trkpt lat="46.0064681" lon="11.7309777"><ele>1108.0</ele><time>2026-04-26T12:02:17.663Z</time></trkpt><trkpt lat="46.0065628" lon="11.7309866"><ele>1108.0</ele><time>2026-04-26T12:02:19.655Z</time></trkpt><trkpt lat="46.0066637" lon="11.7309628"><ele>1108.0</ele><time>2026-04-26T12:02:21.687Z</time></trkpt><trkpt lat="46.0067447" lon="11.7309108"><ele>1103.3333333333333</ele><time>2026-04-26T12:02:23.676Z</time></trkpt><trkpt lat="46.0067931" lon="11.7308271"><ele>1098.6666666666665</ele><time>2026-04-26T12:02:25.71Z</time></trkpt><trkpt lat="46.0068837" lon="11.7307859"><ele>1094.0</ele><time>2026-04-26T12:02:28.674Z</time></trkpt><trkpt lat="46.0069497" lon="11.7307434"><ele>1089.3333333333333</ele><time>2026-04-26T12:02:31.658Z</time></trkpt><trkpt lat="46.0070201" lon="11.7307059"><ele>1084.6666666666667</ele><time>2026-04-26T12:02:33.668Z</time></trkpt><trkpt lat="46.0071093" lon="11.7306786"><ele>1080.0</ele><time>2026-04-26T12:02:35.682Z</time></trkpt><trkpt lat="46.0071759" lon="11.7306488"><ele>1080.0</ele><time>2026-04-26T12:02:37.622Z</time></trkpt><trkpt lat="46.0072655" lon="11.7306056"><ele>1080.0</ele><time>2026-04-26T12:02:40.667Z</time></trkpt><trkpt lat="46.0073314" lon="11.7305757"><ele>1080.0</ele><time>2026-04-26T12:02:45.665Z</time></trkpt><trkpt lat="46.0074165" lon="11.7305523"><ele>1080.0</ele><time>2026-04-26T12:03:03.627Z</time></trkpt><trkpt lat="46.0074969" lon="11.7304966"><ele>1080.0</ele><time>2026-04-26T12:03:06.679Z</time></trkpt><trkpt lat="46.0075931" lon="11.7304634"><ele>1080.0</ele><time>2026-04-26T12:03:09.66Z</time></trkpt><trkpt lat="46.007673" lon="11.7304614"><ele>1074.6666666666667</ele><time>2026-04-26T12:03:11.668Z</time></trkpt><trkpt lat="46.0077555" lon="11.7304669"><ele>1069.3333333333333</ele><time>2026-04-26T12:03:13.673Z</time></trkpt><trkpt lat="46.0078347" lon="11.7304509"><ele>1064.0</ele><time>2026-04-26T12:03:15.683Z</time></trkpt><trkpt lat="46.0078986" lon="11.7304348"><ele>1058.6666666666665</ele><time>2026-04-26T12:03:17.685Z</time></trkpt><trkpt lat="46.0079748" lon="11.7304153"><ele>1053.3333333333333</ele><time>2026-04-26T12:03:19.692Z</time></trkpt><trkpt lat="46.008056" lon="11.7304035"><ele>1048.0</ele><time>2026-04-26T12:03:21.663Z</time></trkpt><trkpt lat="46.0081453" lon="11.7303785"><ele>1048.0</ele><time>2026-04-26T12:03:23.608Z</time></trkpt><trkpt lat="46.0082086" lon="11.7303561"><ele>1048.0</ele><time>2026-04-26T12:03:24.68Z</time></trkpt><trkpt lat="46.0083006" lon="11.7303186"><ele>1048.0</ele><time>2026-04-26T12:03:26.668Z</time></trkpt><trkpt lat="46.0083764" lon="11.7302736"><ele>1048.0</ele><time>2026-04-26T12:03:28.666Z</time></trkpt><trkpt lat="46.0084346" lon="11.7302021"><ele>1048.0</ele><time>2026-04-26T12:03:30.676Z</time></trkpt><trkpt lat="46.0084604" lon="11.7301177"><ele>1048.0</ele><time>2026-04-26T12:03:32.696Z</time></trkpt><trkpt lat="46.0084719" lon="11.7300075"><ele>1048.0</ele><time>2026-04-26T12:03:35.687Z</time></trkpt><trkpt lat="46.0085347" lon="11.7300215"><ele>1048.0</ele><time>2026-04-26T12:03:40.728Z</time></trkpt><trkpt lat="46.0075931" lon="11.7304634"><ele>1048.0</ele><time>2026-04-26T12:03:09.66Z</time></trkpt><trkpt lat="46.007673" lon="11.7304614"><ele>1048.0</ele><time>2026-04-26T12:03:11.668Z</time></trkpt><trkpt lat="46.0077555" lon="11.7304669"><ele>1048.0</ele><time>2026-04-26T12:03:13.673Z</time></trkpt><trkpt lat="46.0078347" lon="11.7304509"><ele>1048.0</ele><time>2026-04-26T12:03:15.683Z</time></trkpt><trkpt lat="46.0078986" lon="11.7304348"><ele>1048.0</ele><time>2026-04-26T12:03:17.685Z</time></trkpt><trkpt lat="46.0079748" lon="11.7304153"><ele>1048.0</ele><time>2026-04-26T12:03:19.692Z</time></trkpt><trkpt lat="46.008056" lon="11.7304035"><ele>1048.0</ele><time>2026-04-26T12:03:21.663Z</time></trkpt><trkpt lat="46.0081453" lon="11.7303785"><ele>1048.0</ele><time>2026-04-26T12:03:23.608Z</time></trkpt><trkpt lat="46.0082086" lon="11.7303561"><ele>1048.0</ele><time>2026-04-26T12:03:24.68Z</time></trkpt><trkpt lat="46.0083006" lon="11.7303186"><ele>1048.0</ele><time>2026-04-26T12:03:26.668Z</time></trkpt><trkpt lat="46.0083764" lon="11.7302736"><ele>1048.0</ele><time>2026-04-26T12:03:28.666Z</time></trkpt><trkpt lat="46.0084346" lon="11.7302021"><ele>1048.0</ele><time>2026-04-26T12:03:30.676Z</time></trkpt><trkpt lat="46.0084604" lon="11.7301177"><ele>1047.857142857143</ele><time>2026-04-26T12:03:32.696Z</time></trkpt><trkpt lat="46.0084719" lon="11.7300075"><ele>1047.7142857142858</ele><time>2026-04-26T12:03:35.687Z</time></trkpt><trkpt lat="46.0085347" lon="11.7300215"><ele>1047.5714285714287</ele><time>2026-04-26T12:03:40.728Z</time></trkpt><trkpt lat="46.0085658" lon="11.730101"><ele>1047.4285714285716</ele><time>2026-04-26T12:03:45.714Z</time></trkpt><trkpt lat="46.0085896" lon="11.7302034"><ele>1047.2857142857142</ele><time>2026-04-26T12:03:48.669Z</time></trkpt><trkpt lat="46.0086096" lon="11.7302981"><ele>1047.1428571428573</ele><time>2026-04-26T12:03:50.671Z</time></trkpt><trkpt lat="46.0086253" lon="11.7303906"><ele>1047.0</ele><time>2026-04-26T12:03:52.694Z</time></trkpt><trkpt lat="46.0086533" lon="11.7305614"><ele>1041.5</ele><time>2026-04-26T12:03:55.694Z</time></trkpt><trkpt lat="46.0086643" lon="11.7307115"><ele>1036.0</ele><time>2026-04-26T12:03:57.684Z</time></trkpt><trkpt lat="46.0086895" lon="11.7309826"><ele>1030.5</ele><time>2026-04-26T12:03:59.685Z</time></trkpt><trkpt lat="46.008704" lon="11.7311443"><ele>1025.0</ele><time>2026-04-26T12:04:00.679Z</time></trkpt><trkpt lat="46.0087093" lon="11.731242"><ele>1022.142857142857</ele><time>2026-04-26T12:04:01.686Z</time></trkpt><trkpt lat="46.0087104" lon="11.7313345"><ele>1019.2857142857142</ele><time>2026-04-26T12:04:02.68Z</time></trkpt><trkpt lat="46.0087051" lon="11.7314307"><ele>1016.4285714285714</ele><time>2026-04-26T12:04:03.658Z</time></trkpt><trkpt lat="46.008701" lon="11.7315297"><ele>1013.5714285714286</ele><time>2026-04-26T12:04:04.676Z</time></trkpt><trkpt lat="46.0086967" lon="11.7316291"><ele>1010.7142857142858</ele><time>2026-04-26T12:04:05.69Z</time></trkpt><trkpt lat="46.0086893" lon="11.7317278"><ele>1007.857142857143</ele><time>2026-04-26T12:04:06.673Z</time></trkpt><trkpt lat="46.0086757" lon="11.7318303"><ele>1005.0000000000001</ele><time>2026-04-26T12:04:07.652Z</time></trkpt><trkpt lat="46.0086575" lon="11.7319351"><ele>1003.1428571428573</ele><time>2026-04-26T12:04:08.679Z</time></trkpt><trkpt lat="46.0086369" lon="11.7320384"><ele>1001.2857142857143</ele><time>2026-04-26T12:04:09.672Z</time></trkpt><trkpt lat="46.0086214" lon="11.7321483"><ele>999.4285714285716</ele><time>2026-04-26T12:04:10.697Z</time></trkpt><trkpt lat="46.0086083" lon="11.7322534"><ele>997.5714285714287</ele><time>2026-04-26T12:04:11.684Z</time></trkpt><trkpt lat="46.0085992" lon="11.7323608"><ele>995.7142857142858</ele><time>2026-04-26T12:04:12.695Z</time></trkpt><trkpt lat="46.0085812" lon="11.732461"><ele>993.8571428571429</ele><time>2026-04-26T12:04:13.675Z</time></trkpt><trkpt lat="46.0085815" lon="11.7325697"><ele>992.0</ele><time>2026-04-26T12:04:14.667Z</time></trkpt><trkpt lat="46.0085926" lon="11.7326826"><ele>989.6666666666667</ele><time>2026-04-26T12:04:15.699Z</time></trkpt><trkpt lat="46.0086091" lon="11.7327906"><ele>987.3333333333334</ele><time>2026-04-26T12:04:16.681Z</time></trkpt><trkpt lat="46.0086374" lon="11.7329037"><ele>985.0</ele><time>2026-04-26T12:04:17.686Z</time></trkpt><trkpt lat="46.0086641" lon="11.7330166"><ele>982.6666666666667</ele><time>2026-04-26T12:04:18.674Z</time></trkpt><trkpt lat="46.0086888" lon="11.7331294"><ele>980.3333333333334</ele><time>2026-04-26T12:04:19.692Z</time></trkpt><trkpt lat="46.0087226" lon="11.7332367"><ele>978.0</ele><time>2026-04-26T12:04:20.693Z</time></trkpt><trkpt lat="46.0087517" lon="11.7333465"><ele>978.0</ele><time>2026-04-26T12:04:21.684Z</time></trkpt><trkpt lat="46.0087853" lon="11.7334604"><ele>978.0</ele><time>2026-04-26T12:04:22.685Z</time></trkpt><trkpt lat="46.0088143" lon="11.7335712"><ele>978.0</ele><time>2026-04-26T12:04:23.644Z</time></trkpt><trkpt lat="46.0088392" lon="11.7336927"><ele>978.0</ele><time>2026-04-26T12:04:24.674Z</time></trkpt><trkpt lat="46.0088571" lon="11.7338149"><ele>978.0</ele><time>2026-04-26T12:04:25.663Z</time></trkpt><trkpt lat="46.0088689" lon="11.7339401"><ele>978.0</ele><time>2026-04-26T12:04:26.669Z</time></trkpt><trkpt lat="46.0088839" lon="11.7340606"><ele>974.5999999999999</ele><time>2026-04-26T12:04:27.676Z</time></trkpt><trkpt lat="46.0089066" lon="11.7341653"><ele>971.1999999999999</ele><time>2026-04-26T12:04:28.698Z</time></trkpt><trkpt lat="46.0089807" lon="11.7342991"><ele>967.8</ele><time>2026-04-26T12:04:30.665Z</time></trkpt><trkpt lat="46.0090729" lon="11.7343539"><ele>964.4</ele><time>2026-04-26T12:04:32.697Z</time></trkpt><trkpt lat="46.0090491" lon="11.7344825"><ele>961.0</ele><time>2026-04-26T12:04:37.672Z</time></trkpt><trkpt lat="46.0089813" lon="11.7345564"><ele>961.0</ele><time>2026-04-26T12:04:39.661Z</time></trkpt><trkpt lat="46.0089136" lon="11.7345597"><ele>960.9999999999999</ele><time>2026-04-26T12:04:41.678Z</time></trkpt><trkpt lat="46.0088024" lon="11.7344646"><ele>960.9999999999999</ele><time>2026-04-26T12:04:43.673Z</time></trkpt><trkpt lat="46.0086999" lon="11.7343544"><ele>961.0</ele><time>2026-04-26T12:04:45.671Z</time></trkpt><trkpt lat="46.0086323" lon="11.7342309"><ele>961.0</ele><time>2026-04-26T12:04:47.68Z</time></trkpt><trkpt lat="46.008567" lon="11.7341071"><ele>960.9999999999999</ele><time>2026-04-26T12:04:49.686Z</time></trkpt><trkpt lat="46.0085238" lon="11.734036"><ele>961.0</ele><time>2026-04-26T12:04:50.678Z</time></trkpt><trkpt lat="46.0084791" lon="11.7339623"><ele>961.0</ele><time>2026-04-26T12:04:51.671Z</time></trkpt><trkpt lat="46.0084353" lon="11.7338794"><ele>961.0</ele><time>2026-04-26T12:04:52.677Z</time></trkpt><trkpt lat="46.0083711" lon="11.7338053"><ele>960.9999999999999</ele><time>2026-04-26T12:04:53.69Z</time></trkpt><trkpt lat="46.0083096" lon="11.7337361"><ele>961.0</ele><time>2026-04-26T12:04:54.645Z</time></trkpt><trkpt lat="46.0082404" lon="11.733655"><ele>960.9999999999999</ele><time>2026-04-26T12:04:55.68Z</time></trkpt><trkpt lat="46.0081661" lon="11.7335755"><ele>961.0</ele><time>2026-04-26T12:04:56.687Z</time></trkpt><trkpt lat="46.0081047" lon="11.7334892"><ele>961.0</ele><time>2026-04-26T12:04:57.68Z</time></trkpt><trkpt lat="46.0080725" lon="11.7333914"><ele>961.0</ele><time>2026-04-26T12:04:58.686Z</time></trkpt><trkpt lat="46.0080579" lon="11.7333002"><ele>960.9999999999999</ele><time>2026-04-26T12:04:59.669Z</time></trkpt><trkpt lat="46.0080288" lon="11.7331916"><ele>961.0</ele><time>2026-04-26T12:05:01.664Z</time></trkpt><trkpt lat="46.0079956" lon="11.7333412"><ele>961.0</ele><time>2026-04-26T12:05:06.663Z</time></trkpt><trkpt lat="46.0079688" lon="11.7335436"><ele>960.9999999999999</ele><time>2026-04-26T12:05:11.684Z</time></trkpt><trkpt lat="46.0079546" lon="11.7336817"><ele>960.9999999999999</ele><time>2026-04-26T12:05:12.697Z</time></trkpt><trkpt lat="46.0079399" lon="11.7338155"><ele>961.0</ele><time>2026-04-26T12:05:14.685Z</time></trkpt><trkpt lat="46.0079383" lon="11.7339468"><ele>961.0</ele><time>2026-04-26T12:05:16.711Z</time></trkpt><trkpt lat="46.0079419" lon="11.7340798"><ele>960.9999999999999</ele><time>2026-04-26T12:05:18.548Z</time></trkpt><trkpt lat="46.0079462" lon="11.7342286"><ele>961.0</ele><time>2026-04-26T12:05:20.588Z</time></trkpt><trkpt lat="46.0079453" lon="11.7343441"><ele>961.0</ele><time>2026-04-26T12:05:21.664Z</time></trkpt><trkpt lat="46.0079347" lon="11.7344815"><ele>961.0</ele><time>2026-04-26T12:05:22.671Z</time></trkpt><trkpt lat="46.0079085" lon="11.7345988"><ele>960.9999999999999</ele><time>2026-04-26T12:05:23.676Z</time></trkpt><trkpt lat="46.0078942" lon="11.7347108"><ele>961.0</ele><time>2026-04-26T12:05:24.648Z</time></trkpt><trkpt lat="46.007887" lon="11.734822"><ele>958.4</ele><time>2026-04-26T12:05:25.685Z</time></trkpt><trkpt lat="46.0078675" lon="11.734925"><ele>955.8</ele><time>2026-04-26T12:05:26.689Z</time></trkpt><trkpt lat="46.0078464" lon="11.7350988"><ele>953.1999999999999</ele><time>2026-04-26T12:05:28.656Z</time></trkpt><trkpt lat="46.007851" lon="11.7352324"><ele>950.5999999999999</ele><time>2026-04-26T12:05:30.665Z</time></trkpt><trkpt lat="46.0078316" lon="11.7353939"><ele>948.0</ele><time>2026-04-26T12:05:32.688Z</time></trkpt><trkpt lat="46.0078154" lon="11.7354932"><ele>944.0</ele><time>2026-04-26T12:05:33.691Z</time></trkpt><trkpt lat="46.0078026" lon="11.7356044"><ele>940.0</ele><time>2026-04-26T12:05:34.677Z</time></trkpt><trkpt lat="46.0077858" lon="11.7357294"><ele>936.0</ele><time>2026-04-26T12:05:35.707Z</time></trkpt><trkpt lat="46.007769" lon="11.7358477"><ele>932.0</ele><time>2026-04-26T12:05:36.679Z</time></trkpt><trkpt lat="46.007747" lon="11.7359531"><ele>928.0</ele><time>2026-04-26T12:05:37.657Z</time></trkpt><trkpt lat="46.00772" lon="11.7360674"><ele>924.0</ele><time>2026-04-26T12:05:38.677Z</time></trkpt><trkpt lat="46.0077091" lon="11.7361711"><ele>920.5</ele><time>2026-04-26T12:05:39.666Z</time></trkpt><trkpt lat="46.0076531" lon="11.7362334"><ele>917.0</ele><time>2026-04-26T12:05:45.685Z</time></trkpt><trkpt lat="46.0076179" lon="11.7363206"><ele>913.5</ele><time>2026-04-26T12:05:46.677Z</time></trkpt><trkpt lat="46.0075748" lon="11.7364341"><ele>910.0</ele><time>2026-04-26T12:05:47.663Z</time></trkpt><trkpt lat="46.0075365" lon="11.7365838"><ele>906.5</ele><time>2026-04-26T12:05:49.687Z</time></trkpt><trkpt lat="46.007504" lon="11.7367256"><ele>903.0</ele><time>2026-04-26T12:05:51.718Z</time></trkpt><trkpt lat="46.0075239" lon="11.7368408"><ele>908.0</ele><time>2026-04-26T12:05:54.673Z</time></trkpt><trkpt lat="46.0073326" lon="11.7371446"><ele>913.0</ele><time>2026-04-26T12:05:55.68Z</time></trkpt><trkpt lat="46.0071753" lon="11.7373573"><ele>913.0</ele><time>2026-04-26T12:05:56.677Z</time></trkpt><trkpt lat="46.0070965" lon="11.7374696"><ele>913.0</ele><time>2026-04-26T12:05:57.652Z</time></trkpt><trkpt lat="46.0070436" lon="11.7375595"><ele>913.0</ele><time>2026-04-26T12:05:59.665Z</time></trkpt><trkpt lat="46.0069206" lon="11.7379258"><ele>902.6666666666666</ele><time>2026-04-26T12:06:00.683Z</time></trkpt><trkpt lat="46.0068471" lon="11.7381227"><ele>892.3333333333333</ele><time>2026-04-26T12:06:01.678Z</time></trkpt><trkpt lat="46.0067481" lon="11.7384136"><ele>882.0</ele><time>2026-04-26T12:06:02.674Z</time></trkpt><trkpt lat="46.0066969" lon="11.7385147"><ele>882.0</ele><time>2026-04-26T12:06:03.664Z</time></trkpt><trkpt lat="46.0064786" lon="11.7389113"><ele>882.0</ele><time>2026-04-26T12:06:07.673Z</time></trkpt><trkpt lat="46.0063644" lon="11.7391517"><ele>882.0</ele><time>2026-04-26T12:06:08.672Z</time></trkpt><trkpt lat="46.0063229" lon="11.7392474"><ele>882.0</ele><time>2026-04-26T12:06:09.621Z</time></trkpt><trkpt lat="46.0062882" lon="11.7393447"><ele>882.0</ele><time>2026-04-26T12:06:10.599Z</time></trkpt><trkpt lat="46.006281" lon="11.7394429"><ele>882.0</ele><time>2026-04-26T12:06:11.659Z</time></trkpt><trkpt lat="46.006268" lon="11.7395434"><ele>882.0</ele><time>2026-04-26T12:06:13.637Z</time></trkpt><trkpt lat="46.0060959" lon="11.73996"><ele>876.0</ele><time>2026-04-26T12:06:16.687Z</time></trkpt><trkpt lat="46.0060358" lon="11.7400687"><ele>870.0</ele><time>2026-04-26T12:06:17.69Z</time></trkpt><trkpt lat="46.0059352" lon="11.7401847"><ele>864.0</ele><time>2026-04-26T12:06:18.678Z</time></trkpt><trkpt lat="46.0058565" lon="11.7402457"><ele>858.0</ele><time>2026-04-26T12:06:20.686Z</time></trkpt><trkpt lat="46.0058064" lon="11.7403081"><ele>852.0</ele><time>2026-04-26T12:06:21.669Z</time></trkpt><trkpt lat="46.0057069" lon="11.7403837"><ele>850.0</ele><time>2026-04-26T12:06:23.696Z</time></trkpt><trkpt lat="46.005647" lon="11.7404383"><ele>848.0</ele><time>2026-04-26T12:06:25.671Z</time></trkpt><trkpt lat="46.0053944" lon="11.7408759"><ele>841.75</ele><time>2026-04-26T12:06:28.671Z</time></trkpt><trkpt lat="46.0052602" lon="11.741097"><ele>835.5</ele><time>2026-04-26T12:06:29.679Z</time></trkpt><trkpt lat="46.0052062" lon="11.7412021"><ele>829.25</ele><time>2026-04-26T12:06:30.68Z</time></trkpt><trkpt lat="46.0052141" lon="11.741308"><ele>823.0</ele><time>2026-04-26T12:06:31.662Z</time></trkpt><trkpt lat="46.0051879" lon="11.7414509"><ele>828.0</ele><time>2026-04-26T12:06:34.692Z</time></trkpt><trkpt lat="46.0049412" lon="11.7419494"><ele>833.0</ele><time>2026-04-26T12:06:37.683Z</time></trkpt><trkpt lat="46.0048749" lon="11.7420921"><ele>833.0</ele><time>2026-04-26T12:06:38.676Z</time></trkpt><trkpt lat="46.0048045" lon="11.7422329"><ele>833.0</ele><time>2026-04-26T12:06:39.682Z</time></trkpt><trkpt lat="46.0047658" lon="11.7423422"><ele>833.0</ele><time>2026-04-26T12:06:42.672Z</time></trkpt><trkpt lat="46.0046946" lon="11.7426689"><ele>833.0</ele><time>2026-04-26T12:06:45.665Z</time></trkpt><trkpt lat="46.0046123" lon="11.7429854"><ele>826.3333333333334</ele><time>2026-04-26T12:06:46.646Z</time></trkpt><trkpt lat="46.0045899" lon="11.7431374"><ele>819.6666666666667</ele><time>2026-04-26T12:06:47.666Z</time></trkpt><trkpt lat="46.0045873" lon="11.7432894"><ele>813.0</ele><time>2026-04-26T12:06:49.691Z</time></trkpt><trkpt lat="46.0045782" lon="11.7433828"><ele>806.3333333333333</ele><time>2026-04-26T12:06:50.679Z</time></trkpt><trkpt lat="46.0044966" lon="11.7434053"><ele>799.6666666666666</ele><time>2026-04-26T12:06:53.686Z</time></trkpt><trkpt lat="46.0044162" lon="11.7434268"><ele>793.0</ele><time>2026-04-26T12:06:56.648Z</time></trkpt><trkpt lat="46.0041653" lon="11.7437721"><ele>777.5</ele><time>2026-04-26T12:06:58.665Z</time></trkpt><trkpt lat="46.0040146" lon="11.74388"><ele>762.0</ele><time>2026-04-26T12:06:59.673Z</time></trkpt><trkpt lat="46.0038946" lon="11.7439048"><ele>746.5</ele><time>2026-04-26T12:07:00.69Z</time></trkpt><trkpt lat="46.0037945" lon="11.7439016"><ele>731.0</ele><time>2026-04-26T12:07:01.676Z</time></trkpt><trkpt lat="46.0036917" lon="11.743892"><ele>731.0</ele><time>2026-04-26T12:07:02.659Z</time></trkpt><trkpt lat="46.0035826" lon="11.7438524"><ele>731.0</ele><time>2026-04-26T12:07:03.684Z</time></trkpt><trkpt lat="46.0034928" lon="11.7437936"><ele>731.0</ele><time>2026-04-26T12:07:04.673Z</time></trkpt><trkpt lat="46.003401" lon="11.743709"><ele>731.0</ele><time>2026-04-26T12:07:05.682Z</time></trkpt><trkpt lat="46.0033131" lon="11.7436125"><ele>731.0</ele><time>2026-04-26T12:07:06.685Z</time></trkpt><trkpt lat="46.0032319" lon="11.7435149"><ele>734.1666666666666</ele><time>2026-04-26T12:07:07.693Z</time></trkpt><trkpt lat="46.0031568" lon="11.7434357"><ele>737.3333333333333</ele><time>2026-04-26T12:07:08.664Z</time></trkpt><trkpt lat="46.0030766" lon="11.7433675"><ele>740.5</ele><time>2026-04-26T12:07:09.696Z</time></trkpt><trkpt lat="46.0030063" lon="11.7433261"><ele>743.6666666666666</ele><time>2026-04-26T12:07:10.665Z</time></trkpt><trkpt lat="46.0029002" lon="11.7433181"><ele>746.8333333333334</ele><time>2026-04-26T12:07:12.669Z</time></trkpt><trkpt lat="46.0028232" lon="11.7433248"><ele>750.0</ele><time>2026-04-26T12:07:14.687Z</time></trkpt><trkpt lat="46.0027244" lon="11.7433174"><ele>750.0</ele><time>2026-04-26T12:07:16.678Z</time></trkpt><trkpt lat="46.0026495" lon="11.7432822"><ele>750.0</ele><time>2026-04-26T12:07:17.689Z</time></trkpt><trkpt lat="46.0025387" lon="11.7432532"><ele>750.0</ele><time>2026-04-26T12:07:18.689Z</time></trkpt><trkpt lat="46.0024434" lon="11.7432494"><ele>750.0</ele><time>2026-04-26T12:07:19.687Z</time></trkpt><trkpt lat="46.002367" lon="11.7432495"><ele>750.0</ele><time>2026-04-26T12:07:20.676Z</time></trkpt><trkpt lat="46.0023013" lon="11.7432357"><ele>750.0</ele><time>2026-04-26T12:07:21.685Z</time></trkpt><trkpt lat="46.0022177" lon="11.7431947"><ele>744.2</ele><time>2026-04-26T12:07:22.679Z</time></trkpt><trkpt lat="46.0021221" lon="11.7431547"><ele>738.4</ele><time>2026-04-26T12:07:23.688Z</time></trkpt><trkpt lat="46.0020342" lon="11.7431236"><ele>732.5999999999999</ele><time>2026-04-26T12:07:24.681Z</time></trkpt><trkpt lat="46.0019385" lon="11.7430928"><ele>726.8</ele><time>2026-04-26T12:07:25.684Z</time></trkpt><trkpt lat="46.0018331" lon="11.7430721"><ele>721.0</ele><time>2026-04-26T12:07:26.694Z</time></trkpt><trkpt lat="46.0017331" lon="11.74305"><ele>718.5</ele><time>2026-04-26T12:07:27.652Z</time></trkpt><trkpt lat="46.0016376" lon="11.7430469"><ele>716.0</ele><time>2026-04-26T12:07:28.687Z</time></trkpt><trkpt lat="46.0015555" lon="11.7430534"><ele>713.5</ele><time>2026-04-26T12:07:29.696Z</time></trkpt><trkpt lat="46.00148" lon="11.7430381"><ele>711.0</ele><time>2026-04-26T12:07:30.68Z</time></trkpt><trkpt lat="46.0014102" lon="11.7430116"><ele>708.5</ele><time>2026-04-26T12:07:31.688Z</time></trkpt><trkpt lat="46.001329" lon="11.7429623"><ele>706.0</ele><time>2026-04-26T12:07:32.681Z</time></trkpt><trkpt lat="46.0012464" lon="11.7429641"><ele>706.0</ele><time>2026-04-26T12:07:34.68Z</time></trkpt><trkpt lat="46.0011816" lon="11.7429396"><ele>706.0</ele><time>2026-04-26T12:07:37.608Z</time></trkpt><trkpt lat="46.001096" lon="11.7428823"><ele>706.0</ele><time>2026-04-26T12:07:41.726Z</time></trkpt><trkpt lat="46.0008372" lon="11.7427351"><ele>706.0</ele><time>2026-04-26T12:07:44.68Z</time></trkpt><trkpt lat="46.0006192" lon="11.7426324"><ele>707.25</ele><time>2026-04-26T12:07:45.68Z</time></trkpt><trkpt lat="46.0005576" lon="11.7426036"><ele>708.5</ele><time>2026-04-26T12:07:46.712Z</time></trkpt><trkpt lat="46.0004685" lon="11.742558"><ele>709.75</ele><time>2026-04-26T12:07:47.689Z</time></trkpt><trkpt lat="46.0002743" lon="11.7425077"><ele>711.0</ele><time>2026-04-26T12:07:50.68Z</time></trkpt><trkpt lat="46.0001024" lon="11.7424654"><ele>711.0</ele><time>2026-04-26T12:07:51.698Z</time></trkpt><trkpt lat="45.9998881" lon="11.7424148"><ele>711.0</ele><time>2026-04-26T12:07:52.668Z</time></trkpt><trkpt lat="45.9997617" lon="11.7424944"><ele>711.0</ele><time>2026-04-26T12:07:54.664Z</time></trkpt><trkpt lat="45.9994481" lon="11.7424549"><ele>711.0</ele><time>2026-04-26T12:07:58.687Z</time></trkpt><trkpt lat="45.9992829" lon="11.7424345"><ele>711.0</ele><time>2026-04-26T12:07:59.697Z</time></trkpt><trkpt lat="45.9991218" lon="11.7424373"><ele>711.0</ele><time>2026-04-26T12:08:00.672Z</time></trkpt><trkpt lat="45.9990222" lon="11.7425269"><ele>711.0</ele><time>2026-04-26T12:08:02.656Z</time></trkpt><trkpt lat="45.9989687" lon="11.7425799"><ele>709.0</ele><time>2026-04-26T12:08:05.65Z</time></trkpt><trkpt lat="45.9988914" lon="11.7426033"><ele>707.0</ele><time>2026-04-26T12:08:08.669Z</time></trkpt><trkpt lat="45.9986866" lon="11.74276"><ele>705.0</ele><time>2026-04-26T12:08:10.712Z</time></trkpt><trkpt lat="45.9984311" lon="11.7429398"><ele>696.75</ele><time>2026-04-26T12:08:11.665Z</time></trkpt><trkpt lat="45.9983202" lon="11.7429633"><ele>688.5</ele><time>2026-04-26T12:08:13.664Z</time></trkpt><trkpt lat="45.9981604" lon="11.7429714"><ele>680.25</ele><time>2026-04-26T12:08:16.693Z</time></trkpt><trkpt lat="45.9980808" lon="11.7429311"><ele>672.0</ele><time>2026-04-26T12:08:18.712Z</time></trkpt><trkpt lat="45.997975" lon="11.7429589"><ele>672.0</ele><time>2026-04-26T12:08:20.701Z</time></trkpt><trkpt lat="45.9978979" lon="11.7429848"><ele>672.0</ele><time>2026-04-26T12:08:22.678Z</time></trkpt><trkpt lat="45.9978222" lon="11.7430122"><ele>672.0</ele><time>2026-04-26T12:08:24.682Z</time></trkpt><trkpt lat="45.9976259" lon="11.7427238"><ele>672.0</ele><time>2026-04-26T12:08:26.713Z</time></trkpt><trkpt lat="45.9974554" lon="11.7425057"><ele>668.8</ele><time>2026-04-26T12:08:27.669Z</time></trkpt><trkpt lat="45.9973611" lon="11.7424928"><ele>665.6</ele><time>2026-04-26T12:08:28.66Z</time></trkpt><trkpt lat="45.9972895" lon="11.7425042"><ele>662.4</ele><time>2026-04-26T12:08:29.674Z</time></trkpt><trkpt lat="45.997204" lon="11.7424904"><ele>659.1999999999999</ele><time>2026-04-26T12:08:30.684Z</time></trkpt><trkpt lat="45.9971021" lon="11.7425244"><ele>656.0</ele><time>2026-04-26T12:08:32.631Z</time></trkpt><trkpt lat="45.9970285" lon="11.7426344"><ele>654.0</ele><time>2026-04-26T12:08:34.632Z</time></trkpt><trkpt lat="45.9969797" lon="11.7427709"><ele>652.0</ele><time>2026-04-26T12:08:36.616Z</time></trkpt><trkpt lat="45.9969331" lon="11.7429135"><ele>650.0</ele><time>2026-04-26T12:08:38.615Z</time></trkpt><trkpt lat="45.9968829" lon="11.7429855"><ele>648.0</ele><time>2026-04-26T12:08:39.636Z</time></trkpt><trkpt lat="45.9967959" lon="11.7430356"><ele>646.0</ele><time>2026-04-26T12:08:41.617Z</time></trkpt><trkpt lat="45.9967427" lon="11.7431481"><ele>646.0</ele><time>2026-04-26T12:08:44.629Z</time></trkpt><trkpt lat="45.9967048" lon="11.7433043"><ele>646.0</ele><time>2026-04-26T12:08:46.609Z</time></trkpt><trkpt lat="45.9967104" lon="11.7434182"><ele>646.0</ele><time>2026-04-26T12:08:48.631Z</time></trkpt><trkpt lat="45.996694" lon="11.7435064"><ele>646.0</ele><time>2026-04-26T12:08:50.571Z</time></trkpt><trkpt lat="45.9966975" lon="11.7436359"><ele>646.0</ele><time>2026-04-26T12:08:52.685Z</time></trkpt><trkpt lat="45.9967308" lon="11.743803"><ele>644.6666666666667</ele><time>2026-04-26T12:08:55.7Z</time></trkpt><trkpt lat="45.9969241" lon="11.744193"><ele>643.3333333333334</ele><time>2026-04-26T12:08:56.663Z</time></trkpt><trkpt lat="45.9969587" lon="11.7442789"><ele>642.0</ele><time>2026-04-26T12:08:57.834Z</time></trkpt><trkpt lat="45.9969049" lon="11.7443688"><ele>641.9999999999999</ele><time>2026-04-26T12:08:59.168Z</time></trkpt><trkpt lat="45.9968629" lon="11.7444455"><ele>642.0</ele><time>2026-04-26T12:09:01.67Z</time></trkpt><trkpt lat="45.9968642" lon="11.7445501"><ele>642.0</ele><time>2026-04-26T12:09:04.674Z</time></trkpt><trkpt lat="45.9968481" lon="11.7446476"><ele>642.0</ele><time>2026-04-26T12:09:07.676Z</time></trkpt><trkpt lat="45.9968089" lon="11.7445506"><ele>642.0</ele><time>2026-04-26T12:09:14.677Z</time></trkpt><trkpt lat="45.9968014" lon="11.7444506"><ele>641.9999999999999</ele><time>2026-04-26T12:09:19.611Z</time></trkpt><trkpt lat="45.9967717" lon="11.7443487"><ele>642.0</ele><time>2026-04-26T12:09:22.715Z</time></trkpt><trkpt lat="45.9967655" lon="11.7442106"><ele>642.0</ele><time>2026-04-26T12:09:25.661Z</time></trkpt><trkpt lat="45.9967827" lon="11.7441171"><ele>642.0</ele><time>2026-04-26T12:09:29.677Z</time></trkpt><trkpt lat="45.9967061" lon="11.7441064"><ele>642.0</ele><time>2026-04-26T12:09:36.68Z</time></trkpt><trkpt lat="45.9964536" lon="11.7438214"><ele>638.0</ele><time>2026-04-26T12:09:39.663Z</time></trkpt><trkpt lat="45.9962867" lon="11.7436328"><ele>634.0</ele><time>2026-04-26T12:09:40.672Z</time></trkpt><trkpt lat="45.9962087" lon="11.7435473"><ele>630.0</ele><time>2026-04-26T12:09:41.686Z</time></trkpt><trkpt lat="45.9961532" lon="11.7434598"><ele>626.0</ele><time>2026-04-26T12:09:42.689Z</time></trkpt><trkpt lat="45.9960891" lon="11.7433685"><ele>626.0</ele><time>2026-04-26T12:09:44.669Z</time></trkpt><trkpt lat="45.9960337" lon="11.7432869"><ele>626.0</ele><time>2026-04-26T12:09:47.689Z</time></trkpt><trkpt lat="45.9961211" lon="11.7432393"><ele>626.0</ele><time>2026-04-26T12:09:50.672Z</time></trkpt><trkpt lat="45.9961837" lon="11.7431684"><ele>626.0</ele><time>2026-04-26T12:09:56.692Z</time></trkpt><trkpt lat="45.9960879" lon="11.7430253"><ele>626.0</ele><time>2026-04-26T12:09:58.668Z</time></trkpt><trkpt lat="45.9960284" lon="11.742956"><ele>626.0</ele><time>2026-04-26T12:10:00.7Z</time></trkpt><trkpt lat="45.9959614" lon="11.7429224"><ele>626.0</ele><time>2026-04-26T12:10:04.688Z</time></trkpt><trkpt lat="45.9959209" lon="11.7428304"><ele>626.0</ele><time>2026-04-26T12:10:06.663Z</time></trkpt><trkpt lat="45.9958531" lon="11.7426694"><ele>626.0</ele><time>2026-04-26T12:10:08.669Z</time></trkpt><trkpt lat="45.9957585" lon="11.7425446"><ele>626.0</ele><time>2026-04-26T12:10:10.672Z</time></trkpt><trkpt lat="45.995664" lon="11.7424832"><ele>622.3333333333333</ele><time>2026-04-26T12:10:11.668Z</time></trkpt><trkpt lat="45.9955844" lon="11.7424415"><ele>618.6666666666666</ele><time>2026-04-26T12:10:12.673Z</time></trkpt><trkpt lat="45.9954793" lon="11.7424456"><ele>615.0</ele><time>2026-04-26T12:10:14.679Z</time></trkpt><trkpt lat="45.9953862" lon="11.7424813"><ele>611.3333333333334</ele><time>2026-04-26T12:10:16.677Z</time></trkpt><trkpt lat="45.9953138" lon="11.7425043"><ele>607.6666666666667</ele><time>2026-04-26T12:10:17.677Z</time></trkpt><trkpt lat="45.9952381" lon="11.7425357"><ele>604.0</ele><time>2026-04-26T12:10:18.676Z</time></trkpt><trkpt lat="45.9951616" lon="11.7425644"><ele>604.0</ele><time>2026-04-26T12:10:19.688Z</time></trkpt><trkpt lat="45.9950885" lon="11.7426092"><ele>604.0</ele><time>2026-04-26T12:10:20.686Z</time></trkpt><trkpt lat="45.9950161" lon="11.7426534"><ele>604.0</ele><time>2026-04-26T12:10:21.693Z</time></trkpt><trkpt lat="45.9949398" lon="11.7427026"><ele>604.0</ele><time>2026-04-26T12:10:22.689Z</time></trkpt><trkpt lat="45.9948654" lon="11.7427511"><ele>604.0</ele><time>2026-04-26T12:10:23.68Z</time></trkpt><trkpt lat="45.994803" lon="11.7427768"><ele>604.0</ele><time>2026-04-26T12:10:26.678Z</time></trkpt><trkpt lat="45.9947085" lon="11.7427959"><ele>600.0</ele><time>2026-04-26T12:10:39.684Z</time></trkpt><trkpt lat="45.9946483" lon="11.7426971"><ele>596.0</ele><time>2026-04-26T12:10:44.714Z</time></trkpt><trkpt lat="45.9946357" lon="11.7426058"><ele>592.0</ele><time>2026-04-26T12:10:45.669Z</time></trkpt><trkpt lat="45.9946163" lon="11.742481"><ele>588.0</ele><time>2026-04-26T12:10:47.676Z</time></trkpt><trkpt lat="45.9945907" lon="11.7423968"><ele>584.0</ele><time>2026-04-26T12:10:49.663Z</time></trkpt><trkpt lat="45.9945539" lon="11.7423161"><ele>580.0</ele><time>2026-04-26T12:10:51.681Z</time></trkpt><trkpt lat="45.9945176" lon="11.7422123"><ele>580.0</ele><time>2026-04-26T12:10:54.686Z</time></trkpt><trkpt lat="45.9944629" lon="11.7421165"><ele>580.0</ele><time>2026-04-26T12:10:56.68Z</time></trkpt><trkpt lat="45.9943599" lon="11.7415655"><ele>582.5</ele><time>2026-04-26T12:10:58.676Z</time></trkpt><trkpt lat="45.9943293" lon="11.7414028"><ele>585.0</ele><time>2026-04-26T12:10:59.673Z</time></trkpt><trkpt lat="45.9943277" lon="11.7411875"><ele>587.5</ele><time>2026-04-26T12:11:01.674Z</time></trkpt><trkpt lat="45.9943315" lon="11.7410498"><ele>590.0</ele><time>2026-04-26T12:11:02.693Z</time></trkpt><trkpt lat="45.9943511" lon="11.740882"><ele>586.75</ele><time>2026-04-26T12:11:04.703Z</time></trkpt><trkpt lat="45.9943602" lon="11.7407631"><ele>583.5</ele><time>2026-04-26T12:11:06.671Z</time></trkpt><trkpt lat="45.994381" lon="11.740642"><ele>580.25</ele><time>2026-04-26T12:11:08.714Z</time></trkpt><trkpt lat="45.9942538" lon="11.7403204"><ele>577.0</ele><time>2026-04-26T12:11:09.67Z</time></trkpt><trkpt lat="45.9941705" lon="11.7401451"><ele>577.0</ele><time>2026-04-26T12:11:10.686Z</time></trkpt><trkpt lat="45.9940957" lon="11.7399815"><ele>577.0</ele><time>2026-04-26T12:11:11.686Z</time></trkpt><trkpt lat="45.9940436" lon="11.739842"><ele>577.0</ele><time>2026-04-26T12:11:12.607Z</time></trkpt><trkpt lat="45.9939928" lon="11.73976"><ele>577.0</ele><time>2026-04-26T12:11:13.599Z</time></trkpt><trkpt lat="45.9939105" lon="11.7397633"><ele>577.0</ele><time>2026-04-26T12:11:15.697Z</time></trkpt><trkpt lat="45.9938218" lon="11.739797"><ele>577.0</ele><time>2026-04-26T12:11:17.695Z</time></trkpt><trkpt lat="45.9937582" lon="11.7398839"><ele>577.0</ele><time>2026-04-26T12:11:19.678Z</time></trkpt><trkpt lat="45.9937016" lon="11.7399264"><ele>577.0</ele><time>2026-04-26T12:11:21.681Z</time></trkpt><trkpt lat="45.9936396" lon="11.7398743"><ele>577.0</ele><time>2026-04-26T12:11:24.679Z</time></trkpt><trkpt lat="45.9934789" lon="11.7395205"><ele>578.75</ele><time>2026-04-26T12:11:26.675Z</time></trkpt><trkpt lat="45.9933888" lon="11.7393251"><ele>580.5</ele><time>2026-04-26T12:11:27.681Z</time></trkpt><trkpt lat="45.9933233" lon="11.7392069"><ele>582.25</ele><time>2026-04-26T12:11:28.667Z</time></trkpt><trkpt lat="45.9932707" lon="11.7391038"><ele>584.0</ele><time>2026-04-26T12:11:29.68Z</time></trkpt><trkpt lat="45.9932358" lon="11.7389688"><ele>580.2</ele><time>2026-04-26T12:11:30.685Z</time></trkpt><trkpt lat="45.9931956" lon="11.7388228"><ele>576.4</ele><time>2026-04-26T12:11:31.692Z</time></trkpt><trkpt lat="45.9931659" lon="11.7386986"><ele>572.6</ele><time>2026-04-26T12:11:32.683Z</time></trkpt><trkpt lat="45.9931428" lon="11.7386136"><ele>568.8</ele><time>2026-04-26T12:11:33.694Z</time></trkpt><trkpt lat="45.9931662" lon="11.7385092"><ele>565.0</ele><time>2026-04-26T12:11:35.668Z</time></trkpt><trkpt lat="45.9932508" lon="11.7384088"><ele>565.0</ele><time>2026-04-26T12:11:37.656Z</time></trkpt><trkpt lat="45.9931912" lon="11.7382342"><ele>565.0</ele><time>2026-04-26T12:11:39.689Z</time></trkpt><trkpt lat="45.993121" lon="11.7381195"><ele>565.0</ele><time>2026-04-26T12:11:40.705Z</time></trkpt><trkpt lat="45.9930464" lon="11.7380267"><ele>565.0</ele><time>2026-04-26T12:11:41.673Z</time></trkpt><trkpt lat="45.9929897" lon="11.7379471"><ele>565.0</ele><time>2026-04-26T12:11:42.68Z</time></trkpt><trkpt lat="45.992954" lon="11.7378447"><ele>566.6</ele><time>2026-04-26T12:11:43.668Z</time></trkpt><trkpt lat="45.9929369" lon="11.7376994"><ele>568.2</ele><time>2026-04-26T12:11:44.685Z</time></trkpt><trkpt lat="45.9928971" lon="11.7375765"><ele>569.8</ele><time>2026-04-26T12:11:45.69Z</time></trkpt><trkpt lat="45.9928494" lon="11.7374741"><ele>571.4</ele><time>2026-04-26T12:11:46.669Z</time></trkpt><trkpt lat="45.9927641" lon="11.7373363"><ele>573.0</ele><time>2026-04-26T12:11:49.681Z</time></trkpt><trkpt lat="45.9927238" lon="11.7372626"><ele>573.0</ele><time>2026-04-26T12:11:50.686Z</time></trkpt><trkpt lat="45.9926701" lon="11.7371305"><ele>573.0</ele><time>2026-04-26T12:11:52.69Z</time></trkpt><trkpt lat="45.9926542" lon="11.7370027"><ele>573.0</ele><time>2026-04-26T12:11:54.596Z</time></trkpt><trkpt lat="45.9926378" lon="11.7369125"><ele>573.0</ele><time>2026-04-26T12:11:55.71Z</time></trkpt><trkpt lat="45.9926524" lon="11.7367662"><ele>573.0</ele><time>2026-04-26T12:11:57.694Z</time></trkpt><trkpt lat="45.9926044" lon="11.7367048"><ele>573.0</ele><time>2026-04-26T12:11:59.666Z</time></trkpt><trkpt lat="45.9925712" lon="11.7367918"><ele>568.0</ele><time>2026-04-26T12:12:01.682Z</time></trkpt><trkpt lat="45.9925019" lon="11.7368187"><ele>563.0</ele><time>2026-04-26T12:12:03.702Z</time></trkpt><trkpt lat="45.9924422" lon="11.7369403"><ele>558.0</ele><time>2026-04-26T12:12:05.697Z</time></trkpt><trkpt lat="45.9924213" lon="11.7370804"><ele>553.0</ele><time>2026-04-26T12:12:07.688Z</time></trkpt><trkpt lat="45.9924157" lon="11.7371827"><ele>548.0</ele><time>2026-04-26T12:12:08.688Z</time></trkpt><trkpt lat="45.9924136" lon="11.7373004"><ele>543.0</ele><time>2026-04-26T12:12:09.67Z</time></trkpt><trkpt lat="45.992409" lon="11.7374117"><ele>542.5</ele><time>2026-04-26T12:12:10.671Z</time></trkpt><trkpt lat="45.9923966" lon="11.7375091"><ele>542.0</ele><time>2026-04-26T12:12:11.679Z</time></trkpt><trkpt lat="45.992378" lon="11.7376509"><ele>541.5</ele><time>2026-04-26T12:12:13.691Z</time></trkpt><trkpt lat="45.9923472" lon="11.7377783"><ele>541.0</ele><time>2026-04-26T12:12:15.685Z</time></trkpt><trkpt lat="45.9922954" lon="11.7378752"><ele>540.5</ele><time>2026-04-26T12:12:16.697Z</time></trkpt><trkpt lat="45.9922383" lon="11.7379832"><ele>540.0</ele><time>2026-04-26T12:12:17.697Z</time></trkpt><trkpt lat="45.9921845" lon="11.738086"><ele>539.7142857142857</ele><time>2026-04-26T12:12:18.692Z</time></trkpt><trkpt lat="45.992131" lon="11.7381796"><ele>539.4285714285713</ele><time>2026-04-26T12:12:19.683Z</time></trkpt><trkpt lat="45.9920814" lon="11.7382609"><ele>539.1428571428571</ele><time>2026-04-26T12:12:20.692Z</time></trkpt><trkpt lat="45.9920237" lon="11.7383093"><ele>538.8571428571429</ele><time>2026-04-26T12:12:21.672Z</time></trkpt><trkpt lat="45.9919557" lon="11.7383291"><ele>538.5714285714287</ele><time>2026-04-26T12:12:22.678Z</time></trkpt><trkpt lat="45.9918818" lon="11.7383539"><ele>538.2857142857143</ele><time>2026-04-26T12:12:23.69Z</time></trkpt><trkpt lat="45.9918133" lon="11.7383989"><ele>538.0</ele><time>2026-04-26T12:12:24.677Z</time></trkpt><trkpt lat="45.9917364" lon="11.7384498"><ele>536.3333333333334</ele><time>2026-04-26T12:12:25.682Z</time></trkpt><trkpt lat="45.9916306" lon="11.7384673"><ele>534.6666666666667</ele><time>2026-04-26T12:12:27.7Z</time></trkpt><trkpt lat="45.9915229" lon="11.7385566"><ele>533.0</ele><time>2026-04-26T12:12:28.695Z</time></trkpt><trkpt lat="45.9914857" lon="11.7386401"><ele>531.3333333333334</ele><time>2026-04-26T12:12:29.637Z</time></trkpt><trkpt lat="45.9914611" lon="11.7387429"><ele>529.6666666666666</ele><time>2026-04-26T12:12:30.659Z</time></trkpt><trkpt lat="45.9914308" lon="11.7388393"><ele>528.0</ele><time>2026-04-26T12:12:31.631Z</time></trkpt><trkpt lat="45.9913483" lon="11.7388976"><ele>528.0</ele><time>2026-04-26T12:12:32.682Z</time></trkpt><trkpt lat="45.9912905" lon="11.7389375"><ele>528.0</ele><time>2026-04-26T12:12:33.68Z</time></trkpt><trkpt lat="45.9912647" lon="11.7390607"><ele>528.0</ele><time>2026-04-26T12:12:35.701Z</time></trkpt><trkpt lat="45.9912646" lon="11.7391665"><ele>528.0</ele><time>2026-04-26T12:12:36.664Z</time></trkpt><trkpt lat="45.9912647" lon="11.7392887"><ele>528.0</ele><time>2026-04-26T12:12:37.663Z</time></trkpt><trkpt lat="45.9912661" lon="11.7394071"><ele>528.0</ele><time>2026-04-26T12:12:38.688Z</time></trkpt><trkpt lat="45.9912371" lon="11.7395714"><ele>526.1999999999999</ele><time>2026-04-26T12:12:40.69Z</time></trkpt><trkpt lat="45.991156" lon="11.7397077"><ele>524.4</ele><time>2026-04-26T12:12:42.689Z</time></trkpt><trkpt lat="45.9911031" lon="11.7397846"><ele>522.5999999999999</ele><time>2026-04-26T12:12:43.688Z</time></trkpt><trkpt lat="45.9910242" lon="11.7399044"><ele>520.8</ele><time>2026-04-26T12:12:45.685Z</time></trkpt><trkpt lat="45.9909143" lon="11.7399435"><ele>519.0</ele><time>2026-04-26T12:12:47.687Z</time></trkpt><trkpt lat="45.9908527" lon="11.739968"><ele>516.5</ele><time>2026-04-26T12:12:48.689Z</time></trkpt><trkpt lat="45.9907828" lon="11.7400068"><ele>514.0</ele><time>2026-04-26T12:12:49.695Z</time></trkpt><trkpt lat="45.9907176" lon="11.740045"><ele>511.5</ele><time>2026-04-26T12:12:50.693Z</time></trkpt><trkpt lat="45.9906284" lon="11.74011"><ele>509.0</ele><time>2026-04-26T12:12:52.68Z</time></trkpt><trkpt lat="45.9905486" lon="11.7401693"><ele>506.5</ele><time>2026-04-26T12:12:54.662Z</time></trkpt><trkpt lat="45.9904644" lon="11.7402652"><ele>504.0</ele><time>2026-04-26T12:12:56.689Z</time></trkpt><trkpt lat="45.9903892" lon="11.7403898"><ele>504.0</ele><time>2026-04-26T12:12:58.71Z</time></trkpt><trkpt lat="45.9903554" lon="11.7404732"><ele>504.0</ele><time>2026-04-26T12:12:59.691Z</time></trkpt><trkpt lat="45.9903317" lon="11.7405594"><ele>504.0</ele><time>2026-04-26T12:13:00.698Z</time></trkpt><trkpt lat="45.9903195" lon="11.7406531"><ele>504.0</ele><time>2026-04-26T12:13:01.69Z</time></trkpt><trkpt lat="45.9903145" lon="11.7407662"><ele>504.0</ele><time>2026-04-26T12:13:02.691Z</time></trkpt><trkpt lat="45.9903094" lon="11.7409038"><ele>504.0</ele><time>2026-04-26T12:13:03.691Z</time></trkpt><trkpt lat="45.9903052" lon="11.7410795"><ele>502.66666666666663</ele><time>2026-04-26T12:13:04.653Z</time></trkpt><trkpt lat="45.9902993" lon="11.7412971"><ele>501.3333333333333</ele><time>2026-04-26T12:13:05.653Z</time></trkpt><trkpt lat="45.9903026" lon="11.7415399"><ele>500.0</ele><time>2026-04-26T12:13:06.637Z</time></trkpt><trkpt lat="45.9903106" lon="11.7417767"><ele>499.2</ele><time>2026-04-26T12:13:07.618Z</time></trkpt><trkpt lat="45.9903021" lon="11.7419766"><ele>498.4</ele><time>2026-04-26T12:13:08.632Z</time></trkpt><trkpt lat="45.9902957" lon="11.7421113"><ele>497.6</ele><time>2026-04-26T12:13:09.634Z</time></trkpt><trkpt lat="45.99029" lon="11.7422179"><ele>496.8</ele><time>2026-04-26T12:13:10.641Z</time></trkpt><trkpt lat="45.9902921" lon="11.7423132"><ele>496.0</ele><time>2026-04-26T12:13:11.633Z</time></trkpt><trkpt lat="45.9902891" lon="11.7424286"><ele>496.00000000000006</ele><time>2026-04-26T12:13:13.635Z</time></trkpt><trkpt lat="45.9902157" lon="11.7424819"><ele>496.0</ele><time>2026-04-26T12:13:16.639Z</time></trkpt><trkpt lat="45.9901458" lon="11.7425116"><ele>496.0</ele><time>2026-04-26T12:13:17.633Z</time></trkpt><trkpt lat="45.9900584" lon="11.7425309"><ele>496.0</ele><time>2026-04-26T12:13:18.656Z</time></trkpt><trkpt lat="45.9899597" lon="11.7425347"><ele>496.00000000000006</ele><time>2026-04-26T12:13:19.642Z</time></trkpt><trkpt lat="45.989872" lon="11.7425477"><ele>496.0</ele><time>2026-04-26T12:13:20.601Z</time></trkpt><trkpt lat="45.9897983" lon="11.7425829"><ele>496.00000000000006</ele><time>2026-04-26T12:13:21.643Z</time></trkpt><trkpt lat="45.9897014" lon="11.7426551"><ele>496.0</ele><time>2026-04-26T12:13:23.643Z</time></trkpt><trkpt lat="45.9896612" lon="11.7427558"><ele>496.0</ele><time>2026-04-26T12:13:25.651Z</time></trkpt><trkpt lat="45.9896367" lon="11.7428819"><ele>496.0</ele><time>2026-04-26T12:13:27.605Z</time></trkpt><trkpt lat="45.98962" lon="11.7430271"><ele>496.00000000000006</ele><time>2026-04-26T12:13:29.639Z</time></trkpt><trkpt lat="45.9896299" lon="11.7431169"><ele>496.0</ele><time>2026-04-26T12:13:30.65Z</time></trkpt><trkpt lat="45.9896469" lon="11.7432131"><ele>496.0</ele><time>2026-04-26T12:13:31.649Z</time></trkpt><trkpt lat="45.989662" lon="11.7433093"><ele>496.00000000000006</ele><time>2026-04-26T12:13:32.636Z</time></trkpt><trkpt lat="45.9896727" lon="11.743406"><ele>496.0</ele><time>2026-04-26T12:13:33.634Z</time></trkpt><trkpt lat="45.9896791" lon="11.7435008"><ele>496.0</ele><time>2026-04-26T12:13:34.636Z</time></trkpt><trkpt lat="45.9896817" lon="11.7435986"><ele>496.00000000000006</ele><time>2026-04-26T12:13:35.647Z</time></trkpt><trkpt lat="45.9896836" lon="11.7436969"><ele>496.0</ele><time>2026-04-26T12:13:36.621Z</time></trkpt><trkpt lat="45.9896959" lon="11.7438233"><ele>496.0</ele><time>2026-04-26T12:13:37.642Z</time></trkpt><trkpt lat="45.98971" lon="11.7439491"><ele>494.83333333333337</ele><time>2026-04-26T12:13:38.637Z</time></trkpt><trkpt lat="45.9897165" lon="11.744061"><ele>493.6666666666667</ele><time>2026-04-26T12:13:39.615Z</time></trkpt><trkpt lat="45.9897193" lon="11.7441689"><ele>492.5</ele><time>2026-04-26T12:13:40.609Z</time></trkpt><trkpt lat="45.9897229" lon="11.7442798"><ele>491.33333333333337</ele><time>2026-04-26T12:13:41.64Z</time></trkpt><trkpt lat="45.9897325" lon="11.7443894"><ele>490.1666666666667</ele><time>2026-04-26T12:13:42.63Z</time></trkpt><trkpt lat="45.9897521" lon="11.744502"><ele>489.0</ele><time>2026-04-26T12:13:43.633Z</time></trkpt><trkpt lat="45.9897807" lon="11.7446208"><ele>487.6666666666667</ele><time>2026-04-26T12:13:44.635Z</time></trkpt><trkpt lat="45.9898115" lon="11.7447354"><ele>486.33333333333337</ele><time>2026-04-26T12:13:45.633Z</time></trkpt><trkpt lat="45.9898403" lon="11.7448496"><ele>485.0</ele><time>2026-04-26T12:13:46.636Z</time></trkpt><trkpt lat="45.9898687" lon="11.7449655"><ele>483.6666666666667</ele><time>2026-04-26T12:13:47.648Z</time></trkpt><trkpt lat="45.9898857" lon="11.745084"><ele>482.33333333333337</ele><time>2026-04-26T12:13:48.624Z</time></trkpt><trkpt lat="45.9899043" lon="11.7451983"><ele>481.0</ele><time>2026-04-26T12:13:49.632Z</time></trkpt><trkpt lat="45.9899234" lon="11.7453042"><ele>480.1666666666667</ele><time>2026-04-26T12:13:50.622Z</time></trkpt><trkpt lat="45.9899406" lon="11.7454108"><ele>479.33333333333337</ele><time>2026-04-26T12:13:51.64Z</time></trkpt><trkpt lat="45.9899554" lon="11.7455018"><ele>478.5</ele><time>2026-04-26T12:13:52.62Z</time></trkpt><trkpt lat="45.9899744" lon="11.7455883"><ele>477.66666666666663</ele><time>2026-04-26T12:13:53.63Z</time></trkpt><trkpt lat="45.9900081" lon="11.7457521"><ele>476.8333333333333</ele><time>2026-04-26T12:13:55.646Z</time></trkpt><trkpt lat="45.9900171" lon="11.7458821"><ele>476.0</ele><time>2026-04-26T12:13:57.644Z</time></trkpt><trkpt lat="45.9900137" lon="11.7460131"><ele>474.8</ele><time>2026-04-26T12:13:59.629Z</time></trkpt><trkpt lat="45.9899726" lon="11.7461877"><ele>473.6</ele><time>2026-04-26T12:14:01.629Z</time></trkpt><trkpt lat="45.9899327" lon="11.746288"><ele>472.4</ele><time>2026-04-26T12:14:02.618Z</time></trkpt><trkpt lat="45.9898812" lon="11.7463888"><ele>471.2</ele><time>2026-04-26T12:14:03.633Z</time></trkpt><trkpt lat="45.9898098" lon="11.7464791"><ele>470.0</ele><time>2026-04-26T12:14:04.642Z</time></trkpt><trkpt lat="45.9897387" lon="11.7465504"><ele>470.0</ele><time>2026-04-26T12:14:05.616Z</time></trkpt><trkpt lat="45.98967" lon="11.7466233"><ele>469.99999999999994</ele><time>2026-04-26T12:14:06.631Z</time></trkpt><trkpt lat="45.9896031" lon="11.7466907"><ele>470.0</ele><time>2026-04-26T12:14:07.615Z</time></trkpt><trkpt lat="45.9895666" lon="11.746775"><ele>470.0</ele><time>2026-04-26T12:14:08.639Z</time></trkpt><trkpt lat="45.9895638" lon="11.7468779"><ele>469.99999999999994</ele><time>2026-04-26T12:14:09.601Z</time></trkpt><trkpt lat="45.9895637" lon="11.7469841"><ele>470.0</ele><time>2026-04-26T12:14:10.608Z</time></trkpt><trkpt lat="45.9895553" lon="11.7470748"><ele>470.0</ele><time>2026-04-26T12:14:11.6Z</time></trkpt><trkpt lat="45.9895077" lon="11.7471539"><ele>470.0</ele><time>2026-04-26T12:14:12.605Z</time></trkpt><trkpt lat="45.9894364" lon="11.7472078"><ele>470.0</ele><time>2026-04-26T12:14:13.619Z</time></trkpt><trkpt lat="45.9893682" lon="11.7472686"><ele>470.0</ele><time>2026-04-26T12:14:14.605Z</time></trkpt><trkpt lat="45.989269" lon="11.7473251"><ele>470.0</ele><time>2026-04-26T12:14:15.602Z</time></trkpt><trkpt lat="45.9891796" lon="11.7474011"><ele>470.0</ele><time>2026-04-26T12:14:16.605Z</time></trkpt><trkpt lat="45.9890871" lon="11.7474896"><ele>469.99999999999994</ele><time>2026-04-26T12:14:17.604Z</time></trkpt><trkpt lat="45.9890035" lon="11.7475653"><ele>470.0</ele><time>2026-04-26T12:14:18.608Z</time></trkpt><trkpt lat="45.9889297" lon="11.7476198"><ele>470.0</ele><time>2026-04-26T12:14:19.612Z</time></trkpt><trkpt lat="45.9888567" lon="11.7476601"><ele>470.0</ele><time>2026-04-26T12:14:20.61Z</time></trkpt><trkpt lat="45.988788" lon="11.7476967"><ele>469.99999999999994</ele><time>2026-04-26T12:14:21.61Z</time></trkpt><trkpt lat="45.9887043" lon="11.7477444"><ele>470.0</ele><time>2026-04-26T12:14:22.609Z</time></trkpt><trkpt lat="45.9886297" lon="11.7477905"><ele>471.0</ele><time>2026-04-26T12:14:23.622Z</time></trkpt><trkpt lat="45.9885487" lon="11.7478333"><ele>472.0</ele><time>2026-04-26T12:14:24.617Z</time></trkpt><trkpt lat="45.9884514" lon="11.7478923"><ele>473.0</ele><time>2026-04-26T12:14:25.94Z</time></trkpt><trkpt lat="45.9883171" lon="11.7480162"><ele>474.0</ele><time>2026-04-26T12:14:27.658Z</time></trkpt><trkpt lat="45.9882314" lon="11.7480876"><ele>471.6</ele><time>2026-04-26T12:14:28.657Z</time></trkpt><trkpt lat="45.9881406" lon="11.748157"><ele>469.2</ele><time>2026-04-26T12:14:29.653Z</time></trkpt><trkpt lat="45.9880488" lon="11.7482208"><ele>466.80000000000007</ele><time>2026-04-26T12:14:30.651Z</time></trkpt><trkpt lat="45.9879601" lon="11.74828"><ele>464.40000000000003</ele><time>2026-04-26T12:14:31.657Z</time></trkpt><trkpt lat="45.9878747" lon="11.7483406"><ele>462.0</ele><time>2026-04-26T12:14:32.657Z</time></trkpt><trkpt lat="45.9877924" lon="11.7484014"><ele>462.0</ele><time>2026-04-26T12:14:33.654Z</time></trkpt><trkpt lat="45.987716" lon="11.7484695"><ele>462.0</ele><time>2026-04-26T12:14:34.659Z</time></trkpt><trkpt lat="45.9876486" lon="11.7485563"><ele>462.0</ele><time>2026-04-26T12:14:35.67Z</time></trkpt><trkpt lat="45.9875964" lon="11.7486528"><ele>462.0</ele><time>2026-04-26T12:14:36.66Z</time></trkpt><trkpt lat="45.9875599" lon="11.7487608"><ele>462.0</ele><time>2026-04-26T12:14:37.668Z</time></trkpt><trkpt lat="45.9875341" lon="11.7488638"><ele>462.0</ele><time>2026-04-26T12:14:38.662Z</time></trkpt><trkpt lat="45.9875091" lon="11.7489521"><ele>458.8333333333333</ele><time>2026-04-26T12:14:39.659Z</time></trkpt><trkpt lat="45.9874798" lon="11.7490337"><ele>455.66666666666663</ele><time>2026-04-26T12:14:40.666Z</time></trkpt><trkpt lat="45.9874338" lon="11.7491563"><ele>452.5</ele><time>2026-04-26T12:14:42.66Z</time></trkpt><trkpt lat="45.987388" lon="11.7492594"><ele>449.3333333333333</ele><time>2026-04-26T12:14:44.662Z</time></trkpt><trkpt lat="45.9873386" lon="11.7493838"><ele>446.16666666666663</ele><time>2026-04-26T12:14:46.653Z</time></trkpt><trkpt lat="45.9872746" lon="11.7494394"><ele>443.0</ele><time>2026-04-26T12:14:48.659Z</time></trkpt><trkpt lat="45.9871932" lon="11.7494909"><ele>440.59999999999997</ele><time>2026-04-26T12:14:50.668Z</time></trkpt><trkpt lat="45.9871017" lon="11.7495735"><ele>438.19999999999993</ele><time>2026-04-26T12:14:52.606Z</time></trkpt><trkpt lat="45.9870151" lon="11.749678"><ele>435.8</ele><time>2026-04-26T12:14:54.61Z</time></trkpt><trkpt lat="45.9869238" lon="11.7497459"><ele>433.4</ele><time>2026-04-26T12:14:56.6Z</time></trkpt><trkpt lat="45.9868583" lon="11.7497613"><ele>431.0</ele><time>2026-04-26T12:14:59.601Z</time></trkpt><trkpt lat="45.9867834" lon="11.7497796"><ele>431.0</ele><time>2026-04-26T12:15:01.612Z</time></trkpt><trkpt lat="45.9867144" lon="11.7498111"><ele>431.0</ele><time>2026-04-26T12:15:04.593Z</time></trkpt><trkpt lat="45.9864681" lon="11.7498729"><ele>431.0</ele><time>2026-04-26T12:15:08.636Z</time></trkpt><trkpt lat="45.9861904" lon="11.7499035"><ele>431.0</ele><time>2026-04-26T12:15:09.636Z</time></trkpt><trkpt lat="45.9860877" lon="11.7499162"><ele>431.0</ele><time>2026-04-26T12:15:10.612Z</time></trkpt><trkpt lat="45.986019" lon="11.7499708"><ele>431.0</ele><time>2026-04-26T12:15:11.964Z</time></trkpt><trkpt lat="45.9859469" lon="11.7500044"><ele>431.0</ele><time>2026-04-26T12:15:14.325Z</time></trkpt><trkpt lat="45.9858653" lon="11.7500988"><ele>431.0</ele><time>2026-04-26T12:15:15.694Z</time></trkpt><trkpt lat="45.9857623" lon="11.7501642"><ele>427.3333333333333</ele><time>2026-04-26T12:15:18.7Z</time></trkpt><trkpt lat="45.98568" lon="11.7501475"><ele>423.66666666666663</ele><time>2026-04-26T12:15:20.678Z</time></trkpt><trkpt lat="45.9853873" lon="11.7499858"><ele>420.0</ele><time>2026-04-26T12:15:22.675Z</time></trkpt><trkpt lat="45.9852771" lon="11.7499648"><ele>420.0</ele><time>2026-04-26T12:15:23.676Z</time></trkpt><trkpt lat="45.9851612" lon="11.7497976"><ele>420.0</ele><time>2026-04-26T12:15:24.691Z</time></trkpt><trkpt lat="45.985113" lon="11.7496874"><ele>420.0</ele><time>2026-04-26T12:15:25.689Z</time></trkpt><trkpt lat="45.9850767" lon="11.7495214"><ele>420.0</ele><time>2026-04-26T12:15:27.663Z</time></trkpt><trkpt lat="45.9850671" lon="11.7494256"><ele>420.0</ele><time>2026-04-26T12:15:28.701Z</time></trkpt><trkpt lat="45.9850755" lon="11.749244"><ele>420.3333333333333</ele><time>2026-04-26T12:15:30.677Z</time></trkpt><trkpt lat="45.9850605" lon="11.7491524"><ele>420.66666666666663</ele><time>2026-04-26T12:15:31.696Z</time></trkpt><trkpt lat="45.9849761" lon="11.7490592"><ele>421.0</ele><time>2026-04-26T12:15:33.596Z</time></trkpt><trkpt lat="45.9848756" lon="11.749046"><ele>421.3333333333333</ele><time>2026-04-26T12:15:35.696Z</time></trkpt><trkpt lat="45.9847853" lon="11.7490377"><ele>421.66666666666663</ele><time>2026-04-26T12:15:36.673Z</time></trkpt><trkpt lat="45.9847231" lon="11.7490588"><ele>422.0</ele><time>2026-04-26T12:15:37.595Z</time></trkpt><trkpt lat="45.9846356" lon="11.7490878"><ele>418.16666666666663</ele><time>2026-04-26T12:15:38.697Z</time></trkpt><trkpt lat="45.9845654" lon="11.7491252"><ele>414.3333333333333</ele><time>2026-04-26T12:15:39.678Z</time></trkpt><trkpt lat="45.9844839" lon="11.7491778"><ele>410.5</ele><time>2026-04-26T12:15:40.628Z</time></trkpt><trkpt lat="45.9844199" lon="11.7492419"><ele>406.66666666666663</ele><time>2026-04-26T12:15:41.612Z</time></trkpt><trkpt lat="45.9843725" lon="11.7493078"><ele>402.8333333333333</ele><time>2026-04-26T12:15:42.609Z</time></trkpt><trkpt lat="45.9843407" lon="11.7494362"><ele>399.0</ele><time>2026-04-26T12:15:45.625Z</time></trkpt><trkpt lat="45.9843004" lon="11.7495578"><ele>398.79999999999995</ele><time>2026-04-26T12:15:47.632Z</time></trkpt><trkpt lat="45.9842745" lon="11.7497125"><ele>398.59999999999997</ele><time>2026-04-26T12:15:49.631Z</time></trkpt><trkpt lat="45.9842832" lon="11.7498343"><ele>398.4</ele><time>2026-04-26T12:15:50.636Z</time></trkpt><trkpt lat="45.9843044" lon="11.7499819"><ele>398.2</ele><time>2026-04-26T12:15:51.66Z</time></trkpt><trkpt lat="45.9843384" lon="11.75011"><ele>398.0</ele><time>2026-04-26T12:15:52.646Z</time></trkpt><trkpt lat="45.9843875" lon="11.750227"><ele>396.79999999999995</ele><time>2026-04-26T12:15:53.623Z</time></trkpt><trkpt lat="45.9844475" lon="11.7503523"><ele>395.6</ele><time>2026-04-26T12:15:54.636Z</time></trkpt><trkpt lat="45.9845037" lon="11.7504799"><ele>394.4</ele><time>2026-04-26T12:15:55.617Z</time></trkpt><trkpt lat="45.9845555" lon="11.7506159"><ele>393.20000000000005</ele><time>2026-04-26T12:15:56.607Z</time></trkpt><trkpt lat="45.9846024" lon="11.7507614"><ele>392.0</ele><time>2026-04-26T12:15:57.622Z</time></trkpt><trkpt lat="45.9846412" lon="11.7509133"><ele>390.8</ele><time>2026-04-26T12:15:58.63Z</time></trkpt><trkpt lat="45.9846665" lon="11.7510539"><ele>389.6</ele><time>2026-04-26T12:15:59.621Z</time></trkpt><trkpt lat="45.984689" lon="11.7512018"><ele>388.40000000000003</ele><time>2026-04-26T12:16:00.624Z</time></trkpt><trkpt lat="45.9847114" lon="11.7513442"><ele>387.20000000000005</ele><time>2026-04-26T12:16:01.671Z</time></trkpt><trkpt lat="45.984734" lon="11.7514795"><ele>386.0</ele><time>2026-04-26T12:16:02.633Z</time></trkpt><trkpt lat="45.9847513" lon="11.7516311"><ele>386.0</ele><time>2026-04-26T12:16:03.63Z</time></trkpt><trkpt lat="45.9847684" lon="11.7517773"><ele>386.0</ele><time>2026-04-26T12:16:04.642Z</time></trkpt><trkpt lat="45.9847857" lon="11.7519015"><ele>386.0</ele><time>2026-04-26T12:16:05.632Z</time></trkpt><trkpt lat="45.9848081" lon="11.7520186"><ele>386.0</ele><time>2026-04-26T12:16:06.639Z</time></trkpt><trkpt lat="45.9848336" lon="11.7521236"><ele>386.0</ele><time>2026-04-26T12:16:07.651Z</time></trkpt><trkpt lat="45.9848745" lon="11.7522543"><ele>386.20000000000005</ele><time>2026-04-26T12:16:09.631Z</time></trkpt><trkpt lat="45.9849531" lon="11.7523744"><ele>386.40000000000003</ele><time>2026-04-26T12:16:11.628Z</time></trkpt><trkpt lat="45.9850096" lon="11.7524767"><ele>386.6</ele><time>2026-04-26T12:16:12.647Z</time></trkpt><trkpt lat="45.9850581" lon="11.7526105"><ele>386.8</ele><time>2026-04-26T12:16:13.654Z</time></trkpt><trkpt lat="45.9850944" lon="11.7527176"><ele>387.0</ele><time>2026-04-26T12:16:14.639Z</time></trkpt><trkpt lat="45.9851342" lon="11.7528462"><ele>384.3333333333333</ele><time>2026-04-26T12:16:15.964Z</time></trkpt><trkpt lat="45.9851085" lon="11.7529514"><ele>381.6666666666667</ele><time>2026-04-26T12:16:18.667Z</time></trkpt><trkpt lat="45.9851062" lon="11.7530679"><ele>379.0</ele><time>2026-04-26T12:16:19.701Z</time></trkpt><trkpt lat="45.9851301" lon="11.7531857"><ele>376.33333333333337</ele><time>2026-04-26T12:16:20.694Z</time></trkpt><trkpt lat="45.9851577" lon="11.7532822"><ele>373.6666666666667</ele><time>2026-04-26T12:16:21.674Z</time></trkpt><trkpt lat="45.9851845" lon="11.7533944"><ele>371.0</ele><time>2026-04-26T12:16:23.693Z</time></trkpt><trkpt lat="45.98527" lon="11.7536711"><ele>369.6666666666667</ele><time>2026-04-26T12:16:33.678Z</time></trkpt><trkpt lat="45.9853163" lon="11.7538334"><ele>368.33333333333337</ele><time>2026-04-26T12:16:34.676Z</time></trkpt><trkpt lat="45.9853587" lon="11.7539566"><ele>367.0</ele><time>2026-04-26T12:16:35.702Z</time></trkpt><trkpt lat="45.9853941" lon="11.7540595"><ele>365.6666666666667</ele><time>2026-04-26T12:16:36.693Z</time></trkpt><trkpt lat="45.9854252" lon="11.7541632"><ele>364.3333333333333</ele><time>2026-04-26T12:16:37.706Z</time></trkpt><trkpt lat="45.9854454" lon="11.754259"><ele>363.0</ele><time>2026-04-26T12:16:38.683Z</time></trkpt><trkpt lat="45.9854768" lon="11.7543685"><ele>363.3333333333333</ele><time>2026-04-26T12:16:40.703Z</time></trkpt><trkpt lat="45.9854964" lon="11.754472"><ele>363.6666666666667</ele><time>2026-04-26T12:16:44.63Z</time></trkpt><trkpt lat="45.9855378" lon="11.7545491"><ele>364.0</ele><time>2026-04-26T12:16:47.634Z</time></trkpt><trkpt lat="45.9856562" lon="11.7545357"><ele>364.33333333333337</ele><time>2026-04-26T12:16:49.631Z</time></trkpt><trkpt lat="45.9857369" lon="11.7544927"><ele>364.6666666666667</ele><time>2026-04-26T12:16:50.649Z</time></trkpt><trkpt lat="45.9858262" lon="11.7544362"><ele>365.0</ele><time>2026-04-26T12:16:51.629Z</time></trkpt><trkpt lat="45.9859229" lon="11.7543733"><ele>364.0</ele><time>2026-04-26T12:16:52.628Z</time></trkpt><trkpt lat="45.9860255" lon="11.754294"><ele>363.0</ele><time>2026-04-26T12:16:53.644Z</time></trkpt><trkpt lat="45.9861242" lon="11.7542186"><ele>362.0</ele><time>2026-04-26T12:16:54.655Z</time></trkpt><trkpt lat="45.98619" lon="11.7541565"><ele>361.0</ele><time>2026-04-26T12:16:55.634Z</time></trkpt><trkpt lat="45.9862658" lon="11.7540521"><ele>360.0</ele><time>2026-04-26T12:16:57.646Z</time></trkpt><trkpt lat="45.9863281" lon="11.7540006"><ele>360.0</ele><time>2026-04-26T12:16:59.632Z</time></trkpt><trkpt lat="45.9863748" lon="11.7540661"><ele>360.0</ele><time>2026-04-26T12:17:03.634Z</time></trkpt><trkpt lat="45.9864022" lon="11.754154"><ele>360.0</ele><time>2026-04-26T12:17:06.615Z</time></trkpt><trkpt lat="45.9864281" lon="11.7542671"><ele>360.0</ele><time>2026-04-26T12:17:10.62Z</time></trkpt><trkpt lat="45.9865059" lon="11.7542557"><ele>360.0</ele><time>2026-04-26T12:17:29.578Z</time></trkpt><trkpt lat="45.9866377" lon="11.7541692"><ele>360.0</ele><time>2026-04-26T12:17:30.683Z</time></trkpt><trkpt lat="45.986698" lon="11.7541367"><ele>362.4</ele><time>2026-04-26T12:17:31.707Z</time></trkpt><trkpt lat="45.9867578" lon="11.7540733"><ele>364.8</ele><time>2026-04-26T12:17:33.704Z</time></trkpt><trkpt lat="45.9868427" lon="11.7541019"><ele>367.20000000000005</ele><time>2026-04-26T12:17:38.689Z</time></trkpt><trkpt lat="45.9869134" lon="11.7540069"><ele>369.6</ele><time>2026-04-26T12:17:43.692Z</time></trkpt><trkpt lat="45.9867607" lon="11.7540562"><ele>372.0</ele><time>2026-04-26T12:17:54.704Z</time></trkpt><trkpt lat="45.9866879" lon="11.7541267"><ele>370.8333333333333</ele><time>2026-04-26T12:17:55.696Z</time></trkpt><trkpt lat="45.9866237" lon="11.7541687"><ele>369.6666666666667</ele><time>2026-04-26T12:17:56.69Z</time></trkpt><trkpt lat="45.9865578" lon="11.7542204"><ele>368.5</ele><time>2026-04-26T12:17:57.675Z</time></trkpt><trkpt lat="45.9865082" lon="11.754285"><ele>367.33333333333337</ele><time>2026-04-26T12:17:58.697Z</time></trkpt><trkpt lat="45.986424" lon="11.7544069"><ele>366.1666666666667</ele><time>2026-04-26T12:18:00.683Z</time></trkpt><trkpt lat="45.9863712" lon="11.7544661"><ele>365.0</ele><time>2026-04-26T12:18:01.684Z</time></trkpt><trkpt lat="45.9863123" lon="11.7545107"><ele>365.0</ele><time>2026-04-26T12:18:03.665Z</time></trkpt><trkpt lat="45.9863878" lon="11.7544675"><ele>365.0</ele><time>2026-04-26T12:18:11.711Z</time></trkpt><trkpt lat="45.9864511" lon="11.7543684"><ele>365.0</ele><time>2026-04-26T12:18:14.697Z</time></trkpt><trkpt lat="45.9863872" lon="11.7544596"><ele>365.0</ele><time>2026-04-26T12:18:21.698Z</time></trkpt><trkpt lat="45.9863989" lon="11.7545745"><ele>365.0</ele><time>2026-04-26T12:18:24.666Z</time></trkpt><trkpt lat="45.9864853" lon="11.7547248"><ele>365.0</ele><time>2026-04-26T12:18:26.702Z</time></trkpt><trkpt lat="45.9865683" lon="11.7548451"><ele>365.0</ele><time>2026-04-26T12:18:27.706Z</time></trkpt><trkpt lat="45.9866295" lon="11.7549359"><ele>365.0</ele><time>2026-04-26T12:18:28.693Z</time></trkpt><trkpt lat="45.9867067" lon="11.7549842"><ele>365.0</ele><time>2026-04-26T12:18:30.671Z</time></trkpt><trkpt lat="45.9867605" lon="11.7548706"><ele>365.0</ele><time>2026-04-26T12:18:33.688Z</time></trkpt><trkpt lat="45.9868407" lon="11.7547507"><ele>366.1666666666667</ele><time>2026-04-26T12:18:35.693Z</time></trkpt><trkpt lat="45.9868907" lon="11.7546887"><ele>367.33333333333337</ele><time>2026-04-26T12:18:36.669Z</time></trkpt><trkpt lat="45.9869448" lon="11.754621"><ele>368.5</ele><time>2026-04-26T12:18:37.692Z</time></trkpt><trkpt lat="45.9869989" lon="11.7545372"><ele>369.6666666666667</ele><time>2026-04-26T12:18:38.692Z</time></trkpt><trkpt lat="45.9870395" lon="11.7544529"><ele>370.8333333333333</ele><time>2026-04-26T12:18:39.68Z</time></trkpt><trkpt lat="45.9870734" lon="11.7543005"><ele>372.0</ele><time>2026-04-26T12:18:41.706Z</time></trkpt><trkpt lat="45.9871523" lon="11.7542015"><ele>372.0</ele><time>2026-04-26T12:18:43.695Z</time></trkpt><trkpt lat="45.9872364" lon="11.7541177"><ele>372.0</ele><time>2026-04-26T12:18:45.715Z</time></trkpt><trkpt lat="45.9873033" lon="11.7540574"><ele>372.0</ele><time>2026-04-26T12:18:47.689Z</time></trkpt><trkpt lat="45.9873531" lon="11.7539941"><ele>372.0</ele><time>2026-04-26T12:18:49.692Z</time></trkpt><trkpt lat="45.9874207" lon="11.7538855"><ele>372.0</ele><time>2026-04-26T12:18:51.707Z</time></trkpt><trkpt lat="45.9874641" lon="11.7538113"><ele>372.0</ele><time>2026-04-26T12:18:53.696Z</time></trkpt><trkpt lat="45.9874851" lon="11.7536865"><ele>373.3333333333333</ele><time>2026-04-26T12:18:58.68Z</time></trkpt><trkpt lat="45.9875906" lon="11.7535917"><ele>374.6666666666667</ele><time>2026-04-26T12:19:00.685Z</time></trkpt><trkpt lat="45.9876638" lon="11.7535644"><ele>376.0</ele><time>2026-04-26T12:19:01.684Z</time></trkpt><trkpt lat="45.987735" lon="11.7535405"><ele>377.33333333333337</ele><time>2026-04-26T12:19:02.687Z</time></trkpt><trkpt lat="45.9877988" lon="11.7535088"><ele>378.6666666666667</ele><time>2026-04-26T12:19:03.707Z</time></trkpt><trkpt lat="45.9878615" lon="11.7534753"><ele>380.0</ele><time>2026-04-26T12:19:04.716Z</time></trkpt><trkpt lat="45.9879417" lon="11.7534621"><ele>380.0</ele><time>2026-04-26T12:19:05.69Z</time></trkpt><trkpt lat="45.9880084" lon="11.75346"><ele>380.0</ele><time>2026-04-26T12:19:06.685Z</time></trkpt><trkpt lat="45.9880929" lon="11.7534621"><ele>380.0</ele><time>2026-04-26T12:19:08.664Z</time></trkpt><trkpt lat="45.988156" lon="11.7534683"><ele>380.0</ele><time>2026-04-26T12:19:09.683Z</time></trkpt><trkpt lat="45.9882217" lon="11.7534875"><ele>380.0</ele><time>2026-04-26T12:19:10.695Z</time></trkpt><trkpt lat="45.9883295" lon="11.7535568"><ele>380.0</ele><time>2026-04-26T12:19:12.678Z</time></trkpt><trkpt lat="45.9883953" lon="11.7536215"><ele>385.33333333333337</ele><time>2026-04-26T12:19:13.682Z</time></trkpt><trkpt lat="45.9884689" lon="11.7536841"><ele>390.6666666666667</ele><time>2026-04-26T12:19:14.705Z</time></trkpt><trkpt lat="45.9885412" lon="11.7537349"><ele>396.0</ele><time>2026-04-26T12:19:15.668Z</time></trkpt><trkpt lat="45.9886276" lon="11.7537856"><ele>401.33333333333337</ele><time>2026-04-26T12:19:16.692Z</time></trkpt><trkpt lat="45.988704" lon="11.7538452"><ele>406.6666666666667</ele><time>2026-04-26T12:19:17.671Z</time></trkpt><trkpt lat="45.9887797" lon="11.7539194"><ele>412.0</ele><time>2026-04-26T12:19:18.667Z</time></trkpt><trkpt lat="45.9888613" lon="11.7539768"><ele>411.99999999999994</ele><time>2026-04-26T12:19:19.693Z</time></trkpt><trkpt lat="45.9889336" lon="11.7540117"><ele>412.0</ele><time>2026-04-26T12:19:21.662Z</time></trkpt><trkpt lat="45.9889389" lon="11.7538898"><ele>412.0</ele><time>2026-04-26T12:19:24.691Z</time></trkpt><trkpt lat="45.9889587" lon="11.7537853"><ele>412.0</ele><time>2026-04-26T12:19:25.687Z</time></trkpt><trkpt lat="45.9889998" lon="11.753716"><ele>412.0</ele><time>2026-04-26T12:19:26.679Z</time></trkpt><trkpt lat="45.9890617" lon="11.7536569"><ele>411.99999999999994</ele><time>2026-04-26T12:19:28.68Z</time></trkpt><trkpt lat="45.9891087" lon="11.7537375"><ele>412.0</ele><time>2026-04-26T12:19:31.642Z</time></trkpt><trkpt lat="45.9891081" lon="11.7538316"><ele>412.0</ele><time>2026-04-26T12:19:32.67Z</time></trkpt><trkpt lat="45.9891616" lon="11.7538962"><ele>412.0</ele><time>2026-04-26T12:19:34.671Z</time></trkpt><trkpt lat="45.9892408" lon="11.7539097"><ele>412.0</ele><time>2026-04-26T12:19:39.702Z</time></trkpt><trkpt lat="45.9894058" lon="11.7537823"><ele>412.0</ele><time>2026-04-26T12:19:46.691Z</time></trkpt><trkpt lat="45.9894828" lon="11.7537012"><ele>412.0</ele><time>2026-04-26T12:19:49.683Z</time></trkpt><trkpt lat="45.9895141" lon="11.7536126"><ele>421.33333333333337</ele><time>2026-04-26T12:19:51.719Z</time></trkpt><trkpt lat="45.9895237" lon="11.7534983"><ele>430.66666666666663</ele><time>2026-04-26T12:19:55.697Z</time></trkpt><trkpt lat="45.9895885" lon="11.7534014"><ele>440.0</ele><time>2026-04-26T12:19:57.694Z</time></trkpt><trkpt lat="45.9898194" lon="11.7530315"><ele>440.0</ele><time>2026-04-26T12:19:59.705Z</time></trkpt><trkpt lat="45.9898786" lon="11.7528711"><ele>440.0</ele><time>2026-04-26T12:20:00.694Z</time></trkpt><trkpt lat="45.9899234" lon="11.7527353"><ele>440.0</ele><time>2026-04-26T12:20:01.669Z</time></trkpt><trkpt lat="45.9899498" lon="11.7525996"><ele>440.0</ele><time>2026-04-26T12:20:02.689Z</time></trkpt><trkpt lat="45.9899732" lon="11.7524889"><ele>440.0</ele><time>2026-04-26T12:20:03.691Z</time></trkpt><trkpt lat="45.9900176" lon="11.7523322"><ele>445.49999999999994</ele><time>2026-04-26T12:20:05.705Z</time></trkpt><trkpt lat="45.9901025" lon="11.7522815"><ele>451.0</ele><time>2026-04-26T12:20:07.696Z</time></trkpt><trkpt lat="45.9901732" lon="11.75227"><ele>456.5</ele><time>2026-04-26T12:20:08.717Z</time></trkpt><trkpt lat="45.9902397" lon="11.7522361"><ele>462.0</ele><time>2026-04-26T12:20:09.705Z</time></trkpt><trkpt lat="45.9903242" lon="11.7521863"><ele>467.49999999999994</ele><time>2026-04-26T12:20:11.697Z</time></trkpt><trkpt lat="45.99037" lon="11.7520769"><ele>473.0</ele><time>2026-04-26T12:20:14.686Z</time></trkpt><trkpt lat="45.9904408" lon="11.752032"><ele>472.99999999999994</ele><time>2026-04-26T12:20:17.709Z</time></trkpt><trkpt lat="45.9903985" lon="11.7521001"><ele>473.0</ele><time>2026-04-26T12:20:22.625Z</time></trkpt><trkpt lat="45.9903806" lon="11.7521887"><ele>473.0</ele><time>2026-04-26T12:20:23.681Z</time></trkpt><trkpt lat="45.9903681" lon="11.7522922"><ele>473.0</ele><time>2026-04-26T12:20:26.63Z</time></trkpt><trkpt lat="45.9903781" lon="11.7524231"><ele>472.99999999999994</ele><time>2026-04-26T12:20:28.731Z</time></trkpt><trkpt lat="45.9903905" lon="11.7526334"><ele>473.0</ele><time>2026-04-26T12:20:29.699Z</time></trkpt><trkpt lat="45.9904009" lon="11.7528078"><ele>474.79999999999995</ele><time>2026-04-26T12:20:30.695Z</time></trkpt><trkpt lat="45.9904234" lon="11.7529269"><ele>476.59999999999997</ele><time>2026-04-26T12:20:31.702Z</time></trkpt><trkpt lat="45.9904706" lon="11.7530882"><ele>478.40000000000003</ele><time>2026-04-26T12:20:33.698Z</time></trkpt><trkpt lat="45.9905127" lon="11.7532291"><ele>480.20000000000005</ele><time>2026-04-26T12:20:35.675Z</time></trkpt><trkpt lat="45.990557" lon="11.7533044"><ele>482.0</ele><time>2026-04-26T12:20:37.697Z</time></trkpt><trkpt lat="45.9906088" lon="11.7534015"><ele>481.99999999999994</ele><time>2026-04-26T12:20:56.709Z</time></trkpt><trkpt lat="45.9906259" lon="11.7534889"><ele>482.0</ele><time>2026-04-26T12:20:58.746Z</time></trkpt><trkpt lat="45.99062" lon="11.7536184"><ele>482.0</ele><time>2026-04-26T12:21:01.68Z</time></trkpt><trkpt lat="45.9906777" lon="11.7536651"><ele>482.0</ele><time>2026-04-26T12:21:04.695Z</time></trkpt><trkpt lat="45.9907513" lon="11.7537224"><ele>481.99999999999994</ele><time>2026-04-26T12:21:07.685Z</time></trkpt><trkpt lat="45.9907738" lon="11.7538129"><ele>482.0</ele><time>2026-04-26T12:21:10.695Z</time></trkpt><trkpt lat="45.9907925" lon="11.7539464"><ele>483.20000000000005</ele><time>2026-04-26T12:21:13.678Z</time></trkpt><trkpt lat="45.9908161" lon="11.7540767"><ele>484.40000000000003</ele><time>2026-04-26T12:21:15.691Z</time></trkpt><trkpt lat="45.9908404" lon="11.7542089"><ele>485.59999999999997</ele><time>2026-04-26T12:21:17.709Z</time></trkpt><trkpt lat="45.9908714" lon="11.754339"><ele>486.79999999999995</ele><time>2026-04-26T12:21:19.689Z</time></trkpt><trkpt lat="45.9909103" lon="11.7544496"><ele>488.0</ele><time>2026-04-26T12:21:21.71Z</time></trkpt><trkpt lat="45.9909572" lon="11.754562"><ele>492.3333333333333</ele><time>2026-04-26T12:21:23.675Z</time></trkpt><trkpt lat="45.990997" lon="11.754656"><ele>496.66666666666663</ele><time>2026-04-26T12:21:25.708Z</time></trkpt><trkpt lat="45.9910393" lon="11.7547698"><ele>501.0</ele><time>2026-04-26T12:21:27.74Z</time></trkpt><trkpt lat="45.99108" lon="11.7549027"><ele>505.33333333333337</ele><time>2026-04-26T12:21:29.648Z</time></trkpt><trkpt lat="45.9911073" lon="11.7550064"><ele>509.6666666666667</ele><time>2026-04-26T12:21:31.703Z</time></trkpt><trkpt lat="45.9911402" lon="11.755096"><ele>514.0</ele><time>2026-04-26T12:21:34.697Z</time></trkpt><trkpt lat="45.9911719" lon="11.7552128"><ele>514.0</ele><time>2026-04-26T12:21:38.679Z</time></trkpt><trkpt lat="45.9912171" lon="11.7552857"><ele>514.0</ele><time>2026-04-26T12:21:41.68Z</time></trkpt><trkpt lat="45.9912931" lon="11.7553025"><ele>514.0</ele><time>2026-04-26T12:21:45.681Z</time></trkpt><trkpt lat="45.9913733" lon="11.7553274"><ele>514.0</ele><time>2026-04-26T12:21:48.683Z</time></trkpt><trkpt lat="45.9914654" lon="11.7553674"><ele>514.0</ele><time>2026-04-26T12:21:51.729Z</time></trkpt><trkpt lat="45.9915467" lon="11.7552709"><ele>514.0</ele><time>2026-04-26T12:21:55.703Z</time></trkpt><trkpt lat="45.9916" lon="11.7552047"><ele>514.4</ele><time>2026-04-26T12:21:57.692Z</time></trkpt><trkpt lat="45.9916639" lon="11.7551329"><ele>514.8</ele><time>2026-04-26T12:21:59.672Z</time></trkpt><trkpt lat="45.9917445" lon="11.7550811"><ele>515.2</ele><time>2026-04-26T12:22:01.714Z</time></trkpt><trkpt lat="45.9918431" lon="11.755116"><ele>515.6</ele><time>2026-04-26T12:22:03.708Z</time></trkpt><trkpt lat="45.9919004" lon="11.7551807"><ele>516.0</ele><time>2026-04-26T12:22:05.695Z</time></trkpt><trkpt lat="45.9922029" lon="11.7553308"><ele>520.2</ele><time>2026-04-26T12:22:07.685Z</time></trkpt><trkpt lat="45.9923281" lon="11.7553563"><ele>524.4000000000001</ele><time>2026-04-26T12:22:08.701Z</time></trkpt><trkpt lat="45.9924052" lon="11.755328"><ele>528.6</ele><time>2026-04-26T12:22:09.718Z</time></trkpt><trkpt lat="45.9924866" lon="11.7552516"><ele>532.8000000000001</ele><time>2026-04-26T12:22:11.668Z</time></trkpt><trkpt lat="45.9924792" lon="11.7550663"><ele>537.0</ele><time>2026-04-26T12:22:13.686Z</time></trkpt><trkpt lat="45.9924652" lon="11.7549442"><ele>537.0</ele><time>2026-04-26T12:22:14.683Z</time></trkpt><trkpt lat="45.9924514" lon="11.7547807"><ele>537.0</ele><time>2026-04-26T12:22:15.694Z</time></trkpt><trkpt lat="45.9924476" lon="11.7545939"><ele>537.0</ele><time>2026-04-26T12:22:16.687Z</time></trkpt><trkpt lat="45.9924673" lon="11.7544589"><ele>537.0</ele><time>2026-04-26T12:22:17.7Z</time></trkpt><trkpt lat="45.99253" lon="11.7543855"><ele>537.0</ele><time>2026-04-26T12:22:18.712Z</time></trkpt><trkpt lat="45.9925932" lon="11.7543309"><ele>541.4285714285713</ele><time>2026-04-26T12:22:19.699Z</time></trkpt><trkpt lat="45.9926709" lon="11.7542876"><ele>545.8571428571429</ele><time>2026-04-26T12:22:20.708Z</time></trkpt><trkpt lat="45.9927401" lon="11.7542353"><ele>550.2857142857142</ele><time>2026-04-26T12:22:21.704Z</time></trkpt><trkpt lat="45.9927853" lon="11.7541578"><ele>554.7142857142857</ele><time>2026-04-26T12:22:22.688Z</time></trkpt><trkpt lat="45.9928036" lon="11.7540621"><ele>559.1428571428571</ele><time>2026-04-26T12:22:23.697Z</time></trkpt><trkpt lat="45.9928146" lon="11.7539671"><ele>563.5714285714286</ele><time>2026-04-26T12:22:24.7Z</time></trkpt><trkpt lat="45.9928245" lon="11.7538717"><ele>568.0</ele><time>2026-04-26T12:22:25.684Z</time></trkpt><trkpt lat="45.992839" lon="11.7537642"><ele>568.0</ele><time>2026-04-26T12:22:26.716Z</time></trkpt><trkpt lat="45.9928468" lon="11.7536451"><ele>568.0</ele><time>2026-04-26T12:22:27.702Z</time></trkpt><trkpt lat="45.9928404" lon="11.7535236"><ele>568.0</ele><time>2026-04-26T12:22:28.699Z</time></trkpt><trkpt lat="45.992839" lon="11.7534185"><ele>568.0</ele><time>2026-04-26T12:22:29.703Z</time></trkpt><trkpt lat="45.9928097" lon="11.7532626"><ele>568.0</ele><time>2026-04-26T12:22:31.719Z</time></trkpt><trkpt lat="45.9927959" lon="11.7530932"><ele>568.0</ele><time>2026-04-26T12:22:33.724Z</time></trkpt><trkpt lat="45.9928831" lon="11.7531386"><ele>568.0</ele><time>2026-04-26T12:22:36.677Z</time></trkpt><trkpt lat="45.9929239" lon="11.7532202"><ele>568.0</ele><time>2026-04-26T12:22:38.693Z</time></trkpt><trkpt lat="45.9929808" lon="11.7533352"><ele>568.0</ele><time>2026-04-26T12:22:40.696Z</time></trkpt><trkpt lat="45.9930208" lon="11.7534115"><ele>568.0</ele><time>2026-04-26T12:22:41.714Z</time></trkpt><trkpt lat="45.9930761" lon="11.7535242"><ele>568.0</ele><time>2026-04-26T12:22:43.705Z</time></trkpt><trkpt lat="45.9931231" lon="11.7536252"><ele>568.0</ele><time>2026-04-26T12:22:45.675Z</time></trkpt><trkpt lat="45.9931722" lon="11.7537349"><ele>568.0</ele><time>2026-04-26T12:22:47.705Z</time></trkpt><trkpt lat="45.9931839" lon="11.7538412"><ele>568.0</ele><time>2026-04-26T12:22:49.684Z</time></trkpt><trkpt lat="45.9931989" lon="11.7540183"><ele>568.0</ele><time>2026-04-26T12:22:51.703Z</time></trkpt><trkpt lat="45.9932375" lon="11.7541989"><ele>568.0</ele><time>2026-04-26T12:22:53.701Z</time></trkpt><trkpt lat="45.9932676" lon="11.7542928"><ele>567.8571428571429</ele><time>2026-04-26T12:22:54.719Z</time></trkpt><trkpt lat="45.9932965" lon="11.7543819"><ele>567.7142857142857</ele><time>2026-04-26T12:22:55.685Z</time></trkpt><trkpt lat="45.9933252" lon="11.7544757"><ele>567.5714285714286</ele><time>2026-04-26T12:22:56.704Z</time></trkpt><trkpt lat="45.9933509" lon="11.7545611"><ele>567.4285714285714</ele><time>2026-04-26T12:22:57.7Z</time></trkpt><trkpt lat="45.9933652" lon="11.7546671"><ele>567.2857142857142</ele><time>2026-04-26T12:22:59.702Z</time></trkpt><trkpt lat="45.9933905" lon="11.7547578"><ele>567.1428571428571</ele><time>2026-04-26T12:23:01.685Z</time></trkpt><trkpt lat="45.9934221" lon="11.754844"><ele>567.0</ele><time>2026-04-26T12:23:03.696Z</time></trkpt><trkpt lat="45.9934943" lon="11.7549199"><ele>574.8000000000001</ele><time>2026-04-26T12:23:05.696Z</time></trkpt><trkpt lat="45.9935711" lon="11.7549439"><ele>582.6</ele><time>2026-04-26T12:23:06.709Z</time></trkpt><trkpt lat="45.9936717" lon="11.7549789"><ele>590.4000000000001</ele><time>2026-04-26T12:23:07.696Z</time></trkpt><trkpt lat="45.9937513" lon="11.7550268"><ele>598.2</ele><time>2026-04-26T12:23:08.705Z</time></trkpt><trkpt lat="45.9936071" lon="11.755155"><ele>606.0</ele><time>2026-04-26T12:23:15.676Z</time></trkpt><trkpt lat="45.9935773" lon="11.7552616"><ele>606.3333333333334</ele><time>2026-04-26T12:23:19.6Z</time></trkpt><trkpt lat="45.993667" lon="11.755355"><ele>606.6666666666666</ele><time>2026-04-26T12:23:21.697Z</time></trkpt><trkpt lat="45.9937294" lon="11.7554132"><ele>607.0</ele><time>2026-04-26T12:23:22.717Z</time></trkpt><trkpt lat="45.9937813" lon="11.7554681"><ele>607.3333333333333</ele><time>2026-04-26T12:23:23.687Z</time></trkpt><trkpt lat="45.9938324" lon="11.7555491"><ele>607.6666666666666</ele><time>2026-04-26T12:23:25.704Z</time></trkpt><trkpt lat="45.9938215" lon="11.7556467"><ele>608.0</ele><time>2026-04-26T12:23:29.703Z</time></trkpt><trkpt lat="45.9937237" lon="11.7558712"><ele>608.0</ele><time>2026-04-26T12:23:30.718Z</time></trkpt><trkpt lat="45.9936656" lon="11.75576"><ele>608.0</ele><time>2026-04-26T12:23:34.687Z</time></trkpt><trkpt lat="45.9936314" lon="11.7556716"><ele>608.0</ele><time>2026-04-26T12:23:36.613Z</time></trkpt><trkpt lat="45.993611" lon="11.7555523"><ele>608.0</ele><time>2026-04-26T12:23:38.683Z</time></trkpt><trkpt lat="45.9935787" lon="11.7554333"><ele>608.0</ele><time>2026-04-26T12:23:40.705Z</time></trkpt><trkpt lat="45.9935696" lon="11.7553226"><ele>608.0</ele><time>2026-04-26T12:23:42.657Z</time></trkpt><trkpt lat="45.9936049" lon="11.7552243"><ele>607.6666666666666</ele><time>2026-04-26T12:23:44.72Z</time></trkpt><trkpt lat="45.9936327" lon="11.7551231"><ele>607.3333333333333</ele><time>2026-04-26T12:23:46.697Z</time></trkpt><trkpt lat="45.9935673" lon="11.7550811"><ele>607.0</ele><time>2026-04-26T12:23:49.707Z</time></trkpt><trkpt lat="45.9934942" lon="11.7549665"><ele>606.6666666666666</ele><time>2026-04-26T12:23:51.69Z</time></trkpt><trkpt lat="45.9934473" lon="11.754862"><ele>606.3333333333334</ele><time>2026-04-26T12:23:53.692Z</time></trkpt><trkpt lat="45.9934046" lon="11.7547338"><ele>606.0</ele><time>2026-04-26T12:23:55.705Z</time></trkpt><trkpt lat="45.9933768" lon="11.7546004"><ele>596.5</ele><time>2026-04-26T12:23:57.708Z</time></trkpt><trkpt lat="45.9933364" lon="11.7544074"><ele>587.0</ele><time>2026-04-26T12:23:59.695Z</time></trkpt><trkpt lat="45.9932965" lon="11.7542696"><ele>577.5</ele><time>2026-04-26T12:24:01.652Z</time></trkpt><trkpt lat="45.9932449" lon="11.7541126"><ele>568.0</ele><time>2026-04-26T12:24:03.713Z</time></trkpt><trkpt lat="45.9932095" lon="11.7539694"><ele>568.0</ele><time>2026-04-26T12:24:05.708Z</time></trkpt><trkpt lat="45.9931616" lon="11.7538137"><ele>568.0</ele><time>2026-04-26T12:24:07.702Z</time></trkpt><trkpt lat="45.993108" lon="11.7536914"><ele>568.0</ele><time>2026-04-26T12:24:09.687Z</time></trkpt><trkpt lat="45.9929492" lon="11.7533728"><ele>568.6666666666667</ele><time>2026-04-26T12:24:11.718Z</time></trkpt><trkpt lat="45.99287" lon="11.7531916"><ele>569.3333333333334</ele><time>2026-04-26T12:24:12.688Z</time></trkpt><trkpt lat="45.9928212" lon="11.7531118"><ele>570.0</ele><time>2026-04-26T12:24:13.71Z</time></trkpt><trkpt lat="45.9927484" lon="11.7531346"><ele>570.6666666666666</ele><time>2026-04-26T12:24:15.715Z</time></trkpt><trkpt lat="45.9927475" lon="11.7532382"><ele>571.3333333333333</ele><time>2026-04-26T12:24:17.683Z</time></trkpt><trkpt lat="45.9927368" lon="11.7533415"><ele>572.0</ele><time>2026-04-26T12:24:18.707Z</time></trkpt><trkpt lat="45.9927327" lon="11.7534811"><ele>571.2</ele><time>2026-04-26T12:24:19.689Z</time></trkpt><trkpt lat="45.9927293" lon="11.7536261"><ele>570.4000000000001</ele><time>2026-04-26T12:24:20.718Z</time></trkpt><trkpt lat="45.9927234" lon="11.7537687"><ele>569.5999999999999</ele><time>2026-04-26T12:24:21.696Z</time></trkpt><trkpt lat="45.9927123" lon="11.7539057"><ele>568.8</ele><time>2026-04-26T12:24:22.667Z</time></trkpt><trkpt lat="45.9926986" lon="11.7540403"><ele>568.0</ele><time>2026-04-26T12:24:23.685Z</time></trkpt><trkpt lat="45.9926811" lon="11.7541614"><ele>568.0</ele><time>2026-04-26T12:24:24.685Z</time></trkpt><trkpt lat="45.99265" lon="11.7542534"><ele>568.0</ele><time>2026-04-26T12:24:25.703Z</time></trkpt><trkpt lat="45.9926043" lon="11.7543179"><ele>568.0</ele><time>2026-04-26T12:24:26.713Z</time></trkpt><trkpt lat="45.9925002" lon="11.7543947"><ele>568.0</ele><time>2026-04-26T12:24:28.698Z</time></trkpt><trkpt lat="45.9924418" lon="11.7544347"><ele>568.0</ele><time>2026-04-26T12:24:29.703Z</time></trkpt><trkpt lat="45.9923999" lon="11.7545074"><ele>568.0</ele><time>2026-04-26T12:24:30.702Z</time></trkpt><trkpt lat="45.9923763" lon="11.7546003"><ele>563.0</ele><time>2026-04-26T12:24:31.701Z</time></trkpt><trkpt lat="45.9923654" lon="11.7546968"><ele>558.0</ele><time>2026-04-26T12:24:32.7Z</time></trkpt><trkpt lat="45.9923636" lon="11.7547881"><ele>553.0</ele><time>2026-04-26T12:24:33.702Z</time></trkpt><trkpt lat="45.992375" lon="11.7548963"><ele>548.0</ele><time>2026-04-26T12:24:34.71Z</time></trkpt><trkpt lat="45.9923878" lon="11.7550196"><ele>543.0</ele><time>2026-04-26T12:24:35.706Z</time></trkpt><trkpt lat="45.9924054" lon="11.7551338"><ele>538.0</ele><time>2026-04-26T12:24:36.704Z</time></trkpt><trkpt lat="45.9924087" lon="11.755276"><ele>538.0</ele><time>2026-04-26T12:24:38.702Z</time></trkpt><trkpt lat="45.9923467" lon="11.7553549"><ele>538.0</ele><time>2026-04-26T12:24:40.706Z</time></trkpt><trkpt lat="45.9922951" lon="11.7554322"><ele>538.0</ele><time>2026-04-26T12:24:44.69Z</time></trkpt><trkpt lat="45.9922988" lon="11.755602"><ele>538.0</ele><time>2026-04-26T12:24:46.703Z</time></trkpt><trkpt lat="45.9923144" lon="11.7557121"><ele>538.0</ele><time>2026-04-26T12:24:47.684Z</time></trkpt><trkpt lat="45.9923332" lon="11.7558438"><ele>538.0</ele><time>2026-04-26T12:24:48.683Z</time></trkpt><trkpt lat="45.9923522" lon="11.7559835"><ele>538.6</ele><time>2026-04-26T12:24:49.7Z</time></trkpt><trkpt lat="45.992372" lon="11.7561165"><ele>539.1999999999999</ele><time>2026-04-26T12:24:50.682Z</time></trkpt><trkpt lat="45.992392" lon="11.7562565"><ele>539.8</ele><time>2026-04-26T12:24:51.697Z</time></trkpt><trkpt lat="45.9924011" lon="11.7563951"><ele>540.4</ele><time>2026-04-26T12:24:52.708Z</time></trkpt><trkpt lat="45.992393" lon="11.7565305"><ele>541.0</ele><time>2026-04-26T12:24:53.703Z</time></trkpt><trkpt lat="45.9923709" lon="11.7566591"><ele>541.0</ele><time>2026-04-26T12:24:54.67Z</time></trkpt><trkpt lat="45.9923375" lon="11.7567929"><ele>541.0</ele><time>2026-04-26T12:24:55.694Z</time></trkpt><trkpt lat="45.9923108" lon="11.7569299"><ele>541.0</ele><time>2026-04-26T12:24:56.7Z</time></trkpt><trkpt lat="45.9922812" lon="11.7570624"><ele>541.0</ele><time>2026-04-26T12:24:57.705Z</time></trkpt><trkpt lat="45.9922513" lon="11.7571998"><ele>541.0</ele><time>2026-04-26T12:24:58.706Z</time></trkpt><trkpt lat="45.9922191" lon="11.7573391"><ele>541.4</ele><time>2026-04-26T12:24:59.699Z</time></trkpt><trkpt lat="45.9921866" lon="11.7574805"><ele>541.8</ele><time>2026-04-26T12:25:00.704Z</time></trkpt><trkpt lat="45.9921561" lon="11.7576189"><ele>542.1999999999999</ele><time>2026-04-26T12:25:01.69Z</time></trkpt><trkpt lat="45.9921283" lon="11.7577643"><ele>542.6</ele><time>2026-04-26T12:25:02.708Z</time></trkpt><trkpt lat="45.9921061" lon="11.757905"><ele>543.0</ele><time>2026-04-26T12:25:03.705Z</time></trkpt><trkpt lat="45.9920988" lon="11.758045"><ele>543.0</ele><time>2026-04-26T12:25:04.706Z</time></trkpt><trkpt lat="45.9921153" lon="11.7581854"><ele>543.0</ele><time>2026-04-26T12:25:05.702Z</time></trkpt><trkpt lat="45.9921446" lon="11.7583245"><ele>543.0</ele><time>2026-04-26T12:25:06.701Z</time></trkpt><trkpt lat="45.9921796" lon="11.7584682"><ele>543.0</ele><time>2026-04-26T12:25:07.714Z</time></trkpt><trkpt lat="45.9922314" lon="11.7586535"><ele>543.0</ele><time>2026-04-26T12:25:08.707Z</time></trkpt><trkpt lat="45.992293" lon="11.7588672"><ele>543.0</ele><time>2026-04-26T12:25:09.705Z</time></trkpt><trkpt lat="45.9923449" lon="11.7590373"><ele>543.0</ele><time>2026-04-26T12:25:10.679Z</time></trkpt><trkpt lat="45.9923946" lon="11.7591829"><ele>543.0</ele><time>2026-04-26T12:25:11.716Z</time></trkpt><trkpt lat="45.9924384" lon="11.7593022"><ele>543.0</ele><time>2026-04-26T12:25:12.712Z</time></trkpt><trkpt lat="45.9924734" lon="11.7593912"><ele>543.0</ele><time>2026-04-26T12:25:13.709Z</time></trkpt><trkpt lat="45.9925613" lon="11.7594798"><ele>545.6666666666666</ele><time>2026-04-26T12:25:15.702Z</time></trkpt><trkpt lat="45.9926824" lon="11.7594664"><ele>548.3333333333334</ele><time>2026-04-26T12:25:17.699Z</time></trkpt><trkpt lat="45.9927501" lon="11.7594431"><ele>551.0</ele><time>2026-04-26T12:25:18.689Z</time></trkpt><trkpt lat="45.9928301" lon="11.7594249"><ele>553.6666666666667</ele><time>2026-04-26T12:25:19.713Z</time></trkpt><trkpt lat="45.9929056" lon="11.7594003"><ele>556.3333333333334</ele><time>2026-04-26T12:25:20.714Z</time></trkpt><trkpt lat="45.9929781" lon="11.7593858"><ele>559.0</ele><time>2026-04-26T12:25:21.696Z</time></trkpt><trkpt lat="45.9930532" lon="11.7593796"><ele>559.0</ele><time>2026-04-26T12:25:22.712Z</time></trkpt><trkpt lat="45.9931266" lon="11.7593745"><ele>559.0</ele><time>2026-04-26T12:25:23.703Z</time></trkpt><trkpt lat="45.9931953" lon="11.7593629"><ele>559.0</ele><time>2026-04-26T12:25:24.694Z</time></trkpt><trkpt lat="45.9933092" lon="11.7593404"><ele>559.0</ele><time>2026-04-26T12:25:26.692Z</time></trkpt><trkpt lat="45.9934345" lon="11.7593247"><ele>559.0</ele><time>2026-04-26T12:25:28.717Z</time></trkpt><trkpt lat="45.9934989" lon="11.7593218"><ele>559.0</ele><time>2026-04-26T12:25:29.709Z</time></trkpt><trkpt lat="45.9935659" lon="11.7593279"><ele>563.8333333333334</ele><time>2026-04-26T12:25:30.69Z</time></trkpt><trkpt lat="45.9936392" lon="11.7593405"><ele>568.6666666666667</ele><time>2026-04-26T12:25:31.683Z</time></trkpt><trkpt lat="45.9937033" lon="11.7593502"><ele>573.5</ele><time>2026-04-26T12:25:32.7Z</time></trkpt><trkpt lat="45.9937876" lon="11.7594169"><ele>578.3333333333334</ele><time>2026-04-26T12:25:34.704Z</time></trkpt><trkpt lat="45.9938178" lon="11.7595047"><ele>583.1666666666666</ele><time>2026-04-26T12:25:36.692Z</time></trkpt><trkpt lat="45.9938742" lon="11.7595553"><ele>588.0</ele><time>2026-04-26T12:25:38.714Z</time></trkpt><trkpt lat="45.9939769" lon="11.7595625"><ele>588.0</ele><time>2026-04-26T12:25:40.704Z</time></trkpt><trkpt lat="45.9940452" lon="11.7595408"><ele>588.0</ele><time>2026-04-26T12:25:41.708Z</time></trkpt><trkpt lat="45.9941447" lon="11.7594778"><ele>588.0</ele><time>2026-04-26T12:25:43.682Z</time></trkpt><trkpt lat="45.9942077" lon="11.7593811"><ele>588.0</ele><time>2026-04-26T12:25:45.706Z</time></trkpt><trkpt lat="45.9942723" lon="11.7592599"><ele>588.0</ele><time>2026-04-26T12:25:47.707Z</time></trkpt><trkpt lat="45.9943935" lon="11.7592946"><ele>590.6666666666666</ele><time>2026-04-26T12:25:50.709Z</time></trkpt><trkpt lat="45.9944892" lon="11.7593393"><ele>593.3333333333334</ele><time>2026-04-26T12:25:52.705Z</time></trkpt><trkpt lat="45.9945018" lon="11.7594466"><ele>596.0</ele><time>2026-04-26T12:25:56.696Z</time></trkpt><trkpt lat="45.9945407" lon="11.7595208"><ele>598.6666666666667</ele><time>2026-04-26T12:25:57.689Z</time></trkpt><trkpt lat="45.9945987" lon="11.759614"><ele>601.3333333333334</ele><time>2026-04-26T12:25:58.671Z</time></trkpt><trkpt lat="45.9946601" lon="11.7596717"><ele>604.0</ele><time>2026-04-26T12:25:59.678Z</time></trkpt><trkpt lat="45.9947312" lon="11.759704"><ele>604.0</ele><time>2026-04-26T12:26:00.721Z</time></trkpt><trkpt lat="45.9947947" lon="11.7597324"><ele>604.0</ele><time>2026-04-26T12:26:01.703Z</time></trkpt><trkpt lat="45.9948458" lon="11.7598021"><ele>604.0</ele><time>2026-04-26T12:26:02.688Z</time></trkpt><trkpt lat="45.9948457" lon="11.7599521"><ele>604.0</ele><time>2026-04-26T12:26:04.703Z</time></trkpt><trkpt lat="45.9949351" lon="11.7599742"><ele>604.0</ele><time>2026-04-26T12:26:08.689Z</time></trkpt><trkpt lat="45.9950322" lon="11.7599169"><ele>604.0</ele><time>2026-04-26T12:26:10.676Z</time></trkpt><trkpt lat="45.9950643" lon="11.7597536"><ele>636.0</ele><time>2026-04-26T12:26:12.7Z</time></trkpt><trkpt lat="45.9950265" lon="11.7596765"><ele>636.0</ele><time>2026-04-26T12:26:14.669Z</time></trkpt></trkseg></trk></gpx>